# Wetter Temperatur Luftdruck Luftfeuchtigkeit Sichtweite Windgeschwindigkeit Windrichtung Zeit
1 Clouds 14 1017 35 10000 2.13 250 14:26 01.02.2023
2 Clouds 12 1017 44 10000 2.25 254 13:20 01.02.2023
3 Clouds 12 1017 42 10000 2.11 255 12:49 01.02.2023
4 Clouds 10 1017 53 10000 1.89 263 11:56 01.02.2023
5 Clear 10 1015 65 10000 1.99 266 08:43 01.02.2023
6 Clear 20 1013 36 10000 2.88 246 00:43 01.02.2023
7 Clear 26 1011 21 10000 3.08 234 21:36 31.01.2023
8 Clear 26 1012 23 10000 2.23 225 19:48 31.01.2023
9 Clear 23 1013 26 10000 1.76 224 18:29 31.01.2023
10 Clear 21 1015 35 10000 1.7 334 15:36 31.01.2023
11 Clear 18 1016 40 10000 0.08 357 15:18 31.01.2023
12 Clear 15 1016 48 10000 0.13 140 14:18 31.01.2023
13 Clear 11 1018 69 10000 0.04 253 12:19 31.01.2023
14 Clear 9 1018 83 10000 0.94 247 10:27 31.01.2023
15 Clear 9 1018 83 10000 0.94 247 09:51 31.01.2023
16 Clear 9 1018 82 10000 1.22 252 08:59 31.01.2023
17 Clear 9 1018 82 10000 1.22 252 08:34 31.01.2023
18 Clear 12 1017 57 10000 2.25 247 05:29 31.01.2023
19 Clear 21 1013 28 10000 3.44 214 23:40 30.01.2023
20 Clear 22 1012 25 10000 3.75 213 22:50 30.01.2023
21 Clear 23 1012 24 10000 3.59 215 21:48 30.01.2023
22 Clear 23 1012 24 10000 3.97 222 20:45 30.01.2023
23 Clouds 23 1012 29 10000 4.53 231 18:55 30.01.2023
24 Clouds 22 1011 38 10000 4.97 250 17:26 30.01.2023
25 Clouds 19 1011 59 10000 3.46 272 14:48 30.01.2023
26 Clouds 19 1011 59 10000 3.46 272 14:48 30.01.2023
27 Clouds 17 1011 74 10000 2.7 292 13:56 30.01.2023
28 Clouds 15 1011 85 10000 2.29 288 12:18 30.01.2023
29 Clouds 13 1010 91 10000 2.49 299 10:24 30.01.2023
30 Clouds 13 1010 91 10000 2.49 299 09:53 30.01.2023
31 Clear 13 1010 93 10000 2.72 284 08:30 30.01.2023
32 Clear 14 1010 91 10000 3.18 277 06:23 30.01.2023
33 Clear 22 1007 53 10000 3.88 258 00:50 30.01.2023
34 Clear 27 1006 36 10000 4.36 257 23:31 29.01.2023
35 Clear 29 1005 28 10000 4.44 263 22:36 29.01.2023
36 Clear 31 1005 24 10000 4.35 266 20:54 29.01.2023
37 Clear 28 1007 39 10000 3.31 273 20:19 29.01.2023
38 Clear 30 1006 28 10000 3.61 251 19:32 29.01.2023
39 Clear 28 1008 30 10000 2.85 247 17:55 29.01.2023
40 Clear 25 1010 35 10000 1.59 256 16:22 29.01.2023
41 Clear 25 1010 35 10000 1.59 256 15:51 29.01.2023
42 Clear 20 1012 49 10000 1.23 259 14:20 29.01.2023
43 Clear 17 1013 59 10000 1.25 262 12:59 29.01.2023
44 Clear 17 1013 59 10000 1.25 262 12:36 29.01.2023
45 Clear 15 1014 70 10000 1.23 266 12:18 29.01.2023
46 Clear 15 1014 70 10000 1.23 266 11:36 29.01.2023
47 Clear 12 1014 83 10000 1.4 261 10:45 29.01.2023
48 Clear 12 1013 86 10000 1.62 263 08:30 29.01.2023
49 Clear 15 1015 74 10000 2.47 269 03:43 29.01.2023
50 Clear 24 1013 40 10000 3.58 249 23:50 28.01.2023
51 Clear 27 1012 31 10000 3.42 249 20:52 28.01.2023
52 Clear 26 1012 31 10000 3.2 250 19:54 28.01.2023
53 Clear 25 1013 30 10000 2.88 252 18:52 28.01.2023
54 Clear 22 1015 35 10000 2.3 257 17:27 28.01.2023
55 Clear 22 1015 35 10000 2.3 257 16:40 28.01.2023
56 Clear 19 1016 39 10000 2.04 255 16:18 28.01.2023
57 Clear 17 1017 45 10000 1.93 248 15:22 28.01.2023
58 Clear 15 1017 51 10000 1.89 250 13:48 28.01.2023
59 Clear 10 1019 68 10000 1.73 264 12:21 28.01.2023
60 Clear 8 1019 78 10000 2.02 266 10:35 28.01.2023
61 Clear 8 1018 79 10000 2.24 273 09:30 28.01.2023
62 Clouds 13 1016 54 10000 3.09 273 02:27 28.01.2023
63 Clouds 19 1013 31 10000 4.29 267 00:28 28.01.2023
64 Clear 21 1012 27 10000 4.96 267 22:46 27.01.2023
65 Clear 22 1012 23 10000 4.13 276 19:47 27.01.2023
66 Clear 20 1013 25 10000 2.58 261 17:58 27.01.2023
67 Clouds 18 1014 30 10000 2.07 267 17:20 27.01.2023
68 Clouds 18 1014 30 10000 2.07 267 16:41 27.01.2023
69 Clouds 14 1016 44 10000 2.46 261 15:25 27.01.2023
70 Clouds 12 1017 54 10000 1.98 250 14:26 27.01.2023
71 Clouds 12 1017 54 10000 1.98 250 13:33 27.01.2023
72 Clouds 7 1018 83 10000 2.23 266 09:30 27.01.2023
73 Clouds 8 1017 81 10000 2.7 268 06:30 27.01.2023
74 Clouds 14 1012 46 10000 4.42 274 00:27 27.01.2023
75 Clouds 16 1010 39 10000 6.96 280 21:57 26.01.2023
76 Clouds 17 1010 36 10000 7.07 278 20:55 26.01.2023
77 Clouds 18 1010 36 10000 7.05 280 19:57 26.01.2023
78 Clouds 17 1009 39 10000 6.02 285 17:56 26.01.2023
79 Clouds 16 1009 44 10000 5.56 287 16:30 26.01.2023
80 Clouds 14 1009 51 10000 5.05 288 16:00 26.01.2023
81 Clouds 14 1009 51 10000 5.05 288 15:41 26.01.2023
82 Clouds 13 1009 58 10000 4.27 284 15:22 26.01.2023
83 Clouds 12 1010 66 10000 3.61 280 13:47 26.01.2023
84 Rain 11 1009 73 10000 2.91 278 12:31 26.01.2023
85 Clouds 10 1009 81 10000 3.06 299 10:34 26.01.2023
86 Clouds 10 1008 81 10000 3.34 294 09:44 26.01.2023
87 Clouds 10 1008 81 10000 3.5 302 09:19 26.01.2023
88 Clouds 11 1009 76 10000 3.32 302 06:27 26.01.2023
89 Clouds 13 1008 61 10000 5.24 282 23:41 25.01.2023
90 Clouds 14 1007 55 10000 5.64 279 22:43 25.01.2023
91 Clouds 15 1008 49 10000 5.58 278 21:25 25.01.2023
92 Clouds 15 1008 49 10000 5.58 278 20:59 25.01.2023
93 Clouds 15 1009 49 10000 4.99 285 18:24 25.01.2023
94 Clouds 11 1010 65 10000 3.59 293 15:58 25.01.2023
95 Clouds 10 1011 73 10000 3.61 295 14:30 25.01.2023
96 Clouds 7 1013 80 10000 2.8 311 11:53 25.01.2023
97 Clouds 5 1013 91 10000 2.57 312 09:52 25.01.2023
98 Clouds 6 1013 91 10000 2.53 309 09:18 25.01.2023
99 Clouds 7 1013 82 10000 2.1 290 06:18 25.01.2023
100 Clouds 13 1011 49 10000 6.16 283 00:27 25.01.2023
101 Clouds 15 1009 37 10000 8.2 281 21:55 24.01.2023
102 Clouds 16 1009 36 10000 8.81 279 21:26 24.01.2023
103 Clouds 16 1010 36 10000 8.88 280 19:28 24.01.2023
104 Clouds 15 1011 38 10000 8.21 280 18:29 24.01.2023
105 Clouds 14 1011 41 10000 8.31 285 17:18 24.01.2023
106 Clouds 14 1011 41 10000 8.31 285 16:47 24.01.2023
107 Clear 11 1010 48 10000 6.29 272 13:57 24.01.2023
108 Clouds 8 1010 77 10000 3.51 277 12:21 24.01.2023
109 Clouds 7 1006 89 10000 3.08 273 08:53 24.01.2023
110 Clouds 8 1005 87 10000 3.49 271 08:19 24.01.2023
111 Clouds 8 1005 87 10000 3.49 271 07:49 24.01.2023
112 Rain 15 999 81 10000 4.64 255 02:54 24.01.2023
113 Clouds 18 998 61 10000 4.32 305 00:41 24.01.2023
114 Clear 21 999 47 10000 8.91 304 23:29 23.01.2023
115 Clear 24 1000 33 10000 9.52 295 20:54 23.01.2023
116 Clear 25 1002 29 10000 9.17 295 19:24 23.01.2023
117 Clear 23 1003 29 10000 4.88 300 17:29 23.01.2023
118 Clear 21 1004 28 10000 2.94 291 15:32 23.01.2023
119 Clear 17 1006 44 10000 2.19 281 13:57 23.01.2023
120 Clear 15 1008 55 10000 2.09 283 12:56 23.01.2023
121 Clear 12 1008 69 10000 2.06 293 12:21 23.01.2023
122 Clear 10 1009 81 10000 2.3 289 11:29 23.01.2023
123 Clear 11 1009 80 10000 2.39 283 08:25 23.01.2023
124 Clouds 21 1009 31 10000 3.6 260 00:27 23.01.2023
125 Clouds 23 1009 28 10000 4.44 259 22:20 22.01.2023
126 Clouds 24 1009 28 10000 4.58 260 21:19 22.01.2023
127 Clouds 23 1009 29 10000 4.47 263 20:22 22.01.2023
128 Clouds 23 1009 29 10000 4.47 263 19:45 22.01.2023
129 Clear 23 1010 29 10000 4.42 254 18:48 22.01.2023
130 Clear 22 1010 30 10000 4.26 255 17:56 22.01.2023
131 Clear 21 1011 33 10000 3.85 261 17:24 22.01.2023
132 Clear 20 1011 38 10000 3.75 263 15:30 22.01.2023
133 Clear 18 1011 46 10000 3.1 262 14:43 22.01.2023
134 Clouds 15 1012 75 10000 2.71 278 13:28 22.01.2023
135 Clouds 15 1012 75 10000 2.71 278 12:32 22.01.2023
136 Clouds 14 1012 85 10000 2.99 280 11:34 22.01.2023
137 Rain 13 1012 90 10000 3.01 286 09:35 22.01.2023
138 Rain 14 1012 84 10000 2.03 273 05:41 22.01.2023
139 Clouds 18 1010 64 10000 3.83 269 23:49 21.01.2023
140 Clouds 19 1010 56 10000 4.7 271 23:29 21.01.2023
141 Clouds 20 1010 50 10000 5.78 257 21:35 21.01.2023
142 Clouds 21 1010 47 10000 4.86 261 19:23 21.01.2023
143 Clouds 21 1010 48 10000 5.02 256 16:41 21.01.2023
144 Clouds 16 1012 72 10000 3.03 262 14:24 21.01.2023
145 Clouds 14 1013 82 10000 2.62 268 12:57 21.01.2023
146 Clouds 13 1014 87 10000 2.57 268 11:42 21.01.2023
147 Clouds 12 1014 94 10000 2.52 268 10:49 21.01.2023
148 Clouds 11 1014 96 10000 2.66 265 08:50 21.01.2023
149 Clouds 13 1013 81 10000 3.61 271 04:31 21.01.2023
150 Clouds 25 1008 29 10000 6.06 241 22:28 20.01.2023
151 Clouds 25 1008 29 10000 6.06 241 21:38 20.01.2023
152 Clouds 26 1008 26 10000 6.93 245 20:55 20.01.2023
153 Clouds 26 1008 24 10000 5.25 249 19:20 20.01.2023
154 Clouds 25 1009 30 10000 3.79 254 16:37 20.01.2023
155 Clouds 21 1011 42 10000 2.41 252 14:46 20.01.2023
156 Clouds 19 1011 47 10000 2.96 256 13:51 20.01.2023
157 Clouds 14 1012 60 10000 2.55 266 10:24 20.01.2023
158 Clouds 15 1011 62 10000 2.58 266 08:51 20.01.2023
159 Rain 19 1011 67 10000 1.92 331 04:22 20.01.2023
160 Clouds 21 1011 63 10000 2.26 28 02:29 20.01.2023
161 Clouds 27 1007 40 10000 2.84 347 22:32 19.01.2023
162 Clear 33 1006 22 10000 5.13 256 20:25 19.01.2023
163 Clouds 32 1006 23 10000 4.3 228 19:28 19.01.2023
164 Clear 29 1010 33 10000 0.66 243 16:29 19.01.2023
165 Clouds 22 1012 47 10000 0.6 250 12:50 19.01.2023
166 Clouds 17 1012 69 10000 1.07 268 09:00 19.01.2023
167 Clouds 25 1012 35 10000 2.46 248 00:45 19.01.2023
168 Clouds 30 1011 20 10000 2.62 273 21:22 18.01.2023
169 Clouds 30 1012 21 10000 1.85 271 20:20 18.01.2023
170 Clouds 30 1012 21 10000 1.85 271 19:37 18.01.2023
171 Clouds 28 1013 26 10000 0.6 254 17:49 18.01.2023
172 Clouds 25 1015 36 10000 0.5 165 15:48 18.01.2023
173 Clouds 21 1016 45 10000 0.59 211 13:30 18.01.2023
174 Clouds 14 1017 72 10000 0.95 255 11:25 18.01.2023
175 Clear 13 1017 75 10000 1.33 260 08:47 18.01.2023
176 Clouds 22 1014 48 10000 2.71 231 01:28 18.01.2023
177 Clouds 25 1013 37 10000 3.94 230 23:54 17.01.2023
178 Clouds 27 1012 27 10000 3.3 220 20:38 17.01.2023
179 Clouds 27 1013 26 10000 2.75 207 19:35 17.01.2023
180 Clear 27 1013 27 10000 2.29 208 18:30 17.01.2023
181 Clear 25 1014 32 10000 1.1 197 16:34 17.01.2023
182 Clear 21 1015 46 10000 0.31 203 14:57 17.01.2023
183 Clouds 18 1016 54 10000 1.2 220 14:20 17.01.2023
184 Clouds 16 1016 62 10000 0.71 246 12:48 17.01.2023
185 Clouds 14 1016 72 10000 1.02 264 11:42 17.01.2023
186 Clouds 11 1016 84 10000 2.09 251 09:34 17.01.2023
187 Clouds 12 1015 84 10000 1.95 252 07:54 17.01.2023
188 Clear 15 1014 67 10000 2.58 248 03:57 17.01.2023
189 Clear 20 1011 42 10000 2.79 230 00:57 17.01.2023
190 Clear 24 1010 30 10000 3.65 222 23:38 16.01.2023
191 Clear 26 1009 22 10000 2.9 221 21:52 16.01.2023
192 Clear 25 1010 21 10000 2.31 221 20:27 16.01.2023
193 Clear 25 1010 21 10000 2.31 221 19:35 16.01.2023
194 Clear 24 1011 22 10000 2.11 224 18:53 16.01.2023
195 Clear 23 1011 23 10000 1.82 226 18:21 16.01.2023
196 Clear 23 1011 23 10000 1.82 226 17:35 16.01.2023
197 Clear 17 1014 34 10000 1.33 228 14:38 16.01.2023
198 Clear 15 1014 42 10000 1.25 237 13:38 16.01.2023
199 Clouds 7 1016 73 10000 1.75 254 10:32 16.01.2023
200 Clouds 7 1016 76 10000 1.72 257 09:53 16.01.2023
201 Clear 22 1012 29 10000 3.86 248 23:22 15.01.2023
202 Clear 22 1012 26 10000 3.91 250 21:42 15.01.2023
203 Clear 23 1012 23 10000 3.86 252 20:35 15.01.2023
204 Clear 22 1013 22 10000 3.17 251 19:44 15.01.2023
205 Clouds 20 1015 22 10000 2.15 246 17:40 15.01.2023
206 Clouds 14 1018 39 10000 1.98 249 15:22 15.01.2023
207 Clouds 9 1020 66 10000 1.86 253 12:31 15.01.2023
208 Clouds 7 1021 80 10000 1.88 260 11:35 15.01.2023
209 Clouds 4 1021 93 10000 2.08 275 10:28 15.01.2023
210 Clouds 4 1021 93 10000 2.08 275 09:34 15.01.2023
211 Clear 10 1018 74 10000 3.12 259 01:47 15.01.2023
212 Clouds 16 1014 46 10000 4.26 248 22:45 14.01.2023
213 Clouds 17 1014 45 10000 4.47 253 21:55 14.01.2023
214 Clouds 17 1014 45 10000 4.47 253 21:36 14.01.2023
215 Clouds 17 1014 45 10000 4.47 253 21:36 14.01.2023
216 Clouds 17 1014 45 10000 5.02 255 21:18 14.01.2023
217 Clouds 17 1014 45 10000 5.02 255 21:18 14.01.2023
218 Clouds 17 1014 48 10000 4.85 262 20:28 14.01.2023
219 Clouds 16 1013 54 10000 4.58 275 18:29 14.01.2023
220 Clouds 15 1013 55 10000 3.23 259 15:48 14.01.2023
221 Clouds 13 1014 59 10000 2.92 258 15:26 14.01.2023
222 Clouds 12 1014 59 10000 2.69 263 14:24 14.01.2023
223 Clouds 12 1014 59 10000 2.69 263 13:32 14.01.2023
224 Clouds 7 1015 87 10000 2.33 275 10:51 14.01.2023
225 Clouds 7 1015 89 10000 2.5 270 09:43 14.01.2023
226 Clear 11 1012 80 10000 3.35 255 02:50 14.01.2023
227 Clouds 21 1008 41 10000 4.39 240 23:21 13.01.2023
228 Clouds 21 1008 41 10000 4.39 240 22:42 13.01.2023
229 Clouds 22 1008 36 10000 4.51 241 21:58 13.01.2023
230 Clouds 24 1008 33 10000 4.35 245 20:49 13.01.2023
231 Clouds 22 1009 39 10000 3.61 248 19:28 13.01.2023
232 Clouds 21 1010 41 10000 3.75 245 17:42 13.01.2023
233 Clouds 15 1014 55 10000 2.84 256 15:20 13.01.2023
234 Clouds 8 1017 82 10000 2.37 271 12:25 13.01.2023
235 Clouds 7 1017 90 10000 2.31 272 10:43 13.01.2023
236 Clouds 6 1018 93 10000 2.4 269 10:23 13.01.2023
237 Clouds 6 1018 93 10000 2.4 269 09:44 13.01.2023
238 Clouds 7 1017 92 10000 2.38 265 08:51 13.01.2023
239 Clouds 8 1017 87 10000 2.25 271 06:57 13.01.2023
240 Clouds 8 1017 87 10000 2.29 267 06:27 13.01.2023
241 Clear 12 1016 75 10000 3.17 250 02:20 13.01.2023
242 Clear 18 1014 47 10000 4.05 235 22:52 12.01.2023
243 Clear 19 1014 44 10000 3.97 235 21:56 12.01.2023
244 Clear 19 1014 42 10000 4.06 233 20:52 12.01.2023
245 Clouds 17 1015 44 10000 3.65 241 18:27 12.01.2023
246 Clouds 16 1016 47 10000 3.58 241 16:59 12.01.2023
247 Clouds 13 1018 56 10000 3.2 248 14:58 12.01.2023
248 Clouds 13 1018 56 10000 3.2 248 14:38 12.01.2023
249 Clouds 11 1019 64 10000 2.65 252 14:18 12.01.2023
250 Clouds 8 1020 82 10000 2.18 270 12:29 12.01.2023
251 Clouds 6 1021 92 10000 2.01 279 10:26 12.01.2023
252 Clouds 5 1021 96 10000 2.31 260 07:27 12.01.2023
253 Clouds 11 1019 63 10000 3.8 254 00:32 12.01.2023
254 Clouds 12 1018 55 10000 4.26 256 23:57 11.01.2023
255 Clouds 12 1018 55 10000 4.26 256 23:37 11.01.2023
256 Clouds 13 1018 53 10000 4.58 257 23:19 11.01.2023
257 Clouds 14 1018 48 10000 5.19 251 21:22 11.01.2023
258 Clouds 14 1018 45 10000 4.96 252 18:51 11.01.2023
259 Clouds 14 1018 49 10000 4.88 255 17:37 11.01.2023
260 Clouds 11 1019 57 10000 4.74 264 15:52 11.01.2023
261 Clouds 9 1020 61 10000 3.6 267 13:59 11.01.2023
262 Clouds 8 1022 66 10000 3.13 266 12:33 11.01.2023
263 Clouds 6 1022 78 10000 3.1 266 11:39 11.01.2023
264 Clouds 4 1022 93 10000 2.9 269 09:29 11.01.2023
265 Clouds 4 1021 91 10000 3.12 272 07:30 11.01.2023
266 Clouds 5 1021 86 10000 3.23 270 06:24 11.01.2023
267 Clouds 13 1015 41 10000 5.04 254 23:45 10.01.2023
268 Clouds 14 1014 38 10000 5.16 260 22:19 10.01.2023
269 Rain 16 1013 39 10000 6.09 262 21:20 10.01.2023
270 Rain 16 1013 44 10000 4.92 260 19:55 10.01.2023
271 Rain 15 1014 46 10000 4.12 267 19:27 10.01.2023
272 Rain 15 1014 47 10000 3.84 269 18:37 10.01.2023
273 Rain 14 1015 56 10000 3.71 264 17:26 10.01.2023
274 Rain 13 1015 61 10000 2.82 255 15:33 10.01.2023
275 Clouds 12 1016 70 10000 2.4 240 14:47 10.01.2023
276 Clouds 10 1017 86 10000 2.64 240 13:25 10.01.2023
277 Clouds 10 1016 92 10000 2.7 238 10:36 10.01.2023
278 Rain 11 1015 92 10000 1.91 233 08:37 10.01.2023
279 Rain 11 1015 90 10000 2.03 243 07:56 10.01.2023
280 Clouds 11 1016 89 10000 1.9 250 07:23 10.01.2023
281 Clouds 15 1013 82 10000 2.96 264 00:29 10.01.2023
282 Rain 15 1012 85 10000 3.28 245 21:58 09.01.2023
283 Rain 16 1012 81 10000 3.76 248 20:50 09.01.2023
284 Clouds 16 1012 79 10000 3.74 249 19:54 09.01.2023
285 Clouds 17 1011 70 10000 3.44 245 18:23 09.01.2023
286 Clouds 17 1011 70 10000 3.44 245 17:49 09.01.2023
287 Clouds 18 1011 65 10000 3.37 245 16:34 09.01.2023
288 Clouds 19 1010 59 10000 3.03 245 15:36 09.01.2023
289 Clouds 19 1010 58 10000 2.8 257 14:54 09.01.2023
290 Clouds 18 1011 59 10000 2.78 258 14:33 09.01.2023
291 Clouds 16 1011 70 10000 1.96 269 12:54 09.01.2023
292 Clouds 14 1011 79 10000 2.35 282 11:51 09.01.2023
293 Clouds 13 1011 87 10000 2.13 295 11:19 09.01.2023
294 Clouds 13 1011 87 10000 2.13 295 11:19 09.01.2023
295 Clear 14 1010 80 10000 2.49 279 06:56 09.01.2023
296 Clear 17 1011 62 10000 2.89 260 02:55 09.01.2023
297 Clouds 22 1009 40 10000 3.18 248 00:58 09.01.2023
298 Clouds 29 1008 21 10000 5.67 277 21:50 08.01.2023
299 Clouds 29 1008 21 10000 5.79 286 21:21 08.01.2023
300 Clouds 29 1008 21 10000 5.79 286 20:33 08.01.2023
301 Clouds 29 1010 23 10000 4.26 284 17:59 08.01.2023
302 Clouds 27 1011 27 10000 2.79 272 17:21 08.01.2023
303 Clouds 25 1011 32 10000 2.1 266 15:49 08.01.2023
304 Clouds 25 1011 32 10000 2.1 266 15:49 08.01.2023
305 Clouds 25 1011 32 10000 2.1 266 15:30 08.01.2023
306 Clouds 21 1013 49 10000 1.63 267 13:58 08.01.2023
307 Clouds 19 1014 58 10000 1.68 266 13:29 08.01.2023
308 Clouds 17 1014 66 10000 1.65 265 12:24 08.01.2023
309 Clouds 16 1014 69 10000 1.54 265 09:39 08.01.2023
310 Clouds 17 1014 67 10000 1.68 266 09:18 08.01.2023
311 Clouds 17 1014 67 10000 0.96 276 07:41 08.01.2023
312 Clouds 25 1013 33 10000 2.9 247 23:58 07.01.2023
313 Clouds 26 1012 29 10000 3.53 264 22:46 07.01.2023
314 Clouds 27 1012 26 10000 3.66 275 22:22 07.01.2023
315 Clouds 27 1012 26 10000 3.66 275 21:40 07.01.2023
316 Clouds 27 1012 26 10000 2.93 278 20:31 07.01.2023
317 Clouds 26 1014 29 10000 2.6 287 19:28 07.01.2023
318 Clouds 24 1014 32 10000 2.22 282 18:23 07.01.2023
319 Clouds 24 1014 32 10000 2.22 282 17:43 07.01.2023
320 Clouds 22 1015 37 10000 1.23 278 16:55 07.01.2023
321 Clouds 21 1015 45 10000 1.38 282 16:29 07.01.2023
322 Clouds 21 1015 45 10000 1.38 282 15:45 07.01.2023
323 Clouds 18 1016 54 10000 1.46 265 15:22 07.01.2023
324 Clouds 17 1016 61 10000 1.67 270 14:26 07.01.2023
325 Clouds 17 1016 61 10000 1.67 270 13:43 07.01.2023
326 Clouds 15 1016 65 10000 1.99 264 13:22 07.01.2023
327 Clouds 15 1015 67 10000 1.97 262 12:21 07.01.2023
328 Clouds 14 1015 69 10000 2.2 264 10:41 07.01.2023
329 Clouds 14 1014 67 10000 2.19 270 10:18 07.01.2023
330 Clouds 15 1013 60 10000 2.04 280 08:18 07.01.2023
331 Clouds 15 1013 60 10000 2.04 280 07:43 07.01.2023
332 Clouds 15 1013 57 10000 1.97 291 06:46 07.01.2023
333 Clouds 23 1010 29 10000 3.6 266 23:53 06.01.2023
334 Clouds 26 1009 24 10000 5.94 282 22:22 06.01.2023
335 Clouds 26 1009 24 10000 5.94 282 21:53 06.01.2023
336 Clouds 26 1009 25 10000 6.71 285 20:38 06.01.2023
337 Clouds 27 1009 25 10000 6.61 293 19:56 06.01.2023
338 Clouds 27 1009 25 10000 6.61 293 19:38 06.01.2023
339 Clouds 26 1009 25 10000 5.46 289 19:20 06.01.2023
340 Clouds 26 1010 25 10000 3.86 287 17:55 06.01.2023
341 Clouds 25 1010 27 10000 2.95 283 16:53 06.01.2023
342 Clouds 23 1011 31 10000 2.28 274 16:23 06.01.2023
343 Clouds 23 1011 31 10000 2.28 274 15:52 06.01.2023
344 Clouds 23 1011 31 10000 2.28 274 15:30 06.01.2023
345 Clouds 19 1012 41 10000 2.11 282 13:42 06.01.2023
346 Clear 15 1013 58 10000 2.21 282 11:52 06.01.2023
347 Clear 13 1013 69 10000 2.17 292 10:34 06.01.2023
348 Clear 12 1013 72 10000 2.56 283 08:49 06.01.2023
349 Clear 15 1013 62 10000 2.92 276 05:22 06.01.2023
350 Clouds 27 1009 25 10000 5.6 275 22:56 05.01.2023
351 Clouds 27 1009 25 10000 5.6 275 22:30 05.01.2023
352 Clouds 29 1009 22 10000 5.6 281 20:34 05.01.2023
353 Clouds 27 1011 22 10000 2.84 254 17:30 05.01.2023
354 Clouds 26 1011 28 10000 2.55 249 16:48 05.01.2023
355 Clouds 24 1012 35 10000 2.05 249 15:48 05.01.2023
356 Clouds 22 1013 41 10000 1.71 245 15:20 05.01.2023
357 Clouds 21 1013 41 10000 0.8 271 13:34 05.01.2023
358 Clouds 18 1014 51 10000 0.65 278 12:39 05.01.2023
359 Clouds 11 1015 78 10000 0.58 243 10:19 05.01.2023
360 Clouds 11 1015 78 10000 0.58 243 09:36 05.01.2023
361 Clear 12 1015 87 10000 0.79 260 07:26 05.01.2023
362 Clear 12 1015 87 10000 0.79 260 06:38 05.01.2023
363 Clear 12 1015 87 10000 0.79 260 06:38 05.01.2023
364 Clouds 23 1013 43 10000 3.88 215 00:28 05.01.2023
365 Clouds 25 1013 37 10000 4.25 219 22:23 04.01.2023
366 Clouds 25 1013 37 10000 4.34 219 21:29 04.01.2023
367 Clouds 25 1013 39 10000 4.27 220 19:58 04.01.2023
368 Clouds 25 1013 39 10000 4.27 220 19:36 04.01.2023
369 Clouds 25 1013 39 10000 4.47 219 19:36 04.01.2023
370 Clouds 25 1013 42 10000 4.16 226 19:18 04.01.2023
371 Clouds 22 1015 51 10000 3.4 242 16:58 04.01.2023
372 Clouds 22 1015 51 10000 3.4 242 16:30 04.01.2023
373 Clouds 22 1015 51 10000 3.4 242 16:30 04.01.2023
374 Clouds 18 1016 64 10000 2.82 246 14:49 04.01.2023
375 Clouds 12 1017 89 10000 2.24 261 11:45 04.01.2023
376 Clouds 11 1017 93 10000 2.14 261 11:22 04.01.2023
377 Clouds 11 1017 93 10000 2.14 261 10:44 04.01.2023
378 Clouds 11 1018 94 8129 2.63 261 10:24 04.01.2023
379 Clouds 11 1018 95 4561 2.52 262 08:58 04.01.2023
380 Clouds 10 1018 98 8721 2.65 266 05:37 04.01.2023
381 Clouds 14 1017 81 10000 3.72 270 00:39 04.01.2023
382 Clouds 16 1016 72 10000 4.39 274 23:36 03.01.2023
383 Clouds 17 1016 66 10000 4.77 275 22:55 03.01.2023
384 Clouds 19 1016 60 10000 5.31 269 20:59 03.01.2023
385 Clouds 19 1016 58 10000 5.06 263 19:50 03.01.2023
386 Clouds 18 1015 58 10000 4.41 264 17:38 03.01.2023
387 Clouds 16 1016 61 10000 4.17 258 16:39 03.01.2023
388 Clouds 12 1018 73 10000 3.51 267 13:56 03.01.2023
389 Clouds 12 1018 73 10000 3.51 267 13:31 03.01.2023
390 Clouds 11 1018 74 10000 3.56 266 13:31 03.01.2023
391 Clouds 9 1018 81 10000 3.27 270 12:58 03.01.2023
392 Clouds 9 1018 81 10000 3.27 270 12:30 03.01.2023
393 Clouds 8 1018 86 10000 3.4 264 11:32 03.01.2023
394 Clouds 8 1016 98 1824 4.01 270 07:50 03.01.2023
395 Clouds 8 1015 96 10000 4.17 274 04:22 03.01.2023
396 Clouds 8 1015 96 10000 4.17 274 03:44 03.01.2023
397 Clouds 9 1015 92 10000 4.16 274 01:56 03.01.2023
398 Clouds 10 1014 80 10000 4.69 279 22:42 02.01.2023
399 Clouds 10 1014 80 10000 3.72 287 22:19 02.01.2023
400 Clouds 10 1014 80 10000 3.26 296 20:40 02.01.2023
401 Clouds 10 1014 80 10000 3.38 295 19:52 02.01.2023
402 Clouds 10 1014 74 10000 3.5 284 17:53 02.01.2023
403 Clouds 11 1014 61 10000 5.88 295 15:23 02.01.2023
404 Clouds 9 1015 74 10000 3.9 280 13:25 02.01.2023
405 Clouds 7 1016 82 10000 3.92 284 11:57 02.01.2023
406 Clouds 6 1016 92 10000 3.51 284 10:43 02.01.2023
407 Clouds 7 1016 89 10000 3.78 283 07:33 02.01.2023
408 Clouds 12 1015 50 10000 5.27 279 00:58 02.01.2023
409 Clouds 15 1013 41 10000 5.24 270 22:32 01.01.2023
410 Clouds 15 1013 40 10000 5.12 269 21:30 01.01.2023
411 Clouds 16 1013 39 10000 5.25 268 20:47 01.01.2023
412 Clouds 16 1013 38 10000 5.38 266 19:42 01.01.2023
413 Clouds 17 1013 34 10000 6.25 264 17:56 01.01.2023
414 Clouds 16 1014 35 10000 5.35 269 17:20 01.01.2023
415 Clouds 16 1014 35 10000 5.35 269 16:32 01.01.2023
416 Clouds 12 1016 51 10000 3.13 275 14:47 01.01.2023
417 Clouds 9 1017 63 10000 3.62 275 13:38 01.01.2023
418 Clouds 7 1019 74 10000 2.85 275 12:39 01.01.2023
419 Clouds 6 1018 82 10000 2.54 279 11:36 01.01.2023
420 Clouds 5 1017 90 10000 2.94 289 10:35 01.01.2023
421 Clouds 6 1015 95 10000 3.48 282 08:49 01.01.2023
422 Clouds 7 1014 91 10000 3.23 269 08:18 01.01.2023
423 Rain 9 1014 82 10000 3.53 271 06:58 01.01.2023
424 Clouds 15 1006 34 10000 6.07 304 00:52 01.01.2023
425 Clouds 17 1006 26 10000 8.23 302 23:41 31.12.2022
426 Clouds 19 1005 24 10000 8.52 298 22:32 31.12.2022
427 Clouds 21 1005 22 10000 9.09 299 21:34 31.12.2022
428 Clouds 21 1005 22 10000 9.09 299 21:34 31.12.2022
429 Clouds 22 1005 22 10000 9.31 298 20:43 31.12.2022
430 Clouds 23 1005 24 10000 8.11 294 19:32 31.12.2022
431 Clouds 23 1006 29 10000 6.68 289 18:40 31.12.2022
432 Clouds 23 1006 28 10000 6.02 287 18:18 31.12.2022
433 Clouds 23 1006 28 10000 6.02 287 17:43 31.12.2022
434 Clouds 22 1007 35 10000 4.12 286 16:38 31.12.2022
435 Clouds 20 1008 48 10000 3.11 276 15:59 31.12.2022
436 Clouds 17 1010 57 10000 2.7 274 14:35 31.12.2022
437 Clouds 13 1012 72 10000 2.29 272 13:28 31.12.2022
438 Clouds 13 1011 66 10000 2.24 276 12:38 31.12.2022
439 Clouds 11 1013 75 10000 2.08 280 12:18 31.12.2022
440 Clouds 11 1013 75 10000 2.08 280 12:18 31.12.2022
441 Clouds 11 1013 75 10000 2.08 280 11:43 31.12.2022
442 Clouds 7 1014 90 10000 2.03 291 10:20 31.12.2022
443 Clouds 7 1014 90 10000 2.03 291 09:50 31.12.2022
444 Clouds 8 1014 90 10000 1.98 289 08:44 31.12.2022
445 Clouds 9 1015 87 10000 1.99 274 06:51 31.12.2022
446 Clouds 13 1014 69 10000 3.14 258 00:34 31.12.2022
447 Clouds 16 1013 55 10000 5.64 261 23:27 30.12.2022
448 Clouds 17 1014 51 10000 7.13 261 22:19 30.12.2022
449 Clouds 17 1014 51 10000 7.13 261 21:39 30.12.2022
450 Clouds 17 1014 50 10000 6.74 257 21:21 30.12.2022
451 Clouds 17 1015 51 10000 4.95 262 18:35 30.12.2022
452 Clouds 17 1015 49 10000 4.83 258 17:35 30.12.2022
453 Clouds 17 1014 45 10000 5.1 263 16:49 30.12.2022
454 Clouds 15 1014 46 10000 3.51 264 14:55 30.12.2022
455 Clouds 11 1014 55 10000 3.23 251 12:56 30.12.2022
456 Clouds 7 1016 89 10000 3.27 275 08:24 30.12.2022
457 Clouds 11 1015 82 10000 3.95 270 04:24 30.12.2022
458 Clouds 12 1014 73 10000 3.84 262 02:27 30.12.2022
459 Clouds 16 1013 52 10000 4.37 253 23:46 29.12.2022
460 Clouds 19 1012 46 10000 4.83 263 21:56 29.12.2022
461 Clouds 20 1013 45 10000 5.35 262 21:25 29.12.2022
462 Clouds 20 1013 45 10000 5.35 262 20:46 29.12.2022
463 Clouds 21 1013 44 10000 5.53 263 19:21 29.12.2022
464 Clouds 21 1013 45 10000 5.55 258 17:53 29.12.2022
465 Clouds 21 1014 44 10000 4.5 256 17:25 29.12.2022
466 Clouds 21 1014 44 10000 4.5 256 16:54 29.12.2022
467 Clouds 19 1014 44 10000 3.31 262 15:49 29.12.2022
468 Clouds 14 1017 58 10000 2.55 262 13:41 29.12.2022
469 Clouds 11 1018 74 10000 2.69 272 11:52 29.12.2022
470 Clouds 8 1020 88 10000 2.67 268 09:47 29.12.2022
471 Clouds 12 1020 78 10000 3.28 270 03:35 29.12.2022
472 Clouds 21 1017 42 10000 4.48 249 23:29 28.12.2022
473 Clouds 22 1017 38 10000 4.42 252 21:57 28.12.2022
474 Clouds 23 1017 35 10000 4.34 251 21:19 28.12.2022
475 Clear 22 1017 34 10000 4.17 250 19:54 28.12.2022
476 Clouds 20 1018 33 10000 3.61 249 18:25 28.12.2022
477 Clouds 16 1020 38 10000 3.25 250 16:20 28.12.2022
478 Clouds 10 1023 51 10000 2.95 256 13:46 28.12.2022
479 Clouds 8 1024 59 10000 2.8 250 12:48 28.12.2022
480 Clouds 6 1024 70 10000 2.87 259 11:33 28.12.2022
481 Clouds 3 1024 89 10000 2.48 266 09:28 28.12.2022
482 Clouds 3 1024 88 10000 2.62 260 07:30 28.12.2022
483 Clear 4 1024 83 10000 2.59 259 06:44 28.12.2022
484 Clouds 15 1017 30 10000 5.48 250 00:29 28.12.2022
485 Clouds 19 1015 24 10000 7.17 245 21:18 27.12.2022
486 Clear 20 1015 23 10000 6.48 244 19:50 27.12.2022
487 Clouds 19 1016 22 10000 5.26 257 18:21 27.12.2022
488 Clouds 18 1017 22 10000 4.04 258 16:44 27.12.2022
489 Clouds 16 1017 24 10000 3.56 256 15:49 27.12.2022
490 Clouds 12 1019 39 10000 3.18 256 13:57 27.12.2022
491 Clouds 8 1021 64 10000 2.93 262 11:42 27.12.2022
492 Clouds 5 1021 84 10000 2.41 266 09:47 27.12.2022
493 Clear 5 1020 86 10000 2.14 257 09:23 27.12.2022
494 Clear 6 1019 85 10000 2.49 262 08:21 27.12.2022
495 Clouds 9 1017 73 10000 3.27 268 04:32 27.12.2022
496 Clouds 21 1010 23 10000 6.31 251 22:48 26.12.2022
497 Clear 24 1009 26 10000 8.67 258 21:25 26.12.2022
498 Clear 24 1009 26 10000 8.67 258 20:42 26.12.2022
499 Clear 25 1008 31 10000 8.64 264 18:44 26.12.2022
500 Clear 25 1008 29 10000 7.47 264 17:51 26.12.2022
501 Clear 24 1008 27 10000 4.46 263 16:21 26.12.2022
502 Clear 22 1009 31 10000 3.34 259 14:30 26.12.2022
503 Clear 18 1010 45 10000 2.73 261 12:47 26.12.2022
504 Clear 14 1010 74 10000 2.48 273 07:59 26.12.2022
505 Clouds 26 1011 36 10000 2.76 246 23:56 25.12.2022
506 Clouds 26 1011 36 10000 2.76 246 23:38 25.12.2022
507 Clouds 29 1011 24 10000 2.96 250 22:27 25.12.2022
508 Clouds 29 1011 24 10000 2.96 250 21:48 25.12.2022
509 Clouds 28 1013 23 10000 1.73 274 18:50 25.12.2022
510 Clouds 27 1014 23 10000 1.25 286 17:52 25.12.2022
511 Clouds 27 1014 23 10000 1.25 286 17:34 25.12.2022
512 Clear 23 1016 28 10000 0.45 48 15:21 25.12.2022
513 Clear 16 1019 51 10000 0.51 296 12:26 25.12.2022
514 Clear 11 1020 71 10000 0.66 302 08:39 25.12.2022
515 Clouds 22 1020 28 10000 2.28 209 23:30 24.12.2022
516 Clouds 23 1020 22 10000 2.35 207 21:25 24.12.2022
517 Clouds 20 1022 26 10000 1.4 195 17:59 24.12.2022
518 Clouds 19 1023 29 10000 0.75 187 16:32 24.12.2022
519 Clouds 15 1025 41 10000 0.34 142 14:52 24.12.2022
520 Clear 10 1027 58 10000 0.27 93 12:42 24.12.2022
521 Clear 5 1029 81 10000 0.19 292 10:39 24.12.2022
522 Clouds 3 1029 90 10000 0.64 256 10:20 24.12.2022
523 Clouds 3 1029 90 10000 0.64 256 09:36 24.12.2022
524 Clear 6 1026 76 10000 1.86 255 05:46 24.12.2022
525 Clear 6 1026 76 10000 1.86 255 05:46 24.12.2022
526 Clear 13 1022 50 10000 2.29 232 00:52 24.12.2022
527 Clear 15 1020 39 10000 2.84 229 23:35 23.12.2022
528 Clear 16 1019 34 10000 3.83 226 21:55 23.12.2022
529 Clear 16 1018 32 10000 4.06 241 20:22 23.12.2022
530 Clear 16 1018 32 10000 4.06 241 19:39 23.12.2022
531 Clear 15 1018 33 10000 4.29 245 19:21 23.12.2022
532 Clear 15 1018 33 10000 4.29 245 18:38 23.12.2022
533 Clear 14 1019 34 10000 4.57 246 18:18 23.12.2022
534 Clouds 12 1020 40 10000 4.09 264 16:25 23.12.2022
535 Clouds 10 1020 46 10000 3.99 270 14:42 23.12.2022
536 Clouds 4 1022 87 10000 2.91 278 10:56 23.12.2022
537 Clouds 3 1021 91 10000 2.66 277 09:36 23.12.2022
538 Clouds 4 1019 89 10000 2.81 279 07:45 23.12.2022
539 Clouds 4 1019 87 10000 2.97 281 06:50 23.12.2022
540 Clouds 6 1019 80 10000 3.24 270 05:19 23.12.2022
541 Clouds 12 1012 39 10000 8.77 284 23:20 22.12.2022
542 Clouds 13 1011 37 10000 9.23 279 21:56 22.12.2022
543 Clouds 14 1010 37 10000 9.62 272 19:56 22.12.2022
544 Clouds 14 1009 39 10000 8.69 270 19:22 22.12.2022
545 Clouds 14 1009 42 10000 8.51 271 17:59 22.12.2022
546 Clouds 13 1008 52 10000 8.4 276 16:54 22.12.2022
547 Clouds 13 1008 58 10000 7.71 285 15:48 22.12.2022
548 Clouds 11 1007 66 10000 6.82 287 15:29 22.12.2022
549 Clouds 11 1007 68 10000 6.31 280 14:28 22.12.2022
550 Clouds 11 1007 68 10000 6.31 280 13:31 22.12.2022
551 Rain 10 1006 72 10000 4.65 270 12:29 22.12.2022
552 Rain 11 1004 86 10000 4.25 257 10:31 22.12.2022
553 Rain 13 1001 79 10000 3.15 329 09:24 22.12.2022
554 Rain 13 1001 79 10000 3.15 329 08:53 22.12.2022
555 Clouds 13 1001 77 10000 3.45 354 07:52 22.12.2022
556 Clouds 13 1005 80 10000 2.2 338 04:19 22.12.2022
557 Clouds 17 1006 61 10000 2.59 267 00:46 22.12.2022
558 Clouds 20 1006 46 10000 4.06 270 22:29 21.12.2022
559 Clouds 20 1006 46 10000 4.06 270 21:46 21.12.2022
560 Clouds 21 1006 41 10000 3.89 275 20:59 21.12.2022
561 Clouds 21 1006 41 10000 3.89 275 20:31 21.12.2022
562 Clouds 21 1006 40 10000 3.46 273 19:47 21.12.2022
563 Clouds 21 1007 40 10000 3.66 261 19:28 21.12.2022
564 Clouds 21 1007 39 10000 4.62 273 18:51 21.12.2022
565 Clouds 21 1007 39 10000 4.62 273 18:33 21.12.2022
566 Clouds 19 1008 46 10000 2.77 288 15:50 21.12.2022
567 Clouds 16 1010 62 10000 2.05 307 14:18 21.12.2022
568 Clouds 13 1011 73 10000 1.93 319 11:50 21.12.2022
569 Clouds 12 1011 79 10000 1.94 307 11:20 21.12.2022
570 Clouds 11 1011 81 10000 2.04 306 10:26 21.12.2022
571 Clouds 11 1011 82 10000 2.19 309 08:48 21.12.2022
572 Clouds 11 1011 82 10000 2.31 301 06:30 21.12.2022
573 Clouds 19 1010 47 10000 4.72 288 00:24 21.12.2022
574 Clouds 22 1009 37 10000 5.68 287 21:47 20.12.2022
575 Clouds 22 1009 34 10000 5.79 290 20:51 20.12.2022
576 Clouds 22 1010 33 10000 5.74 288 19:43 20.12.2022
577 Clouds 22 1010 33 10000 5.75 287 18:47 20.12.2022
578 Clouds 22 1010 34 10000 4.7 290 18:22 20.12.2022
579 Clouds 22 1010 34 10000 4.7 290 17:47 20.12.2022
580 Clouds 21 1010 38 10000 3.63 286 16:57 20.12.2022
581 Clouds 19 1011 44 10000 2.71 276 15:49 20.12.2022
582 Clouds 17 1011 51 10000 2.86 273 14:50 20.12.2022
583 Clouds 17 1011 51 10000 2.86 273 14:50 20.12.2022
584 Clouds 16 1012 57 10000 2.72 273 14:29 20.12.2022
585 Clouds 15 1012 62 10000 2.58 275 13:25 20.12.2022
586 Clouds 15 1012 61 10000 2.45 270 12:32 20.12.2022
587 Clouds 13 1012 67 10000 2.09 275 11:42 20.12.2022
588 Clouds 11 1011 78 10000 2.14 280 09:41 20.12.2022
589 Clouds 14 1010 75 10000 2.16 284 04:41 20.12.2022
590 Clouds 21 1007 44 10000 2.66 232 23:46 19.12.2022
591 Clouds 24 1007 32 10000 3.08 250 21:56 19.12.2022
592 Clouds 24 1008 32 10000 2.9 263 20:28 19.12.2022
593 Clouds 24 1008 32 10000 2.9 263 19:39 19.12.2022
594 Clouds 24 1008 31 10000 2.73 269 18:42 19.12.2022
595 Clouds 24 1008 32 10000 2.12 267 17:36 19.12.2022
596 Clouds 18 1012 45 10000 0.2 14 13:55 19.12.2022
597 Clouds 13 1013 63 10000 0.68 51 12:21 19.12.2022
598 Clouds 11 1014 62 10000 0.26 303 10:55 19.12.2022
599 Clouds 10 1014 67 10000 0.27 246 07:44 19.12.2022
600 Clouds 13 1014 57 10000 1.59 250 03:48 19.12.2022
601 Clouds 21 1010 28 10000 3.18 244 22:40 18.12.2022
602 Clouds 21 1010 26 10000 3.67 254 21:46 18.12.2022
603 Clouds 21 1010 26 10000 3.42 259 21:22 18.12.2022
604 Clouds 21 1010 26 10000 3.42 259 20:32 18.12.2022
605 Clouds 21 1010 26 10000 3.5 261 19:41 18.12.2022
606 Clouds 20 1010 29 10000 2.67 259 18:29 18.12.2022
607 Clouds 18 1011 33 10000 2.59 254 17:22 18.12.2022
608 Clouds 17 1012 38 10000 2.37 262 15:40 18.12.2022
609 Clouds 15 1012 46 10000 2.48 268 15:19 18.12.2022
610 Clouds 13 1013 55 10000 2.65 260 14:20 18.12.2022
611 Clouds 11 1014 67 10000 2.63 268 12:57 18.12.2022
612 Clouds 11 1014 67 10000 2.63 268 12:57 18.12.2022
613 Clouds 11 1014 67 10000 2.63 268 12:30 18.12.2022
614 Clouds 8 1014 90 10000 2.59 281 10:50 18.12.2022
615 Clear 7 1013 93 10000 2.62 274 08:47 18.12.2022
616 Clear 8 1013 91 10000 2.47 276 07:43 18.12.2022
617 Clouds 9 1012 86 10000 2.91 274 06:21 18.12.2022
618 Clouds 11 1012 75 10000 3.39 270 03:40 18.12.2022
619 Clouds 13 1011 60 10000 3.4 268 01:48 18.12.2022
620 Clear 19 1008 37 10000 5.09 260 22:21 17.12.2022
621 Clouds 19 1008 39 10000 4.76 256 19:42 17.12.2022
622 Clouds 19 1008 43 10000 5.1 264 17:18 17.12.2022
623 Clear 17 1008 42 10000 3.52 261 14:44 17.12.2022
624 Clouds 12 1010 47 10000 2.38 270 11:55 17.12.2022
625 Clouds 10 1011 56 10000 2.28 263 10:49 17.12.2022
626 Clouds 10 1010 58 10000 2.19 262 09:46 17.12.2022
627 Clouds 10 1009 58 10000 2.25 264 08:32 17.12.2022
628 Clouds 11 1009 55 10000 2.9 263 06:46 17.12.2022
629 Clear 23 1005 35 10000 3.29 256 23:57 16.12.2022
630 Clear 26 1005 24 10000 5.03 264 21:34 16.12.2022
631 Clear 27 1006 26 10000 3.63 266 19:57 16.12.2022
632 Clear 24 1010 36 10000 2.02 254 17:19 16.12.2022
633 Clear 20 1012 46 10000 1.1 262 14:49 16.12.2022
634 Clear 18 1013 54 10000 0.92 265 13:50 16.12.2022
635 Clouds 13 1015 74 10000 0.62 295 12:18 16.12.2022
636 Clouds 11 1016 85 10000 1.26 259 10:42 16.12.2022
637 Clouds 9 1016 90 10000 1.02 260 09:26 16.12.2022
638 Clouds 10 1016 90 10000 1.03 263 08:25 16.12.2022
639 Clouds 10 1016 90 10000 1.03 263 07:53 16.12.2022
640 Clouds 19 1017 47 10000 2.7 226 23:31 15.12.2022
641 Clouds 21 1016 36 10000 2.81 230 22:29 15.12.2022
642 Clouds 22 1017 34 10000 2.82 232 20:40 15.12.2022
643 Clouds 21 1018 33 10000 2.66 224 19:37 15.12.2022
644 Clear 20 1019 33 10000 2.52 235 18:24 15.12.2022
645 Clear 18 1020 34 10000 2.52 239 17:25 15.12.2022
646 Clear 17 1021 37 10000 2.49 246 15:35 15.12.2022
647 Clear 17 1021 37 10000 2.49 246 15:35 15.12.2022
648 Clear 13 1022 53 10000 2.2 247 13:36 15.12.2022
649 Clouds 11 1023 64 10000 2.28 251 12:33 15.12.2022
650 Clouds 6 1024 91 10000 3.42 268 09:41 15.12.2022
651 Clouds 7 1023 89 10000 3.08 265 08:53 15.12.2022
652 Clouds 7 1022 93 10000 2.55 274 06:19 15.12.2022
653 Clouds 8 1022 92 10000 2.64 272 04:41 15.12.2022
654 Clouds 17 1014 42 10000 5.79 273 21:25 14.12.2022
655 Clouds 17 1014 42 10000 5.79 273 20:59 14.12.2022
656 Clouds 17 1014 42 10000 5.72 276 20:29 14.12.2022
657 Clouds 15 1014 54 10000 3.58 265 18:26 14.12.2022
658 Clouds 14 1014 58 10000 3.34 257 16:57 14.12.2022
659 Clouds 13 1013 62 10000 3.63 266 15:40 14.12.2022
660 Clouds 12 1013 72 10000 2.95 264 13:52 14.12.2022
661 Clouds 8 1013 89 10000 2.44 282 11:22 14.12.2022
662 Clouds 8 1013 89 10000 2.44 282 10:34 14.12.2022
663 Clouds 7 1011 95 10000 2.75 288 08:51 14.12.2022
664 Clouds 16 1009 53 10000 4.51 281 22:50 13.12.2022
665 Clouds 17 1009 51 10000 4.93 280 21:48 13.12.2022
666 Clouds 17 1009 52 10000 5.35 285 20:48 13.12.2022
667 Clouds 18 1009 49 10000 5.36 279 20:19 13.12.2022
668 Clouds 18 1009 49 10000 5.27 280 17:40 13.12.2022
669 Clouds 18 1009 49 10000 5.27 280 17:40 13.12.2022
670 Clouds 16 1010 52 10000 3.44 277 15:45 13.12.2022
671 Clouds 14 1011 59 10000 2.87 279 14:44 13.12.2022
672 Clouds 8 1014 94 10000 2.73 284 11:18 13.12.2022
673 Clouds 8 1014 94 10000 2.73 284 10:36 13.12.2022
674 Clouds 7 1014 96 10000 2.68 284 09:23 13.12.2022
675 Clouds 8 1015 92 10000 2.94 282 04:35 13.12.2022
676 Clear 16 1013 53 10000 5.05 267 22:22 12.12.2022
677 Clear 16 1013 50 10000 5.08 264 20:53 12.12.2022
678 Clouds 16 1013 48 10000 5.11 264 18:33 12.12.2022
679 Clouds 13 1015 57 10000 4.66 268 17:19 12.12.2022
680 Clouds 10 1016 66 10000 4.62 271 15:22 12.12.2022
681 Clouds 6 1017 90 10000 3.55 272 11:50 12.12.2022
682 Clouds 5 1015 96 6739 2.66 264 09:19 12.12.2022
683 Rain 8 1014 77 10000 3.36 272 04:54 12.12.2022
684 Clouds 10 1013 69 10000 2.96 284 01:52 12.12.2022
685 Clouds 15 1012 46 10000 5.25 265 22:22 11.12.2022
686 Clouds 16 1012 44 10000 6.85 269 20:42 11.12.2022
687 Clouds 16 1013 42 10000 7.31 268 19:41 11.12.2022
688 Clouds 16 1012 42 10000 7.19 271 18:56 11.12.2022
689 Clouds 16 1013 43 10000 7.11 268 17:58 11.12.2022
690 Clouds 15 1013 44 10000 6.66 266 17:29 11.12.2022
691 Clouds 15 1013 44 10000 6.66 266 16:50 11.12.2022
692 Clouds 14 1013 48 10000 6.61 267 15:46 11.12.2022
693 Clouds 12 1014 61 10000 5.43 273 14:21 11.12.2022
694 Clouds 9 1015 76 10000 3.63 271 12:44 11.12.2022
695 Clouds 8 1015 83 10000 3.11 275 11:30 11.12.2022
696 Clouds 7 1015 92 10000 4.2 282 06:25 11.12.2022
697 Clear 13 1014 61 10000 4.16 264 00:32 11.12.2022
698 Clear 17 1012 41 10000 6.15 277 22:53 10.12.2022
699 Clear 17 1012 41 10000 6.15 277 22:32 10.12.2022
700 Clear 18 1012 39 10000 7.2 279 21:19 10.12.2022
701 Clear 18 1012 39 10000 7.22 278 20:24 10.12.2022
702 Clear 18 1012 38 10000 5.87 276 18:33 10.12.2022
703 Clear 17 1013 40 10000 4.52 275 16:47 10.12.2022
704 Clear 16 1014 43 10000 4.04 275 15:53 10.12.2022
705 Clear 16 1014 43 10000 4.04 275 15:34 10.12.2022
706 Clear 13 1015 56 10000 3.21 272 13:56 10.12.2022
707 Clear 11 1016 64 10000 2.95 275 12:45 10.12.2022
708 Clear 7 1017 84 10000 2.84 288 11:26 10.12.2022
709 Clear 6 1017 88 10000 2.73 290 10:26 10.12.2022
710 Clear 7 1016 86 10000 2.38 285 07:29 10.12.2022
711 Clear 7 1016 86 10000 2.38 285 06:56 10.12.2022
712 Clear 14 1011 46 10000 5.48 274 23:52 09.12.2022
713 Clear 15 1010 42 10000 7.46 273 22:43 09.12.2022
714 Clear 16 1010 40 10000 8.82 276 21:43 09.12.2022
715 Clear 17 1010 39 10000 8.59 275 20:59 09.12.2022
716 Clear 17 1010 39 10000 8.03 273 19:47 09.12.2022
717 Clear 17 1009 39 10000 7.87 273 18:32 09.12.2022
718 Clear 17 1009 40 10000 7.14 275 17:32 09.12.2022
719 Clear 15 1009 44 10000 5.97 278 16:29 09.12.2022
720 Clear 15 1009 44 10000 5.97 278 15:31 09.12.2022
721 Clouds 10 1009 68 10000 4.25 269 12:52 09.12.2022
722 Clouds 7 1009 90 10000 3.45 271 10:51 09.12.2022
723 Clouds 7 1008 90 10000 3.45 273 10:23 09.12.2022
724 Rain 9 1005 89 10000 3.71 272 05:39 09.12.2022
725 Rain 11 1002 87 10000 4.27 272 03:18 09.12.2022
726 Rain 11 1001 91 7494 3.04 263 23:36 08.12.2022
727 Rain 15 1000 70 10000 6.66 283 20:56 08.12.2022
728 Rain 14 1001 71 10000 7.88 286 18:58 08.12.2022
729 Rain 13 1002 73 10000 8.49 296 16:46 08.12.2022
730 Rain 11 1003 80 10000 4.75 313 14:31 08.12.2022
731 Rain 11 1004 77 10000 4.37 304 13:29 08.12.2022
732 Rain 10 1003 79 10000 4.9 308 10:37 08.12.2022
733 Rain 11 1003 77 10000 5.69 301 09:31 08.12.2022
734 Rain 11 1002 80 10000 6.36 298 07:18 08.12.2022
735 Rain 12 1001 77 10000 4.85 291 22:44 07.12.2022
736 Rain 12 1002 87 5902 3.44 311 22:18 07.12.2022
737 Rain 12 1002 87 5902 3.44 311 21:46 07.12.2022
738 Rain 15 1000 67 10000 4.29 292 20:24 07.12.2022
739 Rain 16 1002 67 10000 4.58 296 18:20 07.12.2022
740 Rain 13 1004 71 10000 3.14 306 15:39 07.12.2022
741 Clouds 12 1006 68 10000 2 339 13:28 07.12.2022
742 Clouds 10 1009 80 10000 2.03 308 10:50 07.12.2022
743 Clouds 10 1009 81 10000 1.74 314 09:58 07.12.2022
744 Clouds 10 1010 79 10000 1.78 325 08:58 07.12.2022
745 Clouds 9 1012 85 10000 1.77 317 07:21 07.12.2022
746 Clouds 10 1013 76 10000 1.79 287 05:24 07.12.2022
747 Clouds 16 1012 43 10000 3.49 273 23:58 06.12.2022
748 Clouds 18 1011 39 10000 5.29 285 21:41 06.12.2022
749 Clouds 17 1012 46 10000 3.14 292 18:59 06.12.2022
750 Clouds 16 1013 51 10000 2.93 294 17:18 06.12.2022
751 Clouds 15 1013 52 10000 2.63 284 16:23 06.12.2022
752 Clouds 15 1013 52 10000 2.63 284 15:35 06.12.2022
753 Clouds 14 1013 58 10000 2.25 285 14:35 06.12.2022
754 Clouds 12 1014 67 10000 2.09 289 13:39 06.12.2022
755 Clouds 12 1014 67 10000 2.09 289 13:39 06.12.2022
756 Clouds 11 1014 73 10000 1.8 286 12:40 06.12.2022
757 Clouds 8 1014 90 10000 2.4 304 10:39 06.12.2022
758 Clouds 7 1012 97 8914 2.71 273 07:38 06.12.2022
759 Clouds 10 1010 84 10000 4.72 278 02:26 06.12.2022
760 Rain 13 1008 70 10000 6.24 273 22:47 05.12.2022
761 Rain 14 1007 63 10000 7.57 276 21:39 05.12.2022
762 Rain 15 1006 59 10000 7.45 281 20:48 05.12.2022
763 Rain 16 1006 55 10000 7.32 283 19:51 05.12.2022
764 Rain 16 1006 55 10000 7.32 283 19:32 05.12.2022
765 Clouds 18 1004 46 10000 7.65 284 16:49 05.12.2022
766 Clouds 16 1004 50 10000 6.97 287 15:28 05.12.2022
767 Clouds 15 1005 55 10000 6.21 291 13:44 05.12.2022
768 Clouds 14 1005 64 10000 5.16 292 12:57 05.12.2022
769 Clouds 14 1005 64 10000 5.16 292 12:37 05.12.2022
770 Clouds 9 1007 90 10000 3.87 306 11:00 05.12.2022
771 Clouds 10 1008 84 10000 4.08 298 06:38 05.12.2022
772 Clouds 13 1010 69 10000 4.36 287 23:56 04.12.2022
773 Clouds 14 1009 64 10000 4.69 282 22:41 04.12.2022
774 Clouds 14 1009 62 10000 5.35 279 22:18 04.12.2022
775 Clouds 16 1009 53 10000 6.07 282 21:30 04.12.2022
776 Clouds 18 1009 46 10000 5.77 284 19:49 04.12.2022
777 Clouds 17 1010 46 10000 4.96 283 19:23 04.12.2022
778 Clouds 17 1010 49 10000 4.51 278 17:58 04.12.2022
779 Clouds 15 1011 53 10000 4.55 281 17:21 04.12.2022
780 Clouds 15 1011 53 10000 4.55 281 16:36 04.12.2022
781 Clouds 14 1011 56 10000 4.64 282 16:18 04.12.2022
782 Clouds 14 1011 53 10000 4.16 286 14:54 04.12.2022
783 Clouds 12 1012 59 10000 3.79 282 13:45 04.12.2022
784 Clouds 11 1014 68 10000 3.56 278 12:45 04.12.2022
785 Clouds 9 1014 80 10000 3.51 283 11:59 04.12.2022
786 Clouds 7 1015 90 10000 3.5 289 10:48 04.12.2022
787 Clouds 6 1014 95 10000 3.5 285 07:34 04.12.2022
788 Clouds 10 1012 77 10000 4.31 288 02:22 04.12.2022
789 Clouds 12 1011 64 10000 6.5 285 23:43 03.12.2022
790 Clouds 14 1010 57 10000 8.74 280 22:24 03.12.2022
791 Clouds 14 1010 57 10000 8.74 280 21:39 03.12.2022
792 Clouds 14 1010 57 10000 9.22 278 20:34 03.12.2022
793 Clear 15 1010 55 10000 9.67 278 18:40 03.12.2022
794 Clear 16 1009 52 10000 9.8 275 16:57 03.12.2022
795 Clear 14 1009 55 10000 7.23 277 14:28 03.12.2022
796 Clouds 12 1010 62 10000 5.54 278 12:55 03.12.2022
797 Clouds 10 1011 75 10000 4.78 280 12:24 03.12.2022
798 Clouds 6 1011 95 10000 3.87 286 10:26 03.12.2022
799 Clouds 7 1011 95 10000 3.71 287 07:58 03.12.2022
800 Clouds 9 1011 93 10000 3.8 284 01:31 03.12.2022
801 Clouds 16 1009 57 10000 6.57 278 22:58 02.12.2022
802 Clouds 16 1009 60 10000 6.19 274 20:54 02.12.2022
803 Rain 17 1010 63 10000 5.36 281 19:28 02.12.2022
804 Rain 14 1010 79 10000 3.19 250 15:59 02.12.2022
805 Rain 14 1010 79 10000 3.19 250 15:59 02.12.2022
806 Rain 15 1010 76 10000 4.15 259 14:44 02.12.2022
807 Rain 14 1010 75 10000 3.43 291 14:26 02.12.2022
808 Rain 12 1010 81 10000 3.23 325 13:26 02.12.2022
809 Rain 10 1012 84 10000 2.9 324 11:41 02.12.2022
810 Clouds 9 1013 72 10000 2.69 304 08:48 02.12.2022
811 Clouds 10 1013 60 10000 3.01 305 07:24 02.12.2022
812 Clouds 14 1013 38 10000 3.93 268 23:54 01.12.2022
813 Clouds 19 1011 25 10000 5.67 283 21:59 01.12.2022
814 Clouds 19 1011 25 10000 5.67 283 21:37 01.12.2022
815 Clouds 20 1010 21 10000 5.74 289 20:18 01.12.2022
816 Clouds 20 1012 17 10000 4.21 279 18:23 01.12.2022
817 Clear 17 1014 24 10000 2.83 268 15:59 01.12.2022
818 Clear 7 1019 57 10000 2.2 269 11:55 01.12.2022
819 Clear 3 1020 80 10000 2.21 285 10:25 01.12.2022
820 Clear 3 1020 80 10000 2.21 285 09:54 01.12.2022
821 Clear 3 1020 80 10000 2.21 285 09:36 01.12.2022
822 Clear 16 1015 38 10000 3.11 252 00:18 01.12.2022
823 Clear 17 1014 32 10000 3.26 246 22:37 30.11.2022
824 Clear 18 1013 27 10000 3.48 241 21:19 30.11.2022
825 Clear 18 1014 26 10000 3.51 244 20:25 30.11.2022
826 Clear 18 1014 26 10000 3.51 244 19:58 30.11.2022
827 Clear 18 1014 26 10000 3.46 243 18:33 30.11.2022
828 Clear 17 1014 26 10000 3.28 245 17:36 30.11.2022
829 Clear 13 1016 29 10000 2.89 249 16:19 30.11.2022
830 Clear 9 1018 41 10000 2.64 253 14:27 30.11.2022
831 Clear 9 1018 41 10000 2.64 253 13:39 30.11.2022
832 Clear 3 1020 71 10000 2.43 266 10:30 30.11.2022
833 Clear 2 1019 80 10000 2.68 275 08:39 30.11.2022
834 Clear 4 1018 81 10000 2.76 272 07:26 30.11.2022
835 Clouds 14 1012 37 10000 4.81 264 23:33 29.11.2022
836 Clouds 16 1011 32 10000 5.49 264 22:46 29.11.2022
837 Clouds 18 1009 32 10000 6.58 273 21:25 29.11.2022
838 Clouds 18 1009 32 10000 6.58 273 20:36 29.11.2022
839 Clouds 18 1009 37 10000 6.22 281 18:57 29.11.2022
840 Clouds 18 1009 37 10000 6.22 281 18:57 29.11.2022
841 Clouds 17 1009 47 10000 4.81 283 16:58 29.11.2022
842 Clouds 16 1009 52 10000 4.73 281 16:22 29.11.2022
843 Rain 14 1009 65 10000 3.64 290 14:49 29.11.2022
844 Rain 13 1009 77 10000 3.13 304 12:45 29.11.2022
845 Rain 12 1009 83 10000 2.48 294 11:32 29.11.2022
846 Clouds 12 1009 81 10000 2.51 288 10:41 29.11.2022
847 Clouds 12 1008 74 10000 3.7 298 09:28 29.11.2022
848 Clouds 13 1008 71 10000 3.62 306 07:48 29.11.2022
849 Clouds 16 1010 56 10000 3.14 285 00:35 29.11.2022
850 Clouds 16 1010 56 10000 3.14 285 00:35 29.11.2022
851 Clouds 20 1008 35 10000 5.94 267 23:29 28.11.2022
852 Clouds 22 1008 29 10000 7.04 271 22:28 28.11.2022
853 Clouds 22 1008 29 10000 7.04 271 21:43 28.11.2022
854 Clouds 23 1008 26 10000 8.2 273 20:33 28.11.2022
855 Clouds 24 1007 24 10000 8.39 275 19:37 28.11.2022
856 Clear 25 1008 22 10000 7.76 271 18:29 28.11.2022
857 Clear 25 1008 22 10000 7.76 271 17:35 28.11.2022
858 Clear 23 1009 36 10000 3.12 262 15:19 28.11.2022
859 Clear 21 1009 46 10000 2.57 261 13:57 28.11.2022
860 Clear 21 1009 46 10000 2.57 261 13:32 28.11.2022
861 Clouds 17 1010 60 10000 2.3 264 11:37 28.11.2022
862 Clouds 14 1010 76 10000 1.39 264 08:49 28.11.2022
863 Clouds 16 1012 71 10000 0.35 256 04:58 28.11.2022
864 Clouds 16 1012 71 10000 0.35 256 04:39 28.11.2022
865 Clouds 18 1013 62 10000 1.02 247 03:22 28.11.2022
866 Clouds 20 1012 53 10000 1.68 207 00:35 28.11.2022
867 Clouds 28 1012 28 10000 3.4 211 22:24 27.11.2022
868 Clouds 28 1012 26 10000 3.44 216 20:49 27.11.2022
869 Clouds 28 1014 27 10000 1.88 206 18:39 27.11.2022
870 Clouds 24 1016 32 10000 0.56 150 16:25 27.11.2022
871 Clouds 20 1018 41 10000 0.88 169 13:54 27.11.2022
872 Clouds 16 1019 60 10000 0.06 69 12:24 27.11.2022
873 Clouds 11 1019 81 10000 0.91 233 10:23 27.11.2022
874 Clouds 12 1019 75 10000 0.74 252 07:20 27.11.2022
875 Clouds 23 1018 39 10000 2.84 218 23:23 26.11.2022
876 Clouds 24 1017 34 10000 2.8 219 21:27 26.11.2022
877 Clouds 24 1017 34 10000 2.29 217 19:57 26.11.2022
878 Clouds 24 1018 35 10000 1.95 219 18:41 26.11.2022
879 Clouds 22 1019 42 10000 1.65 222 16:38 26.11.2022
880 Clouds 18 1020 59 10000 1.58 237 14:48 26.11.2022
881 Clouds 13 1021 77 10000 1.37 227 12:50 26.11.2022
882 Clouds 10 1022 90 10000 1.38 252 10:53 26.11.2022
883 Clouds 9 1021 93 10000 1.64 246 09:40 26.11.2022
884 Clouds 9 1021 93 10000 2.1 252 07:47 26.11.2022
885 Clear 21 1015 38 10000 4 271 22:41 25.11.2022
886 Clear 22 1014 34 10000 4.74 271 21:32 25.11.2022
887 Clear 23 1014 31 10000 5.35 288 20:20 25.11.2022
888 Clear 21 1015 31 10000 4.19 285 16:50 25.11.2022
889 Clear 18 1016 28 10000 2.9 279 14:48 25.11.2022
890 Clear 7 1018 51 10000 2.49 293 09:44 25.11.2022
891 Clouds 7 1018 57 10000 2.4 293 08:42 25.11.2022
892 Clouds 7 1019 59 10000 2.63 289 06:55 25.11.2022
893 Clouds 7 1019 59 10000 2.63 289 06:31 25.11.2022
894 Clouds 16 1016 39 10000 3.1 262 00:29 25.11.2022
895 Clouds 18 1015 30 10000 3.34 270 22:57 24.11.2022
896 Clouds 19 1015 28 10000 3.54 267 21:59 24.11.2022
897 Clouds 19 1015 27 10000 3.56 270 20:45 24.11.2022
898 Clouds 18 1016 28 10000 3.22 273 19:20 24.11.2022
899 Clouds 17 1016 31 10000 2.71 275 17:43 24.11.2022
900 Clouds 15 1017 35 10000 2.76 270 17:20 24.11.2022
901 Clouds 12 1019 47 10000 2.58 276 15:24 24.11.2022
902 Clouds 10 1020 55 10000 2.49 272 13:54 24.11.2022
903 Clouds 7 1020 70 10000 2.16 263 11:58 24.11.2022
904 Clouds 6 1020 79 10000 1.98 256 10:37 24.11.2022
905 Clouds 5 1018 92 10000 2.49 257 07:54 24.11.2022
906 Clouds 9 1013 86 10000 3.87 265 03:23 24.11.2022
907 Clouds 14 1009 72 10000 7.27 277 23:46 23.11.2022
908 Clouds 16 1008 64 10000 8.8 280 21:58 23.11.2022
909 Clouds 16 1008 63 10000 8.14 280 21:25 23.11.2022
910 Clouds 16 1008 63 10000 8.14 280 20:37 23.11.2022
911 Clouds 16 1008 63 10000 6.16 286 19:27 23.11.2022
912 Clouds 16 1008 63 10000 6.16 286 18:41 23.11.2022
913 Clouds 17 1008 60 10000 6.12 285 16:39 23.11.2022
914 Clouds 15 1009 71 10000 4.66 278 13:40 23.11.2022
915 Clouds 13 1010 84 10000 3.66 278 13:20 23.11.2022
916 Clouds 12 1010 89 10000 2.99 279 11:59 23.11.2022
917 Clouds 12 1010 89 10000 2.99 279 11:41 23.11.2022
918 Clouds 12 1010 91 10000 2.79 279 10:42 23.11.2022
919 Clouds 11 1010 92 10000 2.81 279 09:42 23.11.2022
920 Clouds 11 1010 92 10000 2.55 278 09:24 23.11.2022
921 Clouds 11 1010 92 10000 2.55 278 08:36 23.11.2022
922 Clouds 12 1010 90 10000 2.54 292 05:22 23.11.2022
923 Clouds 12 1011 90 10000 2.45 282 04:22 23.11.2022
924 Rain 15 1010 78 10000 2.93 278 22:59 22.11.2022
925 Rain 15 1010 76 10000 2.7 281 22:18 22.11.2022
926 Rain 15 1010 76 10000 2.7 281 21:33 22.11.2022
927 Rain 16 1010 71 10000 2.72 256 20:45 22.11.2022
928 Clouds 17 1010 68 10000 4.19 250 19:52 22.11.2022
929 Clouds 17 1011 64 10000 4.72 265 17:55 22.11.2022
930 Clouds 17 1011 63 10000 4.6 279 16:48 22.11.2022
931 Clouds 15 1012 68 10000 3.08 288 15:24 22.11.2022
932 Clouds 14 1013 71 10000 2.63 292 13:41 22.11.2022
933 Clouds 11 1014 83 10000 2.26 298 11:40 22.11.2022
934 Clouds 11 1015 72 10000 2.5 288 09:18 22.11.2022
935 Clouds 10 1016 69 10000 2.38 283 07:18 22.11.2022
936 Clouds 12 1016 68 10000 2.76 269 01:38 22.11.2022
937 Clouds 17 1014 51 10000 3.54 258 23:36 21.11.2022
938 Clouds 19 1014 42 10000 3.97 265 22:34 21.11.2022
939 Clouds 20 1014 37 10000 3.89 265 21:58 21.11.2022
940 Clouds 20 1014 33 10000 4.04 261 20:36 21.11.2022
941 Clouds 20 1014 30 10000 3.79 263 19:41 21.11.2022
942 Clouds 20 1014 28 10000 3.78 258 18:54 21.11.2022
943 Clear 20 1015 25 10000 2.67 260 17:46 21.11.2022
944 Clear 18 1016 26 10000 2.62 253 16:52 21.11.2022
945 Clear 18 1016 26 10000 2.62 253 16:34 21.11.2022
946 Clear 15 1018 36 10000 2.1 257 15:24 21.11.2022
947 Clear 13 1019 44 10000 1.82 260 13:55 21.11.2022
948 Clear 13 1019 44 10000 1.82 260 13:34 21.11.2022
949 Clear 4 1022 83 10000 1.72 274 10:24 21.11.2022
950 Clear 4 1022 84 10000 1.88 273 08:39 21.11.2022
951 Clouds 6 1022 84 10000 2.06 271 05:45 21.11.2022
952 Clear 16 1019 36 10000 3.07 242 22:25 20.11.2022
953 Clear 17 1019 32 10000 2.89 242 21:24 20.11.2022
954 Clear 16 1019 29 10000 2.54 238 20:23 20.11.2022
955 Clear 15 1021 26 10000 1.99 240 18:20 20.11.2022
956 Clear 12 1023 28 10000 1.73 246 15:57 20.11.2022
957 Clear 10 1024 32 10000 1.48 256 15:25 20.11.2022
958 Clear 8 1025 39 10000 1.18 264 14:25 20.11.2022
959 Clear 8 1025 39 10000 0.6 270 13:32 20.11.2022
960 Clear 5 1026 49 10000 0.86 261 12:31 20.11.2022
961 Clear 2 1026 72 10000 1.55 266 10:59 20.11.2022
962 Clear 0 1026 81 10000 1.4 265 09:55 20.11.2022
963 Clear 1 1025 81 10000 1.88 266 08:59 20.11.2022
964 Clear 1 1025 81 10000 1.88 266 08:33 20.11.2022
965 Clear 2 1024 83 10000 2.21 269 07:28 20.11.2022
966 Clouds 5 1021 78 10000 3.22 270 01:31 20.11.2022
967 Clouds 6 1019 74 10000 3.52 268 00:58 20.11.2022
968 Clouds 6 1019 74 10000 3.52 268 00:39 20.11.2022
969 Clouds 8 1018 65 10000 3.92 264 00:20 20.11.2022
970 Clouds 8 1018 65 10000 3.92 264 23:47 19.11.2022
971 Clouds 9 1016 61 10000 4.32 251 23:20 19.11.2022
972 Clouds 10 1014 63 10000 4.73 254 22:20 19.11.2022
973 Clouds 10 1013 67 10000 4.64 255 21:28 19.11.2022
974 Rain 11 1013 64 10000 4.98 254 20:42 19.11.2022
975 Clouds 12 1012 61 10000 6.12 255 20:22 19.11.2022
976 Clouds 13 1011 53 10000 5.97 256 18:54 19.11.2022
977 Clouds 14 1010 50 10000 5.57 271 17:39 19.11.2022
978 Clouds 13 1010 51 10000 4.64 282 17:18 19.11.2022
979 Clouds 12 1011 53 10000 4.28 289 15:33 19.11.2022
980 Clouds 9 1012 58 10000 3.51 286 13:36 19.11.2022
981 Clouds 8 1013 72 10000 3.3 283 11:56 19.11.2022
982 Clouds 7 1012 86 10000 2.82 277 09:51 19.11.2022
983 Clouds 7 1012 91 10000 3.21 279 08:19 19.11.2022
984 Clouds 7 1012 91 10000 3.21 279 08:19 19.11.2022
985 Clouds 7 1012 91 10000 3.21 279 08:19 19.11.2022
986 Clouds 9 1012 86 10000 2.89 281 04:45 19.11.2022
987 Clouds 11 1013 79 10000 2.85 275 01:49 19.11.2022
988 Clouds 15 1012 57 10000 3.62 276 23:35 18.11.2022
989 Clouds 17 1012 48 10000 4.63 282 22:24 18.11.2022
990 Clouds 17 1012 48 10000 4.63 282 21:36 18.11.2022
991 Clouds 17 1012 47 10000 4.49 290 20:58 18.11.2022
992 Clouds 17 1012 49 10000 4.53 295 20:25 18.11.2022
993 Clouds 17 1012 49 10000 4.53 295 19:37 18.11.2022
994 Clouds 17 1013 54 10000 5.08 291 17:45 18.11.2022
995 Clouds 17 1013 54 10000 5.08 291 17:45 18.11.2022
996 Clouds 16 1014 59 10000 3.73 289 16:32 18.11.2022
997 Clouds 13 1015 76 10000 2.63 284 12:39 18.11.2022
998 Clouds 11 1016 89 10000 1.69 280 10:25 18.11.2022
999 Clouds 11 1016 86 10000 1.68 270 07:52 18.11.2022
1000 Clouds 11 1015 81 10000 1.4 271 05:37 18.11.2022
1001 Clouds 11 1016 83 10000 2.38 266 02:49 18.11.2022
1002 Clouds 16 1014 62 10000 2.85 264 23:38 17.11.2022
1003 Clouds 18 1013 49 10000 4.12 264 20:48 17.11.2022
1004 Clouds 19 1013 48 10000 4.64 262 19:54 17.11.2022
1005 Clouds 19 1013 48 10000 5.31 262 19:27 17.11.2022
1006 Clouds 17 1014 55 10000 4.57 262 18:29 17.11.2022
1007 Clouds 17 1014 55 10000 4.57 262 17:30 17.11.2022
1008 Clouds 16 1014 59 10000 3.73 271 15:45 17.11.2022
1009 Clouds 11 1015 82 10000 2.1 303 12:20 17.11.2022
1010 Clouds 10 1015 87 10000 2.06 307 10:35 17.11.2022
1011 Clouds 8 1016 92 10000 2.06 308 07:35 17.11.2022
1012 Clouds 12 1016 76 10000 2.35 269 00:54 17.11.2022
1013 Clouds 17 1015 58 10000 2.52 269 23:21 16.11.2022
1014 Clouds 17 1016 58 10000 2.35 269 21:54 16.11.2022
1015 Clouds 16 1016 62 10000 2.29 259 20:31 16.11.2022
1016 Clouds 15 1017 64 10000 1.89 253 18:49 16.11.2022
1017 Clouds 15 1017 64 10000 1.89 253 18:30 16.11.2022
1018 Clouds 12 1018 78 10000 1.81 288 15:41 16.11.2022
1019 Clouds 9 1017 85 10000 2.13 290 11:23 16.11.2022
1020 Clouds 8 1016 95 10000 2.93 283 06:54 16.11.2022
1021 Clouds 9 1014 91 10000 3.66 309 01:38 16.11.2022
1022 Clouds 13 1011 75 10000 4.91 304 23:31 15.11.2022
1023 Clouds 15 1009 67 10000 5.04 292 21:28 15.11.2022
1024 Rain 15 1010 72 10000 5.19 298 19:47 15.11.2022
1025 Clouds 16 1009 65 10000 5.5 288 18:51 15.11.2022
1026 Clouds 16 1009 63 10000 6.28 288 17:36 15.11.2022
1027 Rain 14 1010 74 10000 4.17 293 16:20 15.11.2022
1028 Rain 14 1010 74 10000 4.17 293 15:35 15.11.2022
1029 Rain 11 1010 84 10000 3.71 328 13:43 15.11.2022
1030 Rain 10 1010 88 10000 3.38 349 12:54 15.11.2022
1031 Clouds 9 1010 94 10000 2.34 329 11:21 15.11.2022
1032 Clouds 8 1010 96 10000 3.08 310 09:28 15.11.2022
1033 Clouds 11 1009 81 10000 3.34 294 00:42 15.11.2022
1034 Clouds 11 1008 81 10000 4.25 297 00:22 15.11.2022
1035 Clouds 11 1007 83 10000 3.3 295 21:51 14.11.2022
1036 Rain 11 1007 83 10000 3.36 296 20:43 14.11.2022
1037 Clouds 11 1008 78 10000 4 294 18:58 14.11.2022
1038 Clouds 11 1008 77 10000 3.92 290 17:28 14.11.2022
1039 Clouds 10 1010 77 10000 3.35 307 12:55 14.11.2022
1040 Clouds 9 1010 83 10000 3.11 308 11:45 14.11.2022
1041 Clouds 8 1010 87 10000 2.78 332 09:54 14.11.2022
1042 Clouds 7 1011 91 10000 2.73 317 08:29 14.11.2022
1043 Clouds 7 1011 91 10000 2.73 317 07:50 14.11.2022
1044 Clouds 10 1013 77 10000 3.24 307 00:19 14.11.2022
1045 Clouds 11 1012 74 10000 3.54 301 22:39 13.11.2022
1046 Clouds 12 1012 69 10000 3.47 290 21:40 13.11.2022
1047 Clouds 13 1012 64 10000 3.44 277 20:22 13.11.2022
1048 Rain 11 1013 74 10000 3.46 287 18:28 13.11.2022
1049 Rain 11 1013 74 10000 3.46 287 17:46 13.11.2022
1050 Clouds 10 1013 77 10000 2.99 285 15:19 13.11.2022
1051 Clouds 10 1013 77 10000 3.1 290 14:25 13.11.2022
1052 Clouds 10 1014 78 10000 2.39 290 12:43 13.11.2022
1053 Clouds 8 1014 90 10000 2.17 278 11:29 13.11.2022
1054 Clouds 7 1013 96 10000 2.22 280 08:56 13.11.2022
1055 Rain 10 1012 85 10000 2.28 264 02:24 13.11.2022
1056 Clouds 15 1009 64 10000 3.19 255 22:58 12.11.2022
1057 Rain 16 1010 57 10000 3.04 259 21:24 12.11.2022
1058 Rain 16 1010 56 10000 2.66 268 20:22 12.11.2022
1059 Rain 15 1011 56 10000 1.73 276 18:27 12.11.2022
1060 Clouds 14 1012 59 10000 1.22 258 16:27 12.11.2022
1061 Clouds 13 1013 63 10000 1.13 235 15:23 12.11.2022
1062 Clouds 10 1014 80 10000 0.8 260 12:38 12.11.2022
1063 Clouds 9 1014 90 10000 1.23 259 09:29 12.11.2022
1064 Clouds 9 1014 92 10000 1.27 244 06:55 12.11.2022
1065 Clouds 14 1011 66 10000 3.34 252 22:49 11.11.2022
1066 Clouds 15 1010 64 10000 3.1 261 20:52 11.11.2022
1067 Rain 15 1011 64 10000 2.94 264 19:44 11.11.2022
1068 Rain 14 1011 66 10000 2.46 268 19:21 11.11.2022
1069 Rain 14 1011 67 10000 1.85 280 17:56 11.11.2022
1070 Rain 14 1012 67 10000 0.9 267 16:28 11.11.2022
1071 Clouds 12 1013 72 10000 1.13 258 14:21 11.11.2022
1072 Clouds 12 1013 72 10000 1.13 258 13:30 11.11.2022
1073 Clouds 8 1013 93 10000 1.63 274 10:18 11.11.2022
1074 Clouds 8 1013 91 10000 1.85 270 08:27 11.11.2022
1075 Clouds 9 1013 87 10000 1.8 273 06:26 11.11.2022
1076 Clouds 14 1012 62 10000 2.47 240 23:38 10.11.2022
1077 Clouds 15 1011 56 10000 2.87 241 22:38 10.11.2022
1078 Clouds 16 1011 54 10000 3.01 241 21:34 10.11.2022
1079 Clouds 16 1011 55 10000 3.34 242 20:59 10.11.2022
1080 Clouds 16 1011 54 10000 3.52 240 20:22 10.11.2022
1081 Clouds 16 1011 54 10000 3.52 240 19:44 10.11.2022
1082 Clouds 16 1011 54 10000 3.68 238 18:33 10.11.2022
1083 Clouds 14 1012 61 10000 2.93 261 16:26 10.11.2022
1084 Clouds 12 1013 69 10000 2.85 254 13:59 10.11.2022
1085 Clouds 12 1013 71 10000 2.68 253 12:50 10.11.2022
1086 Clouds 10 1012 91 10000 2.5 267 08:50 10.11.2022
1087 Clouds 13 1011 76 10000 2.25 249 01:35 10.11.2022
1088 Clouds 17 1008 58 10000 2.62 260 23:45 09.11.2022
1089 Clouds 19 1007 47 10000 3.87 246 22:45 09.11.2022
1090 Clouds 20 1007 46 10000 3.49 247 20:48 09.11.2022
1091 Clouds 20 1007 47 10000 3.59 246 20:29 09.11.2022
1092 Clouds 20 1007 47 10000 3.59 246 19:43 09.11.2022
1093 Clouds 20 1008 47 10000 3.65 243 19:18 09.11.2022
1094 Clouds 19 1008 50 10000 3.52 257 16:31 09.11.2022
1095 Clouds 16 1009 61 10000 2.78 262 14:48 09.11.2022
1096 Clouds 15 1010 67 10000 2.49 266 14:25 09.11.2022
1097 Clouds 15 1010 67 10000 2.49 266 13:30 09.11.2022
1098 Clouds 12 1011 77 10000 2.06 274 11:46 09.11.2022
1099 Clear 10 1011 87 10000 2.23 289 08:44 09.11.2022
1100 Clear 10 1011 86 10000 2.34 285 07:46 09.11.2022
1101 Clear 10 1011 86 10000 2.34 285 07:46 09.11.2022
1102 Clouds 16 1010 66 10000 2.63 274 00:56 09.11.2022
1103 Clouds 21 1009 44 10000 4.15 273 21:46 08.11.2022
1104 Clouds 21 1009 43 10000 4.13 270 21:28 08.11.2022
1105 Clouds 21 1009 43 10000 4.13 270 20:41 08.11.2022
1106 Clouds 21 1009 42 10000 3.87 272 19:37 08.11.2022
1107 Clouds 22 1009 42 10000 3.52 271 18:50 08.11.2022
1108 Clouds 20 1010 45 10000 3.64 269 17:26 08.11.2022
1109 Clouds 17 1012 62 10000 2.74 270 14:56 08.11.2022
1110 Clouds 16 1013 68 10000 2.47 261 13:42 08.11.2022
1111 Clouds 14 1014 73 10000 2.23 272 13:23 08.11.2022
1112 Clouds 11 1014 86 10000 1.99 287 09:43 08.11.2022
1113 Clouds 12 1014 79 10000 2.03 277 07:25 08.11.2022
1114 Clouds 16 1014 61 10000 2.88 263 00:33 08.11.2022
1115 Clouds 22 1011 30 10000 3.47 266 22:25 07.11.2022
1116 Clouds 23 1011 28 10000 2.77 262 21:22 07.11.2022
1117 Clouds 23 1011 28 10000 2.77 262 20:40 07.11.2022
1118 Clouds 22 1012 26 10000 2.03 256 18:48 07.11.2022
1119 Clouds 21 1014 26 10000 1.69 246 17:19 07.11.2022
1120 Clouds 19 1015 28 10000 1.5 245 15:35 07.11.2022
1121 Clouds 18 1015 34 10000 1.44 245 14:48 07.11.2022
1122 Clouds 14 1017 52 10000 1.24 249 12:38 07.11.2022
1123 Clouds 12 1018 62 10000 0.76 274 11:30 07.11.2022
1124 Clouds 8 1017 72 10000 1.13 270 09:36 07.11.2022
1125 Clouds 9 1017 75 10000 1.61 266 07:50 07.11.2022
1126 Clear 11 1017 71 10000 2.31 268 04:20 07.11.2022
1127 Clouds 14 1016 58 10000 2.44 261 01:21 07.11.2022
1128 Clouds 21 1013 31 10000 2.94 259 22:21 06.11.2022
1129 Clouds 21 1013 30 10000 2.82 257 21:20 06.11.2022
1130 Clouds 21 1013 30 10000 2.82 257 20:32 06.11.2022
1131 Clouds 21 1014 31 10000 2.65 250 19:34 06.11.2022
1132 Clouds 20 1014 33 10000 2.22 252 18:39 06.11.2022
1133 Clouds 19 1015 36 10000 2.11 259 18:19 06.11.2022
1134 Clouds 18 1015 40 10000 1.96 264 17:20 06.11.2022
1135 Clouds 18 1015 40 10000 1.96 264 16:40 06.11.2022
1136 Clouds 16 1016 45 10000 1.95 263 15:43 06.11.2022
1137 Clouds 12 1017 71 10000 1.94 266 12:48 06.11.2022
1138 Clouds 10 1018 80 10000 1.99 273 11:58 06.11.2022
1139 Clouds 9 1018 90 10000 2.12 278 10:40 06.11.2022
1140 Clouds 9 1017 93 10000 2.52 282 07:45 06.11.2022
1141 Clouds 17 1013 74 10000 2.85 262 00:49 06.11.2022
1142 Rain 21 1011 53 10000 1.5 238 22:52 05.11.2022
1143 Rain 23 1012 43 10000 0.72 212 19:21 05.11.2022
1144 Clouds 22 1013 46 10000 1.5 255 16:58 05.11.2022
1145 Clouds 19 1014 56 10000 2.22 246 15:28 05.11.2022
1146 Clouds 19 1014 56 10000 2.22 246 14:33 05.11.2022
1147 Clouds 16 1015 71 10000 1.79 256 12:34 05.11.2022
1148 Clouds 14 1014 79 10000 2.04 266 09:37 05.11.2022
1149 Clouds 15 1013 70 10000 2.02 255 07:25 05.11.2022
1150 Clouds 15 1013 68 10000 1.79 252 06:57 05.11.2022
1151 Clouds 20 1012 50 10000 1.31 256 00:46 05.11.2022
1152 Rain 22 1012 48 10000 0.38 277 23:32 04.11.2022
1153 Clouds 26 1010 31 10000 2.83 232 21:40 04.11.2022
1154 Clear 27 1010 29 10000 2.26 239 19:40 04.11.2022
1155 Clear 26 1011 32 10000 1.72 238 17:45 04.11.2022
1156 Clear 22 1013 41 10000 0.87 241 15:27 04.11.2022
1157 Clear 18 1014 47 10000 0.98 256 13:19 04.11.2022
1158 Clear 17 1015 52 10000 0.88 267 12:19 04.11.2022
1159 Clear 12 1014 62 10000 0.87 269 09:31 04.11.2022
1160 Clear 13 1014 59 10000 0.83 283 08:20 04.11.2022
1161 Clear 14 1014 57 10000 1.47 273 06:40 04.11.2022
1162 Clear 19 1014 45 10000 1.86 268 00:56 04.11.2022
1163 Clear 27 1012 20 10000 1.93 270 21:42 03.11.2022
1164 Clear 27 1012 18 10000 1.66 274 20:46 03.11.2022
1165 Clear 27 1013 16 10000 1.21 275 19:41 03.11.2022
1166 Clear 26 1014 16 10000 1.55 26 18:26 03.11.2022
1167 Clear 26 1014 16 10000 1.55 26 17:37 03.11.2022
1168 Clear 23 1017 20 10000 1.81 55 15:20 03.11.2022
1169 Clear 21 1017 23 10000 1.95 66 13:33 03.11.2022
1170 Clear 19 1018 30 10000 1.18 62 12:34 03.11.2022
1171 Clear 16 1018 39 10000 0.96 41 11:31 03.11.2022
1172 Clear 16 1018 39 10000 0.96 41 11:31 03.11.2022
1173 Clear 13 1018 58 10000 0.91 357 07:47 03.11.2022
1174 Clear 27 1016 17 10000 2.16 330 21:59 02.11.2022
1175 Clear 27 1016 14 10000 2.88 355 20:54 02.11.2022
1176 Clear 27 1017 13 10000 3.62 11 20:23 02.11.2022
1177 Clear 26 1018 14 10000 3.2 11 18:23 02.11.2022
1178 Clear 24 1020 17 10000 3.14 39 16:26 02.11.2022
1179 Clear 22 1021 20 10000 2.26 51 15:27 02.11.2022
1180 Clouds 17 1022 41 10000 1.19 93 12:48 02.11.2022
1181 Clouds 15 1022 54 10000 0.89 86 12:20 02.11.2022
1182 Clouds 10 1022 65 10000 0.48 78 09:32 02.11.2022
1183 Clouds 11 1022 67 10000 0.2 58 07:38 02.11.2022
1184 Clear 15 1022 53 10000 0.71 251 01:23 02.11.2022
1185 Clear 22 1020 30 10000 1.51 207 22:20 01.11.2022
1186 Clear 22 1020 30 10000 1.51 207 21:42 01.11.2022
1187 Clear 22 1021 26 10000 1.48 210 20:27 01.11.2022
1188 Clear 22 1021 26 10000 1.48 210 19:58 01.11.2022
1189 Clear 22 1021 26 10000 1.48 210 19:40 01.11.2022
1190 Clear 21 1022 26 10000 1.29 212 17:58 01.11.2022
1191 Clear 18 1023 28 10000 0.88 235 16:23 01.11.2022
1192 Clear 15 1024 31 10000 0.87 246 14:33 01.11.2022
1193 Clouds 10 1026 45 10000 1.11 258 12:31 01.11.2022
1194 Clouds 8 1027 56 10000 1.24 264 11:38 01.11.2022
1195 Clouds 5 1027 68 10000 1.46 266 11:20 01.11.2022
1196 Clouds 5 1027 73 10000 1.81 270 08:46 01.11.2022
1197 Clouds 5 1028 76 10000 1.95 271 07:46 01.11.2022
1198 Clear 5 1028 79 10000 2.18 272 07:26 01.11.2022
1199 Clear 6 1027 79 10000 2.21 274 06:44 01.11.2022
1200 Clear 7 1028 83 10000 2.44 275 03:55 01.11.2022
1201 Clear 17 1026 43 10000 3.3 257 21:59 31.10.2022
1202 Clear 17 1026 39 10000 3.09 258 20:53 31.10.2022
1203 Clear 17 1026 37 10000 2.68 257 19:55 31.10.2022
1204 Clear 15 1028 38 10000 2 254 17:58 31.10.2022
1205 Clear 13 1029 40 10000 1.86 254 16:43 31.10.2022
1206 Clouds 4 1034 67 10000 1.33 258 13:29 31.10.2022
1207 Clouds 2 1035 77 10000 1.57 254 11:54 31.10.2022
1208 Clouds 0 1035 90 10000 2.03 264 09:18 31.10.2022
1209 Clear 1 1035 88 10000 2.18 278 05:34 31.10.2022
1210 Clear 3 1033 84 10000 2.39 272 02:27 31.10.2022
1211 Clear 9 1030 57 10000 3.54 255 23:19 30.10.2022
1212 Clear 9 1030 57 10000 3.54 255 23:19 30.10.2022
1213 Clear 10 1029 50 10000 3.64 254 21:40 30.10.2022
1214 Clear 10 1028 45 10000 3.62 248 20:37 30.10.2022
1215 Clear 10 1028 40 10000 3.59 242 18:39 30.10.2022
1216 Clouds 7 1028 45 10000 2.84 244 16:18 30.10.2022
1217 Clouds 7 1028 45 10000 2.84 244 16:18 30.10.2022
1218 Clouds 4 1028 61 10000 2.49 243 13:53 30.10.2022
1219 Clouds 3 1028 70 10000 2.4 244 13:20 30.10.2022
1220 Clouds 1 1028 79 10000 2.29 251 11:42 30.10.2022
1221 Clouds -1 1025 88 10000 2.59 257 09:37 30.10.2022
1222 Clouds -1 1024 87 10000 2.52 263 08:38 30.10.2022
1223 Clear 1 1015 86 10000 4.12 267 02:56 30.10.2022
1224 Clouds 6 1009 52 10000 6.73 256 00:28 30.10.2022
1225 Clouds 6 1009 52 10000 6.73 256 23:44 29.10.2022
1226 Clouds 8 1005 46 10000 8.44 250 21:27 29.10.2022
1227 Rain 7 1004 67 10000 4.26 247 17:51 29.10.2022
1228 Rain 6 1004 77 3013 3.35 243 17:18 29.10.2022
1229 Rain 6 1004 75 10000 2.97 245 15:37 29.10.2022
1230 Clouds 5 1004 79 10000 2.51 256 14:47 29.10.2022
1231 Rain 3 1005 88 10000 1.92 283 12:35 29.10.2022
1232 Clouds 1 1006 95 10000 2.19 281 10:46 29.10.2022
1233 Clouds 2 1006 89 10000 3.07 277 07:37 29.10.2022
1234 Clouds 3 1006 88 10000 4.45 277 05:56 29.10.2022
1235 Rain 3 1006 89 10000 4.55 275 03:59 29.10.2022
1236 Rain 6 1005 71 10000 8.11 272 23:32 28.10.2022
1237 Clouds 9 1004 54 10000 13.04 275 20:46 28.10.2022
1238 Clouds 10 1003 56 10000 13.1 275 19:26 28.10.2022
1239 Clouds 10 1003 56 10000 13.1 275 18:31 28.10.2022
1240 Clouds 8 1005 58 10000 10.22 281 15:31 28.10.2022
1241 Clouds 7 1005 61 10000 8.53 277 14:43 28.10.2022
1242 Clouds 3 1006 83 10000 5.69 276 12:53 28.10.2022
1243 Clouds 1 1006 89 10000 4.58 277 11:34 28.10.2022
1244 Clouds 2 1005 86 10000 4.69 275 10:47 28.10.2022
1245 Clouds 3 1004 81 10000 4.89 277 09:47 28.10.2022
1246 Clouds 4 1003 76 10000 7.22 269 08:21 28.10.2022
1247 Rain 6 999 92 10000 6.14 285 03:43 28.10.2022
1248 Rain 8 997 77 10000 11.22 284 23:49 27.10.2022
1249 Rain 9 997 74 9518 11.84 283 22:40 27.10.2022
1250 Rain 10 997 68 10000 11.05 280 21:35 27.10.2022
1251 Clouds 12 997 52 10000 11.5 279 20:27 27.10.2022
1252 Clouds 12 997 43 10000 10.01 283 18:22 27.10.2022
1253 Clouds 6 1004 64 10000 5.03 290 13:58 27.10.2022
1254 Clouds 3 1011 90 10000 4.39 308 09:20 27.10.2022
1255 Clouds 5 1013 70 10000 4.13 304 06:21 27.10.2022
1256 Clouds 11 1012 50 10000 5.58 287 23:55 26.10.2022
1257 Clouds 12 1012 46 10000 5.99 287 22:47 26.10.2022
1258 Clouds 13 1011 44 10000 6.35 285 22:22 26.10.2022
1259 Clouds 13 1012 41 10000 6.25 285 19:34 26.10.2022
1260 Clouds 12 1012 45 10000 5.37 280 16:35 26.10.2022
1261 Clouds 8 1014 75 10000 3.37 282 14:36 26.10.2022
1262 Clouds 6 1014 94 6542 2.42 302 12:37 26.10.2022
1263 Rain 6 1012 95 6719 2.32 290 09:41 26.10.2022
1264 Rain 6 1012 95 8205 2.36 281 08:54 26.10.2022
1265 Rain 7 1011 93 10000 2.46 296 08:22 26.10.2022
1266 Clouds 12 1008 60 10000 2.73 272 00:45 26.10.2022
1267 Clouds 15 1008 48 10000 4.14 288 00:20 26.10.2022
1268 Clouds 16 1008 46 10000 3.99 296 21:47 25.10.2022
1269 Clouds 16 1008 46 10000 3.43 301 20:53 25.10.2022
1270 Clouds 16 1009 51 10000 2.22 294 19:40 25.10.2022
1271 Clouds 13 1011 56 10000 1.65 273 17:51 25.10.2022
1272 Clouds 13 1011 56 10000 1.65 273 17:51 25.10.2022
1273 Clouds 8 1015 77 10000 0.94 274 13:57 25.10.2022
1274 Clouds 6 1015 90 10000 1.41 264 11:38 25.10.2022
1275 Clouds 5 1015 91 10000 1.27 259 10:37 25.10.2022
1276 Clouds 5 1016 91 10000 1.23 278 09:33 25.10.2022
1277 Clouds 6 1016 91 10000 1.77 293 08:18 25.10.2022
1278 Clouds 6 1016 91 10000 1.77 293 07:54 25.10.2022
1279 Clouds 6 1016 92 10000 1.65 286 06:56 25.10.2022
1280 Clouds 6 1017 91 10000 2.02 279 03:43 25.10.2022
1281 Clouds 9 1015 84 10000 1.57 259 00:35 25.10.2022
1282 Clouds 10 1014 75 10000 2.22 262 23:28 24.10.2022
1283 Clouds 9 1015 79 10000 2.26 270 22:24 24.10.2022
1284 Clouds 9 1015 79 10000 2.26 270 21:32 24.10.2022
1285 Clouds 9 1015 79 10000 2.64 265 20:41 24.10.2022
1286 Clouds 9 1014 78 10000 3.38 282 18:52 24.10.2022
1287 Clouds 9 1015 83 10000 3.04 292 17:35 24.10.2022
1288 Clouds 8 1015 87 10000 2.6 296 16:32 24.10.2022
1289 Rain 7 1015 90 7722 2.47 301 14:22 24.10.2022
1290 Clouds 7 1014 91 10000 2.42 302 13:26 24.10.2022
1291 Rain 6 1013 90 10000 2.61 302 10:40 24.10.2022
1292 Clouds 6 1013 90 10000 3.04 291 07:57 24.10.2022
1293 Clouds 12 1009 54 10000 3.71 269 23:46 23.10.2022
1294 Clouds 15 1008 39 10000 6.07 299 20:42 23.10.2022
1295 Clouds 15 1009 36 10000 5.89 297 19:41 23.10.2022
1296 Clouds 14 1009 35 10000 3.67 288 17:30 23.10.2022
1297 Clouds 13 1010 44 10000 3.03 281 16:41 23.10.2022
1298 Clouds 10 1012 60 10000 2.53 279 15:19 23.10.2022
1299 Clouds 6 1013 68 10000 2.45 284 12:31 23.10.2022
1300 Clouds 5 1012 75 10000 2.47 285 10:58 23.10.2022
1301 Clouds 7 1013 66 10000 2.39 281 06:56 23.10.2022
1302 Clouds 16 1010 38 10000 3.18 278 23:32 22.10.2022
1303 Clouds 17 1010 32 10000 3.2 279 22:30 22.10.2022
1304 Clouds 18 1010 29 10000 2.92 275 21:40 22.10.2022
1305 Clouds 17 1011 26 10000 2.32 266 20:28 22.10.2022
1306 Clouds 17 1011 26 10000 2.31 266 19:31 22.10.2022
1307 Clouds 15 1013 26 10000 2.01 258 17:42 22.10.2022
1308 Clouds 13 1015 27 10000 1.64 263 16:50 22.10.2022
1309 Clear 9 1017 40 10000 1.37 272 15:18 22.10.2022
1310 Clear 9 1017 40 10000 1.37 272 14:31 22.10.2022
1311 Clouds 2 1020 74 10000 1.85 282 11:40 22.10.2022
1312 Clear 2 1021 82 10000 2.04 283 09:46 22.10.2022
1313 Clear 3 1021 82 10000 2.14 278 08:37 22.10.2022
1314 Clear 5 1021 72 10000 2.39 275 06:19 22.10.2022
1315 Clear 10 1019 55 10000 2.74 276 00:55 22.10.2022
1316 Clear 14 1018 37 10000 3.05 277 22:52 21.10.2022
1317 Clear 14 1018 34 10000 2.8 279 21:32 21.10.2022
1318 Clear 13 1020 32 10000 2.17 283 20:27 21.10.2022
1319 Clear 11 1022 37 10000 1.57 281 18:27 21.10.2022
1320 Clear 6 1025 54 10000 0.83 312 14:40 21.10.2022
1321 Clear 5 1026 65 10000 0.71 299 13:39 21.10.2022
1322 Clear 1 1026 86 10000 0.87 279 11:46 21.10.2022
1323 Clear 1 1025 90 10000 1.03 267 10:23 21.10.2022
1324 Clear 1 1025 92 10000 1.24 262 08:44 21.10.2022
1325 Clouds 2 1024 90 10000 1.67 251 08:19 21.10.2022
1326 Clouds 4 1023 81 10000 2.7 249 03:52 21.10.2022
1327 Clouds 11 1016 42 10000 5.37 256 23:18 20.10.2022
1328 Clouds 12 1014 41 10000 6.02 247 20:56 20.10.2022
1329 Clouds 12 1014 42 10000 6.29 248 19:42 20.10.2022
1330 Clouds 12 1013 42 10000 5.71 249 18:19 20.10.2022
1331 Clouds 12 1013 42 10000 5.71 249 17:38 20.10.2022
1332 Clouds 10 1011 65 10000 5.45 261 13:32 20.10.2022
1333 Clouds 8 1011 83 10000 4.97 269 12:31 20.10.2022
1334 Clouds 6 1011 92 10000 4.22 279 11:26 20.10.2022
1335 Clouds 6 1011 92 10000 4.22 279 10:51 20.10.2022
1336 Clouds 7 1011 92 10000 3.79 280 08:42 20.10.2022
1337 Clouds 8 1011 88 10000 3.49 285 05:47 20.10.2022
1338 Clouds 11 1011 70 10000 4.63 301 01:56 20.10.2022
1339 Clouds 15 1010 50 10000 6.49 283 22:52 19.10.2022
1340 Clouds 16 1010 46 10000 6.41 278 21:59 19.10.2022
1341 Clouds 17 1010 43 10000 6.66 283 21:20 19.10.2022
1342 Clouds 17 1011 36 10000 5.24 284 18:54 19.10.2022
1343 Clouds 17 1011 31 10000 4.04 275 17:39 19.10.2022
1344 Clouds 14 1013 38 10000 2.88 268 16:22 19.10.2022
1345 Clouds 10 1016 51 10000 2.48 270 13:53 19.10.2022
1346 Clouds 7 1016 68 10000 2.66 273 10:23 19.10.2022
1347 Clouds 8 1016 69 10000 2.78 272 08:35 19.10.2022
1348 Clouds 9 1016 69 10000 2.84 272 06:50 19.10.2022
1349 Clouds 17 1013 56 10000 3.19 277 01:27 19.10.2022
1350 Clouds 21 1012 39 10000 4.09 284 23:22 18.10.2022
1351 Clouds 22 1011 38 10000 4.47 284 21:48 18.10.2022
1352 Clouds 22 1012 38 10000 3.67 285 20:59 18.10.2022
1353 Clouds 21 1013 37 10000 3.08 281 20:19 18.10.2022
1354 Clear 19 1014 43 10000 2.43 275 18:29 18.10.2022
1355 Clear 18 1014 48 10000 2.08 271 16:55 18.10.2022
1356 Clear 15 1016 58 10000 1.56 275 14:53 18.10.2022
1357 Clear 11 1017 73 10000 1.51 295 12:35 18.10.2022
1358 Clear 9 1017 77 10000 1.48 317 11:22 18.10.2022
1359 Clear 9 1018 76 10000 1.53 328 09:59 18.10.2022
1360 Clear 11 1018 72 10000 1.52 334 07:57 18.10.2022
1361 Clear 12 1019 64 10000 2.17 345 04:35 18.10.2022
1362 Clear 19 1018 44 10000 4.08 8 22:54 17.10.2022
1363 Clear 21 1018 37 10000 3.54 8 20:55 17.10.2022
1364 Clear 21 1018 37 10000 3.54 8 20:33 17.10.2022
1365 Clear 21 1019 36 10000 3 14 19:52 17.10.2022
1366 Clear 21 1019 36 10000 2.96 14 19:30 17.10.2022
1367 Clear 18 1021 43 10000 2.36 27 17:28 17.10.2022
1368 Clear 16 1022 48 10000 2.39 42 15:46 17.10.2022
1369 Clear 15 1023 51 10000 1.75 46 14:35 17.10.2022
1370 Clear 9 1024 66 10000 1.94 57 11:55 17.10.2022
1371 Clouds 11 1023 53 10000 2.19 58 06:42 17.10.2022
1372 Clouds 18 1020 37 10000 1.98 143 23:35 16.10.2022
1373 Clouds 19 1020 35 10000 2.8 110 22:21 16.10.2022
1374 Clouds 18 1020 37 10000 2.5 91 20:56 16.10.2022
1375 Clouds 17 1021 42 10000 2.84 85 19:47 16.10.2022
1376 Clouds 16 1021 49 10000 2.8 99 17:58 16.10.2022
1377 Clouds 16 1021 49 10000 2.8 99 17:39 16.10.2022
1378 Clouds 13 1022 58 10000 1.96 109 15:58 16.10.2022
1379 Clouds 12 1023 64 10000 1.77 110 14:34 16.10.2022
1380 Clouds 7 1023 93 10000 0.68 156 12:23 16.10.2022
1381 Clouds 8 1022 95 9073 1.11 212 10:28 16.10.2022
1382 Clouds 8 1022 96 8541 1.23 234 08:51 16.10.2022
1383 Clouds 12 1021 81 10000 2.17 234 02:24 16.10.2022
1384 Clouds 16 1019 60 10000 2.13 230 23:41 15.10.2022
1385 Clouds 17 1019 49 10000 1.69 226 21:29 15.10.2022
1386 Clouds 17 1019 49 10000 1.69 226 20:56 15.10.2022
1387 Clouds 15 1021 49 10000 1.9 236 18:50 15.10.2022
1388 Clouds 11 1023 53 10000 1.3 255 15:49 15.10.2022
1389 Clouds 11 1023 53 10000 1.3 255 15:31 15.10.2022
1390 Clouds 3 1025 80 10000 1.85 276 11:58 15.10.2022
1391 Clouds 3 1025 81 10000 1.91 274 11:18 15.10.2022
1392 Clouds 3 1026 84 10000 2.02 282 08:54 15.10.2022
1393 Clouds 6 1027 87 10000 2.64 275 03:21 15.10.2022
1394 Clouds 11 1024 68 10000 3.5 264 23:58 14.10.2022
1395 Clouds 13 1023 58 10000 3.68 265 22:23 14.10.2022
1396 Clouds 13 1023 58 10000 3.68 265 21:30 14.10.2022
1397 Clouds 13 1023 55 10000 2.86 269 20:18 14.10.2022
1398 Clouds 9 1026 65 10000 2.03 275 16:49 14.10.2022
1399 Clouds 5 1027 85 10000 1.51 276 13:52 14.10.2022
1400 Clouds 3 1027 92 10000 1.74 276 12:19 14.10.2022
1401 Clouds 3 1027 92 10000 1.74 276 12:19 14.10.2022
1402 Clouds 3 1026 93 10000 2.03 277 09:40 14.10.2022
1403 Clouds 3 1026 93 10000 2.05 270 07:47 14.10.2022
1404 Clouds 3 1026 93 10000 2.01 282 06:18 14.10.2022
1405 Clouds 3 1026 93 10000 2.01 282 05:42 14.10.2022
1406 Clouds 3 1026 98 3514 2.17 274 04:29 14.10.2022
1407 Clouds 7 1021 70 10000 3.3 273 23:58 13.10.2022
1408 Clouds 9 1020 58 10000 3.65 279 22:22 13.10.2022
1409 Clouds 9 1021 54 10000 3.75 276 21:25 13.10.2022
1410 Clouds 8 1022 51 10000 3.33 282 19:49 13.10.2022
1411 Clouds 6 1023 54 10000 2.87 276 19:25 13.10.2022
1412 Clouds 6 1023 54 10000 2.87 276 18:42 13.10.2022
1413 Clouds 4 1025 60 10000 3.12 271 16:50 13.10.2022
1414 Clouds 3 1025 63 10000 3.25 274 15:45 13.10.2022
1415 Clouds 1 1027 74 10000 2.86 277 14:19 13.10.2022
1416 Clouds -1 1027 83 10000 2.97 278 12:50 13.10.2022
1417 Clouds -2 1027 87 10000 2.98 275 11:35 13.10.2022
1418 Clouds -2 1026 86 10000 3.34 278 09:40 13.10.2022
1419 Clouds -1 1025 85 10000 3.45 278 07:40 13.10.2022
1420 Clouds -1 1025 85 10000 3.48 278 06:40 13.10.2022
1421 Clouds 1 1022 74 10000 4.23 282 01:48 13.10.2022
1422 Clouds 2 1021 67 10000 4.44 279 00:53 13.10.2022
1423 Clouds 5 1019 52 10000 7.42 258 22:46 12.10.2022
1424 Clouds 5 1017 49 10000 8.47 248 22:28 12.10.2022
1425 Rain 5 1017 50 10000 9.53 240 21:21 12.10.2022
1426 Rain 5 1017 50 10000 9.53 240 20:52 12.10.2022
1427 Rain 5 1014 57 3470 12.69 238 19:29 12.10.2022
1428 Rain 6 1012 58 6199 13.18 256 18:21 12.10.2022
1429 Rain 6 1012 58 6199 13.18 256 17:47 12.10.2022
1430 Rain 7 1010 71 10000 13.73 269 15:35 12.10.2022
1431 Rain 6 1010 78 10000 9.12 280 13:55 12.10.2022
1432 Clouds 4 1012 85 10000 7.27 278 12:34 12.10.2022
1433 Clouds 3 1010 86 10000 5.46 270 09:37 12.10.2022
1434 Clouds 4 1011 88 10000 4.75 267 07:42 12.10.2022
1435 Clouds 5 1010 88 10000 4.57 272 06:45 12.10.2022
1436 Clouds 5 1011 88 10000 4.52 280 06:22 12.10.2022
1437 Clouds 6 1014 87 10000 3.79 296 00:55 12.10.2022
1438 Clouds 9 1013 73 10000 4.91 291 21:43 11.10.2022
1439 Clouds 10 1013 70 10000 5.23 279 20:38 11.10.2022
1440 Clouds 8 1014 82 10000 3.66 283 18:28 11.10.2022
1441 Clouds 8 1015 84 9955 3.49 277 16:37 11.10.2022
1442 Clouds 7 1015 71 10000 2.88 287 14:34 11.10.2022
1443 Clouds 3 1017 81 10000 2.66 286 11:52 11.10.2022
1444 Clouds 3 1018 81 10000 2.7 282 10:28 11.10.2022
1445 Clouds 4 1018 82 10000 2.67 278 09:26 11.10.2022
1446 Clouds 6 1019 83 10000 2.67 272 05:36 11.10.2022
1447 Clear 8 1018 82 10000 2.86 256 02:19 11.10.2022
1448 Clear 12 1016 57 10000 3.51 249 00:27 11.10.2022
1449 Clear 15 1015 40 10000 3.47 249 21:23 10.10.2022
1450 Clear 15 1015 39 10000 3.01 252 19:45 10.10.2022
1451 Clear 12 1017 41 10000 2.34 254 18:25 10.10.2022
1452 Clear 10 1018 43 10000 2.16 258 16:48 10.10.2022
1453 Clear 6 1020 54 10000 2.28 256 14:48 10.10.2022
1454 Clear 2 1021 72 10000 2.1 268 12:38 10.10.2022
1455 Clear 1 1021 81 10000 2.06 275 11:18 10.10.2022
1456 Clear 2 1021 86 10000 2.31 275 07:47 10.10.2022
1457 Clear 2 1022 88 10000 2.45 277 05:41 10.10.2022
1458 Clear 3 1022 91 10000 2.6 267 02:53 10.10.2022
1459 Clear 8 1019 69 10000 3.69 250 00:26 10.10.2022
1460 Clear 11 1018 58 10000 3.92 255 22:27 09.10.2022
1461 Clear 11 1018 58 10000 3.92 255 21:54 09.10.2022
1462 Clear 11 1018 56 10000 3.72 254 20:57 09.10.2022
1463 Clouds 11 1018 53 10000 3.49 252 19:54 09.10.2022
1464 Clouds 11 1018 53 10000 3.49 252 19:32 09.10.2022
1465 Clouds 10 1019 54 10000 3.23 254 18:32 09.10.2022
1466 Clouds 7 1022 60 10000 3.03 255 16:56 09.10.2022
1467 Clouds 5 1023 65 10000 2.75 260 16:25 09.10.2022
1468 Clouds 5 1023 65 10000 2.75 260 15:37 09.10.2022
1469 Clouds 2 1025 80 10000 3.09 265 14:28 09.10.2022
1470 Clouds 0 1026 88 10000 2.89 274 12:58 09.10.2022
1471 Clouds -1 1026 92 10000 2.86 273 11:44 09.10.2022
1472 Clouds -1 1027 91 10000 2.94 272 10:25 09.10.2022
1473 Clouds -1 1027 90 10000 3.1 276 07:57 09.10.2022
1474 Clouds 1 1027 91 10000 3.52 276 03:36 09.10.2022
1475 Clouds 2 1026 87 10000 3.45 287 02:23 09.10.2022
1476 Clouds 6 1024 67 10000 4.89 267 23:56 08.10.2022
1477 Clear 7 1023 60 10000 5.29 263 22:53 08.10.2022
1478 Clear 8 1022 56 10000 5.3 258 21:43 08.10.2022
1479 Clouds 9 1022 55 10000 4.75 256 19:57 08.10.2022
1480 Clouds 7 1023 54 10000 4.52 259 18:24 08.10.2022
1481 Clouds 4 1024 60 10000 4.07 261 15:56 08.10.2022
1482 Clouds 3 1024 69 10000 3.62 257 14:32 08.10.2022
1483 Clouds 0 1023 84 10000 3.23 272 12:31 08.10.2022
1484 Clouds -1 1022 89 10000 2.91 276 10:37 08.10.2022
1485 Clouds -1 1021 90 10000 2.95 271 09:50 08.10.2022
1486 Clouds -1 1021 90 10000 2.9 272 08:38 08.10.2022
1487 Clouds 0 1017 82 10000 2.91 262 03:50 08.10.2022
1488 Clouds 2 1011 69 10000 4.69 265 00:34 08.10.2022
1489 Clouds 4 1008 55 10000 9.76 253 23:20 07.10.2022
1490 Clouds 4 1008 55 10000 9.76 253 22:32 07.10.2022
1491 Clouds 6 1006 53 10000 11.29 248 20:50 07.10.2022
1492 Rain 7 1003 60 10000 11.07 260 19:28 07.10.2022
1493 Rain 7 1002 65 10000 6.92 261 17:37 07.10.2022
1494 Rain 7 1002 81 10000 4.96 253 16:30 07.10.2022
1495 Rain 5 1001 98 260 2.07 263 14:44 07.10.2022
1496 Rain 7 999 90 10000 4.65 285 12:25 07.10.2022
1497 Rain 6 1003 94 10000 5.69 285 09:28 07.10.2022
1498 Rain 6 1003 94 10000 5.69 285 08:56 07.10.2022
1499 Rain 6 1006 94 6518 4.93 293 06:51 07.10.2022
1500 Rain 5 1010 91 10000 3.94 268 00:52 07.10.2022
1501 Rain 8 1010 73 10000 5.37 280 22:50 06.10.2022
1502 Clouds 9 1010 61 10000 5.62 278 21:44 06.10.2022
1503 Clouds 10 1010 54 10000 5.25 273 21:25 06.10.2022
1504 Clouds 10 1011 51 10000 4.75 272 19:55 06.10.2022
1505 Clouds 10 1012 50 10000 4.48 268 18:37 06.10.2022
1506 Clouds 9 1013 56 10000 4.35 267 18:18 06.10.2022
1507 Clouds 5 1015 76 10000 4.11 269 14:42 06.10.2022
1508 Clouds 2 1013 94 10000 3.22 275 11:30 06.10.2022
1509 Clouds 5 1006 79 10000 8.54 279 06:53 06.10.2022
1510 Clouds 4 1008 88 10000 6.28 289 03:34 06.10.2022
1511 Clouds 10 1007 59 10000 5.96 291 23:20 05.10.2022
1512 Clouds 11 1007 51 10000 5.21 309 19:58 05.10.2022
1513 Clouds 10 1009 55 10000 4.62 315 18:42 05.10.2022
1514 Clouds 9 1012 64 10000 4.14 310 17:34 05.10.2022
1515 Clouds 7 1014 74 10000 3.57 298 15:54 05.10.2022
1516 Clouds 6 1015 80 10000 3.58 295 14:47 05.10.2022
1517 Clouds 5 1016 87 10000 3.28 297 13:55 05.10.2022
1518 Clouds 3 1016 95 10000 2.96 303 12:20 05.10.2022
1519 Clouds 5 1016 88 10000 2.97 297 08:53 05.10.2022
1520 Clouds 5 1016 89 10000 3.05 286 07:35 05.10.2022
1521 Clouds 6 1016 83 10000 2.8 288 05:35 05.10.2022
1522 Clouds 6 1016 87 10000 3.02 294 02:47 05.10.2022
1523 Clouds 6 1014 91 10000 3.09 282 00:41 05.10.2022
1524 Clouds 7 1013 88 10000 3.33 278 00:23 05.10.2022
1525 Clouds 8 1012 83 10000 3.26 285 21:59 04.10.2022
1526 Clouds 8 1012 83 6642 3.13 281 20:29 04.10.2022
1527 Clouds 8 1011 84 6560 3.27 284 18:57 04.10.2022
1528 Clouds 8 1011 84 6560 3.27 284 18:35 04.10.2022
1529 Clouds 9 1011 82 7071 3.45 287 17:41 04.10.2022
1530 Rain 8 1011 78 10000 3.11 303 16:26 04.10.2022
1531 Clouds 6 1010 90 10000 2.89 305 12:24 04.10.2022
1532 Clouds 6 1010 89 10000 2.64 287 08:42 04.10.2022
1533 Clouds 7 1011 86 10000 2.38 279 06:25 04.10.2022
1534 Clouds 11 1008 73 10000 3.17 263 01:24 04.10.2022
1535 Clouds 13 1007 65 10000 3.74 260 23:36 03.10.2022
1536 Clouds 15 1005 56 10000 3.3 263 21:46 03.10.2022
1537 Clouds 14 1006 70 10000 2.65 280 20:51 03.10.2022
1538 Clouds 14 1007 68 10000 1.97 257 18:57 03.10.2022
1539 Clouds 14 1008 64 10000 1.95 252 17:39 03.10.2022
1540 Clouds 14 1008 60 10000 1.37 274 16:40 03.10.2022
1541 Clouds 12 1009 63 10000 0.93 323 15:26 03.10.2022
1542 Clouds 11 1010 67 10000 0.83 322 13:39 03.10.2022
1543 Clouds 10 1010 70 10000 1.54 40 11:47 03.10.2022
1544 Clouds 10 1011 70 10000 1.75 57 10:25 03.10.2022
1545 Clouds 10 1011 71 10000 2.06 38 08:59 03.10.2022
1546 Clouds 12 1013 68 10000 1.57 0 04:49 03.10.2022
1547 Clouds 13 1013 64 10000 0.77 16 01:51 03.10.2022
1548 Clouds 17 1014 47 10000 0.85 256 22:19 02.10.2022
1549 Clouds 17 1015 47 10000 1.45 280 20:22 02.10.2022
1550 Clouds 15 1018 48 10000 0.94 47 17:59 02.10.2022
1551 Clouds 14 1019 48 10000 2.16 57 17:20 02.10.2022
1552 Clouds 14 1019 48 10000 2.16 57 16:33 02.10.2022
1553 Clouds 13 1019 45 10000 2.68 68 15:39 02.10.2022
1554 Clouds 10 1021 52 10000 1.42 84 13:47 02.10.2022
1555 Clouds 9 1021 58 10000 1.4 77 12:43 02.10.2022
1556 Clouds 8 1021 60 10000 0.88 87 12:23 02.10.2022
1557 Clouds 8 1021 60 10000 0.88 87 11:34 02.10.2022
1558 Clouds 7 1021 64 10000 0.49 70 10:29 02.10.2022
1559 Clouds 8 1021 62 10000 0.56 226 08:31 02.10.2022
1560 Clouds 9 1021 58 10000 0.12 70 05:23 02.10.2022
1561 Clouds 11 1020 55 10000 1.02 217 01:29 02.10.2022
1562 Clouds 11 1020 55 10000 1.02 217 00:39 02.10.2022
1563 Clouds 11 1020 55 10000 1.02 217 00:39 02.10.2022
1564 Clouds 11 1020 55 10000 1.02 217 00:39 02.10.2022
1565 Clouds 15 1019 40 10000 1.72 209 23:29 01.10.2022
1566 Clouds 15 1019 34 10000 1.56 207 22:24 01.10.2022
1567 Clouds 15 1019 30 10000 0.58 159 19:31 01.10.2022
1568 Clouds 13 1020 36 10000 0.54 94 17:46 01.10.2022
1569 Clouds 9 1022 49 10000 0.43 97 16:24 01.10.2022
1570 Clouds 5 1024 69 10000 0.51 248 14:18 01.10.2022
1571 Clouds 3 1025 82 10000 1.05 265 12:35 01.10.2022
1572 Clouds 2 1024 90 10000 1.51 286 11:23 01.10.2022
1573 Clouds 2 1024 90 10000 1.51 286 10:53 01.10.2022
1574 Clouds 2 1024 90 10000 1.51 286 10:30 01.10.2022
1575 Clouds 2 1024 94 10000 2.03 278 09:25 01.10.2022
1576 Clear 3 1023 92 10000 2.1 275 08:27 01.10.2022
1577 Clear 5 1023 91 10000 2.4 277 03:47 01.10.2022
1578 Clear 6 1023 89 10000 2.62 280 03:18 01.10.2022
1579 Clouds 11 1019 72 10000 2.94 272 23:21 30.09.2022
1580 Clouds 10 1020 78 10000 2.85 267 22:18 30.09.2022
1581 Clouds 9 1020 83 10000 2.78 267 20:57 30.09.2022
1582 Clouds 9 1020 84 10000 2.63 263 20:20 30.09.2022
1583 Clouds 10 1020 82 10000 2.71 256 18:32 30.09.2022
1584 Clouds 11 1019 73 10000 2.35 253 16:54 30.09.2022
1585 Clouds 8 1020 75 10000 2 275 14:24 30.09.2022
1586 Clouds 6 1020 74 10000 1.93 276 12:50 30.09.2022
1587 Clouds 6 1019 73 10000 1.97 276 11:56 30.09.2022
1588 Clouds 7 1019 70 10000 2.05 276 09:24 30.09.2022
1589 Clouds 7 1019 69 10000 2.3 270 07:50 30.09.2022
1590 Clouds 10 1018 71 10000 2.37 268 03:19 30.09.2022
1591 Clouds 11 1016 67 10000 2.75 260 01:23 30.09.2022
1592 Clouds 16 1014 40 10000 3.41 261 21:40 29.09.2022
1593 Clouds 16 1013 37 10000 3.26 263 21:19 29.09.2022
1594 Clouds 16 1014 37 10000 2.92 262 19:56 29.09.2022
1595 Clouds 15 1015 43 10000 2.34 264 17:49 29.09.2022
1596 Clouds 12 1016 55 10000 2.1 263 16:29 29.09.2022
1597 Clouds 12 1016 55 10000 2.1 263 15:37 29.09.2022
1598 Clouds 10 1017 64 10000 1.78 273 14:59 29.09.2022
1599 Clouds 6 1018 84 10000 1.85 275 12:22 29.09.2022
1600 Clear 7 1019 86 10000 1.86 278 08:45 29.09.2022
1601 Clear 9 1020 79 10000 1.77 281 04:46 29.09.2022
1602 Clear 11 1020 70 10000 1.94 275 02:36 29.09.2022
1603 Clear 17 1019 41 10000 1.73 254 23:21 28.09.2022
1604 Clear 18 1019 38 10000 1.79 256 21:31 28.09.2022
1605 Clear 18 1020 36 10000 1.57 256 20:51 28.09.2022
1606 Clear 17 1021 36 10000 1.4 249 19:56 28.09.2022
1607 Clear 14 1024 45 10000 0.28 280 16:35 28.09.2022
1608 Clear 5 1027 83 10000 0.63 287 13:28 28.09.2022
1609 Clear 4 1027 87 10000 0.63 282 11:45 28.09.2022
1610 Clear 4 1027 88 10000 0.73 287 09:36 28.09.2022
1611 Clear 5 1027 90 10000 0.56 304 07:42 28.09.2022
1612 Clear 6 1027 90 10000 0.98 262 05:32 28.09.2022
1613 Clear 9 1026 81 10000 1.74 256 01:44 28.09.2022
1614 Clear 13 1024 62 10000 1.53 240 00:28 28.09.2022
1615 Clear 14 1024 51 10000 1.61 243 22:40 27.09.2022
1616 Clear 13 1024 47 10000 1.44 245 21:20 27.09.2022
1617 Clear 13 1024 46 10000 1.49 239 20:26 27.09.2022
1618 Clear 13 1024 45 10000 1.5 239 19:37 27.09.2022
1619 Clear 10 1026 46 10000 1.54 245 17:47 27.09.2022
1620 Clear 7 1028 50 10000 1.77 251 16:25 27.09.2022
1621 Clear 5 1029 56 10000 1.76 253 15:18 27.09.2022
1622 Clear 3 1029 64 10000 2.03 258 13:52 27.09.2022
1623 Clear 1 1029 75 10000 2.15 264 12:36 27.09.2022
1624 Clear 0 1027 86 10000 2.42 273 09:54 27.09.2022
1625 Clouds 1 1026 91 10000 3.11 258 07:41 27.09.2022
1626 Clouds 4 1023 86 10000 4.01 277 03:51 27.09.2022
1627 Clouds 4 1021 87 10000 3.44 289 01:36 27.09.2022
1628 Clouds 7 1017 61 10000 3.61 273 23:45 26.09.2022
1629 Clouds 8 1015 53 10000 4.36 279 23:21 26.09.2022
1630 Clouds 10 1012 50 10000 5.68 271 20:58 26.09.2022
1631 Clouds 10 1011 51 10000 6.29 272 19:42 26.09.2022
1632 Clouds 10 1011 51 10000 6.97 275 18:39 26.09.2022
1633 Clouds 9 1010 60 10000 6.35 281 17:24 26.09.2022
1634 Clouds 6 1010 77 10000 4.38 287 14:48 26.09.2022
1635 Rain 3 1010 96 9539 2.91 278 11:37 26.09.2022
1636 Rain 3 1009 95 10000 3.2 293 10:41 26.09.2022
1637 Rain 3 1009 95 10000 3.2 297 10:22 26.09.2022
1638 Rain 3 1009 95 10000 3.2 297 09:56 26.09.2022
1639 Clouds 3 1010 92 10000 2.96 299 09:25 26.09.2022
1640 Clouds 3 1010 92 10000 2.96 299 08:58 26.09.2022
1641 Clouds 4 1012 81 10000 3.39 321 03:48 26.09.2022
1642 Clouds 5 1012 76 10000 2.95 314 01:52 26.09.2022
1643 Clouds 9 1012 54 10000 3.86 291 23:20 25.09.2022
1644 Clouds 10 1012 50 10000 4.49 292 21:44 25.09.2022
1645 Clouds 10 1013 48 10000 4.33 298 20:57 25.09.2022
1646 Clouds 10 1013 48 10000 4.33 298 20:31 25.09.2022
1647 Clouds 9 1016 55 10000 2.86 292 18:44 25.09.2022
1648 Clouds 8 1018 62 10000 2.26 287 18:21 25.09.2022
1649 Clouds 7 1019 68 10000 2.05 276 16:55 25.09.2022
1650 Clouds 5 1020 75 10000 2.09 276 15:46 25.09.2022
1651 Clouds 4 1021 81 10000 2.13 277 14:31 25.09.2022
1652 Clouds 3 1021 85 10000 2.13 280 13:45 25.09.2022
1653 Clouds 2 1022 93 10000 2.18 279 10:37 25.09.2022
1654 Clouds 2 1022 93 10000 2.24 288 08:25 25.09.2022
1655 Clouds 3 1022 90 10000 2.25 286 06:24 25.09.2022
1656 Clouds 4 1022 83 10000 2.31 282 03:20 25.09.2022
1657 Clouds 9 1019 57 10000 2.72 258 23:23 24.09.2022
1658 Clouds 10 1018 55 10000 2.53 256 21:19 24.09.2022
1659 Clouds 9 1019 60 10000 2.15 261 19:23 24.09.2022
1660 Clouds 8 1020 63 10000 2 268 18:18 24.09.2022
1661 Clouds 6 1021 68 10000 1.87 269 16:36 24.09.2022
1662 Clouds 3 1022 80 10000 1.82 277 15:22 24.09.2022
1663 Clouds 2 1023 87 10000 1.85 282 13:50 24.09.2022
1664 Clouds 1 1023 92 10000 1.97 284 12:58 24.09.2022
1665 Clouds 0 1022 93 10000 2.18 281 11:41 24.09.2022
1666 Clouds 0 1022 91 10000 2.34 278 09:54 24.09.2022
1667 Clouds 0 1022 91 10000 2.41 281 08:47 24.09.2022
1668 Clouds 1 1022 87 10000 2.46 276 07:39 24.09.2022
1669 Clouds 2 1022 89 10000 2.63 284 04:48 24.09.2022
1670 Clouds 2 1022 88 10000 2.61 284 03:42 24.09.2022
1671 Clouds 8 1018 62 10000 3.81 274 22:36 23.09.2022
1672 Clouds 9 1017 62 10000 3.88 280 21:28 23.09.2022
1673 Clouds 9 1017 62 10000 3.88 280 20:56 23.09.2022
1674 Clouds 9 1017 63 10000 4.04 277 20:20 23.09.2022
1675 Clouds 9 1018 67 10000 3.82 278 18:50 23.09.2022
1676 Clouds 5 1019 90 10000 2.29 289 14:33 23.09.2022
1677 Clouds 4 1017 94 10000 1.72 299 10:45 23.09.2022
1678 Clouds 3 1017 97 9145 2.16 292 09:29 23.09.2022
1679 Clouds 4 1019 95 10000 1.77 296 04:59 23.09.2022
1680 Clouds 5 1019 99 90 1.56 281 23:31 22.09.2022
1681 Clouds 5 1019 98 80 1.54 276 22:41 22.09.2022
1682 Clouds 5 1019 99 66 1.48 269 22:19 22.09.2022
1683 Clouds 5 1019 99 73 1.47 260 20:45 22.09.2022
1684 Clouds 6 1020 94 6538 1.8 244 19:27 22.09.2022
1685 Clouds 5 1020 92 10000 1.31 250 16:57 22.09.2022
1686 Clouds 3 1021 97 295 2.08 295 11:58 22.09.2022
1687 Clouds 3 1021 96 10000 2.28 308 10:20 22.09.2022
1688 Clouds 3 1021 96 10000 2.36 300 08:39 22.09.2022
1689 Clouds 3 1022 92 10000 3.14 285 06:27 22.09.2022
1690 Clouds 3 1023 92 10000 3.43 278 02:39 22.09.2022
1691 Clouds 7 1020 69 10000 4.54 265 22:32 21.09.2022
1692 Clouds 7 1020 68 10000 4.64 264 21:38 21.09.2022
1693 Clouds 7 1021 70 10000 4.53 266 19:30 21.09.2022
1694 Clouds 6 1022 74 10000 4.02 266 17:46 21.09.2022
1695 Clouds 3 1024 79 10000 3.29 269 16:22 21.09.2022
1696 Clouds 1 1025 85 10000 2.89 270 13:57 21.09.2022
1697 Clouds 0 1025 92 10000 2.67 275 11:44 21.09.2022
1698 Clouds 0 1025 94 10000 2.57 274 11:22 21.09.2022
1699 Clouds 0 1025 94 10000 2.61 271 09:44 21.09.2022
1700 Clouds 0 1025 95 10000 2.63 269 08:50 21.09.2022
1701 Clouds 0 1025 96 9741 2.59 259 05:53 21.09.2022
1702 Clouds 2 1024 97 8732 2.03 251 02:42 21.09.2022
1703 Clouds 2 1024 92 10000 1.75 245 02:19 21.09.2022
1704 Clouds 4 1022 85 10000 1.83 244 00:20 21.09.2022
1705 Rain 4 1021 81 7012 2.22 249 21:55 20.09.2022
1706 Rain 5 1021 78 7819 2.41 244 20:34 20.09.2022
1707 Clouds 5 1022 69 10000 2.3 248 19:18 20.09.2022
1708 Clouds 3 1023 81 10000 2.08 241 15:57 20.09.2022
1709 Clouds 0 1024 89 10000 1.72 251 14:29 20.09.2022
1710 Clouds -2 1025 93 10000 1.33 269 12:32 20.09.2022
1711 Clouds -1 1024 91 10000 1.29 263 08:50 20.09.2022
1712 Clouds -1 1024 91 10000 1.06 265 08:24 20.09.2022
1713 Clouds 0 1024 86 10000 0.88 291 04:40 20.09.2022
1714 Clouds 1 1024 84 10000 0.51 307 02:34 20.09.2022
1715 Clouds 4 1023 73 10000 0.86 223 22:46 19.09.2022
1716 Clouds 4 1023 73 10000 0.83 211 21:36 19.09.2022
1717 Clouds 4 1024 74 10000 0.69 198 20:40 19.09.2022
1718 Clouds 3 1026 78 10000 0.38 130 19:20 19.09.2022
1719 Clouds 2 1026 79 10000 0.41 133 17:37 19.09.2022
1720 Clouds 1 1028 95 2029 0.6 222 13:49 19.09.2022
1721 Clouds 0 1028 95 3476 0.35 203 12:26 19.09.2022
1722 Clouds -1 1028 95 5824 0.12 162 10:19 19.09.2022
1723 Clouds 1 1028 95 6350 0.69 130 08:37 19.09.2022
1724 Snow 1 1029 97 1831 1.56 94 04:26 19.09.2022
1725 Rain 2 1028 99 54 1.93 93 00:52 19.09.2022
1726 Rain 3 1027 99 46 2.11 92 22:42 18.09.2022
1727 Rain 3 1027 99 40 2.26 101 21:26 18.09.2022
1728 Rain 3 1027 100 38 2.34 100 19:40 18.09.2022
1729 Rain 3 1028 100 43 2.28 111 17:52 18.09.2022
1730 Rain 3 1028 100 65 2.13 115 16:56 18.09.2022
1731 Rain 2 1028 100 43 1.99 126 14:52 18.09.2022
1732 Rain 2 1028 100 34 1.82 125 13:41 18.09.2022
1733 Rain 2 1026 99 30 2.31 134 12:20 18.09.2022
1734 Rain 2 1026 100 28 1.88 145 09:44 18.09.2022
1735 Rain 3 1024 99 40 2.1 173 01:44 18.09.2022
1736 Rain 4 1023 96 71 1.87 170 01:20 18.09.2022
1737 Rain 5 1022 82 7606 2.12 138 22:57 17.09.2022
1738 Clouds 5 1021 72 10000 1.61 144 20:55 17.09.2022
1739 Clouds 4 1021 72 10000 1.37 142 19:39 17.09.2022
1740 Clouds 2 1022 73 10000 0.86 152 18:21 17.09.2022
1741 Clouds -2 1023 91 10000 1.17 204 14:24 17.09.2022
1742 Clouds -3 1023 93 10000 1.45 234 13:26 17.09.2022
1743 Clouds -2 1022 94 10000 1.29 240 10:49 17.09.2022
1744 Clouds 0 1021 95 10000 1.47 259 07:28 17.09.2022
1745 Clouds 0 1021 96 10000 1.49 249 06:19 17.09.2022
1746 Rain 3 1017 98 91 2.03 228 23:41 16.09.2022
1747 Rain 3 1015 96 172 1.89 225 22:19 16.09.2022
1748 Rain 3 1015 97 129 1.6 231 20:53 16.09.2022
1749 Rain 3 1015 96 235 1.47 215 19:29 16.09.2022
1750 Rain 2 1015 97 123 1.81 209 16:22 16.09.2022
1751 Rain 2 1015 96 206 1.3 218 14:51 16.09.2022
1752 Rain 2 1013 99 75 2.35 207 13:21 16.09.2022
1753 Rain 3 1011 99 66 2.38 230 10:24 16.09.2022
1754 Rain 3 1010 96 916 2.7 231 07:23 16.09.2022
1755 Rain 3 1010 96 916 2.7 231 06:48 16.09.2022
1756 Rain 4 1009 96 1688 2.32 229 05:55 16.09.2022
1757 Rain 5 1007 95 10000 3.13 268 01:45 16.09.2022
1758 Rain 8 1003 83 10000 4.15 292 21:34 15.09.2022
1759 Rain 9 1002 79 10000 4.86 288 20:33 15.09.2022
1760 Rain 8 1005 85 10000 3.14 291 19:24 15.09.2022
1761 Rain 8 1005 87 10000 3.33 283 17:40 15.09.2022
1762 Rain 8 1006 87 10000 3.05 285 17:22 15.09.2022
1763 Rain 7 1005 89 10000 3.27 285 15:38 15.09.2022
1764 Rain 6 1006 96 10000 3.51 302 12:50 15.09.2022
1765 Rain 6 1006 95 10000 3.19 308 11:47 15.09.2022
1766 Rain 7 1006 94 10000 3.31 335 09:43 15.09.2022
1767 Rain 7 1009 93 10000 3.01 354 05:37 15.09.2022
1768 Clouds 7 1010 90 10000 3.68 342 03:29 15.09.2022
1769 Clouds 9 1010 82 10000 4.48 339 22:51 14.09.2022
1770 Clouds 12 1010 70 10000 5.34 313 20:30 14.09.2022
1771 Clouds 12 1011 70 10000 5.34 313 19:32 14.09.2022
1772 Clouds 10 1012 79 10000 4.69 322 17:35 14.09.2022
1773 Clouds 8 1014 84 10000 3.84 321 16:36 14.09.2022
1774 Clouds 8 1014 84 10000 3.84 321 16:36 14.09.2022
1775 Clouds 6 1015 91 10000 4.13 329 14:50 14.09.2022
1776 Clouds 5 1016 94 8490 3.64 324 12:34 14.09.2022
1777 Clouds 6 1016 94 10000 3.38 313 09:51 14.09.2022
1778 Clouds 6 1017 92 10000 3.02 301 07:55 14.09.2022
1779 Clouds 7 1016 91 10000 2.9 298 06:49 14.09.2022
1780 Clouds 7 1017 90 10000 3.1 299 06:25 14.09.2022
1781 Clouds 7 1017 87 10000 3.62 315 02:19 14.09.2022
1782 Clouds 7 1017 87 10000 3.64 315 01:30 14.09.2022
1783 Clouds 8 1017 84 10000 3.68 308 00:52 14.09.2022
1784 Clouds 9 1017 77 10000 3.92 300 23:54 13.09.2022
1785 Clouds 9 1017 77 10000 3.92 300 23:36 13.09.2022
1786 Clouds 10 1016 67 10000 5.09 299 23:18 13.09.2022
1787 Clouds 11 1015 60 10000 5.49 293 22:22 13.09.2022
1788 Clouds 12 1015 56 10000 5.67 296 20:41 13.09.2022
1789 Clouds 11 1017 60 10000 3.68 296 18:37 13.09.2022
1790 Clouds 8 1020 77 10000 2.4 299 15:58 13.09.2022
1791 Clouds 6 1021 82 10000 2.24 299 14:50 13.09.2022
1792 Clouds 3 1022 90 10000 2.07 290 13:25 13.09.2022
1793 Clouds 4 1021 86 10000 2.01 289 09:49 13.09.2022
1794 Clouds 5 1020 83 10000 1.77 287 07:21 13.09.2022
1795 Clouds 8 1020 76 10000 1.86 276 00:31 13.09.2022
1796 Clouds 10 1019 63 10000 1.56 264 22:51 12.09.2022
1797 Clouds 10 1019 60 10000 1.07 264 22:22 12.09.2022
1798 Clouds 10 1019 57 10000 0.14 176 20:42 12.09.2022
1799 Clouds 9 1020 61 10000 0.26 41 18:52 12.09.2022
1800 Clouds 7 1023 68 10000 0.34 339 17:25 12.09.2022
1801 Clouds 6 1024 75 10000 0.87 270 14:54 12.09.2022
1802 Clouds 5 1024 85 10000 1.27 276 11:51 12.09.2022
1803 Clouds 5 1023 88 10000 1.73 274 09:57 12.09.2022
1804 Clouds 5 1024 83 10000 2.68 272 04:57 12.09.2022
1805 Clouds 5 1024 82 10000 2.83 268 04:27 12.09.2022
1806 Clouds 7 1020 81 10000 3.55 269 23:47 11.09.2022
1807 Clouds 8 1019 73 10000 4.22 269 22:43 11.09.2022
1808 Clouds 10 1018 63 10000 4.72 266 20:51 11.09.2022
1809 Clouds 10 1017 63 10000 4.58 266 20:21 11.09.2022
1810 Clouds 10 1018 64 10000 4.3 265 19:26 11.09.2022
1811 Clouds 10 1018 64 10000 4.3 265 18:37 11.09.2022
1812 Clouds 8 1019 76 10000 3.64 269 16:56 11.09.2022
1813 Clouds 6 1019 82 10000 3.01 272 14:56 11.09.2022
1814 Clouds 4 1019 86 10000 2.8 279 12:53 11.09.2022
1815 Clouds 5 1019 84 10000 2.7 269 09:28 11.09.2022
1816 Clouds 5 1019 85 10000 2.45 267 07:43 11.09.2022
1817 Clouds 5 1019 87 10000 2.57 261 02:55 11.09.2022
1818 Clouds 10 1016 69 10000 2.19 242 23:27 10.09.2022
1819 Clouds 10 1017 67 10000 2.02 243 21:33 10.09.2022
1820 Clouds 10 1018 67 10000 1.72 245 19:49 10.09.2022
1821 Clouds 9 1019 69 10000 1.63 243 19:29 10.09.2022
1822 Clouds 9 1019 69 10000 1.63 243 18:58 10.09.2022
1823 Clouds 6 1021 76 10000 1.7 243 16:57 10.09.2022
1824 Clouds 4 1022 84 10000 1.88 258 14:45 10.09.2022
1825 Clouds 2 1022 93 10000 2.19 271 12:53 10.09.2022
1826 Clouds 3 1022 93 10000 2.16 267 11:35 10.09.2022
1827 Clouds 4 1022 92 10000 2.07 266 09:51 10.09.2022
1828 Clouds 4 1022 90 10000 2.27 261 08:37 10.09.2022
1829 Clouds 4 1023 88 10000 2.28 263 07:49 10.09.2022
1830 Clouds 5 1023 83 10000 3.09 260 00:51 10.09.2022
1831 Clouds 6 1022 79 10000 3.15 264 23:34 09.09.2022
1832 Clouds 8 1022 70 10000 3.75 265 22:20 09.09.2022
1833 Clouds 8 1022 68 10000 3.81 265 20:48 09.09.2022
1834 Clouds 7 1022 68 10000 3.63 261 19:25 09.09.2022
1835 Clouds 7 1022 68 10000 3.63 261 18:53 09.09.2022
1836 Clouds 5 1024 75 10000 3.03 263 16:33 09.09.2022
1837 Clouds 1 1025 88 10000 2.79 280 13:51 09.09.2022
1838 Clouds 0 1025 92 10000 2.78 279 12:47 09.09.2022
1839 Clouds 0 1025 90 10000 2.99 279 09:57 09.09.2022
1840 Clouds 1 1024 87 10000 3.2 279 05:38 09.09.2022
1841 Clouds 1 1024 89 10000 3.23 273 03:20 09.09.2022
1842 Clouds 7 1019 59 10000 3.82 263 21:53 08.09.2022
1843 Clouds 7 1019 60 10000 3.39 261 20:56 08.09.2022
1844 Clouds 7 1019 60 10000 3.39 261 20:31 08.09.2022
1845 Clouds 6 1019 62 10000 3.09 260 19:56 08.09.2022
1846 Clouds 5 1020 71 10000 2.7 268 18:22 08.09.2022
1847 Clouds 3 1020 78 10000 2.53 269 16:19 08.09.2022
1848 Clouds 2 1020 82 10000 2.38 274 14:40 08.09.2022
1849 Clouds 1 1019 86 10000 2.49 276 13:26 08.09.2022
1850 Clouds 1 1019 88 10000 2.44 277 11:39 08.09.2022
1851 Clouds 1 1018 89 10000 2.23 273 10:48 08.09.2022
1852 Clouds 1 1018 90 10000 2.45 278 07:57 08.09.2022
1853 Clouds 1 1018 91 10000 2.41 277 06:41 08.09.2022
1854 Clouds 2 1017 93 6627 1.49 266 02:36 08.09.2022
1855 Clouds 2 1017 94 6305 2.01 260 02:18 08.09.2022
1856 Rain 3 1015 95 330 2.12 232 00:27 08.09.2022
1857 Rain 4 1014 86 4264 2.8 217 22:36 07.09.2022
1858 Clouds 4 1013 77 10000 2.42 205 21:41 07.09.2022
1859 Clouds 5 1013 78 10000 2.76 206 20:38 07.09.2022
1860 Clouds 5 1012 77 10000 2.72 206 19:30 07.09.2022
1861 Clouds 3 1013 89 9829 2.06 212 17:22 07.09.2022
1862 Rain 2 1010 99 49 2.28 183 12:41 07.09.2022
1863 Rain 3 1008 100 37 1.36 193 10:45 07.09.2022
1864 Clouds 4 1007 94 9512 1.11 200 08:33 07.09.2022
1865 Clouds 5 1007 94 9435 1.21 75 06:50 07.09.2022
1866 Clouds 6 1004 84 10000 2.09 260 00:53 07.09.2022
1867 Clouds 12 1001 48 10000 4.06 282 22:28 06.09.2022
1868 Clouds 12 1001 48 10000 4.06 282 21:38 06.09.2022
1869 Clouds 14 1001 34 10000 5.84 288 19:40 06.09.2022
1870 Clouds 14 1002 33 10000 5.42 286 18:40 06.09.2022
1871 Clouds 13 1002 36 10000 4.93 285 17:50 06.09.2022
1872 Clouds 12 1003 40 10000 4.63 292 16:53 06.09.2022
1873 Clouds 10 1005 47 10000 4.3 291 16:25 06.09.2022
1874 Clouds 7 1006 56 10000 3.23 300 14:49 06.09.2022
1875 Clouds 5 1008 64 10000 3.19 299 13:44 06.09.2022
1876 Clouds 4 1008 68 10000 3.37 298 13:19 06.09.2022
1877 Clouds 4 1009 65 10000 3.5 301 10:56 06.09.2022
1878 Clouds 5 1008 61 10000 3.42 302 09:49 06.09.2022
1879 Clouds 5 1009 59 10000 3.63 303 08:18 06.09.2022
1880 Clouds 6 1010 61 10000 3.61 310 06:20 06.09.2022
1881 Clouds 8 1010 74 10000 3.93 301 01:20 06.09.2022
1882 Clouds 13 1008 53 10000 4.22 300 22:53 05.09.2022
1883 Clouds 15 1008 41 10000 4.6 298 21:38 05.09.2022
1884 Clouds 15 1009 39 10000 3.84 297 20:20 05.09.2022
1885 Clouds 14 1010 41 10000 3.19 301 18:53 05.09.2022
1886 Clouds 13 1011 42 10000 2.46 301 18:24 05.09.2022
1887 Clouds 13 1011 42 10000 2.46 301 17:50 05.09.2022
1888 Clouds 9 1014 49 10000 2.13 296 15:54 05.09.2022
1889 Clouds 7 1014 55 10000 2.35 300 14:40 05.09.2022
1890 Clouds 4 1015 62 10000 2.44 300 12:51 05.09.2022
1891 Clouds 4 1016 67 10000 2.4 293 10:37 05.09.2022
1892 Clouds 5 1016 68 10000 2.54 292 08:45 05.09.2022
1893 Clouds 7 1018 79 10000 2.48 294 03:47 05.09.2022
1894 Clouds 8 1017 81 10000 1.86 298 00:30 05.09.2022
1895 Clouds 13 1017 63 10000 1.31 268 22:29 04.09.2022
1896 Clouds 13 1017 63 10000 1.31 268 21:55 04.09.2022
1897 Clouds 12 1018 60 10000 1.28 276 20:21 04.09.2022
1898 Clouds 11 1019 62 10000 1.44 281 18:34 04.09.2022
1899 Clouds 9 1021 71 10000 1.99 262 17:26 04.09.2022
1900 Clouds 7 1022 77 10000 2.06 268 15:42 04.09.2022
1901 Clouds 4 1023 89 10000 2.19 285 14:24 04.09.2022
1902 Clouds 3 1024 92 10000 2.42 285 12:27 04.09.2022
1903 Clouds 3 1024 91 10000 2.4 282 10:59 04.09.2022
1904 Clouds 3 1024 89 10000 2.44 289 09:24 04.09.2022
1905 Clouds 4 1023 87 10000 2.42 291 06:31 04.09.2022
1906 Clouds 6 1021 87 10000 2.61 288 02:41 04.09.2022
1907 Clouds 11 1018 67 10000 3.19 286 22:33 03.09.2022
1908 Clouds 13 1018 55 10000 3.54 288 21:25 03.09.2022
1909 Clouds 12 1018 56 10000 3.38 288 20:51 03.09.2022
1910 Clouds 10 1020 56 10000 2.91 278 17:37 03.09.2022
1911 Clouds 9 1021 59 10000 2.84 284 16:49 03.09.2022
1912 Clouds 5 1022 68 10000 2.62 290 14:47 03.09.2022
1913 Clouds 3 1023 74 10000 2.78 284 14:28 03.09.2022
1914 Clouds 3 1023 75 10000 2.68 281 13:43 03.09.2022
1915 Clouds 2 1023 82 10000 2.61 286 11:24 03.09.2022
1916 Clouds 3 1024 86 10000 2.84 290 08:55 03.09.2022
1917 Clouds 4 1023 87 10000 2.73 283 06:59 03.09.2022
1918 Clouds 5 1023 88 10000 2.8 289 04:45 03.09.2022
1919 Clouds 7 1023 84 10000 2.54 285 00:48 03.09.2022
1920 Clouds 11 1021 72 10000 1.89 277 23:28 02.09.2022
1921 Clouds 11 1022 64 10000 2 281 21:36 02.09.2022
1922 Clouds 11 1022 62 10000 1.62 266 20:40 02.09.2022
1923 Clouds 10 1023 60 10000 1.67 270 19:47 02.09.2022
1924 Clouds 10 1024 58 10000 1.78 267 18:43 02.09.2022
1925 Clouds 9 1025 57 10000 2 260 18:24 02.09.2022
1926 Clouds 9 1025 57 10000 2 260 18:24 02.09.2022
1927 Clouds 7 1026 58 10000 1.7 270 16:50 02.09.2022
1928 Clouds 6 1027 61 10000 1.59 275 15:40 02.09.2022
1929 Clouds 2 1028 74 10000 2.23 273 12:49 02.09.2022
1930 Clouds 1 1029 79 10000 2.28 274 10:25 02.09.2022
1931 Clouds 1 1029 79 10000 2.28 274 10:25 02.09.2022
1932 Clouds 1 1029 79 10000 2.28 274 09:41 02.09.2022
1933 Clouds 2 1029 85 10000 2.3 278 07:54 02.09.2022
1934 Clouds 2 1029 88 10000 2.52 272 06:41 02.09.2022
1935 Clouds 3 1029 87 10000 2.82 276 03:52 02.09.2022
1936 Clouds 9 1025 61 10000 3.15 270 22:54 01.09.2022
1937 Clouds 9 1025 56 10000 3.01 273 21:45 01.09.2022
1938 Clear 9 1025 55 10000 3.25 266 21:25 01.09.2022
1939 Clear 9 1025 55 10000 3.25 266 20:46 01.09.2022
1940 Clouds 8 1026 60 10000 2.88 263 19:20 01.09.2022
1941 Clouds 7 1027 64 10000 3 262 17:47 01.09.2022
1942 Clouds 5 1027 74 10000 2.53 265 16:29 01.09.2022
1943 Clouds 4 1027 78 10000 2.52 265 14:33 01.09.2022
1944 Clouds 2 1025 88 10000 3.01 272 12:59 01.09.2022
1945 Clouds 3 1024 86 10000 3.61 272 11:53 01.09.2022
1946 Clouds 3 1024 86 10000 3.61 272 11:32 01.09.2022
1947 Clouds 3 1023 86 10000 3.9 274 10:38 01.09.2022
1948 Clouds 3 1022 95 10000 3.46 274 08:30 01.09.2022
1949 Clouds 2 1021 96 10000 3.25 294 06:22 01.09.2022
1950 Clouds 5 1018 87 10000 3.28 288 01:32 01.09.2022
1951 Clouds 5 1018 87 10000 3.28 288 01:32 01.09.2022
1952 Clouds 5 1018 87 10000 3.28 288 01:32 01.09.2022
1953 Clouds 5 1018 87 10000 3.28 288 01:32 01.09.2022
1954 Clouds 9 1014 71 10000 3.31 279 23:29 31.08.2022
1955 Clouds 10 1014 60 10000 3.75 276 21:32 31.08.2022
1956 Clouds 10 1014 66 10000 3.4 264 19:50 31.08.2022
1957 Clouds 9 1016 71 10000 2.21 276 18:18 31.08.2022
1958 Clouds 6 1018 84 10000 2.02 281 15:56 31.08.2022
1959 Clouds 3 1019 83 10000 1.78 280 14:27 31.08.2022
1960 Clear 2 1019 82 10000 2.11 278 12:21 31.08.2022
1961 Clear 2 1018 80 10000 2.12 277 10:52 31.08.2022
1962 Clear 3 1018 77 10000 2.22 269 08:35 31.08.2022
1963 Clouds 4 1018 79 10000 2.29 274 04:26 31.08.2022
1964 Clouds 9 1014 62 10000 1.25 258 22:58 30.08.2022
1965 Clouds 11 1014 50 10000 1.56 251 21:38 30.08.2022
1966 Clouds 11 1014 44 10000 1.59 257 20:56 30.08.2022
1967 Clouds 9 1015 39 10000 1.95 263 17:30 30.08.2022
1968 Clouds 5 1017 53 10000 2.03 267 14:42 30.08.2022
1969 Clouds 3 1016 59 10000 1.92 275 13:24 30.08.2022
1970 Clouds 3 1016 66 10000 1.92 276 11:21 30.08.2022
1971 Clouds 3 1016 66 10000 1.92 276 10:35 30.08.2022
1972 Clouds 5 1015 68 10000 1.82 276 06:50 30.08.2022
1973 Clouds 6 1015 70 10000 1.92 276 01:45 30.08.2022
1974 Clouds 10 1013 61 10000 0.78 271 22:54 29.08.2022
1975 Clouds 12 1013 50 10000 1.13 239 22:20 29.08.2022
1976 Clouds 13 1013 44 10000 1.01 247 21:23 29.08.2022
1977 Clouds 12 1013 41 10000 0.9 259 19:48 29.08.2022
1978 Clouds 11 1015 39 10000 0.33 262 17:43 29.08.2022
1979 Clouds 10 1016 43 10000 0.52 261 17:24 29.08.2022
1980 Clouds 7 1017 49 10000 0.54 293 15:42 29.08.2022
1981 Clouds 4 1019 58 10000 0.74 268 14:18 29.08.2022
1982 Clouds 3 1018 61 10000 0.62 322 12:34 29.08.2022
1983 Clouds 3 1019 63 10000 0.74 267 10:49 29.08.2022
1984 Clouds 3 1019 62 10000 0.69 274 09:41 29.08.2022
1985 Clouds 3 1020 60 10000 0.48 316 08:27 29.08.2022
1986 Clouds 4 1022 65 10000 0.5 304 02:42 29.08.2022
1987 Clouds 5 1022 66 10000 0.24 8 23:50 28.08.2022
1988 Clouds 10 1023 51 10000 0.25 181 21:57 28.08.2022
1989 Clouds 10 1023 52 10000 0.44 200 21:31 28.08.2022
1990 Clear 10 1024 46 10000 0.07 326 20:24 28.08.2022
1991 Clear 9 1025 48 10000 0.23 53 18:37 28.08.2022
1992 Clear 7 1027 52 10000 0.63 51 18:18 28.08.2022
1993 Clear 5 1028 57 10000 0.45 19 16:49 28.08.2022
1994 Clear 4 1029 62 10000 0.19 37 15:34 28.08.2022
1995 Clear 0 1032 78 10000 0.51 327 13:34 28.08.2022
1996 Clouds -1 1032 85 10000 0.46 303 12:19 28.08.2022
1997 Clouds -1 1032 89 10000 1.3 309 10:22 28.08.2022
1998 Clouds -1 1033 87 10000 1.48 281 09:24 28.08.2022
1999 Clear -1 1033 88 10000 1.7 296 07:56 28.08.2022
2000 Clear -1 1033 88 10000 1.76 293 07:26 28.08.2022
2001 Clouds 1 1031 84 10000 2.42 266 00:45 28.08.2022
2002 Clouds 4 1028 70 10000 3.28 261 23:28 27.08.2022
2003 Clouds 5 1027 66 10000 3.78 260 22:27 27.08.2022
2004 Clouds 5 1026 65 10000 3.96 258 20:35 27.08.2022
2005 Clouds 5 1026 64 10000 3.93 261 19:26 27.08.2022
2006 Clouds 2 1026 78 10000 3.98 270 16:29 27.08.2022
2007 Clouds 2 1026 78 10000 3.98 270 15:31 27.08.2022
2008 Clouds -2 1024 91 10000 3.74 284 13:22 27.08.2022
2009 Clouds -2 1023 92 10000 3.68 284 11:59 27.08.2022
2010 Clouds -2 1021 92 10000 3.64 285 10:27 27.08.2022
2011 Clouds -2 1021 92 10000 3.64 285 09:33 27.08.2022
2012 Clouds -1 1018 87 10000 3.64 277 06:52 27.08.2022
2013 Clouds 2 1012 85 10000 4.77 276 00:53 27.08.2022
2014 Clouds 3 1011 78 10000 5.93 270 23:46 26.08.2022
2015 Rain 5 1009 91 8726 4.37 273 21:46 26.08.2022
2016 Rain 7 1007 72 10000 7.68 293 19:50 26.08.2022
2017 Rain 7 1008 69 10000 8.57 292 17:53 26.08.2022
2018 Rain 7 1009 71 10000 8.39 292 16:32 26.08.2022
2019 Rain 5 1011 87 10000 5.7 286 15:24 26.08.2022
2020 Rain 3 1012 94 10000 4.71 286 12:59 26.08.2022
2021 Clouds 3 1012 93 10000 4.45 286 11:47 26.08.2022
2022 Clouds 3 1012 92 10000 4.45 288 11:21 26.08.2022
2023 Clouds 3 1014 96 10000 3.92 297 08:21 26.08.2022
2024 Clouds 3 1018 94 10000 3.59 306 03:51 26.08.2022
2025 Clouds 4 1019 93 10000 3.59 287 23:47 25.08.2022
2026 Clouds 7 1018 72 10000 4.34 280 22:20 25.08.2022
2027 Clear 8 1018 67 10000 4.66 283 20:54 25.08.2022
2028 Clouds 8 1018 64 10000 4.52 286 19:35 25.08.2022
2029 Clouds 6 1020 74 10000 3.73 294 18:29 25.08.2022
2030 Clouds 6 1020 74 10000 3.73 294 17:31 25.08.2022
2031 Clouds 4 1021 81 10000 3.49 295 16:36 25.08.2022
2032 Clouds 2 1022 90 10000 3.84 300 15:28 25.08.2022
2033 Clouds 0 1022 95 10000 3.47 295 13:20 25.08.2022
2034 Clouds 0 1022 93 10000 3.24 289 10:49 25.08.2022
2035 Clouds 0 1021 93 10000 3.31 287 09:46 25.08.2022
2036 Clouds 0 1021 93 10000 3.38 287 07:31 25.08.2022
2037 Clouds 2 1020 87 10000 3.2 289 02:29 25.08.2022
2038 Clouds 6 1017 66 10000 4.05 275 23:29 24.08.2022
2039 Clouds 6 1017 66 10000 4.05 275 22:46 24.08.2022
2040 Clouds 7 1017 60 10000 4.32 281 21:37 24.08.2022
2041 Clear 7 1017 58 10000 4.25 289 21:19 24.08.2022
2042 Clouds 7 1017 53 10000 3.64 289 19:34 24.08.2022
2043 Clouds 4 1021 62 10000 3.06 271 16:49 24.08.2022
2044 Clouds 2 1022 68 10000 3.09 278 15:52 24.08.2022
2045 Clouds -1 1023 82 10000 2.7 269 13:48 24.08.2022
2046 Clouds -1 1022 83 10000 2.76 275 12:24 24.08.2022
2047 Clouds -1 1022 83 10000 2.76 273 11:18 24.08.2022
2048 Clouds -1 1021 87 10000 2.59 279 08:26 24.08.2022
2049 Clear 1 1020 90 10000 2.95 279 03:32 24.08.2022
2050 Clouds 4 1017 82 10000 3.48 278 23:35 23.08.2022
2051 Clouds 6 1016 78 10000 3.5 272 22:33 23.08.2022
2052 Clouds 7 1016 79 10000 3.25 269 21:39 23.08.2022
2053 Clouds 7 1015 83 10000 2.58 271 20:31 23.08.2022
2054 Clouds 6 1016 92 10000 1.73 265 18:50 23.08.2022
2055 Clouds 5 1016 93 10000 1.65 260 17:50 23.08.2022
2056 Clouds 5 1016 91 10000 1.85 272 17:18 23.08.2022
2057 Clouds 5 1016 94 10000 1.54 277 15:39 23.08.2022
2058 Clouds 4 1016 97 10000 2.19 287 13:36 23.08.2022
2059 Clouds 3 1015 97 8677 2.64 283 11:33 23.08.2022
2060 Clouds 4 1015 97 8699 2.65 284 10:51 23.08.2022
2061 Clouds 4 1014 97 8682 3.03 292 10:26 23.08.2022
2062 Clouds 4 1014 97 9179 2.53 279 08:53 23.08.2022
2063 Clouds 5 1014 96 8910 2.31 281 08:21 23.08.2022
2064 Clouds 5 1014 96 8910 2.31 281 07:38 23.08.2022
2065 Clouds 5 1013 96 10000 2.22 295 06:34 23.08.2022
2066 Clouds 5 1013 95 10000 2.47 294 05:38 23.08.2022
2067 Clouds 6 1011 92 10000 2.45 290 00:28 23.08.2022
2068 Clouds 6 1011 92 10000 2.45 290 23:54 22.08.2022
2069 Clouds 8 1010 90 10000 2.21 295 22:45 22.08.2022
2070 Clouds 9 1010 88 10000 2.08 293 21:51 22.08.2022
2071 Clouds 9 1011 78 10000 2.1 304 19:49 22.08.2022
2072 Clouds 9 1012 76 10000 2.23 297 19:21 22.08.2022
2073 Clouds 8 1013 76 10000 1.94 293 17:37 22.08.2022
2074 Clouds 5 1016 81 10000 1.62 294 15:39 22.08.2022
2075 Clouds 4 1017 82 10000 1.78 294 14:32 22.08.2022
2076 Clouds 2 1017 91 10000 1.93 305 10:49 22.08.2022
2077 Clouds 3 1018 93 10000 1.7 300 08:21 22.08.2022
2078 Clouds 4 1020 91 10000 1.44 303 04:30 22.08.2022
2079 Clouds 4 1020 89 10000 0.48 329 00:49 22.08.2022
2080 Clouds 3 1021 90 10000 0.35 280 00:26 22.08.2022
2081 Clouds 6 1021 89 10000 0.31 253 22:53 21.08.2022
2082 Clouds 8 1022 81 10000 0.17 66 21:28 21.08.2022
2083 Clouds 8 1022 81 10000 0.17 66 20:57 21.08.2022
2084 Clouds 7 1024 83 10000 0.68 49 19:27 21.08.2022
2085 Clouds 6 1026 86 10000 0.16 154 17:39 21.08.2022
2086 Clouds 4 1027 91 10000 0.92 25 15:58 21.08.2022
2087 Clouds 3 1028 93 10000 0.94 335 15:22 21.08.2022
2088 Clear 1 1029 94 10000 1.11 318 13:53 21.08.2022
2089 Clear 1 1029 94 10000 1.11 318 13:30 21.08.2022
2090 Clear 1 1029 93 10000 0.89 330 11:54 21.08.2022
2091 Clear 1 1029 91 10000 1.08 321 09:31 21.08.2022
2092 Clear 1 1030 90 10000 1.46 355 08:56 21.08.2022
2093 Clear 2 1029 91 10000 0.97 351 08:38 21.08.2022
2094 Clouds 2 1030 89 10000 1.62 11 07:27 21.08.2022
2095 Clouds 4 1030 90 10000 1.35 27 03:41 21.08.2022
2096 Clouds 5 1028 93 10000 0.87 17 00:24 21.08.2022
2097 Clouds 5 1028 96 10000 0.19 103 22:40 20.08.2022
2098 Clouds 6 1028 98 9702 0.29 91 21:37 20.08.2022
2099 Clouds 6 1027 98 9417 0.17 156 20:40 20.08.2022
2100 Clouds 6 1027 96 5724 0.5 250 19:40 20.08.2022
2101 Clouds 6 1027 97 581 0.75 271 18:30 20.08.2022
2102 Clouds 6 1027 98 355 1.32 283 17:50 20.08.2022
2103 Clouds 5 1026 100 214 1.25 302 16:52 20.08.2022
2104 Clouds 4 1026 100 601 1.2 303 15:30 20.08.2022
2105 Clouds 4 1024 99 2291 1.92 282 13:24 20.08.2022
2106 Clouds 4 1023 99 512 1.91 286 11:49 20.08.2022
2107 Clouds 4 1021 100 78 2.16 269 09:34 20.08.2022
2108 Clouds 4 1021 99 53 2.64 289 08:29 20.08.2022
2109 Clouds 4 1020 99 5266 2.89 311 05:51 20.08.2022
2110 Clouds 5 1020 98 5300 2.88 309 00:59 20.08.2022
2111 Clouds 5 1020 98 5300 2.88 309 00:58 20.08.2022
2112 Clouds 5 1020 98 5300 2.88 309 00:34 20.08.2022
2113 Clouds 5 1019 100 160 2.92 298 22:59 19.08.2022
2114 Clouds 6 1019 100 135 3 298 21:38 19.08.2022
2115 Clouds 6 1019 100 140 3.23 288 19:43 19.08.2022
2116 Clouds 5 1022 100 65 3.16 287 16:47 19.08.2022
2117 Clouds 4 1022 100 234 3.3 288 14:51 19.08.2022
2118 Clouds 4 1022 99 2793 3.02 288 12:47 19.08.2022
2119 Clouds 4 1022 99 234 3.08 290 10:43 19.08.2022
2120 Clouds 4 1023 99 3068 2.98 290 09:39 19.08.2022
2121 Clouds 1 1026 97 7100 3.27 288 04:59 19.08.2022
2122 Clouds 2 1027 97 8517 3.53 281 00:46 19.08.2022
2123 Clouds 3 1027 98 8341 3.56 279 00:22 19.08.2022
2124 Clouds 3 1027 100 5610 3.44 281 22:59 18.08.2022
2125 Clouds 3 1027 100 5610 3.44 281 22:30 18.08.2022
2126 Clouds 3 1027 100 205 3.25 272 21:53 18.08.2022
2127 Clouds 3 1026 100 99 3.27 274 21:18 18.08.2022
2128 Clouds 3 1026 100 485 3.19 271 19:54 18.08.2022
2129 Clouds 3 1027 100 7349 2.95 276 19:21 18.08.2022
2130 Clouds 2 1028 97 10000 3.02 277 17:41 18.08.2022
2131 Clouds 0 1029 91 10000 3.05 289 16:19 18.08.2022
2132 Clouds -2 1028 94 10000 3.6 280 14:22 18.08.2022
2133 Clouds -2 1028 94 10000 3.6 280 13:44 18.08.2022
2134 Clouds -2 1028 94 10000 3.6 280 13:44 18.08.2022
2135 Clouds -2 1028 94 10000 3.6 280 13:44 18.08.2022
2136 Clouds -2 1028 94 10000 3.6 280 13:44 18.08.2022
2137 Clouds -2 1028 95 10000 3.57 282 12:30 18.08.2022
2138 Clouds -5 1028 96 10000 3.4 290 11:20 18.08.2022
2139 Clouds -6 1028 96 10000 3.36 293 09:43 18.08.2022
2140 Clouds -6 1029 96 10000 3.2 293 07:27 18.08.2022
2141 Clouds -6 1029 96 10000 3.2 293 06:30 18.08.2022
2142 Clouds -4 1026 93 10000 3.05 293 01:44 18.08.2022
2143 Clouds 0 1020 88 10000 1.94 267 22:46 17.08.2022
2144 Clouds 2 1017 86 10000 2.1 262 20:30 17.08.2022
2145 Clouds 2 1017 87 10000 2.05 276 19:58 17.08.2022
2146 Clouds 1 1016 87 10000 2.19 265 18:33 17.08.2022
2147 Clouds 0 1015 84 10000 2.46 241 16:52 17.08.2022
2148 Snow -1 1014 86 10000 2.18 237 15:45 17.08.2022
2149 Snow -3 1013 93 9414 2.27 266 14:36 17.08.2022
2150 Snow -5 1011 93 10000 1.76 308 12:22 17.08.2022
2151 Snow -5 1010 93 10000 1.92 303 10:59 17.08.2022
2152 Snow -5 1008 93 10000 3.56 290 08:26 17.08.2022
2153 Clouds -5 1008 88 10000 4.43 285 05:35 17.08.2022
2154 Clouds -2 1006 87 10000 3.88 302 00:49 17.08.2022
2155 Snow 1 1003 90 9491 2.96 287 22:59 16.08.2022
2156 Clouds 2 1002 88 10000 2.42 271 20:59 16.08.2022
2157 Clouds 2 1002 90 10000 2.57 268 19:55 16.08.2022
2158 Clouds 2 1003 92 10000 2.45 272 19:22 16.08.2022
2159 Clouds 1 1004 92 10000 1.7 293 17:54 16.08.2022
2160 Clouds 0 1005 89 10000 1.63 300 16:46 16.08.2022
2161 Clouds -1 1005 89 10000 1.14 304 15:44 16.08.2022
2162 Clouds -1 1005 89 10000 1.14 304 15:44 16.08.2022
2163 Clouds -2 1006 93 10000 1.71 325 14:54 16.08.2022
2164 Clouds -2 1006 93 10000 1.71 325 14:36 16.08.2022
2165 Clouds -5 1007 97 5582 2.31 310 11:40 16.08.2022
2166 Clouds -5 1007 96 10000 2.49 291 09:58 16.08.2022
2167 Clouds -5 1007 95 10000 2.61 296 08:49 16.08.2022
2168 Clouds -5 1006 95 10000 2.28 297 08:19 16.08.2022
2169 Clouds -3 1003 93 10000 2.99 296 05:52 16.08.2022
2170 Rain 3 997 95 1095 5.06 283 23:27 15.08.2022
2171 Rain 3 997 95 895 5.27 273 22:20 15.08.2022
2172 Rain 3 997 95 895 5.27 273 21:43 15.08.2022
2173 Rain 3 997 94 963 5.98 284 20:31 15.08.2022
2174 Clouds 3 1000 92 10000 6.49 284 18:57 15.08.2022
2175 Clouds 3 1002 90 10000 6.65 289 17:59 15.08.2022
2176 Clouds 2 1003 82 10000 4.75 283 16:24 15.08.2022
2177 Clouds 0 1005 86 10000 4.91 288 14:49 15.08.2022
2178 Clouds -2 1007 88 10000 6.45 283 13:23 15.08.2022
2179 Clouds -2 1007 91 10000 5.04 295 10:36 15.08.2022
2180 Clouds -3 1008 92 10000 4.59 302 08:53 15.08.2022
2181 Clouds -4 1009 90 10000 4.4 314 06:49 15.08.2022
2182 Clouds -5 1010 92 10000 3.53 328 03:56 15.08.2022
2183 Clouds -4 1007 82 10000 3.02 311 23:38 14.08.2022
2184 Clouds 2 1004 81 10000 3.22 311 21:48 14.08.2022
2185 Snow 1 1004 88 6630 3.42 282 20:41 14.08.2022
2186 Snow 2 1003 94 1298 2.1 265 19:45 14.08.2022
2187 Rain 2 1003 94 1349 3.21 292 18:21 14.08.2022
2188 Rain 2 1003 94 1349 3.21 292 17:31 14.08.2022
2189 Snow 1 1002 94 1802 2.35 296 16:23 14.08.2022
2190 Snow 1 1002 97 899 2.21 327 14:55 14.08.2022
2191 Snow 0 999 93 1237 3.65 326 13:51 14.08.2022
2192 Snow 0 999 93 1237 3.65 326 13:31 14.08.2022
2193 Snow 0 999 93 1237 3.65 326 13:31 14.08.2022
2194 Snow 0 999 92 4861 4.83 6 12:35 14.08.2022
2195 Snow -1 1001 90 2294 4.73 0 11:22 14.08.2022
2196 Snow -1 1003 89 10000 5.13 359 08:57 14.08.2022
2197 Snow -2 1005 91 5277 4.56 358 06:40 14.08.2022
2198 Clouds 0 1005 81 10000 5.2 326 04:47 14.08.2022
2199 Snow 2 1003 79 10000 9.02 302 01:36 14.08.2022
2200 Rain 3 999 83 10000 8.19 309 22:56 13.08.2022
2201 Rain 3 998 94 4580 6.36 306 22:27 13.08.2022
2202 Rain 3 998 98 313 5.3 300 20:50 13.08.2022
2203 Rain 3 995 100 96 2.68 320 19:48 13.08.2022
2204 Rain 4 995 99 1022 4.68 346 19:18 13.08.2022
2205 Rain 4 998 96 3083 6.36 316 17:21 13.08.2022
2206 Rain 2 1001 98 428 3.2 14 14:42 13.08.2022
2207 Snow 2 1002 98 213 3.39 26 13:49 13.08.2022
2208 Snow 2 1003 98 354 2.56 12 13:25 13.08.2022
2209 Snow 1 1006 96 2310 2.36 12 11:27 13.08.2022
2210 Snow 0 1010 95 1542 2.42 322 09:23 13.08.2022
2211 Clouds -1 1011 93 10000 2.72 300 06:26 13.08.2022
2212 Clear 0 1010 92 10000 2.69 278 00:44 13.08.2022
2213 Clear 3 1007 80 10000 3.63 269 23:25 12.08.2022
2214 Clear 5 1006 74 10000 4.45 268 21:35 12.08.2022
2215 Clouds 5 1005 73 10000 6.03 270 19:47 12.08.2022
2216 Clouds 5 1005 78 10000 6.9 276 19:22 12.08.2022
2217 Clouds 5 1006 83 10000 6.55 271 17:59 12.08.2022
2218 Clouds 4 1006 94 10000 4.96 273 16:25 12.08.2022
2219 Clouds 3 1006 94 10000 4.85 283 14:50 12.08.2022
2220 Rain 3 1004 95 9138 3.68 293 13:26 12.08.2022
2221 Rain 2 1004 97 10000 3.08 308 11:40 12.08.2022
2222 Clouds 3 1005 98 2260 3.1 340 08:50 12.08.2022
2223 Rain 3 1006 97 6956 2.86 337 07:45 12.08.2022
2224 Clouds 3 1009 97 8492 2.44 339 03:56 12.08.2022
2225 Clouds 4 1010 95 10000 2.47 318 00:31 12.08.2022
2226 Clouds 3 1010 96 8265 2.52 313 23:42 11.08.2022
2227 Clouds 4 1011 98 2256 1.92 311 22:37 11.08.2022
2228 Clouds 4 1011 98 3164 1.94 306 21:52 11.08.2022
2229 Clouds 5 1010 99 214 1.79 311 21:23 11.08.2022
2230 Clouds 5 1010 99 214 1.79 311 20:30 11.08.2022
2231 Clouds 5 1012 98 1176 1.72 303 19:33 11.08.2022
2232 Clouds 5 1012 98 222 1.59 309 18:41 11.08.2022
2233 Clouds 4 1014 98 2376 1.82 289 16:42 11.08.2022
2234 Clouds 3 1014 99 7846 1.47 303 15:37 11.08.2022
2235 Clouds 3 1014 96 6655 2.31 296 13:51 11.08.2022
2236 Clouds 2 1015 96 10000 2.28 325 11:26 11.08.2022
2237 Clouds 2 1016 94 10000 2.33 326 07:56 11.08.2022
2238 Clouds 1 1017 91 10000 2.11 320 04:44 11.08.2022
2239 Clouds 3 1016 90 10000 1.98 300 01:54 11.08.2022
2240 Clouds 4 1015 86 10000 1.43 304 22:38 10.08.2022
2241 Clouds 5 1015 90 10000 1.5 302 21:44 10.08.2022
2242 Clouds 5 1015 92 10000 1.23 295 20:55 10.08.2022
2243 Clouds 5 1015 88 10000 1.31 284 19:32 10.08.2022
2244 Clouds 4 1016 87 10000 1.26 286 18:42 10.08.2022
2245 Clouds 3 1017 82 10000 1.32 281 16:55 10.08.2022
2246 Clouds -2 1018 82 10000 1.57 313 13:36 10.08.2022
2247 Clouds -2 1018 82 10000 1.57 313 13:36 10.08.2022
2248 Clouds -2 1018 82 10000 1.62 315 12:46 10.08.2022
2249 Clouds -2 1019 84 10000 1.79 313 09:55 10.08.2022
2250 Clouds -1 1020 85 10000 1.76 307 08:35 10.08.2022
2251 Clouds 0 1020 86 10000 1.84 315 07:20 10.08.2022
2252 Clouds 0 1022 90 10000 1.86 322 03:32 10.08.2022
2253 Clouds 2 1022 89 10000 1.29 337 23:51 09.08.2022
2254 Clouds 3 1022 89 10000 0.95 337 23:24 09.08.2022
2255 Clouds 4 1022 91 10000 0.68 322 21:36 09.08.2022
2256 Clouds 4 1022 92 10000 0.76 292 20:36 09.08.2022
2257 Clouds 4 1024 87 10000 1.36 281 18:45 09.08.2022
2258 Clouds 3 1025 84 10000 1.37 280 17:31 09.08.2022
2259 Clouds 2 1025 78 10000 1.49 293 16:42 09.08.2022
2260 Clouds 1 1026 77 10000 1.66 293 15:58 09.08.2022
2261 Clouds -2 1027 78 10000 2.14 310 13:51 09.08.2022
2262 Clouds -2 1027 79 10000 2.06 311 10:39 09.08.2022
2263 Clouds -1 1028 84 10000 1.63 313 08:51 09.08.2022
2264 Clouds -1 1028 87 10000 2.02 302 07:54 09.08.2022
2265 Clouds -1 1029 92 10000 2.2 306 04:28 09.08.2022
2266 Clouds 0 1028 93 10000 1.17 349 23:35 08.08.2022
2267 Clouds 1 1027 92 10000 0.83 302 22:56 08.08.2022
2268 Clouds 2 1027 89 10000 0.63 285 22:22 08.08.2022
2269 Clouds 2 1028 87 10000 1.41 260 21:22 08.08.2022
2270 Clouds 2 1028 88 10000 0.99 287 19:51 08.08.2022
2271 Clouds 1 1029 86 10000 0.94 302 18:50 08.08.2022
2272 Clouds 0 1030 86 10000 0.88 301 16:47 08.08.2022
2273 Clouds -1 1031 90 10000 1.05 330 15:40 08.08.2022
2274 Clouds -3 1032 93 10000 1.58 292 14:29 08.08.2022
2275 Clouds -3 1031 93 10000 1.41 277 12:27 08.08.2022
2276 Clouds -2 1030 93 10000 1.33 276 09:48 08.08.2022
2277 Clouds -2 1030 94 10000 1.23 273 06:51 08.08.2022
2278 Clouds -2 1029 98 4124 1.04 296 02:56 08.08.2022
2279 Clouds 1 1027 95 7535 0.81 162 22:42 07.08.2022
2280 Snow 2 1027 93 5204 0.96 127 21:40 07.08.2022
2281 Snow 1 1027 93 1765 1.09 109 20:26 07.08.2022
2282 Snow 1 1027 93 1765 1.09 109 19:56 07.08.2022
2283 Snow 1 1027 93 1765 1.09 109 19:38 07.08.2022
2284 Snow 1 1029 93 421 1.67 85 18:23 07.08.2022
2285 Snow 0 1029 91 1343 1.95 77 16:54 07.08.2022
2286 Snow 0 1029 91 1343 1.95 77 16:35 07.08.2022
2287 Clouds -1 1030 94 800 1.93 71 15:20 07.08.2022
2288 Snow -1 1029 97 227 1.87 79 13:26 07.08.2022
2289 Snow -1 1029 97 223 1.89 83 11:54 07.08.2022
2290 Snow -1 1029 97 189 1.82 88 10:34 07.08.2022
2291 Snow -1 1030 97 161 1.91 91 07:36 07.08.2022
2292 Snow -1 1030 97 189 1.79 97 03:20 07.08.2022
2293 Snow -1 1029 97 186 1.84 90 00:31 07.08.2022
2294 Snow 0 1028 90 743 2.35 96 22:24 06.08.2022
2295 Clouds 0 1028 88 1315 2.45 100 20:42 06.08.2022
2296 Snow 0 1028 89 960 2.61 97 19:41 06.08.2022
2297 Snow 0 1029 92 364 2.41 93 18:28 06.08.2022
2298 Snow 0 1029 92 364 2.41 93 17:31 06.08.2022
2299 Snow -2 1029 94 239 1.76 92 14:35 06.08.2022
2300 Clouds -3 1029 92 4678 1.51 87 13:44 06.08.2022
2301 Clouds -4 1028 91 10000 1.46 71 11:33 06.08.2022
2302 Clouds -5 1028 92 10000 1.43 69 09:51 06.08.2022
2303 Clouds -5 1028 92 10000 1.47 68 08:32 06.08.2022
2304 Clouds -3 1026 91 10000 1.48 62 03:51 06.08.2022
2305 Clouds -2 1024 90 10000 1.49 85 23:34 05.08.2022
2306 Clouds 1 1022 82 10000 1.56 104 22:22 05.08.2022
2307 Clouds 1 1022 80 10000 1.5 98 19:32 05.08.2022
2308 Clouds 0 1023 81 10000 1.45 86 18:44 05.08.2022
2309 Clouds -1 1024 86 10000 1.24 88 17:27 05.08.2022
2310 Clouds -1 1024 86 10000 1.24 88 16:48 05.08.2022
2311 Clouds -1 1024 86 10000 1.24 88 16:48 05.08.2022
2312 Clouds -2 1025 90 10000 0.45 75 15:21 05.08.2022
2313 Clouds -4 1025 91 10000 0.27 342 13:59 05.08.2022
2314 Clouds -4 1024 92 10000 0.66 299 13:23 05.08.2022
2315 Clouds -4 1024 92 10000 0.98 289 12:24 05.08.2022
2316 Clouds -4 1024 93 10000 1.22 292 10:44 05.08.2022
2317 Clouds -3 1024 94 10000 1.62 278 07:58 05.08.2022
2318 Clouds -3 1024 94 10000 1.74 281 06:41 05.08.2022
2319 Clouds 0 1021 90 10000 1.78 290 00:30 05.08.2022
2320 Clouds 3 1020 77 10000 1.58 290 22:26 04.08.2022
2321 Clouds 3 1020 74 10000 0.86 290 21:26 04.08.2022
2322 Clouds 3 1020 74 10000 0.86 290 20:42 04.08.2022
2323 Clouds 2 1020 74 10000 1.17 265 19:37 04.08.2022
2324 Clouds 2 1021 76 10000 1.32 280 18:36 04.08.2022
2325 Clouds 1 1022 81 10000 1.61 294 17:38 04.08.2022
2326 Clouds -2 1023 95 8587 2.42 295 14:18 04.08.2022
2327 Clouds -3 1023 94 10000 2.21 300 12:44 04.08.2022
2328 Clouds -2 1021 94 10000 2.45 293 10:51 04.08.2022
2329 Clouds 0 1020 93 10000 2.42 289 07:53 04.08.2022
2330 Clouds 0 1019 96 10000 2.49 271 04:43 04.08.2022
2331 Clouds 2 1016 96 10000 2.32 275 02:27 04.08.2022
2332 Clouds 2 1015 97 2552 1.67 298 23:44 03.08.2022
2333 Clouds 3 1014 96 2365 1.25 310 22:30 03.08.2022
2334 Clouds 4 1014 89 10000 2.1 356 20:45 03.08.2022
2335 Clouds 4 1014 87 10000 1.59 358 19:35 03.08.2022
2336 Clouds 3 1017 88 10000 1.26 318 18:23 03.08.2022
2337 Clouds 1 1019 87 10000 1.56 306 16:24 03.08.2022
2338 Clouds -2 1020 91 10000 1.97 317 14:45 03.08.2022
2339 Clouds -2 1020 93 10000 1.95 312 12:30 03.08.2022
2340 Clouds 0 1021 91 10000 1.23 334 08:26 03.08.2022
2341 Clouds 0 1022 92 10000 1.49 319 04:47 03.08.2022
2342 Clouds 0 1023 91 10000 1.58 311 03:28 03.08.2022
2343 Clouds 0 1023 92 10000 1.59 310 01:35 03.08.2022
2344 Clear 1 1022 90 10000 0.8 297 23:18 02.08.2022
2345 Clear 3 1021 86 10000 1.07 256 21:55 02.08.2022
2346 Clear 3 1021 86 10000 1 280 21:21 02.08.2022
2347 Clouds 2 1022 85 10000 1.09 278 18:52 02.08.2022
2348 Clouds -1 1024 88 10000 1.92 276 16:24 02.08.2022
2349 Clouds -5 1025 93 10000 2.05 300 12:34 02.08.2022
2350 Clear -4 1024 91 10000 2.06 305 09:34 02.08.2022
2351 Clouds -4 1024 90 10000 1.96 310 07:54 02.08.2022
2352 Clouds -3 1023 90 10000 1.9 297 06:43 02.08.2022
2353 Clouds -1 1023 90 10000 1.84 284 04:55 02.08.2022
2354 Clouds -1 1021 91 10000 1.53 295 23:51 01.08.2022
2355 Clouds 3 1019 87 10000 1.12 265 22:25 01.08.2022
2356 Clouds 3 1019 88 10000 1.16 257 20:52 01.08.2022
2357 Clouds 2 1019 87 10000 1.27 252 19:25 01.08.2022
2358 Clouds 2 1019 87 10000 1.27 252 18:40 01.08.2022
2359 Clouds 1 1020 83 10000 1.26 265 16:53 01.08.2022
2360 Clouds 0 1021 86 10000 1.51 277 15:52 01.08.2022
2361 Clouds 0 1021 86 10000 1.51 277 15:30 01.08.2022
2362 Clouds -3 1022 88 10000 1.6 295 14:43 01.08.2022
2363 Clouds -3 1020 86 10000 1.69 297 11:59 01.08.2022
2364 Clouds -2 1020 88 10000 1.64 302 09:43 01.08.2022
2365 Clouds -1 1020 89 10000 1.51 301 08:30 01.08.2022
2366 Clouds 1 1020 90 10000 1.23 298 04:54 01.08.2022
2367 Clouds 1 1020 90 10000 0.84 304 03:49 01.08.2022
2368 Clouds 1 1019 88 10000 0.73 298 00:23 01.08.2022
2369 Clouds 2 1019 87 10000 0.83 280 22:39 31.07.2022
2370 Clouds 3 1019 86 10000 1.09 250 21:27 31.07.2022
2371 Clouds 3 1019 86 10000 0.82 257 19:41 31.07.2022
2372 Clouds 2 1021 84 10000 0.49 279 17:48 31.07.2022
2373 Clouds 1 1022 76 10000 0.94 275 15:37 31.07.2022
2374 Clouds -3 1023 83 10000 1.1 308 13:42 31.07.2022
2375 Clouds -3 1023 84 10000 1.32 313 11:55 31.07.2022
2376 Clouds -3 1023 86 10000 1.46 314 09:36 31.07.2022
2377 Clouds -1 1023 90 10000 1.34 302 06:48 31.07.2022
2378 Clouds -1 1022 92 10000 1.22 312 02:58 31.07.2022
2379 Clouds 0 1021 94 10000 1.25 305 23:36 30.07.2022
2380 Clouds 2 1020 94 10000 0.94 277 22:19 30.07.2022
2381 Clouds 2 1020 94 10000 0.94 277 21:48 30.07.2022
2382 Clouds 3 1019 93 10000 0.91 262 20:56 30.07.2022
2383 Clouds 3 1019 93 10000 0.91 252 19:58 30.07.2022
2384 Clouds 3 1020 92 10000 0.77 269 18:53 30.07.2022
2385 Clouds 2 1021 91 10000 0.59 279 17:42 30.07.2022
2386 Clouds 0 1022 94 10000 1.32 280 15:49 30.07.2022
2387 Clouds -1 1022 96 10000 1.45 299 15:21 30.07.2022
2388 Clouds 0 1021 95 10000 1.26 272 12:55 30.07.2022
2389 Clouds 0 1020 95 10000 1.4 272 11:55 30.07.2022
2390 Clouds 2 1019 94 10000 1.94 259 10:28 30.07.2022
2391 Clouds 2 1019 94 10000 1.94 259 09:46 30.07.2022
2392 Clouds 3 1019 97 10000 1.56 256 07:54 30.07.2022
2393 Clouds 2 1019 98 4092 1.99 292 02:36 30.07.2022
2394 Clouds 1 1019 98 8551 1.89 295 01:46 30.07.2022
2395 Clouds 3 1018 96 10000 1.56 280 22:25 29.07.2022
2396 Clouds 3 1017 97 10000 1.46 284 20:59 29.07.2022
2397 Clouds 3 1018 98 10000 1.38 270 19:48 29.07.2022
2398 Clouds 2 1020 93 10000 2.04 267 17:52 29.07.2022
2399 Clouds -3 1022 87 10000 2.68 291 15:19 29.07.2022
2400 Clouds -4 1023 87 10000 2.76 297 12:59 29.07.2022
2401 Clouds -3 1023 88 10000 2.89 294 09:49 29.07.2022
2402 Clouds -3 1024 88 10000 2.99 294 08:48 29.07.2022
2403 Clouds -3 1024 89 10000 3.09 293 07:40 29.07.2022
2404 Clouds 0 1026 93 10000 3.65 276 01:46 29.07.2022
2405 Clouds 2 1024 96 10000 3.97 270 22:41 28.07.2022
2406 Clouds 3 1024 99 7093 3.72 275 20:59 28.07.2022
2407 Clouds 3 1024 99 6021 3.47 278 20:27 28.07.2022
2408 Clouds 3 1024 99 6021 3.47 278 19:42 28.07.2022
2409 Clouds 3 1026 99 8990 3.52 276 18:27 28.07.2022
2410 Clouds 3 1026 99 8990 3.52 276 17:43 28.07.2022
2411 Clouds 2 1026 99 10000 3.53 275 16:41 28.07.2022
2412 Clouds 1 1027 96 10000 3.56 281 14:58 28.07.2022
2413 Clouds 0 1026 96 10000 3.58 280 12:49 28.07.2022
2414 Clouds 0 1025 98 9316 3.55 278 09:45 28.07.2022
2415 Clouds 1 1024 96 10000 3.56 279 06:21 28.07.2022
2416 Clouds 2 1024 94 10000 3.53 276 05:26 28.07.2022
2417 Clouds 3 1023 97 10000 3.22 277 00:45 28.07.2022
2418 Clouds 3 1022 98 8096 2.77 273 22:31 27.07.2022
2419 Clouds 3 1023 100 130 2.08 277 20:25 27.07.2022
2420 Clouds 3 1023 100 146 2.2 277 19:34 27.07.2022
2421 Clouds 2 1025 97 10000 1.56 281 16:54 27.07.2022
2422 Clouds 1 1026 95 10000 1.84 300 15:51 27.07.2022
2423 Clouds -2 1027 96 10000 1.89 311 14:46 27.07.2022
2424 Clouds -2 1027 96 10000 1.9 310 14:27 27.07.2022
2425 Clouds 1 1025 95 10000 1.35 282 12:19 27.07.2022
2426 Clouds 2 1026 96 10000 0.74 300 07:53 27.07.2022
2427 Clouds 2 1026 96 10000 0.32 296 05:33 27.07.2022
2428 Clouds 2 1026 98 6764 1.18 81 00:28 27.07.2022
2429 Clouds 2 1025 100 784 0.61 131 22:24 26.07.2022
2430 Clouds 2 1025 100 521 0.51 111 21:19 26.07.2022
2431 Clouds 2 1025 100 209 1.16 122 19:40 26.07.2022
2432 Clouds 2 1025 100 361 1.48 109 18:41 26.07.2022
2433 Clouds 2 1026 100 921 1.57 146 17:57 26.07.2022
2434 Clouds 2 1025 99 124 1.67 133 15:47 26.07.2022
2435 Rain 2 1025 99 57 1.57 155 14:44 26.07.2022
2436 Rain 2 1024 99 32 1.63 166 12:41 26.07.2022
2437 Rain 2 1022 99 38 0.86 106 10:57 26.07.2022
2438 Rain 2 1022 99 79 1.28 77 08:31 26.07.2022
2439 Clouds 3 1019 98 355 1.44 81 03:58 26.07.2022
2440 Clouds 2 1017 99 283 0.96 119 00:22 26.07.2022
2441 Clouds 2 1017 99 205 0.71 85 22:41 25.07.2022
2442 Clouds 2 1017 99 172 0.88 103 22:21 25.07.2022
2443 Clouds 2 1017 99 172 0.88 103 21:31 25.07.2022
2444 Clouds 2 1018 100 193 0.48 163 20:39 25.07.2022
2445 Clouds 2 1019 99 8618 0.55 81 19:25 25.07.2022
2446 Clouds 1 1020 98 10000 0.42 129 17:56 25.07.2022
2447 Clouds 0 1021 96 10000 0.06 180 17:23 25.07.2022
2448 Clouds -1 1021 96 10000 1.1 22 13:36 25.07.2022
2449 Clouds -2 1022 96 10000 0.97 62 10:55 25.07.2022
2450 Clouds -1 1024 96 6302 1.18 67 07:59 25.07.2022
2451 Snow 0 1025 98 308 1.42 85 01:36 25.07.2022
2452 Snow 0 1025 98 177 1.17 93 23:45 24.07.2022
2453 Snow 1 1024 98 168 1.36 116 22:49 24.07.2022
2454 Snow 1 1023 96 312 1.85 116 21:48 24.07.2022
2455 Snow 1 1023 97 254 1.83 118 21:18 24.07.2022
2456 Snow 1 1023 97 254 1.83 118 20:44 24.07.2022
2457 Clouds 1 1023 96 901 1.93 125 19:23 24.07.2022
2458 Clouds 1 1023 96 1225 1.89 116 17:57 24.07.2022
2459 Clouds 0 1023 97 1105 1.56 125 15:55 24.07.2022
2460 Snow 0 1023 98 769 1.4 120 14:47 24.07.2022
2461 Snow 0 1022 98 347 1.42 129 13:49 24.07.2022
2462 Snow 0 1020 98 488 1.08 120 12:28 24.07.2022
2463 Snow 0 1020 98 488 1.08 120 11:30 24.07.2022
2464 Snow 0 1019 98 190 1.56 109 09:48 24.07.2022
2465 Snow 0 1018 98 355 1.1 121 07:57 24.07.2022
2466 Snow 0 1018 98 355 1.1 121 07:31 24.07.2022
2467 Snow 1 1017 98 894 1.01 91 03:18 24.07.2022
2468 Snow 2 1014 95 8603 0.85 128 23:25 23.07.2022
2469 Clouds 2 1013 96 6210 1.18 117 20:47 23.07.2022
2470 Clouds 1 1013 96 1386 0.95 133 19:29 23.07.2022
2471 Clouds 1 1013 96 1386 0.95 133 18:36 23.07.2022
2472 Snow 0 1013 95 1084 0.89 111 17:27 23.07.2022
2473 Snow 0 1013 96 435 1.22 89 16:24 23.07.2022
2474 Clouds -1 1013 96 970 1.34 64 15:22 23.07.2022
2475 Clouds -1 1013 96 970 1.34 64 14:52 23.07.2022
2476 Snow -3 1012 97 1278 1.45 46 14:21 23.07.2022
2477 Clouds -4 1011 95 10000 1.79 19 11:56 23.07.2022
2478 Clouds -2 1010 95 10000 1.73 27 10:41 23.07.2022
2479 Clouds 0 1009 95 10000 2.03 24 09:38 23.07.2022
2480 Snow 0 1010 98 320 0.46 334 07:18 23.07.2022
2481 Snow 0 1009 98 174 1.35 64 03:37 23.07.2022
2482 Snow 0 1009 98 147 1.12 103 00:34 23.07.2022
2483 Snow 1 1010 98 162 1.36 98 21:33 22.07.2022
2484 Snow 1 1011 97 165 1.58 88 20:31 22.07.2022
2485 Snow 1 1014 91 9888 1.01 58 18:42 22.07.2022
2486 Snow 0 1016 90 10000 0.78 42 17:39 22.07.2022
2487 Clouds -1 1016 91 10000 1 30 15:46 22.07.2022
2488 Clouds -2 1017 96 10000 0.5 0 12:47 22.07.2022
2489 Clouds -2 1017 97 4155 1 301 09:56 22.07.2022
2490 Clouds -3 1017 97 4392 1.38 291 09:21 22.07.2022
2491 Clouds -2 1016 97 5236 1.65 292 07:57 22.07.2022
2492 Clouds -3 1016 96 9364 1.42 324 04:23 22.07.2022
2493 Snow 0 1013 97 3119 2.75 298 23:36 21.07.2022
2494 Snow 2 1012 92 6392 3.23 297 21:41 21.07.2022
2495 Rain 2 1011 87 10000 4.57 293 19:42 21.07.2022
2496 Rain 2 1012 87 10000 5.02 301 18:30 21.07.2022
2497 Clouds 1 1013 85 10000 5.13 303 17:21 21.07.2022
2498 Snow 0 1013 89 10000 4.46 310 15:58 21.07.2022
2499 Snow -2 1014 91 8386 3.37 297 14:46 21.07.2022
2500 Clouds -2 1013 87 10000 4.26 300 13:49 21.07.2022
2501 Clouds -1 1013 85 10000 5.81 302 11:48 21.07.2022
2502 Clouds -1 1014 88 10000 6.06 293 09:51 21.07.2022
2503 Clouds -1 1014 88 10000 5.41 296 08:53 21.07.2022
2504 Clouds -4 1015 88 10000 4.71 303 07:50 21.07.2022
2505 Clouds -6 1015 88 10000 4.18 314 06:26 21.07.2022
2506 Clouds -5 1013 91 10000 3.58 300 02:23 21.07.2022
2507 Clouds 2 1005 79 10000 4.26 271 22:24 20.07.2022
2508 Clouds 2 1005 79 10000 4.26 271 21:49 20.07.2022
2509 Rain 2 1004 85 10000 4.88 270 20:46 20.07.2022
2510 Rain 3 1003 87 10000 4.71 271 19:46 20.07.2022
2511 Rain 3 1002 97 1057 4.11 283 18:53 20.07.2022
2512 Rain 3 1002 97 1057 4.11 283 18:30 20.07.2022
2513 Rain 3 1000 100 60 2.26 300 16:49 20.07.2022
2514 Rain 3 999 100 164 2.57 312 15:32 20.07.2022
2515 Rain 3 998 99 298 2.06 328 14:32 20.07.2022
2516 Rain 3 997 99 124 2.89 335 12:41 20.07.2022
2517 Rain 3 999 98 650 3.26 322 10:28 20.07.2022
2518 Rain 4 1002 97 1318 4.99 306 05:44 20.07.2022
2519 Rain 4 1004 99 1335 3.81 324 00:54 20.07.2022
2520 Rain 4 1004 99 1335 3.81 324 00:36 20.07.2022
2521 Rain 4 1003 98 2460 5.09 328 22:34 19.07.2022
2522 Rain 4 1003 100 281 4.59 333 21:53 19.07.2022
2523 Rain 5 1003 100 126 4.1 324 20:48 19.07.2022
2524 Rain 6 1003 99 371 6.45 301 19:21 19.07.2022
2525 Rain 6 1003 99 371 6.45 301 18:34 19.07.2022
2526 Rain 5 1004 97 4710 7.21 289 17:49 19.07.2022
2527 Clouds -2 1011 87 10000 4.17 310 14:58 19.07.2022
2528 Clouds -7 1015 86 10000 3.67 325 11:58 19.07.2022
2529 Clouds -7 1016 88 10000 3.77 329 11:18 19.07.2022
2530 Clouds -7 1020 92 10000 3.59 330 09:26 19.07.2022
2531 Clouds -7 1020 92 10000 3.59 330 08:39 19.07.2022
2532 Clouds -7 1023 93 10000 3.21 322 07:19 19.07.2022
2533 Clouds -7 1024 93 10000 3.27 325 05:48 19.07.2022
2534 Clouds -6 1025 92 10000 3.1 328 04:56 19.07.2022
2535 Clouds -5 1025 91 10000 3.21 330 01:50 19.07.2022
2536 Clouds -4 1024 89 10000 2.74 335 23:49 18.07.2022
2537 Clouds -1 1023 89 10000 2.15 324 23:18 18.07.2022
2538 Clouds 1 1022 88 10000 1.55 312 22:18 18.07.2022
2539 Clouds 2 1022 91 10000 1.29 326 20:51 18.07.2022
2540 Clouds 2 1022 91 10000 1.52 330 19:33 18.07.2022
2541 Clouds 0 1024 88 10000 2.17 315 17:52 18.07.2022
2542 Clouds -3 1025 92 10000 2.38 328 15:57 18.07.2022
2543 Clouds -6 1026 93 10000 2.55 335 15:18 18.07.2022
2544 Clouds -6 1025 94 10000 2.89 319 13:24 18.07.2022
2545 Clouds -7 1024 93 10000 2.67 317 11:31 18.07.2022
2546 Clouds -7 1023 93 10000 2.53 320 09:28 18.07.2022
2547 Clouds -7 1022 92 10000 2.78 313 07:43 18.07.2022
2548 Clouds -1 1014 90 10000 3.4 283 01:43 18.07.2022
2549 Snow 1 1007 97 678 2.22 274 22:46 17.07.2022
2550 Snow 2 1005 96 325 2.05 295 22:22 17.07.2022
2551 Clouds 2 1004 93 7700 1.9 308 21:23 17.07.2022
2552 Clouds 2 1004 93 7700 1.9 308 20:44 17.07.2022
2553 Clouds 2 1004 93 10000 1.98 296 19:34 17.07.2022
2554 Clouds 2 1004 92 10000 2.42 275 18:54 17.07.2022
2555 Clouds 2 1004 90 10000 2.85 274 17:38 17.07.2022
2556 Clouds 2 1005 88 10000 3.51 287 16:51 17.07.2022
2557 Clouds -1 1006 92 10000 2.79 306 16:26 17.07.2022
2558 Clouds -4 1007 96 10000 2.61 334 14:58 17.07.2022
2559 Clouds -2 1006 95 10000 1.93 337 13:31 17.07.2022
2560 Snow -4 1007 95 2622 1.82 333 11:41 17.07.2022
2561 Snow -1 1008 96 475 1.94 314 09:24 17.07.2022
2562 Snow -3 1011 92 10000 2.46 334 05:24 17.07.2022
2563 Clouds -3 1013 92 10000 2.74 333 02:32 17.07.2022
2564 Clouds -2 1015 89 10000 2.57 299 23:20 16.07.2022
2565 Clouds 0 1015 87 10000 2.16 283 21:30 16.07.2022
2566 Clouds 0 1016 86 10000 2.18 277 19:30 16.07.2022
2567 Clouds 0 1017 85 10000 2.3 282 18:32 16.07.2022
2568 Clouds 0 1017 85 10000 2.3 282 18:32 16.07.2022
2569 Clouds -2 1020 85 10000 2.03 282 16:34 16.07.2022
2570 Clouds -8 1024 91 10000 2.06 316 13:49 16.07.2022
2571 Clouds -9 1025 95 10000 2.19 315 10:53 16.07.2022
2572 Clouds -9 1026 98 8767 2.24 329 09:33 16.07.2022
2573 Clouds -9 1027 98 8748 2.3 325 08:43 16.07.2022
2574 Clouds -9 1028 98 5635 2.19 330 08:19 16.07.2022
2575 Clouds -7 1029 96 10000 2.41 4 03:58 16.07.2022
2576 Clouds -6 1029 96 10000 2.4 17 02:40 16.07.2022
2577 Clouds -4 1028 98 10000 0.36 61 23:29 15.07.2022
2578 Clouds -4 1028 98 10000 0.36 61 22:39 15.07.2022
2579 Clouds 1 1028 88 10000 0.96 109 21:24 15.07.2022
2580 Clouds 0 1029 91 10000 0.96 95 20:24 15.07.2022
2581 Clouds 0 1030 92 10000 1.19 117 18:37 15.07.2022
2582 Snow 0 1031 94 987 1.27 150 17:36 15.07.2022
2583 Snow -2 1031 97 466 1.07 141 14:48 15.07.2022
2584 Snow -2 1030 98 142 1.06 156 12:49 15.07.2022
2585 Snow -2 1029 98 141 0.69 145 10:54 15.07.2022
2586 Snow -1 1029 98 187 1.55 133 08:49 15.07.2022
2587 Snow -1 1028 98 112 1.41 157 05:55 15.07.2022
2588 Snow -1 1026 98 110 2.02 168 00:52 15.07.2022
2589 Snow -1 1025 98 116 2.07 180 23:35 14.07.2022
2590 Snow 0 1024 98 124 2.15 187 22:42 14.07.2022
2591 Snow 0 1023 97 154 2.15 184 21:43 14.07.2022
2592 Snow 0 1022 96 171 2.32 179 21:24 14.07.2022
2593 Snow 0 1022 96 171 2.32 179 20:43 14.07.2022
2594 Snow 0 1022 96 163 2.22 180 20:19 14.07.2022
2595 Snow 0 1022 96 133 2.41 174 18:41 14.07.2022
2596 Snow -2 1021 97 105 1.8 168 16:21 14.07.2022
2597 Snow -2 1020 96 106 1.8 160 15:26 14.07.2022
2598 Snow -3 1019 96 107 1.4 173 13:52 14.07.2022
2599 Snow -3 1020 96 126 0.97 186 12:40 14.07.2022
2600 Snow -4 1019 96 161 1.02 177 11:41 14.07.2022
2601 Snow -5 1019 95 655 0.54 140 11:21 14.07.2022
2602 Clouds -5 1019 95 4639 0.4 125 09:49 14.07.2022
2603 Clouds -5 1016 87 10000 0.59 19 05:20 14.07.2022
2604 Clouds -4 1014 92 10000 1.74 353 01:22 14.07.2022
2605 Clouds -4 1014 92 10000 1.74 353 00:52 14.07.2022
2606 Clouds -2 1012 90 10000 0.42 309 22:32 13.07.2022
2607 Clouds 0 1011 86 10000 0.42 304 21:51 13.07.2022
2608 Clouds 1 1011 81 10000 0.79 340 20:44 13.07.2022
2609 Clouds 0 1012 83 10000 1.37 319 18:48 13.07.2022
2610 Clouds 0 1012 84 10000 1.37 318 17:34 13.07.2022
2611 Clouds -3 1013 90 10000 1.58 334 16:19 13.07.2022
2612 Clouds -5 1014 94 10000 1.97 334 15:24 13.07.2022
2613 Clouds -5 1013 94 10000 2.02 327 11:56 13.07.2022
2614 Clouds -5 1013 95 10000 1.99 328 10:45 13.07.2022
2615 Clouds -5 1013 96 10000 1.99 330 09:57 13.07.2022
2616 Clouds -5 1013 96 10000 1.85 321 09:21 13.07.2022
2617 Clouds -4 1012 95 10000 2.36 324 05:52 13.07.2022
2618 Clear -4 1011 88 10000 2.8 301 01:27 13.07.2022
2619 Clear -3 1010 84 10000 3.53 292 23:39 12.07.2022
2620 Clouds 1 1008 79 10000 3.73 289 21:54 12.07.2022
2621 Clouds 2 1008 78 10000 4.04 278 21:18 12.07.2022
2622 Clouds 2 1008 78 10000 4.04 278 20:41 12.07.2022
2623 Snow 1 1008 90 10000 3.04 282 18:56 12.07.2022
2624 Clouds 1 1008 82 10000 3.72 261 17:38 12.07.2022
2625 Clouds -1 1009 89 10000 2.72 296 15:42 12.07.2022
2626 Clouds -2 1009 89 10000 3.3 280 14:23 12.07.2022
2627 Clouds -1 1007 94 10000 3.02 289 12:19 12.07.2022
2628 Clouds -1 1007 95 10000 3.15 298 10:51 12.07.2022
2629 Clouds -1 1007 93 10000 2.8 314 09:22 12.07.2022
2630 Snow -1 1008 94 10000 3.12 340 08:18 12.07.2022
2631 Clouds -1 1011 93 10000 2.97 338 05:57 12.07.2022
2632 Clouds -1 1011 93 10000 2.97 338 05:39 12.07.2022
2633 Clouds -1 1014 93 10000 2.54 339 01:57 12.07.2022
2634 Clouds -1 1014 93 10000 2.54 339 01:56 12.07.2022
2635 Clouds -1 1014 93 10000 2.54 339 01:56 12.07.2022
2636 Clouds 0 1016 92 10000 1.07 322 22:59 11.07.2022
2637 Clouds 2 1016 89 10000 1.35 298 21:45 11.07.2022
2638 Clouds 2 1017 89 10000 1.7 307 20:33 11.07.2022
2639 Clouds 1 1018 91 10000 1.85 296 19:33 11.07.2022
2640 Clouds 0 1019 93 10000 1.72 298 18:32 11.07.2022
2641 Clouds -1 1020 93 10000 1.72 300 17:36 11.07.2022
2642 Clouds -3 1022 96 5924 1.63 296 15:46 11.07.2022
2643 Clouds -5 1023 98 4506 1.72 308 13:39 11.07.2022
2644 Clouds -5 1023 97 5145 1.65 301 11:40 11.07.2022
2645 Clouds -5 1023 97 8735 1.29 323 10:18 11.07.2022
2646 Clouds -5 1023 97 8735 1.29 323 09:41 11.07.2022
2647 Clouds -4 1023 95 10000 1.14 326 08:33 11.07.2022
2648 Clouds -4 1023 95 10000 0.96 25 04:34 11.07.2022
2649 Clouds -2 1021 94 10000 1.55 108 00:20 11.07.2022
2650 Clouds -1 1020 92 10000 1.68 114 22:56 10.07.2022
2651 Clouds 0 1019 88 9340 1.8 127 21:41 10.07.2022
2652 Snow 1 1018 87 8477 2.03 143 20:47 10.07.2022
2653 Clouds 1 1019 87 9403 2.13 145 19:50 10.07.2022
2654 Snow 1 1018 90 5249 2.4 156 18:48 10.07.2022
2655 Snow 1 1018 91 3588 2.53 159 17:37 10.07.2022
2656 Snow 1 1017 94 2597 2.45 162 16:45 10.07.2022
2657 Clouds 2 1015 93 10000 1.39 171 15:25 10.07.2022
2658 Clouds 1 1014 92 10000 1.24 251 14:21 10.07.2022
2659 Clouds 2 1011 94 10000 1.5 251 12:27 10.07.2022
2660 Clouds 2 1009 95 10000 1.15 281 09:58 10.07.2022
2661 Clouds 2 1009 95 10000 1.52 276 08:45 10.07.2022
2662 Clouds 2 1008 96 9453 1.89 275 07:30 10.07.2022
2663 Rain 2 1004 99 247 0.59 269 01:33 10.07.2022
2664 Clouds 2 1001 99 55 0.81 265 22:43 09.07.2022
2665 Rain 3 1001 99 66 0.51 267 22:24 09.07.2022
2666 Rain 3 1001 100 43 0.77 247 20:46 09.07.2022
2667 Rain 3 1000 99 159 0.93 149 18:37 09.07.2022
2668 Clouds 3 1001 97 6785 0.38 146 17:45 09.07.2022
2669 Clouds 2 1001 95 10000 0.63 76 16:44 09.07.2022
2670 Clouds 2 1003 94 10000 1 346 15:41 09.07.2022
2671 Clouds 1 1003 95 10000 1.51 351 14:36 09.07.2022
2672 Clouds 0 1003 95 10000 0.88 7 13:50 09.07.2022
2673 Clouds 1 1003 94 10000 1.16 17 12:45 09.07.2022
2674 Clouds 0 1004 94 10000 1.88 356 11:22 09.07.2022
2675 Clouds 0 1004 93 10000 1.51 347 10:22 09.07.2022
2676 Clouds 1 1004 91 10000 1.82 351 07:45 09.07.2022
2677 Clouds 0 1005 89 10000 1.85 349 04:59 09.07.2022
2678 Clouds 0 1007 92 10000 2.11 336 02:33 09.07.2022
2679 Clouds 2 1005 95 10000 2.14 334 22:54 08.07.2022
2680 Clouds 3 1005 97 8809 2.14 331 21:43 08.07.2022
2681 Clouds 3 1005 98 8807 2.33 323 20:40 08.07.2022
2682 Clouds 3 1005 99 5896 2.14 323 19:53 08.07.2022
2683 Clouds 3 1007 99 10000 2.37 333 18:24 08.07.2022
2684 Clouds 3 1008 96 10000 2.43 333 16:40 08.07.2022
2685 Clouds 0 1008 94 10000 2.8 341 14:53 08.07.2022
2686 Clouds 1 1008 95 10000 2.91 343 13:29 08.07.2022
2687 Clouds 1 1009 95 10000 3.2 343 11:42 08.07.2022
2688 Clouds 1 1008 95 10000 3.25 348 10:28 08.07.2022
2689 Clouds 2 1009 95 8638 3.19 352 08:27 08.07.2022
2690 Clouds 2 1009 94 9865 2.97 359 06:49 08.07.2022
2691 Clouds 1 1012 94 10000 2.13 344 01:23 08.07.2022
2692 Clouds 2 1011 93 10000 1.83 351 22:59 07.07.2022
2693 Clouds 2 1011 94 10000 1.55 352 22:29 07.07.2022
2694 Clouds 2 1011 96 10000 0.87 318 20:22 07.07.2022
2695 Clouds 2 1013 91 10000 1.78 281 18:20 07.07.2022
2696 Clouds 0 1013 92 10000 1.49 281 16:46 07.07.2022
2697 Clouds -3 1014 94 10000 1.91 317 14:32 07.07.2022
2698 Clouds -3 1013 96 5184 1.35 305 12:53 07.07.2022
2699 Clouds -3 1013 95 7390 1.77 319 12:23 07.07.2022
2700 Clouds -3 1013 95 7390 1.77 319 11:35 07.07.2022
2701 Clouds -3 1013 95 10000 2.09 331 10:47 07.07.2022
2702 Clouds -4 1013 95 10000 1.88 321 10:29 07.07.2022
2703 Clouds -4 1013 95 10000 1.88 321 09:52 07.07.2022
2704 Snow -3 1013 93 7123 2.42 321 06:40 07.07.2022
2705 Clouds -2 1007 85 10000 5.08 286 00:32 07.07.2022
2706 Clouds -1 1005 87 10000 5.05 280 23:36 06.07.2022
2707 Clouds 0 1003 86 10000 5.79 264 23:18 06.07.2022
2708 Clouds 0 1003 86 10000 5.79 264 22:52 06.07.2022
2709 Clouds 0 1003 86 10000 5.79 264 22:33 06.07.2022
2710 Clouds 0 1003 86 10000 5.79 264 22:33 06.07.2022
2711 Clouds 2 999 93 10000 2.27 276 20:30 06.07.2022
2712 Snow 1 999 97 10000 1.89 261 19:32 06.07.2022
2713 Clouds 0 998 95 10000 1.77 263 17:21 06.07.2022
2714 Clouds -1 998 94 10000 1.45 292 15:57 06.07.2022
2715 Snow -3 998 96 10000 2.15 316 12:44 06.07.2022
2716 Clouds -1 997 96 10000 1.78 296 11:52 06.07.2022
2717 Snow 0 997 97 10000 0.47 52 10:54 06.07.2022
2718 Clouds -2 997 96 10000 2.1 54 09:25 06.07.2022
2719 Snow -1 998 97 2651 2.82 50 07:44 06.07.2022
2720 Snow -2 999 96 6259 1.75 49 06:44 06.07.2022
2721 Clouds -1 1004 92 10000 2.98 330 23:42 05.07.2022
2722 Clouds 0 1004 89 10000 3.08 323 22:42 05.07.2022
2723 Clouds 3 1004 81 10000 4.68 296 20:48 05.07.2022
2724 Clouds 3 1004 81 10000 4.87 295 19:56 05.07.2022
2725 Clouds 3 1004 81 10000 4.87 295 19:36 05.07.2022
2726 Clouds 3 1005 79 10000 7.96 302 17:50 05.07.2022
2727 Clouds 3 1005 80 10000 7.53 300 17:18 05.07.2022
2728 Clouds 2 1005 81 10000 7.18 303 15:48 05.07.2022
2729 Snow 1 1005 85 5527 6.07 309 14:44 05.07.2022
2730 Snow 1 1004 89 4797 5.51 310 12:59 05.07.2022
2731 Snow 0 1004 90 6525 4.56 321 12:22 05.07.2022
2732 Snow 0 1004 87 10000 4.26 335 10:45 05.07.2022
2733 Snow 0 1004 85 10000 4.99 319 09:44 05.07.2022
2734 Snow 2 1004 92 7576 4.26 322 08:20 05.07.2022
2735 Snow 1 1003 97 272 3.05 312 06:47 05.07.2022
2736 Snow 1 1004 94 1964 3.29 342 04:28 05.07.2022
2737 Snow 0 1006 92 10000 4.17 351 00:43 05.07.2022
2738 Clouds 0 1007 93 10000 3.76 344 23:36 04.07.2022
2739 Snow 1 1007 94 7472 3.17 330 22:54 04.07.2022
2740 Rain 2 1007 93 10000 3.08 307 21:53 04.07.2022
2741 Clouds 3 1006 89 10000 3.56 290 20:54 04.07.2022
2742 Clouds 3 1006 89 10000 3.56 290 20:34 04.07.2022
2743 Clouds 3 1007 93 10000 2.81 308 19:55 04.07.2022
2744 Clouds 3 1007 93 10000 2.81 308 19:36 04.07.2022
2745 Clouds 2 1010 88 10000 1.75 296 18:18 04.07.2022
2746 Clouds -1 1012 90 10000 1.97 317 15:58 04.07.2022
2747 Clouds -1 1012 90 10000 1.97 317 15:34 04.07.2022
2748 Clouds -3 1011 88 10000 3.93 305 13:33 04.07.2022
2749 Clouds -3 1010 87 10000 3.8 305 12:33 04.07.2022
2750 Snow -2 1009 94 964 3.2 299 10:34 04.07.2022
2751 Clouds -3 1008 85 10000 3.84 330 09:53 04.07.2022
2752 Snow 1 1007 89 10000 4.17 300 08:24 04.07.2022
2753 Snow 1 1005 96 2298 3.08 324 04:57 04.07.2022
2754 Snow 2 1005 98 340 2.49 344 00:39 04.07.2022
2755 Rain 2 1005 96 1294 3.26 355 22:59 03.07.2022
2756 Rain 3 1006 96 5095 3.45 338 20:58 03.07.2022
2757 Rain 3 1006 95 4034 2.92 319 20:31 03.07.2022
2758 Rain 3 1007 91 10000 3.43 341 19:28 03.07.2022
2759 Rain 3 1007 91 10000 3.43 341 18:43 03.07.2022
2760 Clouds 2 1009 88 10000 2.84 338 17:44 03.07.2022
2761 Clouds -1 1010 92 10000 3.36 353 15:54 03.07.2022
2762 Clouds -3 1011 94 10000 3.32 359 14:59 03.07.2022
2763 Clouds -3 1012 93 10000 3.28 335 14:18 03.07.2022
2764 Clouds -3 1012 93 10000 3.06 335 13:48 03.07.2022
2765 Clouds -3 1012 92 10000 3.69 338 12:33 03.07.2022
2766 Clouds -3 1012 93 10000 3.56 328 11:28 03.07.2022
2767 Clouds -3 1012 93 10000 3.56 328 10:38 03.07.2022
2768 Clouds -3 1012 94 10000 3.27 324 09:31 03.07.2022
2769 Clouds -3 1012 95 10000 3.24 315 07:35 03.07.2022
2770 Clouds -2 1010 91 10000 3.32 304 02:49 03.07.2022
2771 Snow 1 1006 89 10000 4.64 295 00:20 03.07.2022
2772 Rain 2 1004 92 5126 3.86 299 22:33 02.07.2022
2773 Rain 2 1003 94 1058 2.53 301 20:50 02.07.2022
2774 Clouds 2 1002 88 10000 1.85 358 19:52 02.07.2022
2775 Clouds 2 1004 86 10000 2.48 349 19:20 02.07.2022
2776 Clouds 1 1006 85 10000 2.3 356 17:41 02.07.2022
2777 Snow 1 1008 85 10000 2.55 358 16:53 02.07.2022
2778 Clouds -3 1010 91 10000 2.09 3 14:31 02.07.2022
2779 Snow -3 1012 92 9259 2.45 353 12:21 02.07.2022
2780 Clouds -4 1012 92 10000 2.63 345 11:26 02.07.2022
2781 Clouds -4 1012 92 10000 2.63 345 10:37 02.07.2022
2782 Clouds -4 1013 92 10000 2.62 341 08:55 02.07.2022
2783 Clouds -4 1014 93 10000 2.56 334 08:20 02.07.2022
2784 Clouds -4 1014 92 10000 2.65 318 06:59 02.07.2022
2785 Clouds -2 1012 93 10000 3.16 292 01:44 02.07.2022
2786 Clouds -1 1009 93 10000 2.83 285 23:37 01.07.2022
2787 Clouds 1 1007 92 10000 2.27 283 22:40 01.07.2022
2788 Clouds 2 1006 91 10000 1.84 282 21:40 01.07.2022
2789 Clouds 3 1005 91 10000 1.88 282 20:59 01.07.2022
2790 Clouds 3 1005 91 10000 1.88 282 20:37 01.07.2022
2791 Clouds 2 1005 93 10000 1.86 277 19:41 01.07.2022
2792 Clouds 1 1005 92 10000 1.78 264 17:52 01.07.2022
2793 Clouds -2 1004 97 10000 1.36 286 15:26 01.07.2022
2794 Clouds -1 1003 97 10000 1.71 278 13:54 01.07.2022
2795 Clouds -1 1001 98 10000 1.43 270 11:50 01.07.2022
2796 Clouds 0 1001 98 2640 0.85 188 10:20 01.07.2022
2797 Clouds 0 1002 96 10000 0.25 278 08:50 01.07.2022
2798 Clouds 0 1006 90 10000 1.26 16 03:18 01.07.2022
2799 Clouds 0 1009 90 10000 2.14 338 00:25 01.07.2022
2800 Clouds 1 1009 89 10000 2.07 340 22:56 30.06.2022
2801 Clouds 1 1009 89 10000 2.07 340 22:33 30.06.2022
2802 Clouds 2 1009 89 10000 2.1 341 21:59 30.06.2022
2803 Clouds 2 1009 89 10000 2.1 341 21:35 30.06.2022
2804 Clouds 3 1011 92 10000 2.37 314 20:22 30.06.2022
2805 Clouds 3 1011 92 10000 2.37 314 19:53 30.06.2022
2806 Clouds 2 1013 91 10000 2.2 298 19:18 30.06.2022
2807 Clouds 2 1013 91 10000 2.2 298 18:35 30.06.2022
2808 Clouds 2 1014 91 10000 2.63 289 17:38 30.06.2022
2809 Clouds 1 1015 90 10000 2.82 295 16:48 30.06.2022
2810 Clouds -1 1017 90 10000 2.99 310 14:47 30.06.2022
2811 Clouds -2 1018 93 10000 3.43 306 13:30 30.06.2022
2812 Clouds -2 1017 94 10000 3.57 301 12:35 30.06.2022
2813 Clouds -1 1018 94 10000 3.91 301 11:28 30.06.2022
2814 Clouds -1 1018 94 10000 3.68 301 09:53 30.06.2022
2815 Clouds -1 1018 94 10000 3.68 301 09:31 30.06.2022
2816 Clouds -4 1019 95 10000 3.16 307 07:41 30.06.2022
2817 Clouds -4 1019 93 10000 2.54 318 05:47 30.06.2022
2818 Clouds -2 1016 95 10000 3.12 304 00:31 30.06.2022
2819 Clouds -1 1014 93 10000 2.79 286 23:19 29.06.2022
2820 Clouds -1 1014 93 10000 2.79 286 22:38 29.06.2022
2821 Clouds 1 1013 91 10000 3.01 279 21:34 29.06.2022
2822 Clouds 2 1012 89 10000 3.54 281 20:33 29.06.2022
2823 Clouds 2 1012 88 10000 3.55 283 19:36 29.06.2022
2824 Clouds 1 1012 91 10000 3.05 281 17:42 29.06.2022
2825 Clouds 0 1013 91 10000 3.18 288 16:36 29.06.2022
2826 Clouds -3 1012 90 10000 3.42 295 14:56 29.06.2022
2827 Clouds -1 1009 86 10000 3.38 294 12:39 29.06.2022
2828 Rain 3 1005 93 4368 3.46 282 10:37 29.06.2022
2829 Rain 2 1004 98 316 3.34 272 09:32 29.06.2022
2830 Rain 3 1002 99 2183 2.74 327 07:36 29.06.2022
2831 Rain 2 1003 99 114 1.62 318 04:50 29.06.2022
2832 Rain 2 1005 99 96 1.23 256 00:56 29.06.2022
2833 Rain 2 1005 99 96 1.23 256 00:35 29.06.2022
2834 Rain 2 1004 99 79 1.47 288 22:53 28.06.2022
2835 Rain 2 1004 100 72 2.02 293 22:23 28.06.2022
2836 Rain 2 1004 100 72 2.02 293 21:53 28.06.2022
2837 Rain 2 1004 100 72 2.02 293 21:31 28.06.2022
2838 Rain 3 1006 100 165 2.42 313 20:27 28.06.2022
2839 Rain 3 1006 100 153 2.42 307 19:32 28.06.2022
2840 Rain 3 1006 100 143 1.48 315 18:44 28.06.2022
2841 Rain 3 1007 99 1457 2.06 283 17:38 28.06.2022
2842 Rain 3 1008 99 909 2.73 301 15:56 28.06.2022
2843 Rain 3 1008 99 909 2.73 301 15:56 28.06.2022
2844 Rain 3 1008 97 2127 2.5 311 14:59 28.06.2022
2845 Rain 3 1008 97 3392 3.09 325 14:20 28.06.2022
2846 Rain 3 1008 97 3392 3.09 325 13:49 28.06.2022
2847 Rain 3 1008 96 3459 3.35 314 12:54 28.06.2022
2848 Rain 3 1009 97 8217 3.48 314 10:57 28.06.2022
2849 Rain 2 1010 96 10000 3.52 309 09:25 28.06.2022
2850 Rain 2 1010 96 10000 3.52 309 08:43 28.06.2022
2851 Clouds 2 1012 95 10000 3.67 309 07:26 28.06.2022
2852 Clouds 2 1013 94 10000 2.9 304 04:59 28.06.2022
2853 Clouds 2 1014 89 10000 2.6 326 23:59 27.06.2022
2854 Clouds 2 1014 89 10000 2.6 326 23:36 27.06.2022
2855 Clouds 2 1014 91 10000 2.52 312 22:51 27.06.2022
2856 Clouds 3 1014 92 10000 2.25 303 21:33 27.06.2022
2857 Clouds 3 1014 94 10000 2.23 289 20:44 27.06.2022
2858 Clouds 3 1014 96 10000 2.24 277 18:58 27.06.2022
2859 Clouds 3 1014 96 10000 2.37 269 17:46 27.06.2022
2860 Clouds 2 1014 94 10000 2.68 277 16:18 27.06.2022
2861 Clouds 1 1014 95 10000 2.83 281 14:44 27.06.2022
2862 Clouds 1 1014 92 10000 3.2 279 13:24 27.06.2022
2863 Clouds 1 1014 92 10000 3.2 279 12:49 27.06.2022
2864 Clouds 1 1013 89 10000 3.77 280 10:22 27.06.2022
2865 Clouds 0 1013 89 10000 3.78 283 08:43 27.06.2022
2866 Clouds 0 1013 85 10000 3.75 283 07:58 27.06.2022
2867 Clouds 0 1013 83 10000 3.77 283 06:38 27.06.2022
2868 Clear -1 1014 83 10000 3.6 289 01:54 27.06.2022
2869 Clear -1 1013 85 10000 3.24 291 23:39 26.06.2022
2870 Clear 2 1012 83 10000 2.59 282 21:51 26.06.2022
2871 Clear 2 1012 79 10000 2.33 278 20:34 26.06.2022
2872 Clear 1 1014 74 10000 2.12 272 19:19 26.06.2022
2873 Clear 0 1016 72 10000 1.83 279 18:23 26.06.2022
2874 Clear -3 1018 77 10000 1.78 299 15:38 26.06.2022
2875 Clear -5 1019 83 10000 1.73 304 14:33 26.06.2022
2876 Clear -5 1020 84 10000 1.6 315 13:27 26.06.2022
2877 Clear -5 1020 84 10000 1.6 315 12:44 26.06.2022
2878 Clear -5 1021 86 10000 1.3 337 10:53 26.06.2022
2879 Clear -5 1021 87 10000 1.2 314 10:22 26.06.2022
2880 Clear -4 1022 86 10000 1.19 342 08:45 26.06.2022
2881 Clear -4 1023 87 10000 1.51 3 07:18 26.06.2022
2882 Clear -3 1026 83 10000 1.06 40 00:45 26.06.2022
2883 Clear -2 1026 82 10000 1.16 46 00:20 26.06.2022
2884 Clear -2 1026 82 10000 1.16 46 23:31 25.06.2022
2885 Clear -1 1026 81 10000 0.8 88 22:48 25.06.2022
2886 Clear 1 1026 77 10000 0.7 138 22:25 25.06.2022
2887 Clear 2 1026 73 10000 1.41 59 21:22 25.06.2022
2888 Clear 2 1026 73 10000 1.41 59 20:48 25.06.2022
2889 Clear 1 1027 72 10000 1.53 58 20:25 25.06.2022
2890 Clear 0 1030 72 10000 1.57 55 18:26 25.06.2022
2891 Clear -1 1031 74 10000 1.54 60 17:27 25.06.2022
2892 Clear -3 1032 79 10000 1.26 55 16:29 25.06.2022
2893 Clear -5 1033 83 10000 1.41 44 14:43 25.06.2022
2894 Clear -6 1034 85 10000 1.49 34 12:51 25.06.2022
2895 Clear -6 1034 85 10000 1.49 34 12:31 25.06.2022
2896 Clear -6 1035 84 10000 1.3 40 09:35 25.06.2022
2897 Clear -5 1036 84 10000 1.53 44 08:55 25.06.2022
2898 Clear -5 1036 83 10000 1.71 42 08:20 25.06.2022
2899 Clear -5 1036 82 10000 1.76 36 06:36 25.06.2022
2900 Clouds -4 1037 84 10000 1.98 53 00:50 25.06.2022
2901 Clouds -4 1036 83 10000 1.82 62 23:57 24.06.2022
2902 Clouds -1 1035 77 10000 1.47 106 22:28 24.06.2022
2903 Clouds 0 1035 72 10000 1.66 95 21:26 24.06.2022
2904 Clouds 0 1035 72 10000 1.77 96 20:23 24.06.2022
2905 Clouds 0 1035 71 10000 1.82 89 19:24 24.06.2022
2906 Clouds 0 1035 71 10000 1.82 89 18:51 24.06.2022
2907 Clouds 0 1035 71 10000 1.82 89 18:31 24.06.2022
2908 Clouds -1 1036 73 10000 1.7 85 17:57 24.06.2022
2909 Clouds -2 1036 76 10000 1.61 90 16:46 24.06.2022
2910 Clouds -5 1036 78 10000 1.37 83 14:32 24.06.2022
2911 Clouds -5 1035 79 10000 1.2 72 13:59 24.06.2022
2912 Clouds -5 1035 79 10000 1.2 72 13:35 24.06.2022
2913 Clouds -5 1033 83 10000 1.1 65 11:41 24.06.2022
2914 Clouds -5 1033 86 10000 0.83 62 10:36 24.06.2022
2915 Clouds -5 1032 88 10000 0.75 78 09:41 24.06.2022
2916 Clouds -5 1032 89 10000 0.85 92 08:53 24.06.2022
2917 Clouds -5 1031 91 10000 0.85 120 07:56 24.06.2022
2918 Clouds -5 1030 90 10000 0.95 117 06:42 24.06.2022
2919 Clouds -4 1030 89 10000 0.83 109 06:18 24.06.2022
2920 Clouds -4 1028 88 10000 0.89 93 03:47 24.06.2022
2921 Clouds -2 1023 84 10000 1.28 133 23:19 23.06.2022
2922 Clouds -2 1023 84 10000 1.28 133 22:40 23.06.2022
2923 Clouds 1 1022 75 10000 1.34 130 20:59 23.06.2022
2924 Clouds 1 1022 76 10000 1.26 146 20:35 23.06.2022
2925 Clouds 0 1022 76 10000 1.19 139 19:40 23.06.2022
2926 Clouds -1 1022 79 10000 0.94 118 17:53 23.06.2022
2927 Clouds -2 1023 83 10000 0.58 105 17:23 23.06.2022
2928 Clouds -2 1023 86 10000 0.68 104 15:50 23.06.2022
2929 Clouds -4 1023 91 10000 0.61 118 15:24 23.06.2022
2930 Clouds -6 1023 93 10000 0.35 188 13:40 23.06.2022
2931 Clouds -4 1022 88 10000 0.3 204 11:27 23.06.2022
2932 Clouds -4 1022 88 10000 0.3 204 10:35 23.06.2022
2933 Clouds -4 1022 88 10000 0.09 224 08:53 23.06.2022
2934 Clouds -4 1022 86 10000 0.25 53 03:35 23.06.2022
2935 Clouds -2 1021 81 10000 1.04 43 00:26 23.06.2022
2936 Clouds -2 1021 81 10000 1.04 43 23:30 22.06.2022
2937 Clouds -1 1020 78 10000 0.85 65 22:39 22.06.2022
2938 Clouds 1 1020 72 10000 1.63 61 21:22 22.06.2022
2939 Clouds 1 1020 72 10000 1.63 61 21:22 22.06.2022
2940 Clouds 1 1020 72 10000 1.63 61 20:42 22.06.2022
2941 Clouds 1 1021 71 10000 1.79 66 19:56 22.06.2022
2942 Clouds 0 1022 70 10000 1.73 67 18:47 22.06.2022
2943 Clouds -1 1023 73 10000 1.62 65 17:28 22.06.2022
2944 Clear -3 1024 78 10000 1.59 62 16:24 22.06.2022
2945 Clear -5 1025 84 10000 1.56 49 15:26 22.06.2022
2946 Clear -6 1025 84 10000 1.57 60 14:19 22.06.2022
2947 Clear -5 1025 84 10000 1.64 59 13:37 22.06.2022
2948 Clear -5 1025 83 10000 1.58 65 13:18 22.06.2022
2949 Clear -5 1025 82 10000 1.42 49 11:49 22.06.2022
2950 Clear -5 1025 82 10000 1.45 59 10:55 22.06.2022
2951 Clear -5 1026 81 10000 1.39 58 10:19 22.06.2022
2952 Clear -5 1027 81 10000 1.46 58 08:27 22.06.2022
2953 Clear -4 1028 81 10000 1.45 37 03:50 22.06.2022
2954 Clear -3 1028 78 10000 1.86 52 01:23 22.06.2022
2955 Clear -3 1028 76 10000 1.82 55 23:42 21.06.2022
2956 Clear 0 1027 68 10000 1.21 88 22:18 21.06.2022
2957 Clear 1 1027 61 10000 1.38 87 19:55 21.06.2022
2958 Clear 1 1028 63 10000 1.56 81 18:35 21.06.2022
2959 Clear 0 1029 65 10000 1.64 77 17:31 21.06.2022
2960 Clear -4 1030 82 10000 0.92 72 13:45 21.06.2022
2961 Clear -4 1030 81 10000 1.04 76 11:31 21.06.2022
2962 Clear -3 1029 81 10000 0.96 83 09:48 21.06.2022
2963 Clear -3 1029 80 10000 1.07 92 08:37 21.06.2022
2964 Clear -1 1027 66 10000 1.44 108 06:35 21.06.2022
2965 Clouds -1 1022 70 10000 0.98 102 00:43 21.06.2022
2966 Clouds 0 1020 69 10000 1.17 143 23:18 20.06.2022
2967 Clouds 2 1019 61 10000 1.04 133 21:52 20.06.2022
2968 Clouds 3 1018 60 10000 0.75 118 20:47 20.06.2022
2969 Clear 3 1018 60 10000 0.69 119 19:39 20.06.2022
2970 Clear 2 1019 62 10000 0.73 144 18:45 20.06.2022
2971 Clear 1 1019 64 10000 0.65 204 17:52 20.06.2022
2972 Clear 0 1020 70 10000 0.66 217 17:29 20.06.2022
2973 Clear -1 1020 72 10000 1.38 218 15:56 20.06.2022
2974 Clouds -2 1018 82 10000 2.29 274 12:54 20.06.2022
2975 Clouds -2 1018 86 10000 2.22 280 10:58 20.06.2022
2976 Clouds -2 1018 86 10000 2.2 275 09:41 20.06.2022
2977 Clouds -2 1018 86 10000 2.2 275 09:41 20.06.2022
2978 Clouds -2 1018 87 10000 2.37 284 08:44 20.06.2022
2979 Clouds -2 1019 91 10000 2.45 280 05:55 20.06.2022
2980 Clouds 0 1019 93 10000 3.05 284 02:27 20.06.2022
2981 Clouds -1 1018 97 10000 2.57 288 00:26 20.06.2022
2982 Clouds 0 1018 96 10000 2.27 280 22:59 19.06.2022
2983 Clouds 2 1017 94 10000 2.06 269 21:58 19.06.2022
2984 Clouds 2 1017 94 10000 2.06 269 21:40 19.06.2022
2985 Clear 3 1017 90 10000 1.98 265 20:39 19.06.2022
2986 Clouds 3 1017 90 10000 2.16 281 19:47 19.06.2022
2987 Clouds 2 1018 88 10000 1.96 276 18:46 19.06.2022
2988 Clouds 2 1019 87 10000 1.92 274 18:26 19.06.2022
2989 Clouds 1 1019 87 10000 1.98 281 17:22 19.06.2022
2990 Clouds 1 1019 87 10000 1.98 281 16:35 19.06.2022
2991 Clouds 1 1019 88 10000 1.96 281 15:41 19.06.2022
2992 Clouds 0 1018 88 10000 1.93 284 14:57 19.06.2022
2993 Clouds 2 1017 83 10000 2.13 278 14:20 19.06.2022
2994 Clouds 2 1017 83 10000 1.98 272 13:23 19.06.2022
2995 Clouds 2 1016 90 10000 1.55 270 11:21 19.06.2022
2996 Clouds 2 1016 90 10000 1.55 270 10:31 19.06.2022
2997 Clouds 2 1016 96 4208 1.35 289 08:49 19.06.2022
2998 Clouds 1 1015 98 3636 1.5 281 08:19 19.06.2022
2999 Clouds 1 1014 98 3772 1.96 274 05:42 19.06.2022
3000 Rain 2 1012 98 964 2.48 289 02:26 19.06.2022
3001 Rain 2 1011 99 488 2.44 247 00:25 19.06.2022
3002 Rain 2 1011 99 488 2.44 247 23:36 18.06.2022
3003 Rain 3 1010 99 115 2.81 252 22:44 18.06.2022
3004 Rain 3 1009 97 383 3.51 287 20:57 18.06.2022
3005 Rain 3 1009 97 383 3.51 287 20:38 18.06.2022
3006 Rain 5 1009 89 10000 3.3 286 19:38 18.06.2022
3007 Rain 4 1010 85 10000 3.24 287 18:45 18.06.2022
3008 Clouds 4 1011 84 10000 3.16 298 17:35 18.06.2022
3009 Clouds 3 1013 85 10000 2.81 289 16:56 18.06.2022
3010 Clouds 2 1013 87 10000 2.52 302 15:33 18.06.2022
3011 Clouds 1 1014 90 10000 2.71 301 14:45 18.06.2022
3012 Clouds 1 1015 93 10000 2.56 305 13:23 18.06.2022
3013 Clouds 1 1015 92 10000 2.32 300 11:45 18.06.2022
3014 Clouds 1 1015 92 10000 2.35 295 10:47 18.06.2022
3015 Clouds 1 1017 91 10000 2.48 302 09:23 18.06.2022
3016 Clouds 1 1017 91 10000 2.48 302 08:30 18.06.2022
3017 Clouds 1 1017 91 10000 2.48 302 08:30 18.06.2022
3018 Clouds 0 1018 91 10000 2.85 299 06:49 18.06.2022
3019 Clouds 1 1019 93 10000 2.89 294 03:45 18.06.2022
3020 Clouds 1 1020 92 10000 3.07 282 01:26 18.06.2022
3021 Clouds 1 1020 92 10000 3.07 282 01:26 18.06.2022
3022 Clouds 1 1020 92 10000 3.07 282 01:26 18.06.2022
3023 Clouds 1 1020 92 10000 3.07 282 00:48 18.06.2022
3024 Clouds 1 1020 91 10000 3.28 282 23:52 17.06.2022
3025 Clouds 2 1019 89 10000 3.69 279 23:24 17.06.2022
3026 Clouds 4 1018 73 10000 4.03 278 21:18 17.06.2022
3027 Clouds 4 1019 69 10000 4.14 273 19:59 17.06.2022
3028 Clouds 4 1020 73 10000 4.05 272 18:44 17.06.2022
3029 Clouds 3 1021 77 10000 4.23 272 17:43 17.06.2022
3030 Clouds 2 1022 80 10000 4.35 269 16:43 17.06.2022
3031 Clouds 1 1022 84 10000 4.36 268 15:43 17.06.2022
3032 Clouds 1 1022 88 10000 4.26 271 15:20 17.06.2022
3033 Clouds 0 1021 90 10000 4.16 271 14:20 17.06.2022
3034 Clouds 0 1022 91 10000 3.98 269 13:46 17.06.2022
3035 Clouds 0 1021 91 10000 4.08 271 12:57 17.06.2022
3036 Clouds 0 1021 92 10000 4.15 272 11:57 17.06.2022
3037 Clouds 0 1021 92 10000 4.15 272 11:36 17.06.2022
3038 Clouds -1 1020 93 10000 4.05 274 10:51 17.06.2022
3039 Clouds -1 1020 91 10000 3.86 275 08:30 17.06.2022
3040 Clouds -1 1019 90 10000 3.81 277 07:30 17.06.2022
3041 Clouds -1 1018 90 10000 3.54 281 05:51 17.06.2022
3042 Clear 0 1015 84 10000 3.89 273 02:47 17.06.2022
3043 Clouds 2 1011 85 10000 4.78 267 00:42 17.06.2022
3044 Clouds 2 1011 85 10000 4.78 267 00:42 17.06.2022
3045 Rain 4 1008 94 10000 5.29 270 22:45 16.06.2022
3046 Rain 5 1007 79 10000 7.93 286 21:58 16.06.2022
3047 Clouds 7 1006 70 10000 8.49 289 21:18 16.06.2022
3048 Clouds 7 1006 70 10000 8.49 289 20:49 16.06.2022
3049 Clouds 7 1008 63 10000 7.57 281 19:56 16.06.2022
3050 Clouds 6 1009 67 10000 5.88 287 18:30 16.06.2022
3051 Clouds 5 1011 79 10000 4.23 288 17:44 16.06.2022
3052 Clouds 4 1012 84 10000 3.46 282 16:46 16.06.2022
3053 Clouds 3 1015 92 10000 3.81 289 15:24 16.06.2022
3054 Clouds 3 1015 92 10000 3.81 289 14:56 16.06.2022
3055 Clouds 2 1015 94 10000 3.61 293 13:45 16.06.2022
3056 Clouds 2 1015 94 10000 3.77 286 12:37 16.06.2022
3057 Clouds 3 1016 93 10000 3.65 281 11:53 16.06.2022
3058 Clouds 3 1016 92 10000 3.81 281 11:18 16.06.2022
3059 Clouds 3 1016 92 10000 3.81 281 10:32 16.06.2022
3060 Clouds 3 1017 90 10000 3.15 289 09:22 16.06.2022
3061 Clouds 3 1017 90 10000 3.15 289 08:36 16.06.2022
3062 Clouds 2 1019 94 10000 3.13 285 07:28 16.06.2022
3063 Clear 2 1019 91 10000 2.9 290 05:29 16.06.2022
3064 Clear 2 1020 87 10000 2.58 284 02:50 16.06.2022
3065 Clouds 3 1019 84 10000 2.47 282 01:50 16.06.2022
3066 Clouds 4 1019 80 10000 2.29 289 01:21 16.06.2022
3067 Clouds 4 1018 77 10000 2.22 295 23:47 15.06.2022
3068 Clouds 5 1019 75 10000 2.06 288 22:42 15.06.2022
3069 Clouds 6 1019 73 10000 1.88 275 21:23 15.06.2022
3070 Clouds 6 1019 73 10000 1.88 275 20:45 15.06.2022
3071 Clouds 6 1020 75 10000 1.86 272 20:27 15.06.2022
3072 Clouds 6 1019 75 10000 1.73 262 19:30 15.06.2022
3073 Clouds 5 1021 80 10000 1.35 266 17:56 15.06.2022
3074 Clouds 5 1021 80 10000 1.35 266 17:32 15.06.2022
3075 Clouds 4 1021 83 10000 1.19 266 15:38 15.06.2022
3076 Clouds 3 1021 87 10000 0.99 278 14:26 15.06.2022
3077 Clouds 3 1021 87 10000 0.94 286 12:54 15.06.2022
3078 Clouds 3 1021 88 10000 0.96 290 12:28 15.06.2022
3079 Clouds 3 1021 91 10000 1 293 10:27 15.06.2022
3080 Clouds 3 1021 91 10000 1 293 09:45 15.06.2022
3081 Clouds 3 1021 92 10000 1.26 276 08:50 15.06.2022
3082 Clouds 3 1021 96 10000 1.57 283 06:36 15.06.2022
3083 Clouds 3 1020 95 10000 1.6 278 04:46 15.06.2022
3084 Clouds 3 1019 93 10000 1.38 289 01:55 15.06.2022
3085 Clouds 3 1019 90 10000 1.42 318 00:51 15.06.2022
3086 Clouds 3 1018 91 10000 1.28 323 23:39 14.06.2022
3087 Clouds 4 1017 90 10000 0.94 318 23:21 14.06.2022
3088 Clouds 5 1017 84 10000 0.72 303 22:23 14.06.2022
3089 Clouds 5 1017 84 10000 0.72 303 21:38 14.06.2022
3090 Clouds 6 1016 82 10000 0.69 311 20:54 14.06.2022
3091 Clouds 6 1016 84 10000 0.55 295 20:28 14.06.2022
3092 Clouds 6 1016 82 10000 0.74 298 19:18 14.06.2022
3093 Clouds 6 1017 86 10000 0.64 305 18:20 14.06.2022
3094 Clouds 5 1017 89 10000 0.87 293 16:47 14.06.2022
3095 Clouds 5 1016 89 10000 1.07 284 15:50 14.06.2022
3096 Clouds 5 1015 88 10000 1.39 277 15:28 14.06.2022
3097 Clouds 5 1015 88 10000 1.39 277 14:33 14.06.2022
3098 Clouds 4 1015 90 10000 1.71 296 13:42 14.06.2022
3099 Clouds 4 1014 94 10000 1.23 286 12:44 14.06.2022
3100 Clouds 4 1013 94 10000 2.01 307 11:38 14.06.2022
3101 Clouds 3 1013 95 10000 2.26 298 10:47 14.06.2022
3102 Clouds 3 1013 95 10000 2.67 309 10:20 14.06.2022
3103 Clouds 4 1013 95 10000 2.46 312 08:47 14.06.2022
3104 Clouds 3 1013 96 10000 2.26 311 07:34 14.06.2022
3105 Clouds 4 1013 97 10000 1.73 318 05:22 14.06.2022
3106 Clouds 4 1013 98 5443 2.04 303 02:57 14.06.2022
3107 Clouds 4 1013 98 3715 1.56 309 00:32 14.06.2022
3108 Clouds 4 1012 99 2225 1.9 296 23:27 13.06.2022
3109 Clouds 5 1012 98 2745 1.91 299 22:26 13.06.2022
3110 Clouds 5 1012 98 2745 1.91 299 21:49 13.06.2022
3111 Clouds 5 1012 98 2745 1.73 297 20:31 13.06.2022
3112 Rain 6 1011 96 3233 1.62 293 19:34 13.06.2022
3113 Clouds 5 1013 95 8549 1.41 302 17:58 13.06.2022
3114 Clouds 5 1013 95 8549 1.41 302 17:38 13.06.2022
3115 Clouds 4 1014 95 10000 1.41 334 16:40 13.06.2022
3116 Clouds 4 1014 94 10000 1.27 319 15:37 13.06.2022
3117 Clouds 4 1014 92 10000 1.73 331 14:42 13.06.2022
3118 Clouds 3 1014 91 10000 1 311 13:53 13.06.2022
3119 Clouds 3 1014 89 10000 1.55 333 12:47 13.06.2022
3120 Clouds 2 1014 84 10000 1.82 332 11:26 13.06.2022
3121 Clouds 2 1014 80 10000 1.66 300 10:27 13.06.2022
3122 Clouds 2 1014 80 10000 1.66 300 09:31 13.06.2022
3123 Clouds 1 1015 75 10000 2.15 305 07:51 13.06.2022
3124 Clear 1 1015 81 10000 2.4 299 05:49 13.06.2022
3125 Clear 2 1014 83 10000 2.84 317 02:55 13.06.2022
3126 Clouds 2 1014 83 10000 2.9 326 01:37 13.06.2022
3127 Clouds 2 1014 82 10000 2.59 322 00:21 13.06.2022
3128 Clouds 3 1013 82 10000 2.27 313 23:25 12.06.2022
3129 Clouds 5 1012 81 10000 2 311 22:22 12.06.2022
3130 Clear 6 1012 78 10000 1.81 308 21:22 12.06.2022
3131 Clouds 6 1013 77 10000 1.79 294 20:29 12.06.2022
3132 Clouds 6 1013 77 10000 1.79 294 19:30 12.06.2022
3133 Clouds 6 1014 74 10000 1.91 296 17:53 12.06.2022
3134 Clouds 4 1015 71 10000 1.94 313 16:24 12.06.2022
3135 Clouds 2 1016 73 10000 2.04 320 14:58 12.06.2022
3136 Clouds 2 1016 73 10000 1.97 324 14:23 12.06.2022
3137 Clouds 2 1016 73 10000 1.91 319 13:55 12.06.2022
3138 Clouds 2 1016 73 10000 2.1 314 12:40 12.06.2022
3139 Clouds 2 1016 73 10000 2.06 312 11:39 12.06.2022
3140 Clouds 3 1016 72 10000 2.05 318 10:22 12.06.2022
3141 Clouds 3 1016 72 10000 2.05 313 08:55 12.06.2022
3142 Clouds 3 1016 72 10000 2.05 313 08:36 12.06.2022
3143 Clouds 4 1015 70 10000 2.18 309 07:32 12.06.2022
3144 Clouds 4 1015 71 10000 2.1 315 04:45 12.06.2022
3145 Clouds 4 1016 71 10000 2.03 318 02:53 12.06.2022
3146 Clouds 4 1016 69 10000 1.98 317 01:39 12.06.2022
3147 Clouds 4 1016 70 10000 1.98 320 00:58 12.06.2022
3148 Clouds 4 1016 69 10000 1.9 315 00:20 12.06.2022
3149 Clouds 4 1016 69 10000 1.9 315 23:40 11.06.2022
3150 Clouds 5 1015 68 10000 1.6 310 22:38 11.06.2022
3151 Clouds 6 1015 66 10000 1.36 304 21:42 11.06.2022
3152 Clouds 7 1015 67 10000 1.17 313 20:34 11.06.2022
3153 Clouds 7 1015 67 10000 1.08 324 19:46 11.06.2022
3154 Clouds 7 1016 64 10000 0.99 320 19:19 11.06.2022
3155 Clouds 7 1016 64 10000 0.99 320 18:33 11.06.2022
3156 Clouds 7 1017 61 10000 0.96 347 17:50 11.06.2022
3157 Clouds 7 1018 58 10000 0.93 343 17:26 11.06.2022
3158 Clouds 7 1018 58 10000 0.93 343 16:52 11.06.2022
3159 Clouds 6 1018 52 10000 1.12 334 16:26 11.06.2022
3160 Clouds 5 1018 49 10000 1.12 341 15:28 11.06.2022
3161 Clouds 4 1018 49 10000 1.22 348 13:53 11.06.2022
3162 Clouds 4 1018 50 10000 1.23 343 12:36 11.06.2022
3163 Clouds 4 1019 52 10000 1.28 334 10:46 11.06.2022
3164 Clouds 4 1019 54 10000 1.13 323 09:43 11.06.2022
3165 Clouds 4 1020 55 10000 1.11 328 08:46 11.06.2022
3166 Clouds 2 1022 63 10000 1.13 319 06:47 11.06.2022
3167 Clouds 2 1022 63 10000 1.34 342 06:24 11.06.2022
3168 Clouds 2 1023 62 10000 1.1 321 03:46 11.06.2022
3169 Clouds 1 1024 60 10000 1.23 340 01:52 11.06.2022
3170 Clouds 1 1024 62 10000 1.69 350 01:26 11.06.2022
3171 Clouds 1 1025 69 10000 1.01 316 23:29 10.06.2022
3172 Clouds 3 1024 72 10000 0.88 300 22:29 10.06.2022
3173 Clouds 3 1024 72 10000 0.88 300 21:47 10.06.2022
3174 Clouds 3 1025 72 10000 0.86 281 20:39 10.06.2022
3175 Clouds 3 1025 75 10000 0.67 294 20:20 10.06.2022
3176 Clouds 3 1026 72 10000 0.71 289 19:19 10.06.2022
3177 Clouds 3 1026 72 10000 0.71 289 18:46 10.06.2022
3178 Clouds 2 1027 71 10000 0.76 270 17:54 10.06.2022
3179 Clouds 1 1028 65 10000 0.93 296 17:23 10.06.2022
3180 Clouds -1 1029 71 10000 1 311 16:28 10.06.2022
3181 Clouds -1 1029 71 10000 1 311 15:40 10.06.2022
3182 Clouds -5 1031 73 10000 1.33 326 14:28 10.06.2022
3183 Clouds -5 1031 76 10000 1.24 298 12:58 10.06.2022
3184 Clouds -5 1031 78 10000 1.08 314 11:59 10.06.2022
3185 Clouds -5 1032 80 10000 1.4 330 10:46 10.06.2022
3186 Clouds -5 1033 84 10000 1.26 304 09:56 10.06.2022
3187 Clouds -5 1033 87 10000 1.5 310 08:48 10.06.2022
3188 Clouds -5 1033 89 10000 1.55 284 07:31 10.06.2022
3189 Clouds -5 1033 91 10000 1.6 300 06:45 10.06.2022
3190 Clouds -5 1033 92 10000 1.6 297 06:26 10.06.2022
3191 Clouds -5 1034 92 10000 1.86 304 04:47 10.06.2022
3192 Clouds -4 1033 92 10000 1.96 311 01:59 10.06.2022
3193 Clouds -4 1033 92 10000 1.85 313 01:36 10.06.2022
3194 Clouds -3 1032 92 10000 1.64 305 23:57 09.06.2022
3195 Clouds 1 1030 88 10000 1.71 262 22:22 09.06.2022
3196 Clouds 1 1030 88 10000 1.71 262 21:37 09.06.2022
3197 Clear 1 1029 86 10000 2.14 262 20:58 09.06.2022
3198 Clouds 1 1029 86 10000 2.28 261 20:26 09.06.2022
3199 Clouds 2 1029 87 10000 2.14 259 19:31 09.06.2022
3200 Clouds 2 1029 87 10000 2.14 259 19:31 09.06.2022
3201 Clouds 1 1029 90 10000 2.38 272 18:34 09.06.2022
3202 Clouds -1 1029 94 9197 2.66 273 17:18 09.06.2022
3203 Clouds -2 1029 95 9492 2.78 277 15:54 09.06.2022
3204 Clouds -3 1028 96 9718 3.04 287 14:38 09.06.2022
3205 Clouds -3 1028 96 10000 2.92 291 13:55 09.06.2022
3206 Clouds -3 1026 96 10000 2.79 281 13:28 09.06.2022
3207 Clouds -3 1025 95 10000 2.97 282 11:54 09.06.2022
3208 Clouds -3 1024 95 10000 2.82 285 11:19 09.06.2022
3209 Clouds -2 1023 94 10000 2.59 291 09:50 09.06.2022
3210 Clouds -2 1023 94 10000 2.59 291 09:31 09.06.2022
3211 Clouds -1 1021 95 10000 2.11 296 07:56 09.06.2022
3212 Clouds -1 1020 94 10000 2.27 298 06:41 09.06.2022
3213 Clouds -1 1016 94 10000 2.94 303 03:19 09.06.2022
3214 Rain 2 1011 98 395 2.62 279 23:48 08.06.2022
3215 Rain 3 1009 99 107 2.41 266 22:58 08.06.2022
3216 Rain 3 1007 100 99 2.22 291 22:27 08.06.2022
3217 Rain 3 1007 100 99 2.22 291 21:55 08.06.2022
3218 Rain 3 1005 100 99 2.01 304 21:21 08.06.2022
3219 Rain 3 1004 100 190 2.56 316 20:21 08.06.2022
3220 Rain 3 1005 100 220 2.72 316 19:38 08.06.2022
3221 Rain 4 1004 99 1056 4.69 331 18:45 08.06.2022
3222 Rain 4 1006 99 2254 3.88 323 17:18 08.06.2022
3223 Rain 4 1007 99 6424 4.09 319 15:44 08.06.2022
3224 Clouds 3 1008 96 10000 3.91 312 13:52 08.06.2022
3225 Clouds 4 1009 97 3487 3.58 307 12:20 08.06.2022
3226 Clouds 4 1009 97 3487 3.58 307 11:33 08.06.2022
3227 Clouds 4 1010 98 298 3.51 313 09:59 08.06.2022
3228 Clouds 4 1010 99 100 3.21 316 09:21 08.06.2022
3229 Clouds 3 1011 98 124 3.18 319 08:26 08.06.2022
3230 Clouds 3 1012 99 64 2.94 317 05:51 08.06.2022
3231 Rain 3 1012 99 98 2.55 322 03:52 08.06.2022
3232 Clouds 3 1012 98 6533 2.62 312 00:29 08.06.2022
3233 Clouds 3 1012 99 91 2.37 314 23:27 07.06.2022
3234 Clouds 3 1012 99 91 2.37 314 22:44 07.06.2022
3235 Clouds 3 1012 100 71 2.23 302 22:23 07.06.2022
3236 Clouds 3 1012 100 71 2.23 302 21:33 07.06.2022
3237 Clouds 4 1011 100 281 2.34 303 20:58 07.06.2022
3238 Clouds 4 1011 100 281 2.34 303 20:32 07.06.2022
3239 Clouds 4 1011 98 416 2.93 277 19:38 07.06.2022
3240 Clouds 4 1011 100 236 2.41 282 18:22 07.06.2022
3241 Clouds 3 1010 99 7050 2.61 285 17:25 07.06.2022
3242 Clouds 3 1010 99 7050 2.61 285 16:42 07.06.2022
3243 Clouds 3 1010 97 10000 2.43 294 15:44 07.06.2022
3244 Clouds 2 1009 98 10000 1.84 293 15:24 07.06.2022
3245 Clouds 2 1009 98 10000 1.84 293 14:46 07.06.2022
3246 Clouds 3 1009 97 10000 2.2 292 14:27 07.06.2022
3247 Clouds 3 1010 97 8628 2.48 295 13:30 07.06.2022
3248 Clouds 2 1009 97 10000 2.73 290 12:45 07.06.2022
3249 Clouds 2 1009 98 4370 2.56 291 11:32 07.06.2022
3250 Clouds 2 1008 99 509 2.84 281 10:26 07.06.2022
3251 Clouds 2 1008 99 1325 2.82 281 08:49 07.06.2022
3252 Clouds 2 1008 99 1325 2.82 281 08:49 07.06.2022
3253 Clouds 2 1008 99 1325 2.82 281 08:49 07.06.2022
3254 Clouds 2 1008 99 1325 2.82 281 08:49 07.06.2022
3255 Rain 2 1007 99 202 2.28 277 07:32 07.06.2022
3256 Rain 2 1005 99 114 1.47 268 05:56 07.06.2022
3257 Rain 2 1006 99 229 1.68 317 03:18 07.06.2022
3258 Rain 3 1008 99 199 1.43 344 00:42 07.06.2022
3259 Rain 3 1008 99 297 1.38 299 23:35 06.06.2022
3260 Rain 3 1008 99 477 1.72 305 22:45 06.06.2022
3261 Rain 3 1008 100 317 2.23 282 21:43 06.06.2022
3262 Rain 4 1009 100 381 2.98 290 20:19 06.06.2022
3263 Rain 4 1009 99 6922 3.37 298 19:23 06.06.2022
3264 Rain 4 1009 99 6922 3.37 298 18:46 06.06.2022
3265 Rain 4 1010 98 9241 3.74 303 17:52 06.06.2022
3266 Rain 4 1010 98 8983 3.58 308 16:39 06.06.2022
3267 Rain 3 1011 97 8781 3.15 299 15:40 06.06.2022
3268 Rain 2 1011 94 10000 3.91 293 14:56 06.06.2022
3269 Snow 1 1011 95 10000 4.51 310 13:31 06.06.2022
3270 Rain 2 1010 96 10000 3.76 297 12:39 06.06.2022
3271 Rain 2 1009 96 9736 3.87 305 12:20 06.06.2022
3272 Rain 2 1009 96 9736 3.87 305 11:42 06.06.2022
3273 Snow 1 1009 97 6156 4.68 301 09:41 06.06.2022
3274 Snow 2 1009 97 3453 3.55 305 08:35 06.06.2022
3275 Rain 2 1009 96 3713 4.63 299 07:41 06.06.2022
3276 Rain 2 1008 96 9103 4.58 308 05:48 06.06.2022
3277 Rain 3 1008 93 10000 4.99 298 03:47 06.06.2022
3278 Clouds 2 1009 93 10000 4.57 288 01:30 06.06.2022
3279 Clouds 2 1009 95 10000 3.79 297 00:43 06.06.2022
3280 Clouds 2 1009 94 10000 3.49 293 00:19 06.06.2022
3281 Clouds 3 1008 90 10000 2.96 303 22:57 05.06.2022
3282 Clouds 4 1008 85 10000 2.73 327 21:33 05.06.2022
3283 Clouds 4 1010 81 10000 1.96 333 20:23 05.06.2022
3284 Clouds 4 1011 76 10000 1.79 307 18:42 05.06.2022
3285 Clouds 3 1013 75 10000 2.08 294 17:57 05.06.2022
3286 Clouds 3 1013 75 10000 2.08 294 17:36 05.06.2022
3287 Clouds 2 1014 77 10000 2.09 299 17:18 05.06.2022
3288 Clouds 2 1014 77 10000 2.09 299 16:45 05.06.2022
3289 Clouds -1 1016 87 10000 2.21 304 14:46 05.06.2022
3290 Clouds -2 1016 91 10000 2.41 321 13:21 05.06.2022
3291 Clear -2 1017 93 10000 2.27 305 11:56 05.06.2022
3292 Clear -2 1017 92 10000 2.5 298 10:44 05.06.2022
3293 Clear -2 1017 93 10000 2.2 299 10:23 05.06.2022
3294 Clear -1 1017 92 10000 2.24 310 08:41 05.06.2022
3295 Clouds -1 1018 92 10000 2.08 304 08:20 05.06.2022
3296 Clouds -1 1018 93 10000 2.12 298 05:23 05.06.2022
3297 Clouds -1 1018 93 10000 2.12 298 04:30 05.06.2022
3298 Clouds 3 1016 88 10000 2.01 290 01:45 05.06.2022
3299 Clouds 3 1016 88 10000 2.01 290 01:45 05.06.2022
3300 Clouds 3 1016 88 10000 2.01 290 01:45 05.06.2022
3301 Clouds 3 1016 88 10000 2.01 290 01:45 05.06.2022
3302 Clouds 3 1016 88 10000 2.01 290 01:45 05.06.2022
3303 Clouds 3 1016 93 10000 2 289 01:22 05.06.2022
3304 Clouds 3 1016 93 10000 2 289 01:22 05.06.2022
3305 Clouds 3 1015 99 2774 1.83 288 22:44 04.06.2022
3306 Clouds 4 1014 98 5285 1.68 289 20:55 04.06.2022
3307 Clouds 4 1014 94 10000 1.98 272 18:53 04.06.2022
3308 Clouds 4 1013 94 10000 1.97 280 16:47 04.06.2022
3309 Clouds 3 1013 93 10000 2.09 282 16:19 04.06.2022
3310 Clouds 3 1012 94 10000 2.18 297 15:22 04.06.2022
3311 Clouds 2 1012 96 10000 1.24 303 13:46 04.06.2022
3312 Clouds 1 1010 96 10000 1.26 317 11:23 04.06.2022
3313 Clouds 1 1010 96 10000 1.26 317 10:50 04.06.2022
3314 Clouds 1 1010 95 9227 1.1 310 09:45 04.06.2022
3315 Clouds 0 1010 94 10000 1.34 317 08:44 04.06.2022
3316 Clouds 1 1010 92 10000 1.3 325 07:51 04.06.2022
3317 Clouds -1 1010 93 10000 1.62 320 05:38 04.06.2022
3318 Clouds -1 1011 90 10000 1.74 318 02:20 04.06.2022
3319 Clouds 0 1010 89 10000 1.01 311 00:19 04.06.2022
3320 Clouds 1 1010 87 10000 0.3 288 22:40 03.06.2022
3321 Clouds 2 1010 83 10000 0.3 60 21:39 03.06.2022
3322 Clouds 3 1010 80 10000 0.46 53 20:38 03.06.2022
3323 Clouds 3 1012 76 10000 0.4 92 18:41 03.06.2022
3324 Clouds 2 1014 76 10000 0.8 70 16:49 03.06.2022
3325 Clouds 1 1015 81 10000 0.99 67 15:37 03.06.2022
3326 Clouds -1 1016 84 10000 0.98 43 13:48 03.06.2022
3327 Clouds -2 1017 83 10000 1.31 20 11:50 03.06.2022
3328 Clouds -1 1017 83 10000 1.2 17 09:50 03.06.2022
3329 Clouds -1 1017 83 10000 1.2 17 09:50 03.06.2022
3330 Clouds -1 1018 83 10000 1.17 18 09:28 03.06.2022
3331 Clouds -1 1019 82 10000 0.97 10 07:27 03.06.2022
3332 Clouds -1 1019 82 10000 0.97 10 06:39 03.06.2022
3333 Clouds -1 1019 83 10000 1.44 6 06:20 03.06.2022
3334 Clouds -1 1020 83 10000 1.34 327 01:23 03.06.2022
3335 Clouds -1 1020 82 10000 1.05 347 23:31 02.06.2022
3336 Clouds 1 1019 77 10000 0.27 296 21:57 02.06.2022
3337 Clouds 2 1019 68 10000 0.67 285 20:22 02.06.2022
3338 Clouds 2 1019 68 10000 0.67 285 19:50 02.06.2022
3339 Clouds 2 1019 66 10000 0.66 269 19:32 02.06.2022
3340 Clouds 2 1020 64 10000 0.67 271 17:58 02.06.2022
3341 Clouds 0 1020 70 10000 0.79 336 16:28 02.06.2022
3342 Clouds -2 1021 76 10000 1.11 342 14:34 02.06.2022
3343 Clouds -3 1021 77 10000 1.21 349 13:30 02.06.2022
3344 Clouds -3 1021 78 10000 1.21 343 12:40 02.06.2022
3345 Clouds -4 1021 78 10000 1.42 343 10:20 02.06.2022
3346 Clouds -4 1022 79 10000 1.51 344 09:28 02.06.2022
3347 Clouds -3 1022 79 10000 1.58 348 08:27 02.06.2022
3348 Clouds -3 1021 78 10000 1.47 349 07:33 02.06.2022
3349 Clouds -2 1022 79 10000 1.39 355 04:54 02.06.2022
3350 Clouds -2 1022 79 10000 1.42 8 03:45 02.06.2022
3351 Clear -2 1023 83 10000 1.31 25 23:52 01.06.2022
3352 Clear 0 1022 82 10000 0.92 47 22:51 01.06.2022
3353 Clear 2 1021 77 10000 0.79 66 21:37 01.06.2022
3354 Clear 2 1021 70 10000 0.93 66 20:59 01.06.2022
3355 Clear 2 1021 70 10000 0.93 66 20:37 01.06.2022
3356 Clear 2 1022 70 10000 0.95 71 19:28 01.06.2022
3357 Clear 1 1023 70 10000 0.94 70 17:46 01.06.2022
3358 Clear 1 1023 71 10000 1.12 69 16:38 01.06.2022
3359 Clear -3 1024 82 10000 1.31 8 14:59 01.06.2022
3360 Clear -4 1024 83 10000 1.39 11 13:53 01.06.2022
3361 Clear -4 1024 82 10000 1.36 19 12:26 01.06.2022
3362 Clear -4 1024 82 10000 1.37 22 09:48 01.06.2022
3363 Clear -3 1024 81 10000 1.33 20 08:53 01.06.2022
3364 Clear -3 1023 80 10000 1.3 21 07:24 01.06.2022
3365 Clear -3 1023 80 10000 1.28 21 05:52 01.06.2022
3366 Clear -2 1023 82 10000 1.44 22 00:40 01.06.2022
3367 Clear 0 1021 80 10000 0.75 54 23:28 31.05.2022
3368 Clear 0 1021 80 10000 0.75 54 22:36 31.05.2022
3369 Clear 2 1021 75 10000 0.62 93 21:45 31.05.2022
3370 Clear 3 1020 68 10000 0.73 97 20:45 31.05.2022
3371 Clear 3 1021 67 10000 0.78 97 20:18 31.05.2022
3372 Clear 2 1022 65 10000 0.83 98 18:52 31.05.2022
3373 Clear 2 1023 65 10000 0.73 101 17:50 31.05.2022
3374 Clear 1 1023 65 10000 0.55 88 16:57 31.05.2022
3375 Clear -1 1024 71 10000 0.74 52 15:41 31.05.2022
3376 Clear -4 1024 76 10000 1.14 20 14:18 31.05.2022
3377 Clear -4 1024 76 10000 1.01 10 12:20 31.05.2022
3378 Clear -4 1024 76 10000 0.99 13 10:55 31.05.2022
3379 Clear -4 1025 76 10000 1 21 09:29 31.05.2022
3380 Clear -3 1025 80 10000 1.08 20 07:24 31.05.2022
3381 Clear -3 1025 82 10000 1.15 26 05:19 31.05.2022
3382 Clear -2 1025 85 10000 0.97 24 00:36 31.05.2022
3383 Clear -1 1024 83 10000 0.61 105 23:26 30.05.2022
3384 Clear -1 1024 83 10000 0.61 105 22:53 30.05.2022
3385 Clear 2 1023 78 10000 0.61 127 21:52 30.05.2022
3386 Clear 2 1023 78 10000 0.61 127 21:32 30.05.2022
3387 Clear 2 1024 69 10000 0.58 90 20:20 30.05.2022
3388 Clear 2 1024 71 10000 0.8 84 18:40 30.05.2022
3389 Clear 1 1025 71 10000 0.86 79 17:35 30.05.2022
3390 Clear 1 1026 71 10000 0.85 64 16:41 30.05.2022
3391 Clear -3 1028 82 10000 1.42 8 14:35 30.05.2022
3392 Clear -4 1027 86 10000 1.31 352 12:24 30.05.2022
3393 Clear -4 1027 87 10000 1.38 355 10:41 30.05.2022
3394 Clear -4 1027 88 10000 1.49 7 09:19 30.05.2022
3395 Clear -3 1027 89 10000 1.14 351 06:40 30.05.2022
3396 Clear -3 1027 90 10000 1.01 349 05:48 30.05.2022
3397 Clouds -2 1026 90 10000 0.71 342 01:33 30.05.2022
3398 Clouds -1 1024 88 10000 0.63 230 22:54 29.05.2022
3399 Clouds -1 1024 88 10000 0.63 230 22:36 29.05.2022
3400 Clouds 1 1022 80 10000 1.1 247 20:53 29.05.2022
3401 Clouds 1 1022 79 10000 1.36 255 19:31 29.05.2022
3402 Clouds 1 1023 80 10000 1.24 257 18:37 29.05.2022
3403 Clouds 0 1024 84 10000 1.27 235 17:23 29.05.2022
3404 Clouds -1 1024 86 10000 1.43 273 15:48 29.05.2022
3405 Clouds -3 1024 91 10000 1.26 280 14:57 29.05.2022
3406 Clouds -4 1024 93 10000 1.48 298 13:46 29.05.2022
3407 Clouds -5 1024 94 10000 1.8 295 11:34 29.05.2022
3408 Clouds -4 1023 93 10000 2 296 10:38 29.05.2022
3409 Clouds -4 1023 92 10000 1.91 298 08:39 29.05.2022
3410 Clear -3 1023 91 10000 2.01 300 05:22 29.05.2022
3411 Clear -3 1023 91 10000 2.01 300 04:41 29.05.2022
3412 Clouds -2 1023 89 10000 2.39 296 02:24 29.05.2022
3413 Clouds -2 1022 88 10000 2.01 293 23:48 28.05.2022
3414 Clouds 0 1021 86 10000 1.42 280 23:25 28.05.2022
3415 Clouds 2 1020 81 10000 1.31 259 22:25 28.05.2022
3416 Clouds 2 1020 81 10000 1.31 259 21:31 28.05.2022
3417 Clouds 1 1021 81 10000 1.7 256 19:21 28.05.2022
3418 Clouds 1 1021 81 10000 1.7 256 18:45 28.05.2022
3419 Clouds 0 1022 84 10000 1.73 261 17:34 28.05.2022
3420 Clouds -1 1023 92 6927 1.57 273 16:22 28.05.2022
3421 Clouds -1 1023 92 6927 1.57 273 15:38 28.05.2022
3422 Clouds -4 1024 97 3632 1.6 259 13:42 28.05.2022
3423 Clouds -4 1023 97 2229 1.38 257 12:43 28.05.2022
3424 Clouds -5 1023 96 7917 0.99 252 11:54 28.05.2022
3425 Clouds -5 1022 94 10000 1.01 257 10:43 28.05.2022
3426 Clouds -4 1020 93 10000 2.01 279 09:56 28.05.2022
3427 Clouds -4 1020 93 10000 2.29 281 08:39 28.05.2022
3428 Clouds -2 1020 91 10000 3.18 289 06:53 28.05.2022
3429 Clouds -2 1021 92 10000 2.94 285 05:24 28.05.2022
3430 Clear -1 1021 87 10000 2.2 291 02:27 28.05.2022
3431 Clear -1 1022 85 10000 1.24 284 23:59 27.05.2022
3432 Clear 0 1022 82 10000 0.92 264 22:48 27.05.2022
3433 Clear 3 1023 69 10000 0.96 259 21:29 27.05.2022
3434 Clear 3 1023 69 10000 0.96 259 20:45 27.05.2022
3435 Clear 2 1023 70 10000 1.17 244 20:19 27.05.2022
3436 Clear 2 1023 70 10000 1.2 252 19:38 27.05.2022
3437 Clouds 1 1024 73 10000 1.1 242 19:19 27.05.2022
3438 Clouds 0 1025 79 10000 0.85 219 17:24 27.05.2022
3439 Clouds -1 1026 83 10000 1.01 245 15:57 27.05.2022
3440 Clouds -2 1026 89 10000 1.09 271 14:57 27.05.2022
3441 Clouds -3 1025 93 10000 1.54 282 13:40 27.05.2022
3442 Clouds -3 1025 91 10000 1.87 293 12:20 27.05.2022
3443 Clouds -3 1025 91 10000 1.87 293 11:30 27.05.2022
3444 Clouds -2 1025 90 10000 1.99 299 10:41 27.05.2022
3445 Clouds -2 1024 90 10000 2.1 301 09:59 27.05.2022
3446 Clouds -2 1025 90 10000 2.16 298 09:29 27.05.2022
3447 Clouds -1 1025 89 10000 2.02 290 07:39 27.05.2022
3448 Clouds 0 1025 86 10000 1.24 265 03:59 27.05.2022
3449 Clouds 0 1024 84 10000 0.72 275 01:27 27.05.2022
3450 Clear 1 1023 77 10000 0.53 232 23:23 26.05.2022
3451 Clear 2 1023 68 10000 1 226 21:57 26.05.2022
3452 Clear 3 1022 63 10000 1.14 226 21:27 26.05.2022
3453 Clear 2 1022 56 10000 1.31 218 19:34 26.05.2022
3454 Clear 2 1023 53 10000 1.44 230 18:45 26.05.2022
3455 Clear 1 1023 50 10000 1.55 221 17:36 26.05.2022
3456 Clear -1 1025 50 10000 1.5 257 16:18 26.05.2022
3457 Clear -3 1025 54 10000 1.63 271 15:24 26.05.2022
3458 Clear -4 1026 57 10000 1.62 270 13:58 26.05.2022
3459 Clear -3 1025 61 10000 1.76 275 11:59 26.05.2022
3460 Clear -3 1026 64 10000 1.71 275 11:18 26.05.2022
3461 Clear -3 1026 67 10000 1.63 278 09:38 26.05.2022
3462 Clear -3 1027 72 10000 1.54 280 08:39 26.05.2022
3463 Clear -3 1027 72 10000 1.54 280 08:39 26.05.2022
3464 Clear -2 1028 77 10000 1.58 286 05:30 26.05.2022
3465 Clear -1 1028 75 10000 1.69 282 02:19 26.05.2022
3466 Clear -1 1028 76 10000 0.98 263 23:50 25.05.2022
3467 Clear 0 1028 73 10000 1.11 241 22:51 25.05.2022
3468 Clear 2 1027 63 10000 1.21 251 21:41 25.05.2022
3469 Clear 3 1027 58 10000 1.4 258 20:47 25.05.2022
3470 Clear 3 1027 61 10000 1.32 268 19:32 25.05.2022
3471 Clear 2 1028 63 10000 1.51 265 18:36 25.05.2022
3472 Clear 1 1029 72 10000 1.75 270 16:53 25.05.2022
3473 Clear 0 1029 79 10000 1.82 280 16:25 25.05.2022
3474 Clear 0 1029 79 10000 1.82 280 15:36 25.05.2022
3475 Clouds -2 1030 85 10000 1.94 285 14:42 25.05.2022
3476 Clouds -3 1029 89 10000 1.99 288 14:24 25.05.2022
3477 Clouds -2 1028 91 10000 1.95 279 13:21 25.05.2022
3478 Clouds -1 1028 88 10000 1.83 267 11:32 25.05.2022
3479 Clouds 0 1026 85 10000 1.53 268 10:23 25.05.2022
3480 Clouds 1 1026 86 10000 1.3 274 08:53 25.05.2022
3481 Clouds 1 1024 96 10000 0.67 274 07:23 25.05.2022
3482 Snow 1 1022 98 170 0.59 186 05:27 25.05.2022
3483 Rain 2 1018 99 91 1.6 223 00:38 25.05.2022
3484 Rain 2 1017 95 6062 1.7 219 23:48 24.05.2022
3485 Rain 3 1015 86 10000 1.64 230 22:53 24.05.2022
3486 Rain 4 1014 78 10000 1.34 234 21:46 24.05.2022
3487 Clouds 4 1013 76 10000 1.53 247 21:22 24.05.2022
3488 Clouds 4 1013 76 10000 1.53 247 20:44 24.05.2022
3489 Clouds 4 1012 72 10000 2.09 255 18:59 24.05.2022
3490 Clouds 4 1012 76 10000 2.36 251 17:50 24.05.2022
3491 Clouds 3 1011 87 10000 2.31 268 16:29 24.05.2022
3492 Rain 2 1011 95 9497 2.3 282 15:27 24.05.2022
3493 Rain 2 1011 95 9497 2.3 282 14:36 24.05.2022
3494 Rain 2 1010 98 154 1.65 271 13:34 24.05.2022
3495 Rain 2 1008 92 10000 3.23 301 12:18 24.05.2022
3496 Snow 1 1008 91 10000 4.1 292 09:50 24.05.2022
3497 Clouds 1 1008 88 10000 4.09 281 08:51 24.05.2022
3498 Clouds 1 1008 87 10000 4.13 289 07:32 24.05.2022
3499 Clouds 2 1007 88 10000 3.78 298 06:27 24.05.2022
3500 Clouds 1 1008 90 10000 4.14 315 02:58 24.05.2022
3501 Clouds 1 1008 91 10000 3.26 309 01:44 24.05.2022
3502 Rain 2 1008 94 3063 3.36 309 23:59 23.05.2022
3503 Rain 4 1007 92 7872 3.23 295 22:22 23.05.2022
3504 Rain 4 1007 92 7872 3.23 295 21:42 23.05.2022
3505 Rain 4 1007 89 9023 3.71 300 20:45 23.05.2022
3506 Rain 4 1007 87 10000 3.95 289 19:47 23.05.2022
3507 Rain 4 1008 89 10000 3.92 290 19:18 23.05.2022
3508 Rain 4 1008 89 10000 3.92 290 18:40 23.05.2022
3509 Rain 4 1009 89 10000 3.3 302 17:56 23.05.2022
3510 Rain 3 1010 96 6673 2.01 314 15:55 23.05.2022
3511 Snow 2 1011 94 10000 2.5 320 13:56 23.05.2022
3512 Snow 1 1011 93 10000 2.41 314 11:41 23.05.2022
3513 Rain 3 1010 92 10000 2.27 306 10:45 23.05.2022
3514 Rain 2 1010 95 6833 2.24 305 09:47 23.05.2022
3515 Rain 2 1010 94 4698 2.32 265 08:46 23.05.2022
3516 Rain 2 1010 94 4698 2.32 265 08:46 23.05.2022
3517 Snow 1 1011 89 10000 5.38 314 06:49 23.05.2022
3518 Snow 1 1011 89 10000 5.38 314 06:31 23.05.2022
3519 Clouds 0 1013 86 10000 4.41 326 02:55 23.05.2022
3520 Clouds -1 1013 86 10000 3.76 321 01:50 23.05.2022
3521 Clouds -1 1013 86 10000 3.58 322 01:23 23.05.2022
3522 Clouds 2 1012 82 10000 3.24 301 22:48 22.05.2022
3523 Clouds 3 1011 79 10000 3.61 292 22:21 22.05.2022
3524 Clouds 3 1011 79 10000 3.61 292 21:50 22.05.2022
3525 Clouds 4 1011 79 10000 3.6 276 20:42 22.05.2022
3526 Clouds 4 1010 79 10000 3.44 274 20:20 22.05.2022
3527 Rain 4 1010 83 10000 3.18 277 18:58 22.05.2022
3528 Rain 4 1010 83 10000 3.18 277 18:37 22.05.2022
3529 Clouds 3 1010 86 10000 3.13 274 18:18 22.05.2022
3530 Clouds 3 1009 95 10000 2.77 271 16:51 22.05.2022
3531 Clouds 3 1008 98 2834 2.36 267 15:24 22.05.2022
3532 Clouds 3 1008 98 2834 2.36 267 14:36 22.05.2022
3533 Rain 3 1006 99 1012 2 284 12:54 22.05.2022
3534 Rain 3 1007 100 161 2.27 263 12:24 22.05.2022
3535 Rain 3 1006 100 181 2.19 269 10:38 22.05.2022
3536 Rain 3 1005 99 305 2.06 279 09:27 22.05.2022
3537 Rain 3 1005 99 868 2 278 07:44 22.05.2022
3538 Rain 4 1006 99 940 2.94 287 06:41 22.05.2022
3539 Rain 4 1007 96 7282 4.27 291 03:25 22.05.2022
3540 Rain 5 1007 92 10000 4.95 292 00:49 22.05.2022
3541 Rain 5 1007 92 10000 4.95 292 00:49 22.05.2022
3542 Rain 5 1008 92 10000 6.88 291 23:56 21.05.2022
3543 Rain 5 1009 95 4505 5.95 291 23:27 21.05.2022
3544 Rain 4 1010 98 3220 4.07 299 21:59 21.05.2022
3545 Rain 4 1010 98 3220 4.07 299 21:34 21.05.2022
3546 Rain 4 1011 100 178 3.48 306 20:34 21.05.2022
3547 Rain 4 1011 99 209 3.09 293 19:44 21.05.2022
3548 Rain 4 1012 99 199 3.03 302 18:45 21.05.2022
3549 Rain 4 1014 100 1440 2.83 323 16:57 21.05.2022
3550 Rain 3 1015 99 1084 2.78 336 14:49 21.05.2022
3551 Rain 3 1014 98 771 2.79 314 13:55 21.05.2022
3552 Rain 3 1014 99 159 1.44 317 13:25 21.05.2022
3553 Rain 3 1014 99 159 1.44 317 12:38 21.05.2022
3554 Rain 3 1014 99 203 2.75 333 11:25 21.05.2022
3555 Rain 3 1014 99 158 1.7 309 10:21 21.05.2022
3556 Rain 3 1015 98 1058 3.26 270 08:59 21.05.2022
3557 Rain 3 1015 98 1058 3.26 270 08:38 21.05.2022
3558 Rain 4 1016 97 2215 2.83 302 06:20 21.05.2022
3559 Rain 4 1014 97 3519 3.5 298 01:41 21.05.2022
3560 Clouds 5 1012 90 10000 5.12 287 23:32 20.05.2022
3561 Rain 6 1011 89 10000 6.09 292 22:29 20.05.2022
3562 Rain 6 1011 89 10000 6.09 292 21:55 20.05.2022
3563 Rain 7 1008 84 10000 5.15 309 21:19 20.05.2022
3564 Rain 7 1008 84 10000 5.15 309 20:45 20.05.2022
3565 Rain 8 1006 81 10000 4.84 311 19:45 20.05.2022
3566 Rain 8 1006 80 10000 4.15 309 18:49 20.05.2022
3567 Rain 9 1006 78 10000 4.19 305 17:48 20.05.2022
3568 Clouds 9 1005 77 10000 3.35 347 16:22 20.05.2022
3569 Clouds 9 1005 77 10000 3.35 347 15:53 20.05.2022
3570 Rain 7 1006 90 10000 2.79 342 14:32 20.05.2022
3571 Rain 7 1006 91 10000 3.07 349 13:56 20.05.2022
3572 Clouds 8 1005 92 10000 2.36 349 11:51 20.05.2022
3573 Clouds 8 1005 90 10000 2.4 343 10:30 20.05.2022
3574 Clouds 8 1006 87 10000 1.75 324 08:58 20.05.2022
3575 Clouds 8 1006 82 10000 1.85 320 07:40 20.05.2022
3576 Clouds 8 1007 80 10000 1.76 336 06:38 20.05.2022
3577 Clouds 8 1007 74 10000 1.62 4 05:28 20.05.2022
3578 Clouds 8 1010 57 10000 1.44 357 01:18 20.05.2022
3579 Clouds 9 1010 53 10000 1.22 359 23:28 19.05.2022
3580 Clouds 9 1010 53 10000 1.22 359 22:33 19.05.2022
3581 Clouds 11 1011 50 10000 0.75 342 21:49 19.05.2022
3582 Clouds 12 1011 43 10000 0.6 307 21:23 19.05.2022
3583 Clouds 12 1011 43 10000 0.6 307 20:40 19.05.2022
3584 Clouds 11 1011 41 10000 0.92 293 19:54 19.05.2022
3585 Clouds 11 1012 39 10000 1.02 307 18:45 19.05.2022
3586 Clouds 10 1012 40 10000 1.63 281 17:31 19.05.2022
3587 Clouds 9 1014 43 10000 1.5 313 15:33 19.05.2022
3588 Clouds 6 1013 48 10000 1.89 290 14:29 19.05.2022
3589 Clouds 6 1013 49 10000 1.46 286 13:50 19.05.2022
3590 Clouds 5 1012 51 10000 1.37 301 11:46 19.05.2022
3591 Clouds 6 1013 52 10000 1.49 269 09:46 19.05.2022
3592 Clouds 5 1013 54 10000 0.84 304 08:27 19.05.2022
3593 Clouds 5 1013 54 10000 0.74 269 06:31 19.05.2022
3594 Clouds 6 1014 50 10000 0.6 350 02:54 19.05.2022
3595 Clouds 6 1014 52 10000 0.24 40 00:44 19.05.2022
3596 Clouds 8 1014 51 10000 0.52 48 22:53 18.05.2022
3597 Clouds 8 1014 51 10000 0.52 48 22:35 18.05.2022
3598 Clouds 10 1014 48 10000 0.7 97 21:31 18.05.2022
3599 Clouds 12 1014 38 10000 0.77 89 20:54 18.05.2022
3600 Clouds 12 1015 35 10000 0.55 80 20:18 18.05.2022
3601 Clouds 11 1016 35 10000 0.42 77 18:34 18.05.2022
3602 Clouds 11 1017 35 10000 0.69 65 17:41 18.05.2022
3603 Clouds 10 1017 35 10000 0.97 73 17:23 18.05.2022
3604 Clouds 10 1017 35 10000 0.97 73 16:35 18.05.2022
3605 Clouds 8 1018 39 10000 0.97 64 15:42 18.05.2022
3606 Clouds 6 1019 45 10000 1.22 43 14:48 18.05.2022
3607 Clouds 4 1019 47 10000 1.18 47 13:44 18.05.2022
3608 Clouds 4 1019 48 10000 1.12 39 12:48 18.05.2022
3609 Clouds 4 1019 48 10000 1.36 40 11:36 18.05.2022
3610 Clouds 4 1020 50 10000 1.48 42 11:18 18.05.2022
3611 Clouds 4 1021 50 10000 1.62 44 09:50 18.05.2022
3612 Clouds 5 1022 51 10000 1.83 52 07:51 18.05.2022
3613 Clouds 5 1022 48 10000 1.8 52 06:41 18.05.2022
3614 Clouds 6 1024 46 10000 1.99 56 01:22 18.05.2022
3615 Clouds 6 1024 46 10000 1.67 59 00:23 18.05.2022
3616 Clouds 9 1024 44 10000 1.4 69 21:57 17.05.2022
3617 Clouds 10 1024 35 10000 1.97 64 21:20 17.05.2022
3618 Clouds 10 1024 35 10000 1.97 64 21:20 17.05.2022
3619 Clouds 10 1025 33 10000 2.18 59 20:19 17.05.2022
3620 Clouds 10 1026 32 10000 2.21 50 19:28 17.05.2022
3621 Clouds 9 1027 32 10000 2 56 17:51 17.05.2022
3622 Clouds 8 1028 35 10000 2.09 59 16:59 17.05.2022
3623 Clouds 8 1028 35 10000 2.09 59 16:30 17.05.2022
3624 Clouds 6 1028 39 10000 2.08 63 15:32 17.05.2022
3625 Clouds 5 1028 43 10000 1.97 62 14:30 17.05.2022
3626 Clouds 4 1028 44 10000 1.96 60 13:35 17.05.2022
3627 Clouds 4 1028 45 10000 1.86 57 11:46 17.05.2022
3628 Clouds 4 1028 45 10000 2.07 51 09:35 17.05.2022
3629 Clouds 4 1029 44 10000 2.2 52 08:33 17.05.2022
3630 Clear 4 1029 47 10000 2.31 58 06:48 17.05.2022
3631 Clear 5 1029 44 10000 2.53 54 03:41 17.05.2022
3632 Clear 7 1028 42 10000 2.47 64 00:43 17.05.2022
3633 Clear 9 1027 39 10000 2.41 73 22:43 16.05.2022
3634 Clear 11 1026 33 10000 2.44 69 21:41 16.05.2022
3635 Clear 12 1026 30 10000 2.67 63 20:47 16.05.2022
3636 Clouds 12 1026 30 10000 2.32 60 19:43 16.05.2022
3637 Clouds 10 1028 34 10000 2.31 61 18:20 16.05.2022
3638 Clouds 7 1029 43 10000 2.1 60 15:50 16.05.2022
3639 Clouds 4 1029 52 10000 2.09 64 13:56 16.05.2022
3640 Clouds 4 1029 53 10000 2.16 64 13:23 16.05.2022
3641 Clouds 5 1028 53 10000 2.12 57 11:20 16.05.2022
3642 Clouds 5 1028 53 10000 2.22 52 09:30 16.05.2022
3643 Clouds 5 1029 53 10000 2.63 55 06:47 16.05.2022
3644 Clouds 6 1029 51 10000 2.47 59 03:31 16.05.2022
3645 Clouds 6 1027 54 10000 2.51 64 23:30 15.05.2022
3646 Clear 11 1026 42 10000 2.45 63 22:29 15.05.2022
3647 Clear 11 1026 42 10000 2.45 63 21:44 15.05.2022
3648 Clear 11 1025 40 10000 2.47 62 20:54 15.05.2022
3649 Clear 11 1027 41 10000 2.06 66 19:28 15.05.2022
3650 Clear 10 1028 44 10000 1.92 71 17:51 15.05.2022
3651 Clear 7 1029 56 10000 1.68 72 15:56 15.05.2022
3652 Clear 4 1029 69 10000 1.8 61 13:50 15.05.2022
3653 Clear 4 1028 72 10000 1.88 62 12:26 15.05.2022
3654 Clear 4 1028 72 10000 1.88 62 11:38 15.05.2022
3655 Clear 4 1028 75 10000 1.71 54 10:23 15.05.2022
3656 Clear 4 1028 77 10000 1.76 64 07:46 15.05.2022
3657 Clear 5 1027 77 10000 1.9 64 06:57 15.05.2022
3658 Clear 5 1027 78 10000 1.69 56 04:44 15.05.2022
3659 Clear 6 1026 74 10000 1.46 74 00:48 15.05.2022
3660 Clear 7 1025 72 10000 1.18 97 23:38 14.05.2022
3661 Clear 8 1024 67 10000 0.89 105 22:45 14.05.2022
3662 Clear 10 1023 59 10000 0.56 108 21:27 14.05.2022
3663 Clear 10 1023 59 10000 0.56 108 20:32 14.05.2022
3664 Clouds 9 1024 63 10000 0.41 178 19:21 14.05.2022
3665 Clouds 9 1024 63 10000 0.41 178 19:21 14.05.2022
3666 Clouds 9 1024 63 10000 0.41 178 18:59 14.05.2022
3667 Clouds 8 1025 66 10000 0.72 207 17:54 14.05.2022
3668 Clouds 7 1025 70 10000 1.14 228 16:32 14.05.2022
3669 Clouds 5 1025 81 10000 1.25 275 14:56 14.05.2022
3670 Clouds 5 1025 86 10000 1.54 274 14:30 14.05.2022
3671 Clouds 4 1025 92 10000 2.01 273 12:18 14.05.2022
3672 Clouds 4 1024 93 10000 2.33 281 10:53 14.05.2022
3673 Clouds 3 1024 96 10000 2.65 283 10:20 14.05.2022
3674 Clouds 3 1024 96 10000 2.65 283 09:46 14.05.2022
3675 Clouds 3 1024 92 10000 2.86 283 07:59 14.05.2022
3676 Clouds 3 1024 88 10000 2.79 283 05:21 14.05.2022
3677 Clouds 3 1023 92 10000 3.06 278 01:57 14.05.2022
3678 Clouds 4 1021 84 10000 3.51 273 23:31 13.05.2022
3679 Clouds 5 1020 74 10000 3.37 270 22:56 13.05.2022
3680 Clouds 6 1019 64 10000 3.73 267 22:22 13.05.2022
3681 Clouds 7 1018 59 10000 4.38 269 21:24 13.05.2022
3682 Clouds 7 1018 59 10000 4.38 269 20:43 13.05.2022
3683 Clouds 7 1018 59 10000 3.8 275 20:22 13.05.2022
3684 Clouds 6 1019 62 10000 3.59 265 19:19 13.05.2022
3685 Clouds 5 1019 65 10000 3.68 271 17:47 13.05.2022
3686 Clouds 5 1019 71 10000 3.44 275 17:23 13.05.2022
3687 Clouds 3 1019 79 10000 3.63 276 15:53 13.05.2022
3688 Clouds 3 1019 88 10000 3.67 276 14:47 13.05.2022
3689 Clouds 2 1018 93 10000 3.69 275 12:54 13.05.2022
3690 Clouds 2 1017 92 10000 3.68 274 12:20 13.05.2022
3691 Clouds 2 1016 91 10000 3.53 275 10:23 13.05.2022
3692 Clouds 2 1016 90 10000 3.74 274 09:29 13.05.2022
3693 Clouds 2 1015 88 10000 4.07 272 07:59 13.05.2022
3694 Clouds 2 1014 91 10000 3.8 268 07:59 13.05.2022
3695 Clouds 2 1014 92 10000 3.69 275 07:26 13.05.2022
3696 Clear 2 1013 90 10000 3.81 280 05:31 13.05.2022
3697 Rain 5 1010 85 10000 4.27 278 01:21 13.05.2022
3698 Rain 6 1008 92 4863 4.12 262 23:34 12.05.2022
3699 Rain 8 1006 85 10000 3.48 262 22:35 12.05.2022
3700 Rain 9 1005 81 10000 2.73 264 21:35 12.05.2022
3701 Clouds 12 1004 61 10000 4.28 296 19:55 12.05.2022
3702 Clouds 9 1006 87 10000 2.6 319 18:29 12.05.2022
3703 Clouds 8 1006 88 10000 2.2 329 16:48 12.05.2022
3704 Clouds 8 1007 91 10000 1.93 335 15:22 12.05.2022
3705 Rain 7 1007 92 10000 1.93 337 13:52 12.05.2022
3706 Clouds 7 1007 89 10000 1.46 16 12:29 12.05.2022
3707 Clouds 7 1008 87 10000 1.68 33 10:34 12.05.2022
3708 Rain 7 1010 89 10000 1 350 08:56 12.05.2022
3709 Rain 7 1010 89 10000 1 350 08:35 12.05.2022
3710 Rain 7 1011 85 10000 1.51 343 07:25 12.05.2022
3711 Clouds 7 1012 83 10000 1.22 321 04:45 12.05.2022
3712 Clouds 7 1013 73 10000 1.36 309 01:37 12.05.2022
3713 Clouds 7 1013 72 10000 1.31 313 23:36 11.05.2022
3714 Rain 8 1014 65 10000 1.2 313 22:21 11.05.2022
3715 Clouds 9 1013 54 10000 0.9 279 21:26 11.05.2022
3716 Clouds 9 1013 54 10000 0.9 279 21:26 11.05.2022
3717 Clouds 10 1013 46 10000 0.79 272 20:20 11.05.2022
3718 Clouds 10 1015 45 10000 0.97 47 17:37 11.05.2022
3719 Clouds 8 1017 52 10000 1.13 56 16:27 11.05.2022
3720 Clouds 7 1018 58 10000 0.87 16 14:48 11.05.2022
3721 Clouds 5 1018 62 10000 1.18 15 14:25 11.05.2022
3722 Clouds 5 1018 64 10000 1.15 26 13:25 11.05.2022
3723 Clouds 4 1018 67 10000 1.04 35 11:48 11.05.2022
3724 Clouds 5 1019 65 10000 1.21 52 09:30 11.05.2022
3725 Clouds 5 1021 67 10000 1.36 65 06:36 11.05.2022
3726 Clear 6 1022 60 10000 1.61 25 02:18 11.05.2022
3727 Clear 9 1021 54 10000 0.53 92 22:58 10.05.2022
3728 Clear 9 1021 54 10000 0.53 92 22:30 10.05.2022
3729 Clear 11 1021 43 10000 0.65 70 21:40 10.05.2022
3730 Clear 11 1021 40 10000 1.36 94 20:34 10.05.2022
3731 Clear 10 1023 46 10000 0.98 87 18:49 10.05.2022
3732 Clear 9 1024 50 10000 1 97 17:38 10.05.2022
3733 Clear 8 1024 55 10000 1.14 97 16:35 10.05.2022
3734 Clear 3 1025 78 10000 0.45 241 13:31 10.05.2022
3735 Clear 3 1025 80 10000 0.58 272 11:54 10.05.2022
3736 Clear 3 1025 80 10000 0.58 272 11:32 10.05.2022
3737 Clear 3 1025 82 10000 1.07 273 10:56 10.05.2022
3738 Clear 3 1025 84 10000 0.96 264 09:36 10.05.2022
3739 Clear 3 1025 85 10000 1.55 250 07:58 10.05.2022
3740 Clear 4 1025 87 10000 1.87 265 05:54 10.05.2022
3741 Clouds 5 1023 86 10000 2.2 266 01:54 10.05.2022
3742 Clouds 6 1022 82 10000 2.09 270 23:45 09.05.2022
3743 Clouds 8 1021 74 10000 1.83 254 22:35 09.05.2022
3744 Clouds 9 1021 66 10000 1.64 249 21:37 09.05.2022
3745 Clouds 8 1022 69 10000 1.8 256 19:56 09.05.2022
3746 Clouds 6 1024 78 10000 2.24 257 18:25 09.05.2022
3747 Clouds 5 1024 82 10000 2.13 258 17:25 09.05.2022
3748 Clouds 5 1025 87 10000 1.97 263 16:18 09.05.2022
3749 Clouds 5 1025 87 10000 1.97 263 15:47 09.05.2022
3750 Clouds 4 1025 91 10000 1.7 259 14:33 09.05.2022
3751 Clouds 3 1025 94 10000 2.03 265 13:56 09.05.2022
3752 Clouds 3 1024 93 10000 1.83 268 12:51 09.05.2022
3753 Clear 3 1024 92 10000 1.85 266 11:52 09.05.2022
3754 Clear 3 1025 91 10000 1.98 265 10:46 09.05.2022
3755 Clear 3 1024 90 10000 2.11 267 10:20 09.05.2022
3756 Clear 4 1024 89 10000 2.29 275 07:56 09.05.2022
3757 Clear 5 1024 87 10000 2.38 279 04:34 09.05.2022
3758 Clear 8 1019 74 10000 3.05 267 00:23 09.05.2022
3759 Clear 10 1017 65 10000 4.41 273 23:27 08.05.2022
3760 Clear 11 1016 59 10000 5.35 277 22:29 08.05.2022
3761 Clear 12 1015 56 10000 5.4 272 20:53 08.05.2022
3762 Clear 12 1014 58 10000 5.28 269 20:18 08.05.2022
3763 Clear 12 1014 59 10000 5.44 270 19:27 08.05.2022
3764 Clear 12 1014 59 10000 5.44 270 19:27 08.05.2022
3765 Clear 12 1014 59 10000 5.44 270 18:35 08.05.2022
3766 Clouds 11 1013 65 10000 5.44 271 17:22 08.05.2022
3767 Clouds 10 1012 72 10000 4.98 276 15:44 08.05.2022
3768 Clouds 9 1011 80 10000 4.26 285 15:20 08.05.2022
3769 Clouds 10 1007 79 10000 5.3 271 12:45 08.05.2022
3770 Rain 12 1004 79 10000 9.03 279 10:46 08.05.2022
3771 Rain 12 1002 81 10000 10.93 289 10:21 08.05.2022
3772 Rain 12 1002 81 10000 10.93 289 09:46 08.05.2022
3773 Rain 13 1000 81 10000 4.73 297 07:33 08.05.2022
3774 Clouds 12 1004 88 10000 5.48 336 04:24 08.05.2022
3775 Clouds 11 1005 91 10000 4.81 340 03:20 08.05.2022
3776 Clouds 11 1007 93 10000 3.69 322 00:29 08.05.2022
3777 Clouds 11 1007 93 10000 3.69 322 23:53 07.05.2022
3778 Clouds 12 1007 91 10000 3.59 311 22:57 07.05.2022
3779 Clouds 12 1007 91 10000 3.59 311 22:33 07.05.2022
3780 Clouds 12 1008 87 10000 3.77 299 21:43 07.05.2022
3781 Clouds 13 1008 82 10000 3.87 301 20:55 07.05.2022
3782 Clouds 12 1008 84 10000 3.86 304 19:58 07.05.2022
3783 Clouds 10 1011 86 10000 3.31 311 17:51 07.05.2022
3784 Clouds 9 1012 84 10000 3.18 320 15:53 07.05.2022
3785 Clouds 9 1013 85 10000 3.53 318 14:20 07.05.2022
3786 Clouds 9 1013 83 10000 3.2 313 10:57 07.05.2022
3787 Clouds 8 1014 85 10000 3.21 315 09:22 07.05.2022
3788 Clouds 7 1015 88 10000 3.06 312 07:52 07.05.2022
3789 Clouds 8 1015 87 10000 3.66 323 06:43 07.05.2022
3790 Clouds 7 1016 89 10000 3.19 311 04:59 07.05.2022
3791 Clouds 9 1016 89 10000 3.25 296 01:46 07.05.2022
3792 Clouds 10 1016 83 10000 2.87 282 23:38 06.05.2022
3793 Clouds 12 1016 71 10000 2.56 275 22:28 06.05.2022
3794 Clouds 12 1016 71 10000 2.56 275 21:43 06.05.2022
3795 Clouds 12 1016 71 10000 2.56 275 21:43 06.05.2022
3796 Clouds 12 1016 69 10000 2.24 289 20:34 06.05.2022
3797 Clouds 12 1017 74 10000 2.07 292 19:30 06.05.2022
3798 Clouds 11 1017 78 10000 1.89 288 18:59 06.05.2022
3799 Clouds 10 1018 83 10000 1.87 301 18:18 06.05.2022
3800 Clouds 10 1019 85 10000 2.01 298 16:39 06.05.2022
3801 Clouds 9 1019 88 10000 1.92 293 15:39 06.05.2022
3802 Clouds 9 1020 92 10000 2.02 303 14:46 06.05.2022
3803 Clouds 8 1020 95 10000 2.42 272 12:54 06.05.2022
3804 Clouds 8 1020 95 10000 2.42 272 12:33 06.05.2022
3805 Clouds 9 1020 94 10000 2.86 276 11:42 06.05.2022
3806 Clouds 9 1020 93 10000 2.49 305 10:27 06.05.2022
3807 Clouds 9 1020 93 10000 2.49 305 09:45 06.05.2022
3808 Clouds 9 1019 93 10000 2.38 318 08:27 06.05.2022
3809 Clouds 10 1019 92 10000 2.27 313 06:42 06.05.2022
3810 Rain 9 1018 93 10000 1.98 321 04:51 06.05.2022
3811 Rain 10 1017 92 10000 2.21 324 02:43 06.05.2022
3812 Rain 10 1016 93 10000 1.7 308 23:36 05.05.2022
3813 Rain 10 1015 92 10000 1.85 283 21:52 05.05.2022
3814 Rain 10 1014 91 10000 1.54 300 21:19 05.05.2022
3815 Rain 10 1014 90 10000 1.52 287 19:49 05.05.2022
3816 Clouds 10 1015 92 10000 1.64 301 16:57 05.05.2022
3817 Clouds 10 1016 93 10000 1.6 292 16:18 05.05.2022
3818 Clouds 10 1016 95 10000 1.85 297 14:43 05.05.2022
3819 Clouds 9 1015 95 7797 1.72 287 13:20 05.05.2022
3820 Clouds 10 1014 94 10000 2.04 295 12:24 05.05.2022
3821 Rain 10 1014 93 10000 1.97 301 10:30 05.05.2022
3822 Rain 10 1014 94 10000 1.86 296 09:34 05.05.2022
3823 Rain 11 1013 93 10000 2.22 285 07:19 05.05.2022
3824 Clouds 11 1011 89 10000 2.75 292 02:33 05.05.2022
3825 Clouds 11 1011 91 10000 2.99 275 01:47 05.05.2022
3826 Clouds 11 1011 89 10000 3.55 280 01:20 05.05.2022
3827 Clouds 12 1010 88 10000 3.46 285 23:31 04.05.2022
3828 Clouds 13 1009 81 10000 3.93 292 22:25 04.05.2022
3829 Clouds 13 1009 81 10000 3.93 292 21:48 04.05.2022
3830 Clouds 12 1009 82 10000 4.44 296 21:22 04.05.2022
3831 Clouds 12 1009 84 10000 4.68 299 20:20 04.05.2022
3832 Clouds 13 1009 79 10000 5.2 298 19:51 04.05.2022
3833 Clouds 13 1009 75 10000 4.73 293 18:45 04.05.2022
3834 Clouds 14 1010 74 10000 4.9 292 18:20 04.05.2022
3835 Clouds 12 1010 82 10000 4.74 296 17:22 04.05.2022
3836 Clouds 12 1010 82 10000 4.81 298 15:35 04.05.2022
3837 Clouds 11 1010 86 10000 4.87 295 14:46 04.05.2022
3838 Clouds 10 1010 89 10000 4.95 294 14:20 04.05.2022
3839 Clouds 10 1010 89 10000 4.95 294 14:20 04.05.2022
3840 Clouds 9 1010 93 10000 4.37 309 12:58 04.05.2022
3841 Clouds 9 1011 93 10000 3.91 303 12:24 04.05.2022
3842 Clouds 10 1011 91 10000 4.27 299 10:30 04.05.2022
3843 Clouds 10 1012 92 10000 4.69 298 09:23 04.05.2022
3844 Clouds 10 1012 93 10000 4.56 297 08:26 04.05.2022
3845 Clouds 9 1012 97 3307 4.24 297 05:42 04.05.2022
3846 Clouds 9 1013 95 10000 4.51 297 02:42 04.05.2022
3847 Clouds 10 1012 87 10000 4.1 288 23:23 03.05.2022
3848 Clouds 11 1012 83 10000 4.78 287 21:55 03.05.2022
3849 Clouds 11 1012 83 10000 4.78 287 21:31 03.05.2022
3850 Clouds 12 1012 78 10000 5.17 286 20:52 03.05.2022
3851 Clouds 12 1013 76 10000 4.86 289 19:36 03.05.2022
3852 Clouds 12 1013 77 10000 4.91 289 18:47 03.05.2022
3853 Clouds 10 1015 83 10000 4.14 289 17:22 03.05.2022
3854 Clouds 9 1015 86 10000 3.93 292 16:19 03.05.2022
3855 Clouds 6 1016 92 10000 3.52 296 14:25 03.05.2022
3856 Clouds 6 1017 89 10000 3.15 291 12:46 03.05.2022
3857 Clouds 7 1017 83 10000 3.12 289 11:49 03.05.2022
3858 Clouds 7 1017 80 10000 3.06 288 10:49 03.05.2022
3859 Clouds 7 1019 76 10000 3.08 283 08:29 03.05.2022
3860 Clouds 7 1019 76 10000 2.84 278 06:45 03.05.2022
3861 Clouds 8 1020 84 10000 2.77 283 02:48 03.05.2022
3862 Clouds 9 1019 78 10000 2.93 273 23:32 02.05.2022
3863 Clouds 12 1018 59 10000 2.88 275 22:29 02.05.2022
3864 Clouds 12 1018 59 10000 2.88 275 21:47 02.05.2022
3865 Clouds 11 1020 61 10000 2.53 268 19:30 02.05.2022
3866 Clouds 9 1022 69 10000 2.2 284 18:26 02.05.2022
3867 Clouds 9 1022 69 10000 2.2 284 17:41 02.05.2022
3868 Clouds 9 1022 69 10000 2.2 284 17:41 02.05.2022
3869 Clouds 8 1023 75 10000 2.18 284 16:43 02.05.2022
3870 Clouds 6 1025 88 10000 2.01 290 15:41 02.05.2022
3871 Clouds 5 1025 92 10000 2.33 283 14:51 02.05.2022
3872 Clouds 4 1025 96 9269 2.28 285 13:42 02.05.2022
3873 Clouds 3 1025 95 10000 2.22 283 11:41 02.05.2022
3874 Clouds 4 1024 93 10000 2.2 279 09:45 02.05.2022
3875 Clouds 5 1023 90 10000 1.91 278 08:29 02.05.2022
3876 Clouds 5 1023 90 10000 1.91 275 06:53 02.05.2022
3877 Clouds 8 1020 86 10000 1.51 243 00:47 02.05.2022
3878 Clouds 8 1020 86 10000 1.51 243 00:47 02.05.2022
3879 Clouds 8 1019 84 10000 1.76 241 00:22 02.05.2022
3880 Clouds 9 1018 81 10000 2.2 254 22:55 01.05.2022
3881 Clouds 9 1017 81 10000 2.55 261 21:43 01.05.2022
3882 Clouds 9 1017 81 10000 2.57 256 20:36 01.05.2022
3883 Clouds 9 1018 80 10000 2.35 259 19:22 01.05.2022
3884 Clouds 9 1018 80 10000 2.35 259 18:52 01.05.2022
3885 Clouds 9 1018 82 10000 1.94 273 17:49 01.05.2022
3886 Clouds 8 1019 83 10000 1.66 288 16:38 01.05.2022
3887 Clouds 7 1019 87 10000 1.52 310 15:57 01.05.2022
3888 Clouds 6 1020 92 10000 1.53 313 14:45 01.05.2022
3889 Clouds 6 1019 94 10000 1.67 292 12:40 01.05.2022
3890 Clouds 6 1019 94 10000 1.61 306 10:22 01.05.2022
3891 Clouds 6 1020 95 10000 1.57 312 08:50 01.05.2022
3892 Clouds 6 1020 94 10000 1.25 283 06:50 01.05.2022
3893 Clouds 7 1020 94 10000 1.58 266 01:56 01.05.2022
3894 Clouds 9 1018 84 10000 2.33 240 22:18 30.04.2022
3895 Clouds 9 1018 84 10000 2.33 240 21:32 30.04.2022
3896 Clouds 9 1018 83 10000 2.12 244 19:54 30.04.2022
3897 Clouds 9 1018 82 10000 2.55 251 19:25 30.04.2022
3898 Clouds 8 1018 82 10000 2.52 262 17:31 30.04.2022
3899 Clouds 6 1019 81 10000 2.66 271 15:52 30.04.2022
3900 Clouds 6 1019 81 10000 2.66 271 15:52 30.04.2022
3901 Clouds 5 1020 80 10000 2.45 268 15:18 30.04.2022
3902 Clouds 3 1021 75 10000 2.31 276 13:59 30.04.2022
3903 Clouds 2 1021 74 10000 2.35 274 11:48 30.04.2022
3904 Clouds 2 1021 77 10000 2.27 277 11:26 30.04.2022
3905 Clouds 2 1021 80 10000 2.28 271 09:57 30.04.2022
3906 Clouds 2 1021 85 10000 1.93 280 07:47 30.04.2022
3907 Clouds 2 1022 86 10000 1.74 283 04:25 30.04.2022
3908 Clouds 3 1022 81 10000 0.91 274 23:57 29.04.2022
3909 Clouds 5 1022 76 10000 0.84 239 22:51 29.04.2022
3910 Clouds 6 1022 67 10000 1.1 238 21:56 29.04.2022
3911 Clouds 6 1022 64 10000 1.13 252 21:25 29.04.2022
3912 Clouds 6 1023 64 10000 1.04 251 20:18 29.04.2022
3913 Clouds 5 1023 64 10000 0.76 254 19:27 29.04.2022
3914 Clouds 4 1024 68 10000 0.58 318 17:34 29.04.2022
3915 Clouds 3 1025 73 10000 0.45 352 16:36 29.04.2022
3916 Clouds 1 1027 82 10000 0.65 312 14:36 29.04.2022
3917 Clouds -1 1027 87 10000 0.52 315 13:36 29.04.2022
3918 Clouds -1 1027 88 10000 0.4 269 12:36 29.04.2022
3919 Clouds -1 1027 89 10000 0.85 303 10:32 29.04.2022
3920 Clouds 0 1028 88 10000 0.91 293 07:54 29.04.2022
3921 Clouds 0 1028 89 10000 1.06 281 07:25 29.04.2022
3922 Clouds 0 1028 89 10000 1.06 281 06:30 29.04.2022
3923 Clouds 1 1027 87 10000 1.98 275 01:47 29.04.2022
3924 Clouds 2 1025 82 10000 1.96 263 23:55 28.04.2022
3925 Clouds 4 1025 75 10000 1.88 263 23:25 28.04.2022
3926 Clouds 5 1024 68 10000 2.07 269 22:19 28.04.2022
3927 Clouds 5 1024 68 10000 2.07 269 21:41 28.04.2022
3928 Clouds 5 1024 67 10000 2.12 268 20:43 28.04.2022
3929 Clouds 5 1024 67 10000 2.22 268 19:49 28.04.2022
3930 Clouds 4 1024 69 10000 2.22 267 19:24 28.04.2022
3931 Clouds 4 1024 69 10000 2.22 267 19:24 28.04.2022
3932 Clouds 4 1024 69 10000 2.22 267 18:45 28.04.2022
3933 Clouds 4 1025 73 10000 2.2 269 17:42 28.04.2022
3934 Clouds 3 1025 79 10000 2.19 272 16:51 28.04.2022
3935 Clouds 2 1025 84 10000 2.04 273 16:20 28.04.2022
3936 Clouds 2 1025 84 10000 2.04 273 16:20 28.04.2022
3937 Clouds 2 1025 84 10000 2.04 273 15:41 28.04.2022
3938 Clouds 0 1025 89 10000 1.98 280 14:55 28.04.2022
3939 Clouds -1 1024 94 10000 1.99 275 13:23 28.04.2022
3940 Clouds -1 1023 93 10000 1.95 277 12:28 28.04.2022
3941 Clouds -1 1023 93 10000 2.09 280 10:59 28.04.2022
3942 Clouds -1 1022 93 10000 2.23 282 10:26 28.04.2022
3943 Clouds -1 1022 93 10000 2.23 282 09:43 28.04.2022
3944 Clouds -2 1021 94 10000 2.56 282 07:40 28.04.2022
3945 Clouds -2 1020 94 10000 2.53 282 06:38 28.04.2022
3946 Clouds -2 1019 93 10000 2.62 281 05:40 28.04.2022
3947 Clouds -2 1018 92 10000 2.47 279 04:42 28.04.2022
3948 Clouds -1 1013 87 10000 3.13 274 00:51 28.04.2022
3949 Clouds 3 1008 72 10000 4.47 268 22:52 27.04.2022
3950 Clouds 4 1006 69 10000 5.35 262 21:58 27.04.2022
3951 Rain 4 1004 82 10000 5.32 260 21:29 27.04.2022
3952 Rain 4 1004 82 10000 5.32 260 20:44 27.04.2022
3953 Rain 3 1002 92 1192 2.37 262 19:39 27.04.2022
3954 Rain 3 1002 89 2337 2.24 259 19:39 27.04.2022
3955 Rain 3 1002 89 2402 2.22 259 19:39 27.04.2022
3956 Clouds 3 1001 84 10000 1.55 249 19:19 27.04.2022
3957 Clouds 3 1001 84 10000 1.55 249 18:35 27.04.2022
3958 Clouds 2 1000 91 10000 2.56 245 17:26 27.04.2022
3959 Clouds 1 999 91 10000 2.25 230 15:43 27.04.2022
3960 Snow 0 998 97 151 0.97 206 12:31 27.04.2022
3961 Clouds 0 998 91 10000 2.52 56 11:23 27.04.2022
3962 Clouds 0 1000 93 10000 1.87 14 09:59 27.04.2022
3963 Clouds 0 1003 92 10000 2.45 296 07:25 27.04.2022
3964 Clouds 0 1003 92 10000 3.05 300 05:50 27.04.2022
3965 Rain 2 1001 92 6084 2.76 317 01:52 27.04.2022
3966 Snow 2 1001 89 10000 2.43 303 00:52 27.04.2022
3967 Snow 1 1000 85 10000 3.2 285 23:57 26.04.2022
3968 Clouds 4 999 70 10000 4.42 287 23:23 26.04.2022
3969 Clouds 4 999 70 10000 4.42 287 22:41 26.04.2022
3970 Clouds 4 998 65 10000 5.39 286 21:48 26.04.2022
3971 Clouds 5 998 63 10000 6.3 284 20:54 26.04.2022
3972 Clouds 5 998 63 10000 6.3 284 20:34 26.04.2022
3973 Rain 5 998 65 10000 6.05 284 19:33 26.04.2022
3974 Rain 4 998 81 9823 6.16 279 18:51 26.04.2022
3975 Rain 5 996 72 10000 6.11 290 18:18 26.04.2022
3976 Clouds 5 996 71 10000 5.81 304 17:22 26.04.2022
3977 Rain 2 996 94 6996 3.43 304 14:28 26.04.2022
3978 Rain 2 996 96 658 2.84 303 13:34 26.04.2022
3979 Rain 3 995 92 10000 3.55 344 12:22 26.04.2022
3980 Rain 2 994 92 9202 3.65 328 10:44 26.04.2022
3981 Clouds 3 994 88 10000 4.41 343 09:36 26.04.2022
3982 Rain 4 994 87 10000 4.01 333 07:54 26.04.2022
3983 Rain 4 994 98 425 2.88 298 04:33 26.04.2022
3984 Rain 4 993 93 9196 3.56 341 01:54 26.04.2022
3985 Rain 5 994 94 10000 3.6 328 00:26 26.04.2022
3986 Rain 6 995 89 10000 3.88 315 22:46 25.04.2022
3987 Rain 6 995 85 10000 3.91 318 21:42 25.04.2022
3988 Clouds 7 996 85 10000 3.72 309 20:40 25.04.2022
3989 Clouds 7 997 83 10000 3.83 308 18:58 25.04.2022
3990 Clouds 6 998 84 10000 3.48 299 17:54 25.04.2022
3991 Clouds 5 999 87 10000 3.6 288 16:59 25.04.2022
3992 Rain 3 1001 96 6014 3.47 283 15:29 25.04.2022
3993 Rain 3 1001 96 6014 3.47 283 14:42 25.04.2022
3994 Snow 1 1001 95 10000 3.64 296 13:33 25.04.2022
3995 Snow 2 1001 92 10000 4.3 307 11:38 25.04.2022
3996 Snow 1 1002 88 9445 4.63 316 10:26 25.04.2022
3997 Clouds 2 1002 84 10000 4.72 305 08:39 25.04.2022
3998 Rain 3 1000 80 10000 6.31 300 06:44 25.04.2022
3999 Rain 3 999 91 10000 4.49 315 04:27 25.04.2022
4000 Rain 3 995 89 6095 5.95 289 00:57 25.04.2022
4001 Rain 3 992 83 2654 6.94 308 23:51 24.04.2022
4002 Rain 4 992 84 10000 7.95 303 22:43 24.04.2022
4003 Rain 5 990 86 6318 5.26 297 22:20 24.04.2022
4004 Rain 5 988 90 9270 3.98 295 21:26 24.04.2022
4005 Rain 5 988 90 9270 3.98 295 20:48 24.04.2022
4006 Rain 5 986 93 5077 5.65 261 20:29 24.04.2022
4007 Rain 5 986 93 5077 5.65 261 19:45 24.04.2022
4008 Rain 7 981 85 4820 5.88 350 18:20 24.04.2022
4009 Rain 8 981 78 8476 7.61 354 17:27 24.04.2022
4010 Rain 8 981 78 8476 7.61 354 16:58 24.04.2022
4011 Rain 8 981 78 8476 7.61 354 16:30 24.04.2022
4012 Rain 8 981 78 8476 7.61 354 16:30 24.04.2022
4013 Rain 8 984 83 10000 7.01 355 15:53 24.04.2022
4014 Rain 6 986 85 10000 7.34 342 14:55 24.04.2022
4015 Rain 5 987 91 10000 5.56 328 13:45 24.04.2022
4016 Rain 5 987 91 10000 5.56 328 13:45 24.04.2022
4017 Rain 4 989 92 10000 5.06 319 13:23 24.04.2022
4018 Rain 4 990 94 9981 4.78 314 11:53 24.04.2022
4019 Rain 4 991 95 3486 4.86 310 11:22 24.04.2022
4020 Rain 4 992 96 3497 4.43 300 09:47 24.04.2022
4021 Rain 4 993 96 10000 4.6 297 08:23 24.04.2022
4022 Rain 4 994 95 4453 4.76 298 05:46 24.04.2022
4023 Rain 4 996 93 6652 3.71 301 02:49 24.04.2022
4024 Rain 5 996 92 5822 3.97 305 00:55 24.04.2022
4025 Rain 5 996 91 5051 4.46 314 23:55 23.04.2022
4026 Rain 5 995 87 6292 5.14 304 23:25 23.04.2022
4027 Rain 5 995 87 6292 5.14 304 22:40 23.04.2022
4028 Rain 6 995 83 9629 6.53 300 21:47 23.04.2022
4029 Rain 7 994 80 10000 7.26 300 21:29 23.04.2022
4030 Rain 6 995 81 10000 7.01 298 19:56 23.04.2022
4031 Rain 7 995 79 10000 6.62 299 19:20 23.04.2022
4032 Rain 7 995 79 10000 6.62 299 18:54 23.04.2022
4033 Rain 7 995 79 10000 6.62 299 18:32 23.04.2022
4034 Rain 6 996 80 7445 7.24 297 17:47 23.04.2022
4035 Rain 7 996 73 10000 7.28 293 16:46 23.04.2022
4036 Rain 5 996 86 10000 7.1 290 15:51 23.04.2022
4037 Rain 5 995 93 10000 7.1 284 13:31 23.04.2022
4038 Rain 4 993 88 9416 7.61 293 11:29 23.04.2022
4039 Rain 3 993 85 10000 6.96 303 09:41 23.04.2022
4040 Rain 6 993 77 10000 9.67 277 07:52 23.04.2022
4041 Rain 6 989 94 2414 4.86 328 03:57 23.04.2022
4042 Rain 7 991 95 2292 4.13 314 02:36 23.04.2022
4043 Rain 8 996 89 10000 4.46 304 23:34 22.04.2022
4044 Clouds 8 999 87 10000 3.69 292 22:43 22.04.2022
4045 Clouds 8 1000 87 10000 3.82 302 21:56 22.04.2022
4046 Clouds 8 1000 87 10000 3.82 302 21:56 22.04.2022
4047 Clouds 8 1000 87 10000 3.82 302 21:56 22.04.2022
4048 Clouds 8 1000 87 10000 3.82 302 21:38 22.04.2022
4049 Clouds 7 1002 90 10000 3.17 311 20:30 22.04.2022
4050 Clouds 6 1006 94 2761 3.27 301 19:24 22.04.2022
4051 Clouds 6 1006 94 2761 3.27 301 18:56 22.04.2022
4052 Clouds 6 1007 94 738 2.92 297 18:24 22.04.2022
4053 Clouds 6 1008 93 1322 2.74 289 16:53 22.04.2022
4054 Clouds 6 1008 93 6267 2.3 291 15:57 22.04.2022
4055 Clouds 5 1009 91 8471 2.45 285 15:23 22.04.2022
4056 Clouds 5 1009 90 10000 2.54 290 14:21 22.04.2022
4057 Clouds 5 1009 91 10000 2.66 277 13:27 22.04.2022
4058 Clouds 5 1009 91 10000 2.66 277 12:30 22.04.2022
4059 Clouds 4 1009 92 10000 2.9 280 11:23 22.04.2022
4060 Clouds 4 1009 92 10000 2.9 280 10:53 22.04.2022
4061 Clouds 4 1009 92 10000 2.9 280 10:32 22.04.2022
4062 Clouds 3 1009 94 10000 3.2 282 09:54 22.04.2022
4063 Clouds 3 1010 95 10000 3.02 286 08:56 22.04.2022
4064 Clouds 3 1011 95 10000 3.17 287 08:25 22.04.2022
4065 Clouds 4 1010 96 10000 3.31 283 05:20 22.04.2022
4066 Clouds 6 1007 90 10000 4.01 267 00:53 22.04.2022
4067 Clouds 8 1003 72 10000 5.57 263 23:29 21.04.2022
4068 Clouds 9 1001 69 10000 6.44 266 22:29 21.04.2022
4069 Clouds 9 1001 69 10000 6.44 266 22:29 21.04.2022
4070 Clouds 9 1000 69 10000 6.53 265 20:55 21.04.2022
4071 Clouds 10 999 64 10000 6.28 267 20:26 21.04.2022
4072 Clouds 9 1000 70 10000 5.17 277 18:48 21.04.2022
4073 Rain 6 1002 95 2340 3.17 315 18:19 21.04.2022
4074 Rain 6 1002 94 641 3.16 274 16:49 21.04.2022
4075 Rain 6 1002 93 5525 3.07 296 15:23 21.04.2022
4076 Rain 6 1002 93 5525 3.07 296 14:50 21.04.2022
4077 Rain 5 1002 94 9469 3.48 319 13:44 21.04.2022
4078 Rain 6 1003 92 10000 3.85 313 13:18 21.04.2022
4079 Rain 6 1006 89 10000 3.65 303 11:19 21.04.2022
4080 Clouds 6 1010 94 2047 3.34 297 08:57 21.04.2022
4081 Clouds 6 1011 92 1376 3.46 313 07:49 21.04.2022
4082 Clouds 6 1013 90 10000 3.13 311 05:44 21.04.2022
4083 Clouds 6 1016 87 10000 3.5 288 03:33 21.04.2022
4084 Clouds 6 1016 84 10000 3.54 292 02:47 21.04.2022
4085 Clouds 6 1017 81 10000 3.47 290 01:41 21.04.2022
4086 Clouds 8 1017 63 10000 4.02 281 23:51 20.04.2022
4087 Clouds 10 1016 51 10000 4.87 279 23:22 20.04.2022
4088 Clouds 10 1016 51 10000 4.87 279 22:50 20.04.2022
4089 Clouds 10 1016 51 10000 4.87 279 22:31 20.04.2022
4090 Clouds 11 1017 46 10000 5.32 270 21:29 20.04.2022
4091 Clouds 11 1017 46 10000 5.32 270 20:37 20.04.2022
4092 Clouds 11 1016 47 10000 4.62 267 19:52 20.04.2022
4093 Clouds 10 1017 49 10000 4.34 265 19:21 20.04.2022
4094 Clouds 9 1018 54 10000 3.9 267 18:22 20.04.2022
4095 Clouds 8 1019 62 10000 3.66 267 16:54 20.04.2022
4096 Clouds 8 1019 62 10000 3.65 266 16:36 20.04.2022
4097 Clouds 4 1019 85 10000 2.46 288 14:21 20.04.2022
4098 Clouds 3 1019 91 10000 2.68 281 11:52 20.04.2022
4099 Clouds 4 1018 89 10000 2.63 279 11:24 20.04.2022
4100 Clouds 4 1018 88 10000 2.65 278 10:22 20.04.2022
4101 Clouds 5 1018 87 10000 2.49 285 09:25 20.04.2022
4102 Clouds 5 1018 83 10000 2.34 286 08:22 20.04.2022
4103 Clouds 5 1018 83 10000 2.34 286 07:36 20.04.2022
4104 Clouds 7 1016 80 10000 2.37 296 03:38 20.04.2022
4105 Clouds 7 1014 91 8931 2.52 288 00:23 20.04.2022
4106 Clouds 7 1014 91 8931 2.52 288 23:41 19.04.2022
4107 Clouds 8 1013 83 10000 3.22 266 22:26 19.04.2022
4108 Clouds 8 1013 83 10000 3.22 266 21:56 19.04.2022
4109 Clouds 9 1012 76 10000 3.67 266 21:23 19.04.2022
4110 Clouds 9 1012 76 10000 3.67 266 20:45 19.04.2022
4111 Clouds 11 1011 67 10000 3.67 264 19:56 19.04.2022
4112 Clouds 11 1011 64 10000 3.43 278 18:47 19.04.2022
4113 Clouds 10 1012 65 10000 3.37 280 17:32 19.04.2022
4114 Clouds 9 1011 67 10000 2.85 287 16:43 19.04.2022
4115 Clouds 8 1012 69 10000 2.71 282 16:22 19.04.2022
4116 Clouds 7 1012 76 10000 2.43 297 14:48 19.04.2022
4117 Clouds 6 1012 84 10000 2.3 303 13:49 19.04.2022
4118 Clouds 5 1012 88 10000 2.4 291 12:50 19.04.2022
4119 Clouds 6 1012 89 10000 2.8 300 11:55 19.04.2022
4120 Clouds 6 1012 92 10000 3.38 296 10:25 19.04.2022
4121 Clouds 6 1012 91 10000 3.32 305 09:18 19.04.2022
4122 Clouds 8 1012 84 10000 2.93 294 04:56 19.04.2022
4123 Clouds 9 1012 77 10000 2.88 289 03:25 19.04.2022
4124 Clouds 11 1010 68 10000 3.09 284 00:54 19.04.2022
4125 Clouds 14 1008 49 10000 3.68 273 23:29 18.04.2022
4126 Clouds 15 1008 45 10000 3.3 275 21:30 18.04.2022
4127 Clouds 15 1008 45 10000 3.3 275 21:30 18.04.2022
4128 Clear 15 1008 46 10000 2.74 281 20:54 18.04.2022
4129 Clear 15 1008 45 10000 2.82 274 20:30 18.04.2022
4130 Clouds 15 1009 48 10000 2.42 276 19:42 18.04.2022
4131 Clouds 14 1010 53 10000 2.29 281 18:56 18.04.2022
4132 Clouds 13 1011 60 10000 2.33 286 17:57 18.04.2022
4133 Clouds 13 1011 60 10000 2.33 286 17:33 18.04.2022
4134 Clouds 12 1012 68 10000 2.14 286 16:50 18.04.2022
4135 Clouds 12 1012 68 10000 2.14 286 16:31 18.04.2022
4136 Clouds 10 1013 84 10000 2.16 287 14:45 18.04.2022
4137 Clouds 9 1014 86 10000 1.89 298 13:35 18.04.2022
4138 Clouds 9 1013 85 10000 1.82 295 12:29 18.04.2022
4139 Clouds 9 1013 85 10000 1.82 295 11:34 18.04.2022
4140 Clouds 9 1013 85 10000 1.9 289 10:31 18.04.2022
4141 Clouds 9 1013 85 10000 2.25 288 09:30 18.04.2022
4142 Clouds 10 1014 82 10000 2.04 267 07:42 18.04.2022
4143 Clouds 11 1014 81 10000 2.22 272 05:35 18.04.2022
4144 Clouds 15 1011 62 10000 2.1 262 23:51 17.04.2022
4145 Clouds 17 1010 52 10000 2.18 256 22:40 17.04.2022
4146 Clouds 17 1010 46 10000 1.75 253 21:42 17.04.2022
4147 Clouds 18 1010 43 10000 1.69 260 21:22 17.04.2022
4148 Clouds 18 1010 43 10000 1.69 260 20:33 17.04.2022
4149 Clouds 17 1012 45 10000 1.55 265 19:23 17.04.2022
4150 Clouds 16 1013 48 10000 1.22 272 17:43 17.04.2022
4151 Clouds 13 1015 56 10000 0.86 303 15:39 17.04.2022
4152 Clear 11 1016 63 10000 1 319 14:54 17.04.2022
4153 Clouds 9 1016 74 10000 1.21 326 13:47 17.04.2022
4154 Clear 8 1016 77 10000 1.21 313 12:58 17.04.2022
4155 Clear 8 1017 77 10000 1.13 338 12:18 17.04.2022
4156 Clouds 9 1017 77 10000 1.13 330 10:46 17.04.2022
4157 Clouds 9 1017 76 10000 1.04 330 10:27 17.04.2022
4158 Clouds 9 1017 73 10000 0.93 333 09:28 17.04.2022
4159 Clouds 9 1017 73 10000 0.93 333 08:42 17.04.2022
4160 Clouds 10 1018 72 10000 0.71 352 07:00 17.04.2022
4161 Clouds 11 1020 70 10000 0.16 307 03:53 17.04.2022
4162 Clouds 13 1020 66 10000 0.42 233 00:55 17.04.2022
4163 Clouds 14 1020 61 10000 0.96 231 23:50 16.04.2022
4164 Clouds 18 1020 44 10000 0.78 39 22:27 16.04.2022
4165 Clouds 17 1020 45 10000 1.16 52 21:29 16.04.2022
4166 Clouds 16 1021 48 10000 0.86 68 19:57 16.04.2022
4167 Clouds 16 1022 51 10000 0.7 112 18:54 16.04.2022
4168 Clouds 14 1022 55 10000 0.93 84 17:40 16.04.2022
4169 Clouds 12 1023 62 10000 0.85 73 16:32 16.04.2022
4170 Clouds 10 1024 72 10000 0.34 58 15:40 16.04.2022
4171 Clouds 9 1025 80 10000 0.41 60 14:51 16.04.2022
4172 Clear 7 1025 91 10000 1.38 42 13:56 16.04.2022
4173 Clear 6 1025 92 10000 0.31 249 13:26 16.04.2022
4174 Clear 6 1025 91 10000 0.9 250 12:18 16.04.2022
4175 Clear 6 1024 91 10000 0.58 230 10:42 16.04.2022
4176 Clear 6 1023 91 10000 0.84 220 09:41 16.04.2022
4177 Clear 7 1023 89 10000 1.38 250 08:56 16.04.2022
4178 Clear 8 1023 88 10000 1.43 259 07:31 16.04.2022
4179 Clear 8 1022 88 10000 1.73 258 06:22 16.04.2022
4180 Clouds 10 1020 84 10000 2.71 253 01:53 16.04.2022
4181 Clouds 13 1018 72 10000 2.8 241 00:19 16.04.2022
4182 Clouds 15 1017 60 10000 3.11 239 22:54 15.04.2022
4183 Clouds 15 1017 60 10000 3.11 239 22:31 15.04.2022
4184 Clouds 16 1016 56 10000 3.06 237 21:44 15.04.2022
4185 Clouds 16 1015 55 10000 2.93 234 20:55 15.04.2022
4186 Clouds 16 1015 52 10000 2.8 238 19:52 15.04.2022
4187 Clouds 16 1014 52 10000 2.75 240 19:33 15.04.2022
4188 Clouds 16 1014 50 10000 2.61 246 18:45 15.04.2022
4189 Clear 15 1014 50 10000 2.32 258 18:23 15.04.2022
4190 Clear 14 1014 53 10000 2.41 257 17:29 15.04.2022
4191 Clear 13 1015 57 10000 2.48 261 16:26 15.04.2022
4192 Clear 13 1015 57 10000 2.48 261 15:54 15.04.2022
4193 Clear 9 1014 73 10000 2.41 276 14:22 15.04.2022
4194 Clear 8 1014 72 10000 2.46 273 12:53 15.04.2022
4195 Clear 8 1013 74 10000 2.34 283 12:28 15.04.2022
4196 Clear 8 1013 74 10000 2.34 283 11:54 15.04.2022
4197 Clear 9 1013 76 10000 2.51 275 10:48 15.04.2022
4198 Clear 9 1012 77 10000 2.66 268 10:21 15.04.2022
4199 Clear 10 1012 78 10000 2.57 277 09:23 15.04.2022
4200 Clear 10 1012 78 10000 2.57 277 08:57 15.04.2022
4201 Clear 11 1011 81 10000 2.36 285 06:52 15.04.2022
4202 Clear 12 1011 82 10000 2.26 288 05:56 15.04.2022
4203 Clear 15 1011 56 10000 1.81 281 01:27 15.04.2022
4204 Clear 20 1010 36 10000 1.98 253 23:29 14.04.2022
4205 Clear 20 1010 36 10000 1.98 253 22:46 14.04.2022
4206 Clear 21 1010 28 10000 2.08 247 22:27 14.04.2022
4207 Clear 21 1010 28 10000 2.07 244 21:53 14.04.2022
4208 Clear 21 1011 26 10000 0.7 90 19:53 14.04.2022
4209 Clear 20 1012 28 10000 1.58 67 19:22 14.04.2022
4210 Clear 18 1013 31 10000 1.47 68 17:48 14.04.2022
4211 Clear 17 1014 35 10000 1.18 66 17:27 14.04.2022
4212 Clear 17 1014 35 10000 1.18 66 16:32 14.04.2022
4213 Clouds 9 1016 63 10000 0.64 27 13:55 14.04.2022
4214 Clouds 8 1017 69 10000 0.65 32 13:26 14.04.2022
4215 Clouds 8 1017 69 10000 0.65 32 12:33 14.04.2022
4216 Clouds 8 1017 70 10000 0.57 9 11:47 14.04.2022
4217 Clouds 8 1017 68 10000 0.46 356 11:20 14.04.2022
4218 Clouds 8 1017 68 10000 0.46 356 10:33 14.04.2022
4219 Clouds 8 1017 67 10000 0.65 349 09:50 14.04.2022
4220 Clouds 9 1018 68 10000 0.67 16 08:35 14.04.2022
4221 Clouds 9 1019 70 10000 0.66 292 06:24 14.04.2022
4222 Clear 11 1019 64 10000 0.74 345 01:49 14.04.2022
4223 Clear 15 1019 48 10000 0.73 189 22:41 13.04.2022
4224 Clear 15 1019 46 10000 0.6 206 21:44 13.04.2022
4225 Clear 15 1019 48 10000 0.8 221 20:47 13.04.2022
4226 Clouds 14 1020 50 10000 1.06 236 19:54 13.04.2022
4227 Clear 13 1020 52 10000 0.95 241 18:43 13.04.2022
4228 Clear 11 1021 58 10000 1 245 17:52 13.04.2022
4229 Clouds 9 1022 66 10000 1.35 250 17:23 13.04.2022
4230 Clouds 8 1023 73 10000 1.76 254 16:18 13.04.2022
4231 Clouds 8 1023 73 10000 1.76 254 15:31 13.04.2022
4232 Clouds 6 1023 81 10000 1.97 276 14:43 13.04.2022
4233 Clouds 4 1023 90 10000 2.09 283 13:55 13.04.2022
4234 Clouds 3 1023 93 10000 2.27 280 12:57 13.04.2022
4235 Clouds 3 1023 93 10000 2.48 272 11:58 13.04.2022
4236 Clouds 3 1023 94 10000 2.52 266 10:34 13.04.2022
4237 Clouds 3 1023 92 10000 2.88 262 08:49 13.04.2022
4238 Clouds 3 1022 90 10000 3.17 260 08:23 13.04.2022
4239 Clouds 4 1022 88 10000 3.34 264 06:49 13.04.2022
4240 Clouds 4 1022 88 10000 3.22 264 06:24 13.04.2022
4241 Clouds 5 1020 81 10000 3.9 274 02:24 13.04.2022
4242 Clouds 8 1017 66 10000 4.66 266 00:20 13.04.2022
4243 Clouds 9 1016 57 10000 5.39 263 22:33 12.04.2022
4244 Clouds 10 1015 52 10000 5.47 266 21:54 12.04.2022
4245 Clouds 11 1015 49 10000 5.98 257 20:48 12.04.2022
4246 Clouds 11 1014 48 10000 5.24 267 20:20 12.04.2022
4247 Clouds 11 1014 48 10000 5.28 265 19:40 12.04.2022
4248 Clouds 11 1015 50 10000 4.85 264 18:56 12.04.2022
4249 Clouds 9 1016 56 10000 4.57 264 17:39 12.04.2022
4250 Clouds 7 1017 66 10000 4.28 266 16:46 12.04.2022
4251 Clouds 5 1018 77 10000 4.19 270 15:34 12.04.2022
4252 Clouds 3 1018 86 10000 4.14 275 14:48 12.04.2022
4253 Clouds 2 1019 93 10000 3.79 277 13:50 12.04.2022
4254 Clouds 1 1019 95 10000 3.67 280 13:25 12.04.2022
4255 Clouds 2 1018 93 10000 3.51 278 12:18 12.04.2022
4256 Clouds 2 1018 93 10000 3.51 278 11:35 12.04.2022
4257 Clouds 3 1017 89 10000 2.9 280 09:47 12.04.2022
4258 Clouds 3 1017 89 10000 2.57 278 08:38 12.04.2022
4259 Clouds 3 1018 91 10000 2.56 269 06:46 12.04.2022
4260 Clouds 3 1017 92 10000 2.93 262 05:40 12.04.2022
4261 Clouds 5 1014 91 10000 2.53 248 02:36 12.04.2022
4262 Clouds 7 1011 93 5400 3.45 269 23:20 11.04.2022
4263 Clouds 7 1011 91 6771 3.81 279 21:59 11.04.2022
4264 Clouds 7 1011 88 6738 3.99 273 21:18 11.04.2022
4265 Clouds 7 1011 88 6738 3.99 273 20:30 11.04.2022
4266 Clouds 7 1011 91 1070 3.83 282 19:58 11.04.2022
4267 Clouds 7 1012 86 4259 3.85 279 19:26 11.04.2022
4268 Clouds 7 1012 86 4259 3.85 279 18:53 11.04.2022
4269 Clouds 7 1012 86 10000 3.51 277 17:58 11.04.2022
4270 Clouds 7 1012 86 10000 3.51 277 17:30 11.04.2022
4271 Clouds 6 1013 94 3263 3.55 283 16:25 11.04.2022
4272 Clouds 6 1014 95 2681 3.4 285 14:40 11.04.2022
4273 Clouds 4 1015 93 10000 2.84 280 13:19 11.04.2022
4274 Clouds 4 1015 93 10000 2.84 280 12:36 11.04.2022
4275 Clouds 3 1015 93 10000 2.9 284 11:42 11.04.2022
4276 Clouds 3 1016 94 10000 3.16 284 10:34 11.04.2022
4277 Clouds 3 1016 95 10000 3.25 284 09:30 11.04.2022
4278 Clouds 4 1016 89 10000 3.32 277 07:24 11.04.2022
4279 Clouds 6 1016 79 10000 2.82 275 02:36 11.04.2022
4280 Clouds 10 1014 56 10000 2.2 251 22:58 10.04.2022
4281 Clouds 10 1014 55 10000 1.88 256 22:26 10.04.2022
4282 Clouds 10 1014 55 10000 1.88 256 21:35 10.04.2022
4283 Clouds 10 1014 56 10000 1.87 248 20:33 10.04.2022
4284 Clouds 10 1015 56 10000 2.25 250 19:45 10.04.2022
4285 Clouds 9 1015 60 10000 2.22 249 19:23 10.04.2022
4286 Clouds 9 1015 60 10000 2.22 249 18:45 10.04.2022
4287 Clouds 8 1016 64 10000 2.05 260 17:55 10.04.2022
4288 Clouds 8 1016 64 10000 2.05 260 17:35 10.04.2022
4289 Clouds 6 1016 72 10000 1.89 276 16:25 10.04.2022
4290 Clouds 6 1016 77 10000 1.96 279 15:20 10.04.2022
4291 Clouds 5 1016 84 10000 1.92 285 14:22 10.04.2022
4292 Clouds 4 1016 88 10000 2.41 275 12:35 10.04.2022
4293 Clouds 4 1015 87 10000 2.55 274 11:46 10.04.2022
4294 Clouds 5 1015 86 10000 2.45 288 11:28 10.04.2022
4295 Clouds 5 1015 86 10000 2.45 288 10:54 10.04.2022
4296 Clouds 5 1015 86 10000 2.45 288 10:54 10.04.2022
4297 Clouds 5 1015 84 10000 2.66 271 09:56 10.04.2022
4298 Clouds 5 1014 83 10000 2.8 274 09:28 10.04.2022
4299 Clouds 5 1014 86 10000 3.31 289 08:22 10.04.2022
4300 Clouds 6 1014 88 10000 3.42 290 07:21 10.04.2022
4301 Clouds 6 1014 87 10000 3.14 283 05:27 10.04.2022
4302 Clouds 7 1012 87 10000 3.52 281 02:20 10.04.2022
4303 Rain 9 1009 80 10000 3.7 268 23:54 09.04.2022
4304 Rain 9 1009 80 10000 3.7 268 23:35 09.04.2022
4305 Rain 10 1009 85 10000 4.24 274 22:43 09.04.2022
4306 Rain 12 1006 73 10000 4.51 274 21:32 09.04.2022
4307 Rain 13 1006 69 10000 2.95 276 20:39 09.04.2022
4308 Rain 14 1006 68 10000 2.25 265 20:19 09.04.2022
4309 Rain 14 1006 68 10000 2.25 265 19:41 09.04.2022
4310 Rain 14 1006 65 10000 1.71 262 18:54 09.04.2022
4311 Rain 14 1006 67 10000 1.78 261 18:18 09.04.2022
4312 Rain 14 1006 67 10000 1.78 261 17:32 09.04.2022
4313 Clouds 13 1007 73 10000 1.3 256 16:43 09.04.2022
4314 Clouds 11 1008 79 10000 1.02 271 15:53 09.04.2022
4315 Clouds 10 1008 84 10000 1.14 274 15:26 09.04.2022
4316 Clouds 9 1009 88 10000 1.41 275 14:26 09.04.2022
4317 Clouds 9 1009 85 10000 1.56 280 13:38 09.04.2022
4318 Clouds 8 1009 88 10000 1.56 286 12:59 09.04.2022
4319 Clouds 8 1009 86 10000 1.54 285 11:52 09.04.2022
4320 Clouds 8 1009 84 10000 1.73 276 10:53 09.04.2022
4321 Clouds 9 1009 82 10000 1.76 276 10:19 09.04.2022
4322 Clouds 9 1010 80 10000 1.39 283 09:24 09.04.2022
4323 Clouds 9 1010 80 10000 1.39 283 08:35 09.04.2022
4324 Clouds 10 1011 72 10000 1.17 295 05:21 09.04.2022
4325 Clouds 12 1011 65 10000 0.89 263 00:36 09.04.2022
4326 Clouds 16 1011 48 10000 1.02 231 23:24 08.04.2022
4327 Clear 16 1011 46 10000 1.08 227 21:54 08.04.2022
4328 Clear 16 1012 47 10000 0.83 229 20:45 08.04.2022
4329 Clouds 15 1013 49 10000 0.56 226 19:57 08.04.2022
4330 Clouds 15 1014 53 10000 0.19 193 18:59 08.04.2022
4331 Clouds 14 1015 59 10000 0.01 26 18:24 08.04.2022
4332 Clouds 12 1016 65 10000 0.27 23 17:29 08.04.2022
4333 Clouds 12 1016 65 10000 0.27 23 16:58 08.04.2022
4334 Clouds 12 1016 65 10000 0.27 23 16:31 08.04.2022
4335 Clouds 11 1017 73 10000 0.39 8 15:37 08.04.2022
4336 Clear 9 1018 81 10000 0.39 318 14:52 08.04.2022
4337 Clouds 7 1019 90 10000 0.69 288 14:20 08.04.2022
4338 Clouds 7 1018 92 10000 0.6 283 13:36 08.04.2022
4339 Clouds 6 1018 94 10000 0.91 276 13:18 08.04.2022
4340 Clouds 6 1018 94 10000 1.09 279 11:41 08.04.2022
4341 Clouds 7 1018 94 10000 1.45 273 10:20 08.04.2022
4342 Clouds 7 1019 94 10000 1.51 273 09:20 08.04.2022
4343 Clear 8 1019 93 10000 1.6 276 07:44 08.04.2022
4344 Clear 8 1019 92 10000 1.57 275 06:45 08.04.2022
4345 Clear 10 1018 87 10000 1.92 270 02:55 08.04.2022
4346 Clouds 12 1017 79 10000 2.24 248 00:31 08.04.2022
4347 Clouds 14 1016 70 10000 2.35 249 23:47 07.04.2022
4348 Clouds 15 1015 62 10000 2.72 255 22:55 07.04.2022
4349 Clouds 15 1015 62 10000 2.72 255 22:36 07.04.2022
4350 Clouds 15 1015 60 10000 2.72 260 22:18 07.04.2022
4351 Clouds 15 1015 60 10000 2.72 260 21:30 07.04.2022
4352 Rain 15 1014 61 10000 2.67 263 20:46 07.04.2022
4353 Rain 15 1015 63 10000 2.21 271 20:20 07.04.2022
4354 Clouds 13 1016 74 10000 1.53 282 17:43 07.04.2022
4355 Rain 12 1016 82 10000 1.42 272 17:22 07.04.2022
4356 Rain 12 1016 82 10000 1.42 272 16:34 07.04.2022
4357 Rain 12 1016 86 10000 1.41 256 15:47 07.04.2022
4358 Clouds 10 1016 92 10000 1.26 260 13:59 07.04.2022
4359 Clouds 9 1016 93 10000 1.49 260 13:24 07.04.2022
4360 Clouds 9 1016 93 10000 1.49 260 13:24 07.04.2022
4361 Clouds 10 1015 93 10000 1.6 279 11:53 07.04.2022
4362 Rain 10 1015 94 10000 1.27 282 10:54 07.04.2022
4363 Rain 10 1015 95 10000 1.26 291 09:19 07.04.2022
4364 Rain 10 1014 95 10000 1.56 282 06:59 07.04.2022
4365 Rain 11 1014 91 10000 1.32 333 05:28 07.04.2022
4366 Rain 10 1014 92 10000 2.21 344 02:37 07.04.2022
4367 Rain 10 1013 93 10000 1.45 307 00:43 07.04.2022
4368 Rain 10 1012 91 10000 1.63 344 23:36 06.04.2022
4369 Rain 11 1012 90 10000 1.68 336 22:44 06.04.2022
4370 Rain 11 1012 89 10000 1.77 332 22:20 06.04.2022
4371 Clouds 11 1012 86 10000 1.77 321 20:47 06.04.2022
4372 Clouds 11 1012 85 10000 1.89 321 20:00 06.04.2022
4373 Rain 10 1012 86 10000 1.65 334 19:24 06.04.2022
4374 Rain 10 1012 86 10000 1.65 334 18:48 06.04.2022
4375 Rain 10 1012 86 10000 2.01 341 17:36 06.04.2022
4376 Rain 10 1012 85 10000 1.96 339 16:56 06.04.2022
4377 Rain 10 1012 85 10000 1.96 339 16:32 06.04.2022
4378 Clouds 10 1012 86 10000 1.62 330 15:43 06.04.2022
4379 Clouds 9 1011 91 10000 1.9 302 13:48 06.04.2022
4380 Clouds 9 1010 91 10000 1.85 297 12:30 06.04.2022
4381 Clouds 9 1010 92 10000 2.19 292 11:44 06.04.2022
4382 Clouds 10 1010 91 10000 2.44 307 10:33 06.04.2022
4383 Clouds 10 1010 92 10000 2.26 308 09:59 06.04.2022
4384 Clouds 10 1010 92 10000 2.16 308 09:25 06.04.2022
4385 Clouds 10 1010 91 10000 1.95 299 07:59 06.04.2022
4386 Clouds 10 1010 88 10000 2.54 286 05:45 06.04.2022
4387 Clouds 10 1010 84 10000 3.64 293 00:45 06.04.2022
4388 Clouds 12 1009 75 10000 3.91 285 23:48 05.04.2022
4389 Clouds 13 1008 69 10000 4.94 289 21:51 05.04.2022
4390 Clouds 13 1008 75 10000 4.66 300 20:59 05.04.2022
4391 Clouds 12 1009 81 10000 4.11 302 20:24 05.04.2022
4392 Clouds 12 1009 82 10000 3.44 300 18:32 05.04.2022
4393 Clouds 10 1009 87 10000 3.35 311 17:22 05.04.2022
4394 Clouds 10 1009 87 10000 3.35 311 16:43 05.04.2022
4395 Clouds 10 1009 88 10000 3.2 309 15:51 05.04.2022
4396 Clouds 10 1009 88 10000 3.2 309 15:31 05.04.2022
4397 Clouds 9 1009 91 10000 3.02 303 13:49 05.04.2022
4398 Clouds 9 1009 91 10000 2.91 303 12:33 05.04.2022
4399 Clouds 9 1009 91 10000 3.05 302 11:43 05.04.2022
4400 Clouds 9 1009 91 10000 3.12 302 11:24 05.04.2022
4401 Clouds 9 1009 90 10000 2.96 299 09:31 05.04.2022
4402 Clouds 9 1010 89 10000 2.97 304 08:33 05.04.2022
4403 Clouds 8 1012 86 10000 3.36 322 03:50 05.04.2022
4404 Clouds 9 1011 81 10000 4.52 300 23:42 04.04.2022
4405 Clouds 10 1011 74 10000 4.69 292 22:37 04.04.2022
4406 Clouds 12 1010 62 10000 5.19 281 21:48 04.04.2022
4407 Clouds 13 1010 53 10000 5.35 277 21:19 04.04.2022
4408 Clouds 13 1010 53 10000 5.35 277 20:47 04.04.2022
4409 Clouds 13 1012 52 10000 4.42 276 19:28 04.04.2022
4410 Clouds 13 1012 52 10000 4.42 276 18:43 04.04.2022
4411 Clouds 10 1015 68 10000 3.24 269 17:20 04.04.2022
4412 Clouds 10 1015 68 10000 3.24 269 16:31 04.04.2022
4413 Clouds 7 1016 81 10000 2.93 274 15:33 04.04.2022
4414 Clouds 7 1017 85 10000 2.89 273 14:46 04.04.2022
4415 Clouds 5 1017 91 10000 2.84 281 14:27 04.04.2022
4416 Clouds 4 1018 94 10000 3.13 280 12:58 04.04.2022
4417 Clouds 5 1018 89 10000 3.36 273 11:29 04.04.2022
4418 Clouds 5 1018 88 10000 3.55 276 10:29 04.04.2022
4419 Clouds 6 1019 93 2520 4.55 274 05:34 04.04.2022
4420 Clouds 5 1019 94 7036 4.07 289 02:59 04.04.2022
4421 Clouds 8 1017 65 10000 5.1 269 23:19 03.04.2022
4422 Clouds 9 1016 59 10000 5.71 267 22:00 03.04.2022
4423 Clouds 10 1015 55 10000 5.99 266 21:27 03.04.2022
4424 Clouds 10 1015 55 10000 5.99 266 20:32 03.04.2022
4425 Clouds 11 1014 50 10000 6.32 266 18:47 03.04.2022
4426 Clouds 10 1015 51 10000 5.91 269 17:56 03.04.2022
4427 Clouds 10 1015 51 10000 5.91 269 17:36 03.04.2022
4428 Clouds 8 1015 56 10000 5.51 274 16:50 03.04.2022
4429 Clouds 7 1016 66 10000 4.92 272 15:56 03.04.2022
4430 Clouds 3 1017 87 10000 3.9 277 14:25 03.04.2022
4431 Clouds 2 1017 92 10000 3.8 276 13:28 03.04.2022
4432 Clouds 2 1016 92 10000 4.08 277 11:50 03.04.2022
4433 Clouds 2 1015 88 10000 3.73 275 09:57 03.04.2022
4434 Clouds 2 1015 89 10000 3.91 267 08:57 03.04.2022
4435 Clouds 3 1013 90 10000 3.73 276 05:45 03.04.2022
4436 Clear 4 1010 87 10000 3.21 268 02:55 03.04.2022
4437 Clouds 8 1005 65 10000 5.55 258 23:48 02.04.2022
4438 Clouds 10 1003 57 10000 6.9 259 22:45 02.04.2022
4439 Rain 11 1002 58 10000 7.84 280 21:56 02.04.2022
4440 Rain 12 1001 70 10000 6.52 278 21:20 02.04.2022
4441 Rain 12 1001 70 10000 6.52 278 20:36 02.04.2022
4442 Rain 11 1000 86 10000 2.57 281 18:47 02.04.2022
4443 Rain 11 1000 82 10000 3.11 280 18:19 02.04.2022
4444 Rain 11 1001 79 10000 3.91 333 17:23 02.04.2022
4445 Rain 10 1003 74 10000 3.03 317 15:44 02.04.2022
4446 Clouds 10 1003 70 10000 3.58 317 15:19 02.04.2022
4447 Clouds 10 1003 70 10000 3.58 317 14:31 02.04.2022
4448 Clouds 10 1004 70 10000 3.69 327 13:34 02.04.2022
4449 Clouds 10 1005 72 10000 3.27 317 12:21 02.04.2022
4450 Clouds 10 1005 72 10000 3.38 309 10:31 02.04.2022
4451 Clouds 10 1009 86 10000 3.02 296 07:52 02.04.2022
4452 Clouds 11 1011 85 10000 2.62 287 04:59 02.04.2022
4453 Clouds 12 1012 79 10000 2.58 289 02:37 02.04.2022
4454 Clear 17 1011 48 10000 3.1 271 23:54 01.04.2022
4455 Clouds 19 1011 35 10000 3.39 266 22:47 01.04.2022
4456 Clear 19 1012 36 10000 2.46 267 21:22 01.04.2022
4457 Clear 19 1012 36 10000 2.46 267 20:46 01.04.2022
4458 Clouds 18 1013 42 10000 2.39 252 19:45 01.04.2022
4459 Clouds 17 1014 48 10000 1.84 269 19:26 01.04.2022
4460 Clouds 17 1014 48 10000 1.84 269 18:38 01.04.2022
4461 Clouds 15 1015 57 10000 2.07 259 17:39 01.04.2022
4462 Clouds 11 1017 78 10000 2.1 252 15:46 01.04.2022
4463 Clouds 10 1018 86 10000 1.65 271 14:53 01.04.2022
4464 Clouds 8 1019 92 10000 1.45 280 13:40 01.04.2022
4465 Clouds 7 1018 94 10000 1.7 266 13:20 01.04.2022
4466 Clear 7 1019 94 10000 1.7 270 12:24 01.04.2022
4467 Clear 7 1019 94 10000 1.89 262 10:50 01.04.2022
4468 Clear 7 1019 92 10000 1.98 259 09:39 01.04.2022
4469 Clouds 8 1020 90 10000 1.94 262 07:31 01.04.2022
4470 Clouds 9 1020 85 10000 1.95 255 04:59 01.04.2022
4471 Clouds 9 1020 85 10000 1.95 255 04:39 01.04.2022
4472 Clouds 11 1020 70 10000 1.88 258 02:37 01.04.2022
4473 Clouds 11 1019 64 10000 1.73 256 01:34 01.04.2022
4474 Clouds 15 1019 39 10000 1.53 234 22:31 31.03.2022
4475 Clouds 16 1019 35 10000 1.62 231 21:39 31.03.2022
4476 Clouds 16 1019 33 10000 1.71 226 20:51 31.03.2022
4477 Clouds 15 1019 33 10000 1.5 231 20:28 31.03.2022
4478 Clouds 13 1020 37 10000 1.35 262 19:21 31.03.2022
4479 Clouds 13 1020 37 10000 1.35 262 18:31 31.03.2022
4480 Clouds 10 1022 47 10000 1.52 239 16:47 31.03.2022
4481 Clouds 9 1023 53 10000 1.64 252 15:54 31.03.2022
4482 Clouds 6 1024 63 10000 1.65 258 15:24 31.03.2022
4483 Clouds 6 1024 63 10000 1.65 258 14:44 31.03.2022
4484 Clouds 4 1024 78 10000 2.12 262 13:28 31.03.2022
4485 Clouds 4 1023 80 10000 2.29 268 11:30 31.03.2022
4486 Clouds 4 1023 82 10000 2.55 265 10:22 31.03.2022
4487 Clouds 4 1023 83 10000 2.48 268 09:19 31.03.2022
4488 Clouds 4 1023 83 10000 2.41 278 07:48 31.03.2022
4489 Clear 8 1021 68 10000 2.75 255 01:37 31.03.2022
4490 Clear 14 1019 39 10000 1.98 244 23:23 30.03.2022
4491 Clear 14 1019 38 10000 1.54 238 21:54 30.03.2022
4492 Clear 13 1020 38 10000 1.37 236 21:27 30.03.2022
4493 Clear 13 1020 38 10000 1.37 236 20:32 30.03.2022
4494 Clear 13 1020 38 10000 1.37 240 19:43 30.03.2022
4495 Clouds 11 1022 41 10000 1.14 250 18:41 30.03.2022
4496 Clouds 10 1023 47 10000 1.11 255 17:50 30.03.2022
4497 Clouds 8 1024 54 10000 1.26 260 16:58 30.03.2022
4498 Clouds 8 1024 54 10000 1.26 260 16:39 30.03.2022
4499 Clouds 6 1025 63 10000 1.42 260 15:38 30.03.2022
4500 Clouds 3 1027 84 10000 1.59 262 14:18 30.03.2022
4501 Clouds 1 1027 90 10000 1.75 264 13:19 30.03.2022
4502 Clouds 1 1027 89 10000 1.9 266 11:41 30.03.2022
4503 Clouds 2 1027 88 10000 1.82 273 10:38 30.03.2022
4504 Clear 2 1028 84 10000 1.99 270 09:28 30.03.2022
4505 Clouds 2 1028 82 10000 2.16 268 07:59 30.03.2022
4506 Clouds 2 1028 80 10000 2.39 268 05:41 30.03.2022
4507 Clouds 2 1028 81 10000 2.54 270 04:54 30.03.2022
4508 Clouds 5 1026 75 10000 3.22 271 00:43 30.03.2022
4509 Clouds 8 1022 58 10000 4.06 262 22:35 29.03.2022
4510 Clouds 8 1022 55 10000 4.4 254 21:46 29.03.2022
4511 Clouds 8 1021 55 10000 4.54 257 20:54 29.03.2022
4512 Clouds 8 1020 59 10000 4.6 266 20:20 29.03.2022
4513 Clouds 8 1020 61 10000 4.07 269 18:56 29.03.2022
4514 Clouds 8 1020 61 10000 4.07 269 18:31 29.03.2022
4515 Clouds 7 1020 67 10000 3.51 267 17:36 29.03.2022
4516 Clouds 5 1020 74 10000 3.17 263 16:58 29.03.2022
4517 Clouds 5 1019 81 10000 3.48 244 15:58 29.03.2022
4518 Clouds 3 1018 89 10000 3.42 232 14:53 29.03.2022
4519 Clouds 2 1016 94 7658 2.9 246 14:18 29.03.2022
4520 Clouds 2 1014 96 10000 3.03 267 12:53 29.03.2022
4521 Rain 2 1012 96 10000 2.91 253 11:43 29.03.2022
4522 Rain 2 1010 93 10000 3.37 278 10:51 29.03.2022
4523 Clouds 2 1009 91 10000 3.21 293 09:49 29.03.2022
4524 Rain 3 1008 84 10000 3.65 295 07:35 29.03.2022
4525 Rain 4 1006 90 4870 4.27 278 04:41 29.03.2022
4526 Rain 7 1005 90 3241 3.15 296 00:35 29.03.2022
4527 Rain 8 1004 80 9528 5.11 302 23:23 28.03.2022
4528 Rain 8 1004 80 9528 5.11 302 22:52 28.03.2022
4529 Rain 10 1002 74 10000 6.48 294 22:26 28.03.2022
4530 Rain 12 1002 65 10000 8.83 295 20:56 28.03.2022
4531 Rain 12 1001 66 10000 8.4 293 20:21 28.03.2022
4532 Rain 12 1001 66 10000 8.4 293 19:41 28.03.2022
4533 Rain 11 1002 68 10000 7.48 288 18:56 28.03.2022
4534 Rain 11 1002 68 10000 7.48 288 18:36 28.03.2022
4535 Rain 11 1003 68 10000 7.76 285 17:39 28.03.2022
4536 Clouds 12 1003 65 10000 7.8 294 16:19 28.03.2022
4537 Clouds 9 1004 78 10000 5.58 297 14:27 28.03.2022
4538 Clouds 9 1004 78 10000 5.58 297 13:47 28.03.2022
4539 Clouds 8 1006 82 10000 4.85 302 11:58 28.03.2022
4540 Clouds 8 1006 83 10000 4.92 307 10:50 28.03.2022
4541 Clouds 8 1007 79 10000 4.93 309 09:41 28.03.2022
4542 Clouds 8 1008 82 10000 4.27 315 08:49 28.03.2022
4543 Clouds 7 1009 87 10000 3.6 316 08:21 28.03.2022
4544 Clouds 7 1009 87 10000 3.6 316 08:21 28.03.2022
4545 Clouds 8 1010 80 10000 3.59 316 07:27 28.03.2022
4546 Clouds 7 1012 81 10000 3.38 313 03:27 28.03.2022
4547 Clear 12 1010 48 10000 5.56 293 23:24 27.03.2022
4548 Clear 13 1009 45 10000 5.92 292 22:23 27.03.2022
4549 Clear 13 1009 45 10000 5.92 292 21:40 27.03.2022
4550 Clear 13 1009 45 10000 5.92 292 21:40 27.03.2022
4551 Clear 13 1009 43 10000 5.87 293 20:53 27.03.2022
4552 Clouds 13 1010 43 10000 6.01 291 19:44 27.03.2022
4553 Clouds 13 1010 44 10000 5.91 288 18:47 27.03.2022
4554 Clouds 12 1010 45 10000 5.56 283 18:26 27.03.2022
4555 Clouds 12 1010 45 10000 5.56 283 17:38 27.03.2022
4556 Clouds 9 1011 59 10000 4.44 279 15:57 27.03.2022
4557 Clouds 6 1012 86 10000 3.17 280 14:26 27.03.2022
4558 Clouds 6 1012 87 10000 2.91 284 13:42 27.03.2022
4559 Clouds 6 1011 86 10000 3.83 275 11:46 27.03.2022
4560 Clouds 5 1010 87 10000 4.83 276 10:23 27.03.2022
4561 Clouds 6 1009 84 10000 5.04 279 07:55 27.03.2022
4562 Clouds 9 1007 77 10000 5.19 273 05:18 27.03.2022
4563 Rain 9 1007 86 10000 4.83 277 00:30 27.03.2022
4564 Clear 13 1004 62 10000 5.34 284 22:53 26.03.2022
4565 Clear 15 1003 52 10000 5.85 281 22:25 26.03.2022
4566 Clear 15 1003 52 10000 5.85 281 21:31 26.03.2022
4567 Clear 17 1004 41 10000 7.14 284 19:45 26.03.2022
4568 Clear 18 1003 37 10000 6.9 289 18:44 26.03.2022
4569 Clear 18 1004 36 10000 4.29 290 17:44 26.03.2022
4570 Clear 17 1005 42 10000 2.95 273 16:46 26.03.2022
4571 Clear 15 1006 48 10000 2.7 273 15:43 26.03.2022
4572 Clear 12 1007 63 10000 2.53 279 14:18 26.03.2022
4573 Clear 12 1007 63 10000 2.53 279 13:47 26.03.2022
4574 Clear 9 1008 72 10000 2.32 283 12:31 26.03.2022
4575 Clouds 8 1008 78 10000 2.33 283 10:49 26.03.2022
4576 Clouds 9 1009 72 10000 2.18 282 09:19 26.03.2022
4577 Clouds 10 1009 68 10000 2.04 281 07:34 26.03.2022
4578 Clouds 11 1010 60 10000 1.69 275 05:49 26.03.2022
4579 Clouds 12 1012 56 10000 1.02 278 02:34 26.03.2022
4580 Clouds 18 1012 41 10000 1.17 222 22:47 25.03.2022
4581 Clear 19 1013 32 10000 0.69 177 20:58 25.03.2022
4582 Clear 19 1014 32 10000 0.69 173 20:26 25.03.2022
4583 Clouds 18 1014 36 10000 0.66 182 19:19 25.03.2022
4584 Clouds 18 1014 36 10000 0.66 182 18:35 25.03.2022
4585 Clouds 16 1016 41 10000 0.39 140 17:30 25.03.2022
4586 Clouds 12 1018 57 10000 0.07 333 16:27 25.03.2022
4587 Clouds 12 1018 57 10000 0.07 333 15:34 25.03.2022
4588 Clouds 7 1021 83 10000 0.76 259 13:29 25.03.2022
4589 Clouds 6 1021 90 10000 1.34 277 11:21 25.03.2022
4590 Clouds 6 1021 90 10000 1.22 286 09:31 25.03.2022
4591 Clouds 7 1021 90 10000 1.55 275 08:49 25.03.2022
4592 Clouds 7 1022 90 10000 1.54 279 07:35 25.03.2022
4593 Clear 7 1022 90 10000 1.74 273 06:59 25.03.2022
4594 Clear 9 1023 87 10000 2.24 266 02:37 25.03.2022
4595 Clear 15 1020 59 10000 3.42 259 22:56 24.03.2022
4596 Clear 16 1020 52 10000 3.59 256 21:56 24.03.2022
4597 Clear 16 1020 49 10000 3.07 251 20:51 24.03.2022
4598 Clear 16 1021 48 10000 2.63 254 19:49 24.03.2022
4599 Clear 15 1021 46 10000 2.11 248 18:44 24.03.2022
4600 Clear 14 1022 47 10000 2.03 247 17:33 24.03.2022
4601 Clear 11 1023 52 10000 2.57 255 16:24 24.03.2022
4602 Clouds 9 1024 59 10000 2.96 258 14:51 24.03.2022
4603 Clouds 7 1025 70 10000 3 263 14:21 24.03.2022
4604 Clouds 6 1026 73 10000 2.91 260 13:31 24.03.2022
4605 Clouds 3 1025 93 10000 2.99 266 12:23 24.03.2022
4606 Clouds 4 1025 93 10000 3.19 270 10:32 24.03.2022
4607 Clouds 4 1024 92 10000 3.14 277 09:23 24.03.2022
4608 Clouds 5 1023 92 10000 3.45 276 07:42 24.03.2022
4609 Clouds 6 1023 86 10000 3.46 277 04:43 24.03.2022
4610 Clouds 6 1020 83 10000 3.95 263 23:38 23.03.2022
4611 Clouds 9 1016 63 10000 4.35 260 22:18 23.03.2022
4612 Clouds 10 1015 59 10000 4.7 264 21:20 23.03.2022
4613 Clouds 10 1014 58 10000 4.39 263 19:50 23.03.2022
4614 Clouds 10 1014 58 10000 4.13 255 19:25 23.03.2022
4615 Clouds 10 1013 59 10000 4.64 248 17:47 23.03.2022
4616 Clouds 9 1011 60 10000 4.56 255 16:55 23.03.2022
4617 Clouds 7 1009 64 10000 4.39 269 14:57 23.03.2022
4618 Clouds 7 1009 64 10000 4.39 269 14:38 23.03.2022
4619 Clouds 5 1008 82 10000 3.74 282 13:22 23.03.2022
4620 Clouds 5 1003 88 10000 4.14 283 10:20 23.03.2022
4621 Rain 6 1000 90 9548 4.2 269 07:44 23.03.2022
4622 Rain 9 997 85 5887 4.01 296 05:27 23.03.2022
4623 Clouds 11 998 63 10000 4.04 335 01:18 23.03.2022
4624 Clouds 12 1000 60 10000 4.02 317 00:23 23.03.2022
4625 Clouds 14 1001 48 10000 5.33 291 21:31 22.03.2022
4626 Clouds 15 1001 45 10000 5.48 294 20:51 22.03.2022
4627 Clouds 15 1002 45 10000 4.83 294 19:52 22.03.2022
4628 Clouds 15 1004 48 10000 4.59 293 19:25 22.03.2022
4629 Clouds 15 1004 48 10000 4.59 293 18:45 22.03.2022
4630 Clouds 14 1005 51 10000 4.7 293 17:42 22.03.2022
4631 Clouds 12 1007 56 10000 4.55 295 16:32 22.03.2022
4632 Clouds 10 1011 69 10000 3.6 296 15:23 22.03.2022
4633 Clouds 10 1011 69 10000 3.6 296 14:59 22.03.2022
4634 Clouds 10 1011 69 10000 3.6 296 14:41 22.03.2022
4635 Clouds 8 1012 77 10000 3.34 295 13:36 22.03.2022
4636 Clouds 5 1014 92 10000 3.01 292 11:52 22.03.2022
4637 Clouds 6 1014 91 10000 3.1 289 10:46 22.03.2022
4638 Clouds 6 1014 89 10000 3.32 277 08:38 22.03.2022
4639 Clouds 7 1015 91 10000 3.52 272 06:53 22.03.2022
4640 Clouds 8 1015 92 10000 3.75 269 03:52 22.03.2022
4641 Clouds 11 1012 81 10000 3.54 278 00:29 22.03.2022
4642 Clouds 12 1011 73 10000 3.91 277 22:42 21.03.2022
4643 Clouds 13 1010 67 10000 4.08 276 21:18 21.03.2022
4644 Clouds 13 1010 67 10000 4.08 276 21:18 21.03.2022
4645 Clouds 13 1010 67 10000 4.08 276 20:41 21.03.2022
4646 Clouds 14 1010 66 10000 3.86 268 19:59 21.03.2022
4647 Clouds 15 1009 55 10000 3.9 262 19:34 21.03.2022
4648 Clouds 15 1010 58 10000 3.43 264 18:36 21.03.2022
4649 Clouds 12 1012 73 10000 3.12 271 17:19 21.03.2022
4650 Clouds 12 1012 73 10000 3.12 271 16:51 21.03.2022
4651 Clouds 11 1012 76 10000 2.74 270 16:00 21.03.2022
4652 Clouds 11 1012 77 10000 2.51 266 15:20 21.03.2022
4653 Clouds 10 1012 81 10000 2.15 266 14:26 21.03.2022
4654 Rain 9 1012 88 10000 2.01 280 12:42 21.03.2022
4655 Rain 8 1012 92 10000 2.11 289 11:54 21.03.2022
4656 Clouds 8 1011 92 10000 2.04 275 10:44 21.03.2022
4657 Clouds 8 1011 90 10000 2.1 271 08:56 21.03.2022
4658 Clouds 9 1011 89 10000 2.02 268 06:57 21.03.2022
4659 Clouds 11 1009 83 10000 2.06 264 02:55 21.03.2022
4660 Clouds 13 1008 74 10000 2.38 263 00:35 21.03.2022
4661 Clouds 17 1007 49 10000 3.26 305 22:54 20.03.2022
4662 Clouds 18 1007 45 10000 2.93 307 21:56 20.03.2022
4663 Clouds 19 1007 43 10000 2.8 309 21:29 20.03.2022
4664 Clouds 19 1007 43 10000 2.8 309 20:43 20.03.2022
4665 Clouds 19 1007 42 10000 2.11 297 19:59 20.03.2022
4666 Clouds 19 1007 42 10000 2.11 297 19:34 20.03.2022
4667 Clouds 18 1007 43 10000 1.62 293 18:34 20.03.2022
4668 Clouds 18 1008 44 10000 1.57 268 17:35 20.03.2022
4669 Clouds 17 1009 47 10000 1.5 275 16:57 20.03.2022
4670 Clouds 15 1010 50 10000 1.23 292 15:35 20.03.2022
4671 Clouds 14 1011 55 10000 1.57 296 14:35 20.03.2022
4672 Clouds 11 1012 63 10000 1.43 294 12:42 20.03.2022
4673 Clouds 10 1012 68 10000 1.79 304 11:32 20.03.2022
4674 Clouds 10 1011 65 10000 1.9 322 09:30 20.03.2022
4675 Clouds 11 1012 62 10000 1.53 340 07:47 20.03.2022
4676 Clouds 13 1012 53 10000 1.15 351 05:48 20.03.2022
4677 Clouds 14 1014 46 10000 1.73 329 01:56 20.03.2022
4678 Clouds 15 1014 44 10000 2.26 317 00:47 20.03.2022
4679 Clouds 18 1013 36 10000 3.6 351 23:19 19.03.2022
4680 Clouds 19 1014 28 10000 5.33 21 21:28 19.03.2022
4681 Clouds 19 1014 28 10000 5.33 21 20:58 19.03.2022
4682 Clouds 18 1016 29 10000 4.04 31 18:58 19.03.2022
4683 Clouds 17 1018 28 10000 4.4 45 18:24 19.03.2022
4684 Clouds 17 1018 28 10000 4.4 45 17:35 19.03.2022
4685 Clouds 15 1019 28 10000 2.82 75 15:46 19.03.2022
4686 Clouds 13 1020 29 10000 2.55 82 14:57 19.03.2022
4687 Clouds 10 1022 44 10000 1.3 90 13:19 19.03.2022
4688 Clouds 10 1022 44 10000 1.3 90 13:19 19.03.2022
4689 Clouds 10 1021 43 10000 1.3 90 12:40 19.03.2022
4690 Clouds 8 1021 51 10000 1.11 104 11:54 19.03.2022
4691 Clouds 8 1021 51 10000 1.11 104 11:54 19.03.2022
4692 Clouds 8 1021 51 10000 1.11 104 11:54 19.03.2022
4693 Clouds 8 1021 53 10000 0.83 98 10:53 19.03.2022
4694 Clouds 8 1021 61 10000 0.68 120 07:33 19.03.2022
4695 Clouds 10 1021 55 10000 0.77 239 03:24 19.03.2022
4696 Clouds 10 1021 50 10000 1.28 269 02:29 19.03.2022
4697 Clouds 12 1020 41 10000 1.52 231 23:45 18.03.2022
4698 Clear 15 1019 28 10000 1.6 207 22:28 18.03.2022
4699 Clear 15 1019 28 10000 1.6 207 21:45 18.03.2022
4700 Clear 15 1020 26 10000 1.09 202 19:51 18.03.2022
4701 Clear 14 1020 28 10000 0.44 209 19:21 18.03.2022
4702 Clear 13 1021 31 10000 0.66 116 17:50 18.03.2022
4703 Clear 11 1023 36 10000 0.77 129 16:48 18.03.2022
4704 Clear 7 1025 51 10000 0.75 195 15:26 18.03.2022
4705 Clear 5 1026 60 10000 0.77 215 14:22 18.03.2022
4706 Clear 2 1026 80 10000 1.71 260 12:27 18.03.2022
4707 Clear 2 1026 81 10000 1.81 259 10:52 18.03.2022
4708 Clear 2 1025 81 10000 2.01 267 09:29 18.03.2022
4709 Clear 2 1025 81 10000 2.01 267 08:30 18.03.2022
4710 Clear 3 1025 78 10000 2.17 271 06:34 18.03.2022
4711 Clear 5 1025 73 10000 2.57 262 02:51 18.03.2022
4712 Clear 9 1021 57 10000 3.22 243 00:22 18.03.2022
4713 Clear 11 1019 47 10000 3.93 243 23:22 17.03.2022
4714 Clear 12 1018 42 10000 4.02 251 22:24 17.03.2022
4715 Clear 12 1018 42 10000 4.02 251 21:48 17.03.2022
4716 Clear 13 1017 40 10000 4.17 252 21:21 17.03.2022
4717 Clear 13 1017 40 10000 4.17 252 20:42 17.03.2022
4718 Clear 13 1017 38 10000 4.31 249 19:46 17.03.2022
4719 Clouds 13 1017 39 10000 4.61 243 18:57 17.03.2022
4720 Clouds 13 1017 39 10000 4.61 243 18:37 17.03.2022
4721 Clouds 12 1017 45 10000 4 245 16:48 17.03.2022
4722 Clouds 11 1016 52 10000 3.75 254 15:44 17.03.2022
4723 Clouds 10 1016 64 10000 3.73 264 15:23 17.03.2022
4724 Clouds 8 1016 74 10000 3.3 265 13:50 17.03.2022
4725 Clouds 7 1015 84 10000 2.85 276 12:49 17.03.2022
4726 Clouds 6 1014 93 10000 3.28 282 12:21 17.03.2022
4727 Clouds 6 1013 93 10000 3.8 281 11:25 17.03.2022
4728 Clouds 6 1013 94 8550 3.79 289 09:48 17.03.2022
4729 Clouds 6 1013 89 10000 3.76 288 08:31 17.03.2022
4730 Clouds 6 1013 86 10000 3.66 280 07:32 17.03.2022
4731 Clouds 6 1012 88 10000 3.1 274 05:47 17.03.2022
4732 Clouds 10 1007 76 10000 5.03 277 00:45 17.03.2022
4733 Rain 12 1005 80 10000 5.67 252 22:59 16.03.2022
4734 Rain 12 1005 80 10000 5.67 252 22:40 16.03.2022
4735 Rain 14 1003 66 10000 6.48 274 22:19 16.03.2022
4736 Rain 15 1003 62 10000 5.92 285 21:29 16.03.2022
4737 Clouds 17 1002 50 10000 5.88 287 19:26 16.03.2022
4738 Clouds 17 1002 50 10000 5.88 287 18:55 16.03.2022
4739 Clouds 17 1003 43 10000 6.84 297 18:20 16.03.2022
4740 Clouds 17 1003 43 10000 6.84 297 17:37 16.03.2022
4741 Clouds 17 1004 46 10000 5.68 297 16:50 16.03.2022
4742 Clouds 16 1005 55 10000 4.55 296 15:41 16.03.2022
4743 Clouds 13 1007 73 10000 3.57 281 13:44 16.03.2022
4744 Clouds 11 1008 83 10000 3.33 279 12:59 16.03.2022
4745 Clouds 9 1008 89 10000 3.45 283 11:44 16.03.2022
4746 Clouds 9 1008 88 10000 3.43 282 11:18 16.03.2022
4747 Clear 10 1009 86 10000 3.37 284 09:58 16.03.2022
4748 Clear 10 1009 84 10000 3.32 283 08:37 16.03.2022
4749 Clear 13 1012 68 10000 3.14 286 03:30 16.03.2022
4750 Clear 18 1011 48 10000 3.1 263 23:37 15.03.2022
4751 Clear 22 1010 35 10000 3.57 263 22:37 15.03.2022
4752 Clear 24 1010 26 10000 3.88 264 21:27 15.03.2022
4753 Clear 24 1011 28 10000 3.06 257 19:47 15.03.2022
4754 Clouds 24 1012 30 10000 2.5 254 18:35 15.03.2022
4755 Clouds 21 1014 43 10000 1.96 251 16:42 15.03.2022
4756 Clouds 19 1015 53 10000 1.95 255 15:44 15.03.2022
4757 Clouds 16 1016 63 10000 1.86 251 14:54 15.03.2022
4758 Clouds 14 1017 73 10000 1.68 254 13:57 15.03.2022
4759 Clouds 12 1018 82 10000 1.69 259 13:24 15.03.2022
4760 Clouds 10 1018 88 10000 1.61 255 11:34 15.03.2022
4761 Clouds 10 1018 88 10000 1.68 255 10:55 15.03.2022
4762 Clouds 11 1018 89 10000 2.16 264 09:29 15.03.2022
4763 Clouds 11 1019 89 10000 2.08 260 08:27 15.03.2022
4764 Clouds 11 1019 89 10000 2.08 260 07:38 15.03.2022
4765 Clear 11 1018 86 10000 2.16 261 06:32 15.03.2022
4766 Clouds 15 1018 77 10000 2.81 261 00:58 15.03.2022
4767 Clouds 17 1017 67 10000 3.11 254 23:30 14.03.2022
4768 Clouds 20 1016 54 10000 3.83 249 22:50 14.03.2022
4769 Clouds 21 1016 48 10000 4.15 250 21:53 14.03.2022
4770 Clouds 22 1016 45 10000 3.98 250 20:59 14.03.2022
4771 Clouds 21 1016 44 10000 3.92 247 20:28 14.03.2022
4772 Clouds 21 1016 44 10000 3.92 247 19:32 14.03.2022
4773 Clouds 20 1016 38 10000 3.72 250 17:58 14.03.2022
4774 Clouds 20 1016 38 10000 3.72 250 17:40 14.03.2022
4775 Clouds 19 1017 41 10000 3.46 246 16:33 14.03.2022
4776 Clouds 14 1018 56 10000 3.28 247 14:47 14.03.2022
4777 Clouds 10 1019 76 10000 2.61 252 13:29 14.03.2022
4778 Clouds 8 1019 79 10000 2.51 259 11:26 14.03.2022
4779 Clouds 8 1019 73 10000 2.54 248 09:57 14.03.2022
4780 Clouds 8 1019 73 10000 2.54 248 09:34 14.03.2022
4781 Clouds 9 1018 68 10000 2.49 249 08:57 14.03.2022
4782 Clouds 9 1018 64 10000 2.41 263 08:26 14.03.2022
4783 Clouds 11 1017 58 10000 2.63 253 06:19 14.03.2022
4784 Clouds 13 1018 61 10000 3.36 259 02:58 14.03.2022
4785 Clouds 13 1017 61 10000 3.44 257 01:36 14.03.2022
4786 Clouds 18 1015 41 10000 3.49 240 23:29 13.03.2022
4787 Clouds 20 1015 36 10000 3.73 249 21:41 13.03.2022
4788 Clouds 22 1014 29 10000 3.76 255 21:19 13.03.2022
4789 Clouds 22 1014 29 10000 3.76 255 20:46 13.03.2022
4790 Clouds 22 1015 24 10000 3.15 255 20:21 13.03.2022
4791 Clouds 22 1015 24 10000 3.15 255 19:41 13.03.2022
4792 Clouds 22 1015 23 10000 2.75 252 19:21 13.03.2022
4793 Clouds 22 1015 23 10000 2.75 252 18:41 13.03.2022
4794 Clouds 20 1016 24 10000 2.77 251 17:52 13.03.2022
4795 Clouds 20 1016 24 10000 2.77 251 17:33 13.03.2022
4796 Clouds 19 1017 26 10000 2.85 245 16:44 13.03.2022
4797 Clouds 17 1017 29 10000 2.84 272 16:20 13.03.2022
4798 Clouds 17 1017 29 10000 2.84 272 15:34 13.03.2022
4799 Clouds 13 1019 48 10000 2.43 255 13:53 13.03.2022
4800 Clouds 11 1019 60 10000 2.46 274 13:26 13.03.2022
4801 Clouds 9 1019 72 10000 2.56 273 12:20 13.03.2022
4802 Clouds 9 1019 72 10000 2.56 273 11:36 13.03.2022
4803 Clouds 10 1018 79 10000 2.55 277 10:48 13.03.2022
4804 Clouds 10 1019 85 10000 2.41 276 10:25 13.03.2022
4805 Clouds 10 1019 85 10000 2.41 276 09:41 13.03.2022
4806 Clouds 11 1019 88 10000 2.54 274 08:47 13.03.2022
4807 Clouds 11 1019 88 10000 2.51 275 07:47 13.03.2022
4808 Clouds 13 1019 76 10000 2.22 281 05:48 13.03.2022
4809 Clouds 15 1019 68 10000 2.13 269 02:50 13.03.2022
4810 Clouds 17 1018 60 10000 1.93 256 00:30 13.03.2022
4811 Clouds 21 1017 46 10000 1.68 225 22:44 12.03.2022
4812 Clouds 21 1017 41 10000 1.54 225 20:58 12.03.2022
4813 Clouds 21 1017 42 10000 0.9 218 19:56 12.03.2022
4814 Clouds 21 1017 42 10000 0.9 218 19:38 12.03.2022
4815 Clouds 19 1018 48 10000 1 102 18:27 12.03.2022
4816 Clouds 19 1018 48 10000 1 102 17:34 12.03.2022
4817 Clouds 16 1019 59 10000 1.15 145 16:24 12.03.2022
4818 Clouds 15 1019 68 10000 0.68 156 15:24 12.03.2022
4819 Clouds 15 1019 68 10000 0.68 156 14:50 12.03.2022
4820 Clouds 13 1019 79 10000 0.32 235 13:32 12.03.2022
4821 Clouds 10 1019 94 10000 0.77 161 11:56 12.03.2022
4822 Clouds 10 1019 94 10000 0.77 161 11:38 12.03.2022
4823 Clouds 10 1018 93 10000 1.48 201 10:58 12.03.2022
4824 Clouds 10 1018 93 10000 1.48 201 10:58 12.03.2022
4825 Clouds 10 1017 93 10000 1.7 239 09:45 12.03.2022
4826 Clouds 10 1016 92 10000 1.98 240 08:56 12.03.2022
4827 Clouds 11 1015 88 10000 2.48 243 07:20 12.03.2022
4828 Clear 15 1014 73 10000 2.59 259 02:36 12.03.2022
4829 Clear 19 1012 54 10000 2.41 251 23:56 11.03.2022
4830 Clear 19 1012 54 10000 2.41 251 23:56 11.03.2022
4831 Clear 22 1012 40 10000 2.21 246 22:56 11.03.2022
4832 Clear 23 1012 35 10000 1.95 241 21:35 11.03.2022
4833 Clear 23 1012 33 10000 1.76 236 20:54 11.03.2022
4834 Clear 23 1013 32 10000 1.63 234 20:29 11.03.2022
4835 Clear 23 1013 32 10000 1.63 234 19:42 11.03.2022
4836 Clear 22 1014 33 10000 1.4 235 19:20 11.03.2022
4837 Clear 20 1016 40 10000 0.52 241 17:29 11.03.2022
4838 Clear 18 1017 46 10000 0.34 278 16:27 11.03.2022
4839 Clear 18 1017 46 10000 0.34 278 15:53 11.03.2022
4840 Clear 14 1020 62 10000 0.65 265 14:19 11.03.2022
4841 Clear 12 1020 71 10000 0.72 293 12:44 11.03.2022
4842 Clear 9 1021 82 10000 0.88 319 12:20 11.03.2022
4843 Clear 9 1021 82 10000 0.88 319 11:43 11.03.2022
4844 Clear 9 1021 84 10000 0.95 295 09:39 11.03.2022
4845 Clear 10 1021 82 10000 0.95 296 08:40 11.03.2022
4846 Clouds 10 1021 82 10000 0.97 298 07:49 11.03.2022
4847 Clouds 11 1021 80 10000 0.94 317 06:59 11.03.2022
4848 Clouds 11 1022 78 10000 0.81 294 05:20 11.03.2022
4849 Clouds 12 1022 75 10000 0.74 256 02:45 11.03.2022
4850 Clouds 18 1020 46 10000 1.63 186 22:51 10.03.2022
4851 Clouds 18 1020 45 10000 1.82 197 22:27 10.03.2022
4852 Clouds 18 1020 44 10000 1.76 197 21:26 10.03.2022
4853 Clouds 18 1020 44 10000 1.76 197 20:39 10.03.2022
4854 Clouds 17 1020 48 10000 1.41 184 19:22 10.03.2022
4855 Clouds 16 1020 52 10000 1.03 205 18:18 10.03.2022
4856 Clouds 14 1021 57 10000 1.06 213 16:53 10.03.2022
4857 Clouds 13 1022 64 10000 1.34 228 15:34 10.03.2022
4858 Clouds 9 1024 81 10000 1.56 257 13:51 10.03.2022
4859 Clouds 7 1024 89 10000 1.75 262 12:43 10.03.2022
4860 Clouds 8 1023 94 10000 2.16 258 11:29 10.03.2022
4861 Clouds 8 1022 94 10000 2.3 270 09:43 10.03.2022
4862 Clouds 8 1022 95 10000 2.37 277 08:23 10.03.2022
4863 Clouds 9 1022 94 10000 2.89 273 05:32 10.03.2022
4864 Clouds 10 1022 85 10000 3.29 269 02:39 10.03.2022
4865 Clouds 11 1019 70 10000 4.13 270 23:37 09.03.2022
4866 Clouds 12 1017 56 10000 5.68 271 22:28 09.03.2022
4867 Clouds 12 1017 56 10000 5.68 271 21:47 09.03.2022
4868 Clouds 12 1016 55 10000 5.71 272 20:44 09.03.2022
4869 Clouds 10 1016 56 10000 6.03 268 18:50 09.03.2022
4870 Clouds 11 1016 60 10000 6.16 265 17:28 09.03.2022
4871 Clouds 11 1016 60 10000 6.16 265 16:39 09.03.2022
4872 Clouds 10 1017 64 10000 6.14 268 15:32 09.03.2022
4873 Clouds 8 1017 75 10000 5.12 277 14:19 09.03.2022
4874 Clouds 7 1017 83 10000 4.03 275 12:59 09.03.2022
4875 Clouds 7 1017 90 10000 3.79 279 12:20 09.03.2022
4876 Clouds 6 1017 90 10000 3.79 279 11:45 09.03.2022
4877 Clouds 6 1016 89 10000 3.85 279 10:49 09.03.2022
4878 Rain 6 1015 92 10000 4.2 273 09:22 09.03.2022
4879 Rain 6 1015 92 10000 4.2 273 08:42 09.03.2022
4880 Clouds 5 1013 81 10000 5.77 281 04:47 09.03.2022
4881 Rain 5 1010 86 10000 4.92 277 00:55 09.03.2022
4882 Rain 5 1007 82 10000 7.15 284 23:21 08.03.2022
4883 Rain 6 1007 82 10000 7.15 284 22:45 08.03.2022
4884 Rain 6 1004 77 10000 7.4 285 21:26 08.03.2022
4885 Rain 6 1004 77 10000 7.4 285 20:49 08.03.2022
4886 Rain 8 1003 83 2933 5.7 267 19:55 08.03.2022
4887 Rain 8 1002 74 10000 5.91 276 18:45 08.03.2022
4888 Rain 8 1002 83 8504 4.72 287 17:40 08.03.2022
4889 Rain 8 996 86 5130 3.56 298 16:29 08.03.2022
4890 Rain 7 997 81 6975 3.89 352 14:20 08.03.2022
4891 Rain 7 998 79 10000 4.24 5 12:44 08.03.2022
4892 Rain 7 1001 82 10000 3.93 335 11:45 08.03.2022
4893 Clouds 7 1001 83 10000 3.96 342 10:50 08.03.2022
4894 Clouds 7 1003 81 10000 3.95 330 09:57 08.03.2022
4895 Clouds 8 1006 84 10000 3.44 332 07:32 08.03.2022
4896 Clouds 7 1008 87 10000 3.06 317 05:43 08.03.2022
4897 Clouds 12 1009 61 10000 3.6 294 23:51 07.03.2022
4898 Clouds 14 1008 50 10000 5.21 291 21:59 07.03.2022
4899 Clouds 14 1008 50 10000 5.21 291 21:32 07.03.2022
4900 Clouds 14 1008 47 10000 5.13 290 20:48 07.03.2022
4901 Clouds 14 1009 46 10000 5.06 280 20:20 07.03.2022
4902 Clouds 16 1009 46 10000 5.06 280 19:31 07.03.2022
4903 Clouds 14 1009 49 10000 4.96 281 18:42 07.03.2022
4904 Clouds 13 1009 55 10000 4.66 281 17:48 07.03.2022
4905 Clouds 12 1010 62 10000 4.5 282 16:55 07.03.2022
4906 Clouds 11 1010 68 10000 4.18 281 15:50 07.03.2022
4907 Clouds 11 1010 83 10000 2.94 268 13:51 07.03.2022
4908 Clouds 9 1009 90 10000 2.92 269 12:27 07.03.2022
4909 Clouds 10 1009 91 10000 2.75 275 10:38 07.03.2022
4910 Clouds 10 1007 90 10000 2.33 270 08:57 07.03.2022
4911 Clouds 9 1004 86 10000 2.97 292 03:49 07.03.2022
4912 Rain 9 1002 80 10000 3.18 323 00:22 07.03.2022
4913 Rain 9 1002 80 10000 3.18 323 23:35 06.03.2022
4914 Rain 9 1002 77 10000 3.22 327 22:40 06.03.2022
4915 Rain 10 1001 75 10000 3.38 327 21:46 06.03.2022
4916 Clouds 10 1001 70 10000 3.55 311 20:31 06.03.2022
4917 Clouds 13 1000 61 10000 3.61 310 19:51 06.03.2022
4918 Clouds 10 1001 58 10000 3.96 321 18:52 06.03.2022
4919 Clouds 11 1001 59 10000 4.24 340 17:57 06.03.2022
4920 Clouds 11 1002 65 10000 3.68 345 17:21 06.03.2022
4921 Clouds 12 1002 65 10000 3.68 345 16:41 06.03.2022
4922 Clouds 11 1004 74 10000 2.36 341 15:45 06.03.2022
4923 Rain 9 1005 77 10000 2.23 309 14:49 06.03.2022
4924 Rain 9 1005 77 10000 2.23 309 14:30 06.03.2022
4925 Clouds 7 1005 76 10000 2.94 350 12:44 06.03.2022
4926 Clouds 6 1006 81 10000 2.79 351 11:56 06.03.2022
4927 Clouds 7 1006 79 10000 2.97 347 10:45 06.03.2022
4928 Clouds 7 1006 81 10000 2.78 330 09:34 06.03.2022
4929 Clouds 7 1008 80 10000 2.53 335 08:28 06.03.2022
4930 Clouds 8 1008 80 10000 2.53 335 07:33 06.03.2022
4931 Clouds 7 1010 78 10000 2.57 318 03:58 06.03.2022
4932 Clouds 10 1012 73 10000 2.72 274 00:42 06.03.2022
4933 Clouds 10 1012 62 10000 4.05 276 00:23 06.03.2022
4934 Clouds 10 1011 53 10000 4.91 284 23:19 05.03.2022
4935 Clouds 12 1011 53 10000 4.91 284 22:38 05.03.2022
4936 Clouds 14 1011 46 10000 4.77 284 21:31 05.03.2022
4937 Clouds 15 1011 44 10000 5 282 20:39 05.03.2022
4938 Clouds 14 1012 45 10000 4.44 286 19:23 05.03.2022
4939 Clouds 12 1012 45 10000 4.44 286 18:48 05.03.2022
4940 Clouds 11 1013 49 10000 3.39 289 17:35 05.03.2022
4941 Clouds 12 1015 62 10000 3.49 296 16:19 05.03.2022
4942 Clouds 10 1016 71 10000 3.05 304 15:20 05.03.2022
4943 Clouds 9 1016 71 10000 3.05 304 14:36 05.03.2022
4944 Clouds 8 1016 77 10000 2.52 303 13:44 05.03.2022
4945 Clouds 7 1017 84 10000 2.11 303 12:45 05.03.2022
4946 Clouds 7 1016 90 10000 2.26 290 11:21 05.03.2022
4947 Clouds 7 1016 90 10000 2.26 290 10:52 05.03.2022
4948 Clouds 8 1016 90 10000 2.59 282 09:33 05.03.2022
4949 Clouds 8 1016 90 10000 2.99 282 08:28 05.03.2022
4950 Clouds 7 1016 87 10000 3.27 283 07:21 05.03.2022
4951 Clouds 8 1015 79 10000 3.44 286 05:25 05.03.2022
4952 Clouds 9 1015 66 10000 3.84 263 00:32 05.03.2022
4953 Clouds 10 1014 56 10000 5.18 268 22:45 04.03.2022
4954 Clouds 10 1013 54 10000 6.33 266 22:25 04.03.2022
4955 Clouds 11 1013 54 10000 6.33 266 21:43 04.03.2022
4956 Clouds 13 1012 51 10000 7.83 273 20:39 04.03.2022
4957 Clouds 13 1011 50 10000 7.57 282 19:37 04.03.2022
4958 Clouds 12 1012 56 10000 6.61 290 18:54 04.03.2022
4959 Clouds 12 1012 56 10000 6.61 290 18:33 04.03.2022
4960 Clouds 10 1012 58 10000 6.86 283 17:29 04.03.2022
4961 Clouds 10 1013 62 10000 6.6 277 15:48 04.03.2022
4962 Clouds 10 1013 60 10000 5.94 276 14:45 04.03.2022
4963 Clouds 9 1013 67 10000 5.3 279 13:34 04.03.2022
4964 Clouds 7 1013 83 10000 4.39 289 11:59 04.03.2022
4965 Clouds 7 1013 89 10000 4.69 286 11:28 04.03.2022
4966 Clear 7 1013 91 10000 4.79 286 10:23 04.03.2022
4967 Clear 7 1013 88 10000 4.66 284 09:27 04.03.2022
4968 Clear 5 1013 83 10000 4.48 287 07:47 04.03.2022
4969 Clouds 9 1013 86 10000 4.07 286 05:44 04.03.2022
4970 Clouds 11 1009 75 10000 4.45 281 00:43 04.03.2022
4971 Clouds 12 1007 48 10000 6.21 277 23:28 03.03.2022
4972 Clouds 15 1006 51 10000 7.29 279 21:58 03.03.2022
4973 Clouds 15 1006 51 10000 7.29 279 21:35 03.03.2022
4974 Rain 13 1006 64 10000 5.6 273 20:27 03.03.2022
4975 Rain 16 1006 62 10000 5.56 257 19:22 03.03.2022
4976 Rain 12 1005 59 10000 6.63 269 18:25 03.03.2022
4977 Rain 12 1005 59 10000 6.63 269 17:31 03.03.2022
4978 Clouds 16 1004 56 10000 6.79 280 16:38 03.03.2022
4979 Clouds 16 1004 51 10000 6.14 294 15:43 03.03.2022
4980 Clouds 17 1004 54 10000 4.85 302 14:44 03.03.2022
4981 Clouds 17 1005 74 10000 3.74 306 14:25 03.03.2022
4982 Clouds 16 1007 88 10000 3.36 301 12:32 03.03.2022
4983 Clouds 13 1006 93 10000 2.88 315 10:58 03.03.2022
4984 Clouds 16 1007 92 10000 2.76 319 09:58 03.03.2022
4985 Clouds 15 1007 91 10000 2.73 309 08:42 03.03.2022
4986 Clouds 14 1008 90 10000 2.89 299 06:54 03.03.2022
4987 Clouds 15 1010 91 10000 2.61 298 05:22 03.03.2022
4988 Clouds 20 1010 63 10000 3.13 264 23:48 02.03.2022
4989 Clouds 22 1009 50 10000 3.69 270 22:54 02.03.2022
4990 Clouds 22 1009 50 10000 3.69 270 22:33 02.03.2022
4991 Clouds 21 1010 43 10000 4.15 274 20:59 02.03.2022
4992 Clouds 21 1010 45 10000 3.61 266 20:25 02.03.2022
4993 Clouds 23 1010 45 10000 3.61 266 19:38 02.03.2022
4994 Clouds 22 1011 49 10000 2.79 269 19:18 02.03.2022
4995 Clouds 20 1011 51 10000 2.5 267 18:31 02.03.2022
4996 Clouds 18 1012 56 10000 3.17 266 17:41 02.03.2022
4997 Clouds 17 1013 63 10000 3.56 266 16:52 02.03.2022
4998 Clouds 17 1014 68 10000 3.24 258 15:46 02.03.2022
4999 Clouds 13 1015 81 10000 3.03 285 14:29 02.03.2022
5000 Clouds 12 1015 86 10000 3.2 278 12:56 02.03.2022
5001 Clouds 12 1015 87 10000 3.3 281 12:34 02.03.2022
5002 Clouds 11 1014 92 10000 3.96 273 11:27 02.03.2022
5003 Clouds 12 1014 92 10000 3.96 273 10:39 02.03.2022
5004 Clouds 12 1014 92 10000 4.33 274 09:36 02.03.2022
5005 Clouds 12 1014 92 10000 4.06 274 08:36 02.03.2022
5006 Clouds 11 1013 92 10000 3.64 276 07:23 02.03.2022
5007 Clouds 13 1012 90 10000 2.89 287 04:51 02.03.2022
5008 Clouds 15 1009 86 10000 3.56 288 00:40 02.03.2022
5009 Clouds 16 1009 75 10000 5.35 280 23:27 01.03.2022
5010 Clouds 17 1009 75 10000 5.35 280 22:38 01.03.2022
5011 Clouds 18 1008 74 10000 5.71 292 21:44 01.03.2022
5012 Clouds 18 1007 70 10000 5.81 279 20:40 01.03.2022
5013 Clouds 18 1007 72 10000 5.8 284 20:19 01.03.2022
5014 Clouds 16 1006 74 10000 5.92 278 18:58 01.03.2022
5015 Clouds 16 1007 76 10000 5.22 282 18:24 01.03.2022
5016 Clouds 16 1007 76 10000 5.19 282 17:54 01.03.2022
5017 Clouds 15 1007 81 10000 4.15 282 16:37 01.03.2022
5018 Clouds 14 1007 80 10000 3.85 274 15:48 01.03.2022
5019 Clouds 12 1007 78 10000 3.65 278 14:54 01.03.2022
5020 Clouds 12 1007 78 10000 3.65 278 14:31 01.03.2022
5021 Clouds 11 1006 79 10000 5.72 282 13:26 01.03.2022
5022 Clouds 11 1007 80 10000 4.42 282 12:37 01.03.2022
5023 Clouds 10 1007 86 10000 4.98 282 11:35 01.03.2022
5024 Clouds 10 1007 88 10000 3.94 270 09:52 01.03.2022
5025 Clouds 10 1007 87 10000 4.09 277 08:25 01.03.2022
5026 Clouds 11 1008 84 10000 3.94 285 06:47 01.03.2022
5027 Clouds 11 1012 80 10000 4.72 314 03:26 01.03.2022
5028 Clouds 10 1013 75 10000 3.64 290 00:48 01.03.2022
5029 Clouds 10 1013 66 10000 4.61 289 23:39 28.02.2022
5030 Clouds 11 1013 58 10000 4.93 281 22:43 28.02.2022
5031 Clouds 11 1013 53 10000 5.71 279 21:47 28.02.2022
5032 Clouds 12 1013 50 10000 7.14 277 20:46 28.02.2022
5033 Clouds 14 1013 44 10000 7.56 271 19:51 28.02.2022
5034 Clouds 14 1013 39 10000 5.9 266 18:50 28.02.2022
5035 Clouds 13 1013 39 10000 5.73 265 17:43 28.02.2022
5036 Clouds 13 1014 42 10000 4.95 265 17:21 28.02.2022
5037 Clouds 12 1014 48 10000 4.45 264 16:21 28.02.2022
5038 Clouds 8 1015 57 10000 4.6 267 14:32 28.02.2022
5039 Clouds 9 1015 67 10000 4.91 270 13:53 28.02.2022
5040 Clouds 8 1015 77 10000 5.16 269 13:19 28.02.2022
5041 Clouds 8 1014 81 10000 5.34 268 11:59 28.02.2022
5042 Clouds 8 1013 80 10000 5.8 269 11:19 28.02.2022
5043 Clouds 8 1012 77 10000 6.38 270 10:22 28.02.2022
5044 Clouds 8 1012 77 10000 6.38 270 09:44 28.02.2022
5045 Clouds 9 1011 78 10000 6.66 268 08:54 28.02.2022
5046 Clouds 7 1009 76 10000 7.82 264 07:59 28.02.2022
5047 Clouds 8 1007 79 10000 11.26 269 05:54 28.02.2022
5048 Clouds 8 1006 76 10000 12.71 272 04:30 28.02.2022
5049 Clouds 8 1008 82 10000 13.14 269 00:52 28.02.2022
5050 Clear 8 1008 68 10000 12.51 274 22:45 27.02.2022
5051 Clear 8 1008 64 10000 13.01 275 22:26 27.02.2022
5052 Clear 9 1008 64 10000 13.01 275 21:37 27.02.2022
5053 Clear 9 1008 61 10000 12.87 277 20:43 27.02.2022
5054 Clear 9 1008 60 10000 12.49 276 20:18 27.02.2022
5055 Clear 11 1008 60 10000 12.49 276 19:43 27.02.2022
5056 Clouds 11 1008 60 10000 12.71 277 19:21 27.02.2022
5057 Clouds 12 1007 56 10000 11.68 278 18:24 27.02.2022
5058 Clouds 9 1007 56 10000 11.68 278 17:45 27.02.2022
5059 Clouds 7 1008 62 10000 10.31 275 16:23 27.02.2022
5060 Clouds 5 1008 71 10000 10.07 278 14:29 27.02.2022
5061 Rain 6 1008 85 10000 7.81 278 12:36 27.02.2022
5062 Rain 6 1008 92 10000 6.16 285 11:46 27.02.2022
5063 Rain 6 1007 96 377 5.1 271 10:36 27.02.2022
5064 Rain 7 1005 95 1893 4.89 272 09:58 27.02.2022
5065 Rain 7 1003 96 1766 3.57 300 09:23 27.02.2022
5066 Rain 7 1003 96 1766 3.57 300 08:45 27.02.2022
5067 Rain 7 1003 96 1766 3.57 300 08:45 27.02.2022
5068 Rain 10 1006 93 10000 3.65 282 05:45 27.02.2022
5069 Clouds 10 1006 74 10000 3.59 306 03:35 27.02.2022
5070 Clouds 12 1006 61 10000 4.22 297 23:52 26.02.2022
5071 Clouds 13 1006 52 10000 7.07 290 22:42 26.02.2022
5072 Clouds 14 1006 44 10000 7.81 284 21:27 26.02.2022
5073 Clouds 15 1006 44 10000 7.81 284 20:43 26.02.2022
5074 Clouds 16 1006 46 10000 7.44 286 19:56 26.02.2022
5075 Clouds 16 1006 46 10000 7.44 286 19:33 26.02.2022
5076 Clouds 14 1006 57 10000 7.2 284 18:33 26.02.2022
5077 Clouds 13 1006 66 10000 6.29 281 17:34 26.02.2022
5078 Clouds 11 1007 66 10000 6.36 284 16:39 26.02.2022
5079 Clouds 9 1007 65 10000 6.49 286 15:37 26.02.2022
5080 Clouds 9 1006 64 10000 5.43 284 15:18 26.02.2022
5081 Clouds 8 1006 64 10000 5.43 284 14:41 26.02.2022
5082 Clouds 12 1006 69 10000 4.13 283 13:51 26.02.2022
5083 Clouds 7 1007 78 10000 4.04 285 12:53 26.02.2022
5084 Clouds 7 1008 89 10000 2.89 294 11:50 26.02.2022
5085 Clouds 7 1008 91 10000 3.23 295 11:25 26.02.2022
5086 Clouds 7 1008 92 10000 3.59 288 09:31 26.02.2022
5087 Clouds 7 1008 87 10000 3.02 292 08:26 26.02.2022
5088 Clouds 9 1007 87 10000 2.49 297 04:23 26.02.2022
5089 Rain 13 1007 73 10000 3.29 289 23:50 25.02.2022
5090 Rain 16 1006 62 10000 2.96 304 22:31 25.02.2022
5091 Clouds 16 1006 49 10000 4.27 298 21:31 25.02.2022
5092 Clouds 18 1005 40 10000 3.89 291 20:47 25.02.2022
5093 Clouds 18 1006 39 10000 4.43 287 20:25 25.02.2022
5094 Clouds 17 1008 44 10000 3.6 269 17:54 25.02.2022
5095 Clouds 13 1009 50 10000 2.58 276 16:48 25.02.2022
5096 Clouds 12 1010 57 10000 2.25 287 15:50 25.02.2022
5097 Clouds 12 1010 67 10000 1.97 288 15:23 25.02.2022
5098 Clouds 11 1010 67 10000 1.97 288 14:55 25.02.2022
5099 Clouds 11 1011 77 10000 1.96 282 14:19 25.02.2022
5100 Clouds 12 1011 77 10000 1.96 282 13:30 25.02.2022
5101 Clouds 12 1011 91 10000 2.08 280 11:56 25.02.2022
5102 Clouds 12 1011 93 10000 2.42 278 11:20 25.02.2022
5103 Clouds 11 1010 92 10000 2.46 280 10:23 25.02.2022
5104 Clouds 10 1010 92 10000 2.46 280 09:42 25.02.2022
5105 Clouds 10 1010 92 10000 2.46 280 09:42 25.02.2022
5106 Clouds 10 1010 93 10000 2.77 283 07:53 25.02.2022
5107 Clouds 11 1010 88 10000 2.62 278 06:54 25.02.2022
5108 Clouds 11 1010 84 10000 2.63 275 05:40 25.02.2022
5109 Clouds 14 1009 68 10000 3.44 273 01:23 25.02.2022
5110 Clouds 14 1008 57 10000 4.8 271 22:31 24.02.2022
5111 Clouds 15 1008 57 10000 4.63 272 21:43 24.02.2022
5112 Clouds 15 1008 60 10000 4.49 276 21:21 24.02.2022
5113 Clouds 14 1008 60 10000 4.49 276 20:44 24.02.2022
5114 Clouds 16 1008 63 10000 4.47 274 19:31 24.02.2022
5115 Clouds 13 1009 67 10000 3.88 278 18:20 24.02.2022
5116 Clouds 13 1009 67 10000 3.88 278 17:54 24.02.2022
5117 Clouds 13 1009 68 10000 3.76 274 17:19 24.02.2022
5118 Clouds 13 1010 70 10000 3.38 274 16:28 24.02.2022
5119 Clouds 12 1010 70 10000 3.38 274 15:42 24.02.2022
5120 Clouds 12 1011 72 10000 2.79 269 14:45 24.02.2022
5121 Clouds 13 1011 76 10000 2.3 272 13:57 24.02.2022
5122 Clouds 13 1011 76 10000 2.3 272 13:35 24.02.2022
5123 Clouds 11 1011 83 10000 2.43 278 11:32 24.02.2022
5124 Clouds 11 1011 85 10000 2.82 275 10:31 24.02.2022
5125 Rain 12 1011 87 10000 3.19 269 08:43 24.02.2022
5126 Clouds 12 1011 83 10000 3.01 282 06:45 24.02.2022
5127 Clouds 13 1011 81 10000 2.54 280 05:40 24.02.2022
5128 Rain 18 1009 64 10000 1.33 309 00:30 24.02.2022
5129 Clouds 21 1009 48 10000 2.1 9 22:19 23.02.2022
5130 Clouds 22 1009 48 10000 2.25 1 20:44 23.02.2022
5131 Clouds 22 1009 46 10000 1.56 357 20:23 23.02.2022
5132 Clouds 22 1009 46 10000 1.56 357 19:34 23.02.2022
5133 Clouds 19 1010 45 10000 1.07 20 17:56 23.02.2022
5134 Clouds 17 1012 55 10000 0.74 54 16:27 23.02.2022
5135 Clouds 14 1014 69 10000 1.21 68 13:45 23.02.2022
5136 Clear 6 1014 76 10000 1.05 50 12:31 23.02.2022
5137 Clear 7 1014 89 10000 1.16 52 10:56 23.02.2022
5138 Clear 7 1014 87 10000 1.11 54 09:38 23.02.2022
5139 Clear 8 1014 85 10000 1.3 47 08:54 23.02.2022
5140 Clear 11 1015 83 10000 1.45 54 07:47 23.02.2022
5141 Clouds 14 1016 67 10000 2.9 61 02:23 23.02.2022
5142 Clouds 22 1014 52 10000 3.72 59 23:50 22.02.2022
5143 Clouds 22 1014 52 10000 3.72 59 23:31 22.02.2022
5144 Clouds 22 1014 42 10000 2.31 55 22:28 22.02.2022
5145 Clouds 21 1014 42 10000 2.31 55 21:44 22.02.2022
5146 Clouds 21 1014 41 10000 2.28 32 21:20 22.02.2022
5147 Clouds 20 1014 41 10000 2.28 32 20:31 22.02.2022
5148 Clouds 21 1015 42 10000 3.25 32 19:56 22.02.2022
5149 Clouds 21 1015 42 10000 3.25 32 19:33 22.02.2022
5150 Clear 18 1016 44 10000 2.22 40 18:35 22.02.2022
5151 Clear 16 1019 49 10000 3.25 50 17:27 22.02.2022
5152 Clear 15 1019 49 10000 3.25 50 16:55 22.02.2022
5153 Clear 15 1020 52 10000 3.42 50 16:20 22.02.2022
5154 Clear 14 1021 54 10000 3.54 54 15:21 22.02.2022
5155 Clear 12 1021 56 10000 3.08 61 14:19 22.02.2022
5156 Clear 9 1023 64 10000 2.15 67 11:18 22.02.2022
5157 Clear 9 1023 60 10000 2.08 65 09:22 22.02.2022
5158 Clear 9 1024 60 10000 2.14 76 07:29 22.02.2022
5159 Clear 10 1024 59 10000 2 74 06:54 22.02.2022
5160 Clear 9 1026 55 10000 2.2 74 02:49 22.02.2022
5161 Clouds 14 1025 45 10000 2.89 62 23:18 21.02.2022
5162 Clouds 13 1025 47 10000 3.01 63 21:56 21.02.2022
5163 Clouds 12 1026 50 10000 2.66 66 20:38 21.02.2022
5164 Clouds 11 1028 55 10000 2.02 63 18:47 21.02.2022
5165 Clouds 11 1029 57 10000 2.18 83 18:18 21.02.2022
5166 Clouds 10 1030 65 10000 2.98 85 15:49 21.02.2022
5167 Clouds 9 1030 72 10000 2.83 98 14:22 21.02.2022
5168 Clouds 9 1030 72 10000 2.83 98 13:31 21.02.2022
5169 Clouds 9 1030 76 10000 3.09 102 12:41 21.02.2022
5170 Clouds 9 1030 79 10000 2.9 105 12:20 21.02.2022
5171 Rain 9 1029 82 10000 2.88 101 10:26 21.02.2022
5172 Rain 11 1028 81 10000 3.04 110 05:40 21.02.2022
5173 Rain 12 1025 83 10000 3.3 121 00:30 21.02.2022
5174 Rain 12 1024 83 10000 2.78 120 22:30 20.02.2022
5175 Rain 12 1023 85 10000 2.3 114 21:43 20.02.2022
5176 Rain 12 1023 87 10000 2.93 109 21:19 20.02.2022
5177 Rain 12 1023 87 10000 2.93 109 20:42 20.02.2022
5178 Rain 12 1022 85 9909 3.12 114 19:42 20.02.2022
5179 Rain 13 1022 84 10000 2.32 118 18:54 20.02.2022
5180 Rain 12 1021 88 6785 2.27 118 18:34 20.02.2022
5181 Rain 13 1021 87 5662 2.69 108 17:53 20.02.2022
5182 Rain 12 1020 91 8675 1.89 145 16:18 20.02.2022
5183 Rain 11 1020 94 4867 2.3 188 14:52 20.02.2022
5184 Rain 11 1020 96 2448 2.57 192 13:53 20.02.2022
5185 Rain 11 1019 93 10000 1.93 197 12:34 20.02.2022
5186 Rain 10 1018 93 10000 2.08 216 10:47 20.02.2022
5187 Rain 11 1017 95 10000 2.12 210 10:20 20.02.2022
5188 Rain 11 1017 93 10000 2.57 214 08:56 20.02.2022
5189 Rain 13 1014 89 10000 2.7 234 00:55 20.02.2022
5190 Rain 13 1015 89 10000 3.62 253 00:30 20.02.2022
5191 Rain 14 1013 81 10000 1.48 78 23:18 19.02.2022
5192 Rain 15 1012 77 4834 1.78 14 22:23 19.02.2022
5193 Rain 15 1012 77 4834 1.78 14 21:34 19.02.2022
5194 Rain 21 1010 41 10000 2.17 248 19:54 19.02.2022
5195 Rain 21 1010 41 10000 2.17 248 19:33 19.02.2022
5196 Clouds 21 1011 42 10000 2.44 248 18:35 19.02.2022
5197 Clouds 20 1011 44 10000 1.88 255 17:37 19.02.2022
5198 Clouds 17 1013 57 10000 1.82 278 16:28 19.02.2022
5199 Clouds 15 1014 66 10000 1.93 278 15:18 19.02.2022
5200 Clouds 15 1014 66 10000 1.93 278 14:49 19.02.2022
5201 Clouds 14 1014 76 10000 1.63 275 13:45 19.02.2022
5202 Clouds 11 1015 92 10000 1.9 283 11:38 19.02.2022
5203 Clouds 10 1014 95 10000 2.31 272 09:55 19.02.2022
5204 Clear 10 1015 93 10000 2.47 265 06:54 19.02.2022
5205 Clear 16 1014 89 10000 2.95 260 03:54 19.02.2022
5206 Clouds 19 1011 54 10000 4.06 243 23:33 18.02.2022
5207 Clouds 18 1009 41 10000 5.34 233 21:50 18.02.2022
5208 Clear 19 1009 36 10000 5.23 231 20:51 18.02.2022
5209 Clear 23 1009 33 10000 4.3 229 19:53 18.02.2022
5210 Clear 18 1009 29 10000 3.17 231 18:50 18.02.2022
5211 Clear 18 1010 26 10000 2.78 234 18:22 18.02.2022
5212 Clear 16 1010 26 10000 2.78 234 17:50 18.02.2022
5213 Clear 12 1012 26 10000 2.51 244 14:50 18.02.2022
5214 Clear 12 1012 26 10000 2.51 244 14:50 18.02.2022
5215 Clear 13 1013 32 10000 2.54 249 13:55 18.02.2022
5216 Clear 7 1014 39 10000 2.39 258 12:53 18.02.2022
5217 Clear 6 1015 50 10000 2.36 268 11:58 18.02.2022
5218 Clear 6 1014 53 10000 2.47 269 11:22 18.02.2022
5219 Clear 7 1014 52 10000 2.76 267 09:52 18.02.2022
5220 Clear 10 1013 55 10000 2.71 267 06:54 18.02.2022
5221 Clear 11 1013 59 10000 2.71 266 05:39 18.02.2022
5222 Clear 26 1009 21 10000 3.84 238 22:57 17.02.2022
5223 Clear 25 1009 17 10000 3.29 242 21:44 17.02.2022
5224 Clear 24 1009 15 10000 2.33 239 20:59 17.02.2022
5225 Clear 24 1009 15 10000 2.33 239 20:34 17.02.2022
5226 Clear 26 1010 14 10000 1.77 230 19:48 17.02.2022
5227 Clear 20 1011 14 10000 1.64 232 18:38 17.02.2022
5228 Clear 23 1012 14 10000 1.48 234 17:48 17.02.2022
5229 Clear 19 1014 19 10000 1.24 246 16:20 17.02.2022
5230 Clear 19 1014 19 10000 1.24 246 16:20 17.02.2022
5231 Clear 12 1015 25 10000 1.08 249 15:26 17.02.2022
5232 Clear 9 1016 34 10000 0.93 258 14:20 17.02.2022
5233 Clear 3 1018 60 10000 1.34 270 12:24 17.02.2022
5234 Clear 3 1018 70 10000 1.68 262 11:21 17.02.2022
5235 Clear 4 1019 75 10000 1.55 285 08:38 17.02.2022
5236 Clouds 17 1018 35 10000 2.9 240 00:29 17.02.2022
5237 Clouds 19 1017 29 10000 3.01 238 22:39 16.02.2022
5238 Clouds 18 1017 25 10000 3.21 235 20:39 16.02.2022
5239 Clouds 21 1017 25 10000 2.88 241 19:32 16.02.2022
5240 Clouds 20 1017 29 10000 2.71 242 18:35 16.02.2022
5241 Clouds 19 1018 33 10000 2.39 258 17:34 16.02.2022
5242 Clouds 13 1019 62 10000 2.96 258 15:26 16.02.2022
5243 Clouds 12 1019 62 10000 2.96 258 14:46 16.02.2022
5244 Clouds 8 1020 76 10000 2.61 257 12:32 16.02.2022
5245 Clouds 7 1020 88 10000 2.56 254 11:51 16.02.2022
5246 Clouds 8 1018 90 10000 2.86 255 10:37 16.02.2022
5247 Clouds 8 1016 91 10000 3.09 251 10:18 16.02.2022
5248 Clouds 10 1014 83 10000 2.93 262 06:44 16.02.2022
5249 Rain 12 1011 78 10000 4.52 257 02:48 16.02.2022
5250 Clouds 17 1008 50 10000 5.9 288 22:34 15.02.2022
5251 Clouds 19 1007 42 10000 7.51 281 21:51 15.02.2022
5252 Clouds 19 1007 42 10000 7.51 281 21:31 15.02.2022
5253 Clouds 20 1007 35 10000 8.08 276 20:58 15.02.2022
5254 Clouds 20 1007 32 10000 7.41 274 20:27 15.02.2022
5255 Clouds 22 1007 32 10000 7.41 274 19:46 15.02.2022
5256 Clouds 19 1006 28 10000 7.09 286 18:27 15.02.2022
5257 Clouds 18 1006 28 10000 7.09 286 17:55 15.02.2022
5258 Clouds 18 1006 28 10000 7.09 286 17:37 15.02.2022
5259 Clouds 17 1008 29 10000 3.5 275 15:43 15.02.2022
5260 Clouds 16 1009 30 10000 2.8 271 14:31 15.02.2022
5261 Clouds 13 1010 30 10000 2.45 279 13:25 15.02.2022
5262 Clouds 8 1011 32 10000 2.36 286 11:41 15.02.2022
5263 Clear 8 1011 32 10000 2.41 287 10:30 15.02.2022
5264 Clear 9 1011 33 10000 2.52 281 08:48 15.02.2022
5265 Clouds 10 1011 32 10000 2.56 279 06:46 15.02.2022
5266 Clouds 23 1010 24 10000 3.59 251 23:35 14.02.2022
5267 Clouds 25 1009 18 10000 4.31 254 21:57 14.02.2022
5268 Clouds 21 1009 16 10000 4.82 253 20:53 14.02.2022
5269 Clouds 26 1009 14 10000 5.02 255 19:49 14.02.2022
5270 Clouds 26 1009 14 10000 4.82 260 19:29 14.02.2022
5271 Clouds 25 1009 15 10000 3.93 261 18:23 14.02.2022
5272 Clouds 23 1010 24 10000 2.87 257 17:28 14.02.2022
5273 Clouds 20 1010 24 10000 2.87 257 16:33 14.02.2022
5274 Clouds 15 1011 43 10000 2.46 263 14:43 14.02.2022
5275 Clouds 17 1012 52 10000 2.33 263 13:34 14.02.2022
5276 Clouds 9 1012 59 10000 2.14 278 12:58 14.02.2022
5277 Clouds 10 1013 68 10000 1.84 273 11:57 14.02.2022
5278 Clouds 10 1013 68 10000 1.84 273 11:38 14.02.2022
5279 Clouds 12 1012 75 10000 1.91 274 09:37 14.02.2022
5280 Clear 13 1011 75 10000 1.9 264 07:37 14.02.2022
5281 Clouds 14 1011 74 10000 2.57 271 07:19 14.02.2022
5282 Clear 29 1006 25 10000 5.27 243 22:48 13.02.2022
5283 Clear 29 1005 23 10000 6.82 248 22:29 13.02.2022
5284 Clear 30 1005 23 10000 6.82 248 21:48 13.02.2022
5285 Clear 31 1005 22 10000 7.61 253 20:42 13.02.2022
5286 Clear 31 1005 21 10000 7.05 250 19:57 13.02.2022
5287 Clear 28 1006 21 10000 5.5 251 18:57 13.02.2022
5288 Clear 28 1006 21 10000 5.5 251 18:38 13.02.2022
5289 Clear 29 1007 24 10000 2.73 256 16:40 13.02.2022
5290 Clear 18 1008 25 10000 2.21 251 15:42 13.02.2022
5291 Clear 16 1009 28 10000 1.78 256 14:37 13.02.2022
5292 Clear 8 1011 37 10000 1.39 272 12:52 13.02.2022
5293 Clear 8 1011 45 10000 1.41 269 12:33 13.02.2022
5294 Clear 10 1011 61 10000 1.46 281 10:38 13.02.2022
5295 Clear 10 1011 59 10000 1.4 276 09:49 13.02.2022
5296 Clear 16 1011 55 10000 1.11 281 07:54 13.02.2022
5297 Clouds 27 1012 31 10000 0.41 189 00:49 13.02.2022
5298 Clouds 27 1012 25 10000 1.08 183 00:20 13.02.2022
5299 Clouds 29 1012 18 10000 1.33 168 22:34 12.02.2022
5300 Clouds 29 1012 18 10000 1.29 169 21:40 12.02.2022
5301 Clouds 29 1012 18 10000 1.24 165 20:52 12.02.2022
5302 Clouds 29 1013 18 10000 1.16 156 19:48 12.02.2022
5303 Clouds 28 1014 19 10000 1.2 144 18:53 12.02.2022
5304 Clouds 28 1014 18 10000 0.86 131 18:35 12.02.2022
5305 Clouds 27 1015 20 10000 0.68 120 17:38 12.02.2022
5306 Clouds 25 1016 22 10000 0.71 112 16:44 12.02.2022
5307 Clouds 23 1017 26 10000 0.69 105 15:52 12.02.2022
5308 Clouds 20 1018 32 10000 0.36 102 15:20 12.02.2022
5309 Clouds 18 1019 40 10000 0.08 70 14:25 12.02.2022
5310 Clouds 18 1019 40 10000 0.08 70 14:25 12.02.2022
5311 Clouds 9 1020 70 10000 1.01 273 11:20 12.02.2022
5312 Clouds 10 1020 70 10000 1.18 277 10:28 12.02.2022
5313 Clouds 10 1020 70 10000 1.18 277 09:33 12.02.2022
5314 Clouds 10 1020 71 10000 1.29 265 08:46 12.02.2022
5315 Clouds 11 1021 71 10000 1.41 272 06:46 12.02.2022
5316 Clouds 12 1021 61 10000 1.39 276 04:38 12.02.2022
5317 Clouds 15 1021 43 10000 1.76 256 02:19 12.02.2022
5318 Clouds 21 1019 22 10000 1.45 217 23:20 11.02.2022
5319 Clouds 22 1019 21 10000 1.76 213 22:20 11.02.2022
5320 Clouds 21 1019 20 10000 1.63 217 21:18 11.02.2022
5321 Clear 20 1019 19 10000 1.86 210 20:21 11.02.2022
5322 Clear 20 1020 19 10000 1.46 208 19:27 11.02.2022
5323 Clear 17 1021 22 10000 0.3 196 18:29 11.02.2022
5324 Clear 15 1022 26 10000 0.47 159 17:26 11.02.2022
5325 Clear 13 1023 32 10000 0.25 143 16:26 11.02.2022
5326 Clear 8 1024 42 10000 0.51 209 14:59 11.02.2022
5327 Clear 8 1024 42 10000 0.51 209 14:37 11.02.2022
5328 Clear 8 1025 54 10000 0.57 218 14:18 11.02.2022
5329 Clear 9 1025 54 10000 0.57 218 13:39 11.02.2022
5330 Clear 2 1026 78 10000 0.81 259 12:20 11.02.2022
5331 Clear 1 1024 87 10000 1.52 248 10:29 11.02.2022
5332 Clear 3 1024 87 10000 1.46 255 09:19 11.02.2022
5333 Clear 3 1023 85 10000 1.69 262 08:28 11.02.2022
5334 Clear 4 1023 83 10000 1.82 264 07:34 11.02.2022
5335 Clear 10 1021 60 10000 3 254 02:40 11.02.2022
5336 Clear 10 1019 54 10000 3.03 251 02:20 11.02.2022
5337 Clear 14 1015 34 10000 3.8 233 23:36 10.02.2022
5338 Clear 16 1014 29 10000 4.73 226 21:53 10.02.2022
5339 Clear 16 1013 27 10000 5.23 232 21:24 10.02.2022
5340 Clear 16 1013 27 10000 5.23 232 20:48 10.02.2022
5341 Clear 17 1013 24 10000 5.82 237 19:26 10.02.2022
5342 Clear 15 1013 24 10000 5.82 237 18:47 10.02.2022
5343 Clear 15 1013 22 10000 5.02 247 17:27 10.02.2022
5344 Clear 12 1013 22 10000 5.02 247 16:57 10.02.2022
5345 Clear 13 1014 30 10000 3.69 256 15:59 10.02.2022
5346 Clear 13 1014 30 10000 3.69 256 15:33 10.02.2022
5347 Clear 11 1016 44 10000 3.31 258 14:49 10.02.2022
5348 Clear 11 1017 55 10000 3.06 260 14:26 10.02.2022
5349 Clear 9 1017 55 10000 3.06 260 13:30 10.02.2022
5350 Clouds 8 1018 67 10000 2.86 261 12:51 10.02.2022
5351 Clouds 9 1017 78 10000 2.87 267 11:34 10.02.2022
5352 Clouds 9 1017 83 10000 2.75 261 10:56 10.02.2022
5353 Clouds 9 1016 84 10000 3.3 240 10:18 10.02.2022
5354 Clouds 9 1015 86 10000 3.23 237 09:25 10.02.2022
5355 Clouds 7 1014 90 10000 3.07 242 07:36 10.02.2022
5356 Clouds 11 1012 87 10000 2.98 263 04:58 10.02.2022
5357 Clouds 14 1010 58 10000 3.13 254 01:51 10.02.2022
5358 Clouds 16 1008 47 10000 3.34 251 00:49 10.02.2022
5359 Clouds 16 1008 35 10000 4.24 251 00:28 10.02.2022
5360 Clouds 17 1007 28 10000 4.39 256 23:23 09.02.2022
5361 Clouds 18 1007 28 10000 4.39 256 22:35 09.02.2022
5362 Clouds 20 1007 26 10000 4.31 252 21:51 09.02.2022
5363 Clouds 20 1007 24 10000 4.7 248 21:29 09.02.2022
5364 Clouds 20 1007 24 10000 4.7 248 20:47 09.02.2022
5365 Clouds 20 1007 25 10000 4.96 249 20:27 09.02.2022
5366 Clouds 24 1007 25 10000 4.96 249 19:46 09.02.2022
5367 Clouds 24 1007 26 10000 4.69 248 19:27 09.02.2022
5368 Clouds 20 1008 29 10000 3.55 253 17:37 09.02.2022
5369 Clouds 17 1009 27 10000 2.82 253 16:34 09.02.2022
5370 Clouds 15 1011 26 10000 2.56 254 15:40 09.02.2022
5371 Clouds 13 1012 34 10000 2.34 260 14:28 09.02.2022
5372 Clouds 10 1014 42 10000 2.16 265 12:28 09.02.2022
5373 Clouds 10 1014 43 10000 2.24 270 10:47 09.02.2022
5374 Clouds 10 1014 45 10000 2.28 265 10:26 09.02.2022
5375 Clouds 9 1014 50 10000 2.46 266 09:23 09.02.2022
5376 Clouds 10 1014 50 10000 2.46 266 08:58 09.02.2022
5377 Clouds 10 1014 56 10000 2.49 273 07:34 09.02.2022
5378 Clouds 12 1015 57 10000 2.73 268 05:30 09.02.2022
5379 Clouds 12 1015 57 10000 2.73 268 05:30 09.02.2022
5380 Clear 16 1015 56 10000 3.01 266 03:50 09.02.2022
5381 Clouds 20 1012 30 10000 3.23 243 00:21 09.02.2022
5382 Clouds 21 1012 26 10000 3.48 247 23:29 08.02.2022
5383 Clouds 22 1012 26 10000 3.48 247 22:43 08.02.2022
5384 Clouds 22 1012 24 10000 3.47 251 22:20 08.02.2022
5385 Clouds 21 1012 24 10000 3.47 251 21:38 08.02.2022
5386 Clouds 21 1012 23 10000 3.57 252 21:19 08.02.2022
5387 Clouds 23 1012 23 10000 3.57 252 20:41 08.02.2022
5388 Clouds 24 1013 24 10000 3.51 253 19:41 08.02.2022
5389 Clouds 22 1013 32 10000 3.6 253 18:24 08.02.2022
5390 Clouds 21 1013 32 10000 3.6 253 17:33 08.02.2022
5391 Clouds 17 1015 46 10000 3.97 263 15:52 08.02.2022
5392 Clouds 17 1015 56 10000 4.02 259 15:28 08.02.2022
5393 Clouds 17 1015 66 10000 3.95 263 13:54 08.02.2022
5394 Clouds 14 1015 70 10000 3.28 265 12:39 08.02.2022
5395 Clouds 13 1015 67 10000 3.01 275 10:55 08.02.2022
5396 Clouds 13 1014 62 10000 3.29 273 09:50 08.02.2022
5397 Clouds 14 1013 59 10000 3.04 277 08:53 08.02.2022
5398 Clouds 17 1013 57 10000 3.16 298 06:50 08.02.2022
5399 Clouds 17 1014 56 10000 2.89 278 04:40 08.02.2022
5400 Clouds 17 1013 51 10000 3.2 282 04:22 08.02.2022
5401 Clouds 17 1013 51 10000 3.2 282 03:36 08.02.2022
5402 Clouds 17 1013 48 10000 3.33 282 03:18 08.02.2022
5403 Clouds 18 1013 48 10000 3.33 282 02:59 08.02.2022
5404 Clouds 18 1013 48 10000 3.33 282 02:36 08.02.2022
5405 Clouds 18 1012 44 10000 3.55 278 02:18 08.02.2022
5406 Clouds 18 1012 44 10000 3.55 278 01:44 08.02.2022
5407 Clouds 20 1011 37 10000 3.59 278 01:25 08.02.2022
5408 Clouds 22 1011 37 10000 3.59 278 00:55 08.02.2022
5409 Clouds 22 1010 26 10000 4.85 283 00:21 08.02.2022
5410 Clouds 24 1010 26 10000 4.85 283 23:44 07.02.2022
5411 Clouds 24 1010 26 10000 4.85 283 23:44 07.02.2022
5412 Clouds 24 1009 20 10000 5.89 282 23:18 07.02.2022
5413 Clouds 26 1009 20 10000 5.89 282 22:59 07.02.2022
5414 Clouds 26 1009 20 10000 7.44 277 22:19 07.02.2022
5415 Clouds 27 1009 20 10000 7.44 277 21:50 07.02.2022
5416 Clouds 27 1008 18 10000 6.37 278 21:27 07.02.2022
5417 Clouds 28 1008 18 10000 6.37 278 20:45 07.02.2022
5418 Clouds 29 1008 16 10000 5.2 281 20:27 07.02.2022
5419 Clouds 29 1008 16 10000 5.2 281 19:47 07.02.2022
5420 Clear 26 1009 16 10000 4.21 281 18:35 07.02.2022
5421 Clear 23 1011 21 10000 2.28 269 17:18 07.02.2022
5422 Clear 20 1011 21 10000 2.28 269 16:46 07.02.2022
5423 Clear 17 1012 27 10000 2.13 264 15:48 07.02.2022
5424 Clear 20 1013 43 10000 1.83 267 13:51 07.02.2022
5425 Clear 18 1014 51 10000 1.86 275 13:26 07.02.2022
5426 Clear 8 1014 61 10000 1.82 283 11:58 07.02.2022
5427 Clear 8 1014 61 10000 1.82 283 11:38 07.02.2022
5428 Clear 8 1013 68 10000 1.91 280 10:54 07.02.2022
5429 Clear 8 1013 68 10000 1.91 280 10:36 07.02.2022
5430 Clear 8 1013 66 10000 1.9 279 09:53 07.02.2022
5431 Clear 8 1013 64 10000 1.91 275 09:18 07.02.2022
5432 Clear 10 1013 64 10000 1.91 275 08:44 07.02.2022
5433 Clouds 15 1013 62 10000 1.74 276 07:34 07.02.2022
5434 Clear 11 1013 61 10000 1.63 273 06:34 07.02.2022
5435 Clear 15 1014 54 10000 2.17 265 04:18 07.02.2022
5436 Clouds 26 1012 40 10000 2.72 244 00:54 07.02.2022
5437 Clouds 27 1011 29 10000 2.84 243 23:50 06.02.2022
5438 Clouds 27 1011 29 10000 2.84 243 23:50 06.02.2022
5439 Clouds 27 1011 24 10000 2.51 250 23:19 06.02.2022
5440 Clouds 27 1011 24 10000 2.51 250 22:34 06.02.2022
5441 Clouds 27 1011 22 10000 1.82 259 21:36 06.02.2022
5442 Clouds 26 1011 22 10000 1.11 266 20:58 06.02.2022
5443 Clouds 26 1011 22 10000 1.11 266 20:36 06.02.2022
5444 Clouds 27 1012 23 10000 0.5 279 19:45 06.02.2022
5445 Clear 23 1013 24 10000 0.13 32 18:48 06.02.2022
5446 Clear 23 1013 27 10000 0.18 131 18:24 06.02.2022
5447 Clear 21 1014 30 10000 0.43 94 17:26 06.02.2022
5448 Clear 18 1014 30 10000 0.43 94 16:48 06.02.2022
5449 Clear 16 1015 35 10000 0.68 85 15:50 06.02.2022
5450 Clear 16 1016 40 10000 0.42 119 15:27 06.02.2022
5451 Clear 13 1016 40 10000 0.42 119 14:47 06.02.2022
5452 Clouds 15 1018 58 10000 0.23 208 13:28 06.02.2022
5453 Clouds 6 1017 58 10000 0.33 223 12:59 06.02.2022
5454 Clouds 7 1018 67 10000 0.31 278 11:38 06.02.2022
5455 Clouds 7 1018 77 10000 0.69 260 10:31 06.02.2022
5456 Clouds 7 1018 77 10000 0.69 260 10:31 06.02.2022
5457 Clouds 8 1018 75 10000 1.24 251 09:25 06.02.2022
5458 Clouds 9 1018 75 10000 1.24 251 08:40 06.02.2022
5459 Clouds 12 1018 63 10000 1.41 257 05:36 06.02.2022
5460 Clouds 15 1018 54 10000 2.23 255 03:18 06.02.2022
5461 Clouds 16 1017 50 10000 2.5 248 02:24 06.02.2022
5462 Clouds 21 1016 32 10000 3.06 238 00:29 06.02.2022
5463 Clouds 23 1015 27 10000 4.01 232 22:36 05.02.2022
5464 Clouds 24 1015 25 10000 3.62 232 21:32 05.02.2022
5465 Clouds 23 1016 25 10000 2.52 224 20:25 05.02.2022
5466 Clouds 24 1016 25 10000 2.52 224 19:48 05.02.2022
5467 Clear 22 1017 26 10000 1.8 221 18:59 05.02.2022
5468 Clear 20 1017 30 10000 1.73 228 17:45 05.02.2022
5469 Clear 20 1018 35 10000 1.76 234 17:25 05.02.2022
5470 Clear 15 1019 42 10000 1.63 243 15:40 05.02.2022
5471 Clear 15 1020 51 10000 1.39 251 15:21 05.02.2022
5472 Clear 7 1021 68 10000 0.81 255 12:47 05.02.2022
5473 Clear 7 1022 76 10000 0.68 268 12:27 05.02.2022
5474 Clear 7 1022 86 10000 0.94 253 10:48 05.02.2022
5475 Clear 7 1021 83 10000 0.94 246 10:20 05.02.2022
5476 Clear 8 1021 83 10000 0.94 246 09:43 05.02.2022
5477 Clear 12 1021 78 10000 0.26 189 07:51 05.02.2022
5478 Clear 12 1021 78 10000 0.26 189 07:51 05.02.2022
5479 Clouds 10 1020 64 10000 0.69 191 06:57 05.02.2022
5480 Clouds 13 1020 54 10000 1.28 138 04:29 05.02.2022
5481 Clouds 18 1017 44 10000 3.03 161 01:19 05.02.2022
5482 Clouds 21 1017 44 10000 3.03 161 00:52 05.02.2022
5483 Clouds 22 1016 33 10000 2.23 195 23:41 04.02.2022
5484 Clouds 22 1016 30 10000 1.56 189 23:23 04.02.2022
5485 Clouds 21 1016 29 10000 2.28 202 21:54 04.02.2022
5486 Clouds 21 1016 29 10000 2.28 202 21:36 04.02.2022
5487 Clouds 21 1016 29 10000 2.23 231 21:18 04.02.2022
5488 Clouds 21 1016 32 10000 1.93 252 19:39 04.02.2022
5489 Clouds 18 1017 40 10000 1.41 220 17:40 04.02.2022
5490 Clouds 15 1018 55 10000 1.38 191 15:39 04.02.2022
5491 Clouds 13 1018 64 10000 1.61 204 14:52 04.02.2022
5492 Clouds 13 1018 79 10000 1.91 214 13:24 04.02.2022
5493 Clouds 10 1018 79 10000 1.91 214 12:42 04.02.2022
5494 Clouds 10 1017 82 10000 1.74 234 11:41 04.02.2022
5495 Clouds 11 1017 86 10000 1.92 241 10:34 04.02.2022
5496 Clouds 12 1016 92 10000 2.58 245 08:34 04.02.2022
5497 Clouds 12 1014 88 10000 2.37 271 05:23 04.02.2022
5498 Clouds 16 1014 81 10000 2.65 267 02:40 04.02.2022
5499 Clouds 17 1013 63 10000 3.18 250 00:31 04.02.2022
5500 Clouds 16 1011 49 10000 4.36 241 23:21 03.02.2022
5501 Clouds 16 1010 45 10000 5 246 22:26 03.02.2022
5502 Clouds 17 1010 45 10000 5 246 21:47 03.02.2022
5503 Clouds 19 1011 47 10000 4.02 251 20:26 03.02.2022
5504 Clouds 22 1011 47 10000 4.02 251 19:59 03.02.2022
5505 Clouds 21 1012 53 10000 3.68 250 19:26 03.02.2022
5506 Rain 20 1012 51 10000 4.48 251 18:26 03.02.2022
5507 Rain 21 1012 51 10000 2.94 246 17:27 03.02.2022
5508 Rain 16 1013 56 10000 2.22 242 15:44 03.02.2022
5509 Clouds 15 1014 67 10000 1.86 257 14:22 03.02.2022
5510 Clouds 15 1014 72 10000 1.58 265 12:32 03.02.2022
5511 Clouds 11 1015 86 10000 2.15 264 08:59 03.02.2022
5512 Clouds 12 1015 85 10000 2.2 262 08:18 03.02.2022
5513 Clouds 18 1012 62 10000 3.03 255 00:59 03.02.2022
5514 Clouds 21 1010 48 10000 3.98 247 00:22 03.02.2022
5515 Clouds 22 1010 43 10000 4.39 245 22:40 02.02.2022
5516 Clouds 23 1010 39 10000 5.58 243 21:51 02.02.2022
5517 Clouds 24 1010 38 10000 5.34 240 21:29 02.02.2022
5518 Clouds 23 1010 38 10000 4.03 239 20:27 02.02.2022
5519 Clouds 23 1010 38 10000 4.03 239 19:46 02.02.2022
5520 Clouds 23 1010 38 10000 3.02 242 18:56 02.02.2022
5521 Clouds 22 1011 40 10000 2.69 245 18:24 02.02.2022
5522 Clouds 20 1011 43 10000 2.54 249 17:20 02.02.2022
5523 Clouds 18 1011 43 10000 2.54 249 16:56 02.02.2022
5524 Clouds 15 1013 58 10000 2.37 255 15:23 02.02.2022
5525 Clouds 12 1013 75 10000 2.49 264 12:31 02.02.2022
5526 Clouds 11 1013 85 10000 2.39 265 11:48 02.02.2022
5527 Clouds 11 1013 85 10000 2.39 265 11:30 02.02.2022
5528 Clouds 11 1013 85 10000 2.39 265 11:30 02.02.2022
5529 Clouds 11 1012 90 10000 2.93 267 08:48 02.02.2022
5530 Clouds 16 1012 87 10000 3.14 268 02:44 02.02.2022
5531 Clouds 19 1009 66 10000 4.74 258 22:33 01.02.2022
5532 Clouds 18 1009 62 10000 4.98 262 20:51 01.02.2022
5533 Clouds 19 1009 59 10000 5.14 259 19:23 01.02.2022
5534 Clouds 16 1009 60 10000 4.77 264 16:57 01.02.2022
5535 Clouds 16 1009 61 10000 4.44 266 16:21 01.02.2022
5536 Clouds 14 1010 73 10000 3.62 273 12:57 01.02.2022
5537 Clouds 14 1010 80 10000 3.58 277 11:57 01.02.2022
5538 Clouds 14 1010 90 10000 3.83 284 08:51 01.02.2022
5539 Clouds 13 1009 73 10000 3.62 263 02:20 01.02.2022
5540 Clouds 15 1007 46 10000 5.28 261 23:37 31.01.2022
5541 Clouds 15 1007 46 10000 5.28 261 23:37 31.01.2022
5542 Clear 17 1007 39 10000 5.31 261 22:33 31.01.2022
5543 Clear 18 1007 36 10000 5.24 258 21:35 31.01.2022
5544 Clear 18 1007 36 10000 5.24 258 21:35 31.01.2022
5545 Clear 17 1007 34 10000 5.05 257 20:34 31.01.2022
5546 Clear 22 1008 34 10000 4.76 254 19:57 31.01.2022
5547 Clear 16 1009 34 10000 4.38 254 18:31 31.01.2022
5548 Clear 14 1010 32 10000 3.62 261 17:55 31.01.2022
5549 Clear 18 1011 34 10000 3.29 259 16:58 31.01.2022
5550 Clouds 16 1013 38 10000 3.19 258 16:20 31.01.2022
5551 Clouds 13 1014 43 10000 3.15 258 14:49 31.01.2022
5552 Clear 5 1017 61 10000 3.29 261 12:57 31.01.2022
5553 Clear 5 1017 61 10000 3.29 261 12:36 31.01.2022
5554 Clear 6 1018 83 10000 3.2 270 10:58 31.01.2022
5555 Clear 6 1018 83 10000 3.2 270 10:37 31.01.2022
5556 Clear 6 1018 83 10000 3.32 267 09:35 31.01.2022
5557 Clear 8 1018 83 10000 3.48 270 08:53 31.01.2022
5558 Clear 8 1018 83 10000 3.46 272 08:20 31.01.2022
5559 Clear 8 1018 83 10000 3.51 266 06:53 31.01.2022
5560 Clear 9 1018 76 10000 3.51 269 05:24 31.01.2022
5561 Clear 13 1015 39 10000 4.66 263 23:30 30.01.2022
5562 Clear 13 1014 37 10000 5.59 265 22:30 30.01.2022
5563 Clear 13 1014 36 10000 6.42 265 21:44 30.01.2022
5564 Clear 13 1014 36 10000 6.42 265 21:44 30.01.2022
5565 Clear 13 1013 35 10000 6.64 262 21:21 30.01.2022
5566 Clear 14 1013 35 10000 6.64 262 20:50 30.01.2022
5567 Clear 14 1013 35 10000 6.64 262 20:30 30.01.2022
5568 Clear 15 1013 35 10000 6.87 261 19:54 30.01.2022
5569 Clouds 14 1013 34 10000 7.08 259 18:45 30.01.2022
5570 Clouds 14 1013 34 10000 7.13 259 18:21 30.01.2022
5571 Clouds 13 1013 36 10000 7.21 260 17:29 30.01.2022
5572 Clouds 10 1013 36 10000 7.21 260 16:41 30.01.2022
5573 Clouds 10 1014 42 10000 6.67 256 16:22 30.01.2022
5574 Clouds 10 1014 42 10000 6.67 256 15:53 30.01.2022
5575 Clouds 10 1014 42 10000 6.67 256 15:32 30.01.2022
5576 Clouds 9 1014 51 10000 5.46 257 14:47 30.01.2022
5577 Clouds 10 1014 60 10000 5 257 13:36 30.01.2022
5578 Clouds 8 1014 63 10000 4.68 253 12:40 30.01.2022
5579 Clouds 9 1012 80 10000 3.26 250 10:38 30.01.2022
5580 Clouds 9 1011 80 10000 3.75 249 09:56 30.01.2022
5581 Clouds 9 1009 79 10000 4.54 256 09:21 30.01.2022
5582 Rain 10 1008 78 10000 4.19 261 07:56 30.01.2022
5583 Rain 12 1007 69 10000 4.49 269 02:42 30.01.2022
5584 Clouds 14 1006 61 10000 4.62 282 01:50 30.01.2022
5585 Clouds 16 1005 37 10000 7.76 294 23:30 29.01.2022
5586 Clouds 18 1005 28 10000 8.74 293 22:34 29.01.2022
5587 Clouds 20 1006 19 10000 10.63 293 21:27 29.01.2022
5588 Clouds 21 1006 19 10000 10.63 293 20:38 29.01.2022
5589 Clouds 23 1006 20 10000 10.26 291 19:36 29.01.2022
5590 Clouds 24 1006 21 10000 9.09 290 19:00 29.01.2022
5591 Clouds 21 1006 21 10000 8.3 288 18:32 29.01.2022
5592 Clouds 21 1007 18 10000 6.54 287 17:41 29.01.2022
5593 Clouds 19 1008 23 10000 4.51 281 16:42 29.01.2022
5594 Clouds 14 1010 35 10000 2.81 270 14:33 29.01.2022
5595 Clouds 18 1010 43 10000 2.15 286 13:45 29.01.2022
5596 Clouds 16 1011 48 10000 2.58 266 13:25 29.01.2022
5597 Clouds 8 1011 48 10000 2.58 266 12:36 29.01.2022
5598 Clouds 7 1012 55 10000 2.43 269 11:38 29.01.2022
5599 Clear 8 1011 58 10000 2.42 275 09:49 29.01.2022
5600 Clear 11 1012 54 10000 2.58 270 06:55 29.01.2022
5601 Clear 25 1009 31 10000 3.19 261 00:49 29.01.2022
5602 Clear 25 1009 31 10000 3.19 261 00:31 29.01.2022
5603 Clear 27 1007 21 10000 4.98 260 22:51 28.01.2022
5604 Clear 27 1007 20 10000 5.73 265 22:26 28.01.2022
5605 Clear 28 1007 20 10000 5.73 265 21:50 28.01.2022
5606 Clear 28 1007 20 10000 6.15 264 20:30 28.01.2022
5607 Clear 28 1007 20 10000 6.15 264 20:30 28.01.2022
5608 Clear 28 1007 20 10000 6.15 264 20:30 28.01.2022
5609 Clear 29 1008 20 10000 5.8 264 19:31 28.01.2022
5610 Clear 27 1008 21 10000 4.81 259 18:43 28.01.2022
5611 Clouds 24 1009 29 10000 2.76 255 16:54 28.01.2022
5612 Clear 21 1010 43 10000 2.25 251 15:20 28.01.2022
5613 Clear 22 1011 50 10000 2.06 255 13:52 28.01.2022
5614 Clear 12 1011 59 10000 1.95 266 12:30 28.01.2022
5615 Clear 11 1011 75 10000 2.01 278 11:24 28.01.2022
5616 Clear 12 1011 75 10000 1.9 272 09:52 28.01.2022
5617 Clear 17 1011 68 10000 2.02 271 07:44 28.01.2022
5618 Clear 15 1011 63 10000 2.1 274 06:44 28.01.2022
5619 Clear 19 1011 53 10000 2.3 268 03:57 28.01.2022
5620 Clear 21 1011 49 10000 2.4 269 02:31 28.01.2022
5621 Clear 23 1011 44 10000 2.26 257 01:59 28.01.2022
5622 Clear 23 1011 44 10000 2.26 257 01:31 28.01.2022
5623 Clear 31 1010 25 10000 4.39 258 22:48 27.01.2022
5624 Clear 31 1010 22 10000 3.28 250 21:46 27.01.2022
5625 Clear 31 1010 21 10000 2.43 240 21:28 27.01.2022
5626 Clear 30 1011 22 10000 2.17 238 20:24 27.01.2022
5627 Clear 26 1012 25 10000 1.56 237 18:24 27.01.2022
5628 Clear 24 1013 28 10000 0.99 232 17:26 27.01.2022
5629 Clear 15 1016 38 10000 0.58 357 14:25 27.01.2022
5630 Clear 21 1016 39 10000 0.73 22 13:19 27.01.2022
5631 Clear 7 1017 53 10000 0.86 30 12:25 27.01.2022
5632 Clear 9 1017 56 10000 0.3 357 09:56 27.01.2022
5633 Clear 9 1016 53 10000 0.3 322 08:41 27.01.2022
5634 Clear 17 1017 51 10000 0.09 277 07:58 27.01.2022
5635 Clear 14 1017 41 10000 0.63 210 03:34 27.01.2022
5636 Clear 26 1016 26 10000 0.88 215 00:25 27.01.2022
5637 Clear 28 1015 22 10000 0.53 172 22:31 26.01.2022
5638 Clear 28 1016 22 10000 0.56 114 21:44 26.01.2022
5639 Clear 27 1016 22 10000 1.05 97 20:57 26.01.2022
5640 Clear 27 1016 22 10000 1.05 97 20:33 26.01.2022
5641 Clear 27 1016 23 10000 1.42 87 19:49 26.01.2022
5642 Clear 25 1017 25 10000 1.64 92 18:52 26.01.2022
5643 Clear 25 1017 27 10000 1.59 91 18:24 26.01.2022
5644 Clear 24 1017 27 10000 1.59 91 17:34 26.01.2022
5645 Clear 19 1018 29 10000 1.61 87 16:56 26.01.2022
5646 Clear 19 1018 32 10000 1.54 89 16:25 26.01.2022
5647 Clear 13 1018 38 10000 1.39 100 14:54 26.01.2022
5648 Clear 7 1019 73 10000 0.26 169 12:22 26.01.2022
5649 Clear 7 1018 85 10000 0.42 223 10:56 26.01.2022
5650 Clear 8 1018 84 10000 0.77 196 09:55 26.01.2022
5651 Clear 8 1018 84 10000 0.77 196 09:36 26.01.2022
5652 Clear 14 1017 80 10000 1.18 246 07:28 26.01.2022
5653 Clear 24 1011 34 10000 3.25 228 00:26 26.01.2022
5654 Clear 25 1011 34 10000 3.25 228 23:43 25.01.2022
5655 Clear 25 1010 27 10000 3.71 228 22:49 25.01.2022
5656 Clear 25 1010 24 10000 3.47 229 22:19 25.01.2022
5657 Clear 25 1009 24 10000 3.32 230 21:27 25.01.2022
5658 Clear 24 1009 24 10000 3.32 230 20:45 25.01.2022
5659 Clear 27 1009 24 10000 2.81 232 19:57 25.01.2022
5660 Clear 26 1010 26 10000 2.23 234 19:28 25.01.2022
5661 Clear 19 1010 31 10000 1.97 238 17:56 25.01.2022
5662 Clear 19 1011 35 10000 1.96 236 17:20 25.01.2022
5663 Clear 16 1011 35 10000 1.96 236 16:34 25.01.2022
5664 Clear 14 1012 40 10000 2.01 240 15:39 25.01.2022
5665 Clear 14 1012 47 10000 2.12 248 15:19 25.01.2022
5666 Clear 11 1012 47 10000 2.12 248 14:51 25.01.2022
5667 Clear 7 1014 75 10000 2.01 263 12:20 25.01.2022
5668 Clear 7 1014 84 10000 2.47 267 09:25 25.01.2022
5669 Clear 9 1014 84 10000 2.55 269 07:52 25.01.2022
5670 Clear 9 1014 84 10000 2.58 270 07:20 25.01.2022
5671 Clear 10 1014 81 10000 2.55 269 05:23 25.01.2022
5672 Clear 10 1014 81 10000 2.55 269 05:23 25.01.2022
5673 Clear 16 1012 62 10000 3.38 249 00:31 25.01.2022
5674 Clear 17 1011 51 10000 4.03 252 23:36 24.01.2022
5675 Clear 17 1011 45 10000 4.16 253 23:18 24.01.2022
5676 Clear 17 1011 45 10000 4.16 253 22:42 24.01.2022
5677 Clear 17 1011 43 10000 4.2 251 22:19 24.01.2022
5678 Clear 17 1011 43 10000 4.2 251 21:40 24.01.2022
5679 Clear 17 1011 41 10000 4.15 250 21:19 24.01.2022
5680 Clear 17 1011 42 10000 3.72 250 20:26 24.01.2022
5681 Clear 21 1011 42 10000 3.72 250 19:38 24.01.2022
5682 Clouds 20 1012 45 10000 3.64 252 18:47 24.01.2022
5683 Clouds 17 1013 54 10000 3.29 261 17:25 24.01.2022
5684 Clouds 14 1013 54 10000 3.29 261 16:58 24.01.2022
5685 Clouds 14 1013 54 10000 3.29 261 16:58 24.01.2022
5686 Clouds 14 1013 54 10000 3.29 261 16:58 24.01.2022
5687 Clouds 14 1013 54 10000 3.29 261 16:30 24.01.2022
5688 Clouds 12 1014 66 10000 2.85 262 14:54 24.01.2022
5689 Clouds 12 1014 74 10000 2.63 266 13:38 24.01.2022
5690 Clouds 11 1015 80 10000 2.98 261 12:32 24.01.2022
5691 Clouds 10 1015 94 10000 2.86 276 11:21 24.01.2022
5692 Clouds 11 1014 94 10000 3 280 09:50 24.01.2022
5693 Clouds 11 1014 94 10000 3.03 278 09:25 24.01.2022
5694 Clouds 9 1013 91 10000 4.1 283 07:28 24.01.2022
5695 Clouds 11 1012 75 10000 4.25 290 01:34 24.01.2022
5696 Clouds 13 1011 66 10000 4.65 290 00:46 24.01.2022
5697 Clouds 13 1010 59 10000 5.84 292 00:27 24.01.2022
5698 Clouds 15 1010 57 10000 6.16 295 22:46 23.01.2022
5699 Clouds 16 1009 55 10000 6.9 289 21:50 23.01.2022
5700 Clouds 16 1009 59 10000 7.18 289 21:27 23.01.2022
5701 Clouds 16 1009 59 10000 7.18 289 20:54 23.01.2022
5702 Clouds 15 1009 63 10000 6.13 291 19:55 23.01.2022
5703 Clouds 15 1009 63 10000 6.13 288 18:52 23.01.2022
5704 Clouds 15 1009 69 10000 5.94 291 17:52 23.01.2022
5705 Clouds 15 1008 68 10000 5.32 289 16:48 23.01.2022
5706 Clouds 13 1007 78 10000 4.57 297 15:18 23.01.2022
5707 Clouds 13 1007 78 10000 4.57 297 14:32 23.01.2022
5708 Rain 11 1006 81 10000 4.34 299 13:27 23.01.2022
5709 Rain 11 1006 81 10000 4.21 288 12:36 23.01.2022
5710 Rain 11 1006 82 10000 4.78 288 12:18 23.01.2022
5711 Clouds 11 1005 83 10000 4.57 290 11:24 23.01.2022
5712 Clouds 11 1005 83 10000 4.57 290 10:43 23.01.2022
5713 Clouds 11 1005 83 10000 4.7 289 10:19 23.01.2022
5714 Clouds 11 1004 82 10000 5.19 286 09:19 23.01.2022
5715 Clouds 10 1006 85 10000 4.67 290 05:58 23.01.2022
5716 Clouds 10 1007 69 10000 4.32 288 01:54 23.01.2022
5717 Clouds 10 1007 69 10000 4.32 288 01:33 23.01.2022
5718 Clouds 10 1006 58 10000 5.65 300 00:23 23.01.2022
5719 Clouds 10 1006 58 10000 5.65 300 23:57 22.01.2022
5720 Clouds 11 1006 51 10000 7.3 292 22:46 22.01.2022
5721 Clouds 12 1005 53 10000 7.97 292 21:38 22.01.2022
5722 Rain 12 1004 69 10000 7.63 289 20:23 22.01.2022
5723 Rain 15 1002 58 10000 5.19 294 19:21 22.01.2022
5724 Rain 12 1002 59 10000 5.66 294 18:25 22.01.2022
5725 Rain 15 1002 59 10000 5.66 294 17:41 22.01.2022
5726 Rain 14 1002 55 10000 4.07 293 16:56 22.01.2022
5727 Clouds 11 1002 56 10000 3.9 292 15:53 22.01.2022
5728 Clouds 11 1002 56 10000 3.9 292 15:32 22.01.2022
5729 Rain 12 1004 76 10000 3.29 300 13:51 22.01.2022
5730 Rain 8 1004 74 10000 2.89 289 12:53 22.01.2022
5731 Clouds 8 1004 75 10000 1.97 296 12:29 22.01.2022
5732 Clouds 7 1004 75 10000 1.97 296 11:44 22.01.2022
5733 Clouds 7 1004 77 10000 1.77 308 10:29 22.01.2022
5734 Clouds 8 1004 77 10000 1.77 308 09:59 22.01.2022
5735 Clouds 8 1005 77 10000 1.89 300 08:53 22.01.2022
5736 Clouds 10 1005 75 10000 1.93 285 07:39 22.01.2022
5737 Clouds 11 1007 67 10000 2.29 281 04:53 22.01.2022
5738 Clouds 13 1007 56 10000 2.26 250 01:49 22.01.2022
5739 Clouds 16 1006 40 10000 2.84 263 23:45 21.01.2022
5740 Clouds 16 1005 36 10000 4.04 274 22:36 21.01.2022
5741 Clouds 16 1005 32 10000 4.3 275 20:32 21.01.2022
5742 Clouds 15 1006 36 10000 3.98 272 18:40 21.01.2022
5743 Clouds 14 1007 41 10000 3.52 277 17:41 21.01.2022
5744 Clouds 12 1009 55 10000 3.1 277 15:44 21.01.2022
5745 Clouds 12 1010 71 10000 3.17 279 13:51 21.01.2022
5746 Clouds 9 1011 80 10000 2.99 287 12:39 21.01.2022
5747 Clouds 10 1011 92 10000 3 288 11:28 21.01.2022
5748 Clouds 10 1011 91 10000 3.29 288 10:20 21.01.2022
5749 Clouds 9 1011 90 10000 3.95 292 08:25 21.01.2022
5750 Clouds 8 1011 89 10000 4 302 06:57 21.01.2022
5751 Rain 12 1010 79 10000 2.59 259 23:54 20.01.2022
5752 Rain 12 1010 77 10000 2.61 257 22:44 20.01.2022
5753 Rain 11 1011 76 10000 3.75 260 21:47 20.01.2022
5754 Rain 10 1010 81 10000 4.76 242 20:56 20.01.2022
5755 Rain 17 1010 62 5779 1.95 293 19:20 20.01.2022
5756 Rain 10 1010 62 5779 1.95 293 18:51 20.01.2022
5757 Rain 11 1013 81 5148 3.41 277 17:30 20.01.2022
5758 Rain 16 1012 66 6161 2.21 52 15:44 20.01.2022
5759 Rain 16 1013 67 7160 1.7 55 15:22 20.01.2022
5760 Rain 15 1014 72 10000 1.45 95 13:42 20.01.2022
5761 Rain 8 1016 83 10000 1.6 87 12:35 20.01.2022
5762 Rain 7 1017 92 10000 1.26 54 11:57 20.01.2022
5763 Rain 7 1017 95 10000 0.63 125 10:40 20.01.2022
5764 Clouds 7 1017 95 10000 0.66 123 09:40 20.01.2022
5765 Clouds 8 1017 94 10000 0.48 122 08:34 20.01.2022
5766 Clouds 8 1019 95 10000 0.27 11 05:34 20.01.2022
5767 Clouds 13 1020 82 10000 0.6 231 23:35 19.01.2022
5768 Clouds 14 1019 82 10000 1.18 221 22:32 19.01.2022
5769 Rain 13 1020 80 10000 1.07 200 21:24 19.01.2022
5770 Rain 13 1020 80 10000 1.07 200 20:50 19.01.2022
5771 Clouds 12 1021 86 10000 1.43 187 19:54 19.01.2022
5772 Clouds 14 1020 82 10000 1.51 212 18:40 19.01.2022
5773 Rain 15 1021 87 10000 1.28 183 17:45 19.01.2022
5774 Rain 14 1021 88 10000 1.28 163 16:48 19.01.2022
5775 Rain 11 1021 84 10000 1.41 130 14:42 19.01.2022
5776 Clouds 9 1020 66 10000 2.03 93 12:43 19.01.2022
5777 Clouds 7 1020 68 10000 1.68 86 11:42 19.01.2022
5778 Clouds 7 1020 72 10000 1.7 79 10:35 19.01.2022
5779 Clouds 7 1020 78 10000 1.91 67 09:34 19.01.2022
5780 Clouds 8 1021 75 10000 2.09 44 06:56 19.01.2022
5781 Clouds 10 1020 49 10000 2.51 16 02:41 19.01.2022
5782 Clouds 17 1019 26 10000 2.46 35 23:20 18.01.2022
5783 Clouds 19 1019 27 10000 2.94 35 22:19 18.01.2022
5784 Clouds 19 1020 30 10000 3.66 39 20:58 18.01.2022
5785 Clouds 16 1020 33 10000 4.21 42 19:54 18.01.2022
5786 Clouds 17 1020 31 10000 3.81 35 19:36 18.01.2022
5787 Clouds 16 1021 34 10000 3.96 29 18:51 18.01.2022
5788 Clouds 15 1022 36 10000 3.48 33 17:58 18.01.2022
5789 Clouds 14 1023 39 10000 2.64 41 16:50 18.01.2022
5790 Clouds 10 1023 42 10000 2.02 57 15:41 18.01.2022
5791 Clouds 10 1024 49 10000 1.57 63 15:21 18.01.2022
5792 Clouds 2 1026 65 10000 1.05 97 12:33 18.01.2022
5793 Clouds 0 1026 84 10000 0.47 68 10:47 18.01.2022
5794 Clouds 1 1026 86 10000 0.17 146 08:49 18.01.2022
5795 Clear 6 1026 86 10000 0.18 264 07:49 18.01.2022
5796 Rain 5 1024 67 10000 1.27 109 02:33 18.01.2022
5797 Clouds 14 1019 26 10000 0.95 149 23:38 17.01.2022
5798 Clouds 14 1017 21 10000 2.6 203 22:26 17.01.2022
5799 Clouds 14 1017 21 10000 2.6 203 21:33 17.01.2022
5800 Clouds 14 1018 26 10000 0.85 281 19:57 17.01.2022
5801 Rain 13 1019 30 10000 1.11 109 18:29 17.01.2022
5802 Rain 14 1020 34 10000 1.47 110 17:25 17.01.2022
5803 Rain 12 1020 34 10000 1.47 110 16:35 17.01.2022
5804 Clouds 6 1021 42 10000 1.35 140 14:59 17.01.2022
5805 Clouds 6 1021 42 10000 1.35 140 14:33 17.01.2022
5806 Clouds 6 1022 60 10000 0.59 223 13:20 17.01.2022
5807 Clouds 1 1023 60 10000 0.65 182 12:55 17.01.2022
5808 Clouds -1 1023 72 10000 0.87 209 11:48 17.01.2022
5809 Clouds -1 1022 82 10000 1.33 239 10:21 17.01.2022
5810 Clouds 0 1022 82 10000 1.33 239 09:33 17.01.2022
5811 Clouds 3 1021 77 10000 1.91 242 07:22 17.01.2022
5812 Clear 6 1018 60 10000 2.79 254 02:54 17.01.2022
5813 Clouds 9 1015 42 10000 3.75 241 00:54 17.01.2022
5814 Clouds 8 1012 30 10000 7.29 256 21:44 16.01.2022
5815 Clouds 8 1011 29 10000 8.01 259 20:33 16.01.2022
5816 Clouds 9 1011 27 10000 8.76 262 18:51 16.01.2022
5817 Clouds 9 1011 26 10000 8.39 265 17:57 16.01.2022
5818 Clouds 10 1011 27 10000 7.4 263 16:59 16.01.2022
5819 Clouds 10 1012 31 10000 5.86 261 16:20 16.01.2022
5820 Clouds 8 1013 39 10000 4.7 265 14:30 16.01.2022
5821 Clouds 8 1013 39 10000 4.7 265 14:30 16.01.2022
5822 Clouds 8 1013 50 10000 3.75 261 13:33 16.01.2022
5823 Clouds 6 1014 69 10000 2.99 247 12:26 16.01.2022
5824 Clouds 4 1014 69 10000 2.99 247 11:38 16.01.2022
5825 Clouds 6 1014 77 10000 2.62 246 10:43 16.01.2022
5826 Clouds 6 1014 81 10000 2.65 247 09:58 16.01.2022
5827 Clouds 6 1014 81 10000 2.65 247 09:38 16.01.2022
5828 Clouds 6 1013 85 10000 2.64 245 09:19 16.01.2022
5829 Clouds 6 1013 87 10000 3.28 247 07:19 16.01.2022
5830 Clear 10 1010 57 10000 4.37 271 00:35 16.01.2022
5831 Clear 13 1009 39 10000 6.68 274 22:53 15.01.2022
5832 Clear 13 1009 34 10000 7.21 272 21:22 15.01.2022
5833 Clear 14 1009 34 10000 7.21 272 20:45 15.01.2022
5834 Clear 14 1009 32 10000 7.17 272 20:22 15.01.2022
5835 Clouds 18 1008 30 10000 6.6 276 19:27 15.01.2022
5836 Clouds 13 1009 31 10000 6.35 272 18:18 15.01.2022
5837 Clouds 12 1010 30 10000 6.09 269 16:49 15.01.2022
5838 Clouds 10 1012 47 10000 4.25 270 14:36 15.01.2022
5839 Clouds 8 1015 80 10000 3.65 274 12:39 15.01.2022
5840 Clouds 8 1015 96 10000 3.18 276 11:21 15.01.2022
5841 Clouds 7 1015 95 10000 3.26 274 09:46 15.01.2022
5842 Clouds 14 1012 78 10000 3.08 273 01:27 15.01.2022
5843 Clouds 16 1011 73 10000 3.7 279 22:40 14.01.2022
5844 Clouds 15 1011 68 10000 3.93 277 20:57 14.01.2022
5845 Clouds 15 1011 70 10000 3.69 276 20:24 14.01.2022
5846 Clouds 16 1011 70 10000 3.69 276 19:49 14.01.2022
5847 Clouds 14 1011 61 10000 3.88 270 18:33 14.01.2022
5848 Clouds 14 1011 66 10000 3.05 276 16:57 14.01.2022
5849 Clouds 14 1011 66 10000 3.05 276 16:38 14.01.2022
5850 Clouds 14 1012 67 10000 3.08 281 14:49 14.01.2022
5851 Clouds 15 1011 66 10000 2.84 288 13:48 14.01.2022
5852 Clouds 14 1011 73 10000 2.22 284 12:37 14.01.2022
5853 Clouds 15 1011 81 10000 2.44 281 11:34 14.01.2022
5854 Clouds 14 1010 84 10000 2.78 297 10:22 14.01.2022
5855 Clouds 14 1010 90 10000 2.59 293 08:52 14.01.2022
5856 Clouds 12 1011 83 10000 2.84 288 07:27 14.01.2022
5857 Clouds 14 1011 69 10000 2.9 269 01:43 14.01.2022
5858 Clouds 17 1009 49 10000 4.89 269 23:36 13.01.2022
5859 Clear 17 1008 40 10000 5.3 260 21:42 13.01.2022
5860 Clear 17 1008 38 10000 5.37 262 21:23 13.01.2022
5861 Clouds 23 1008 36 10000 5.64 266 19:41 13.01.2022
5862 Clear 23 1008 33 10000 5.6 268 19:22 13.01.2022
5863 Clear 16 1007 28 10000 5.09 270 17:54 13.01.2022
5864 Clear 16 1008 36 10000 2.69 264 16:21 13.01.2022
5865 Clear 18 1008 36 10000 2.69 264 15:37 13.01.2022
5866 Clear 17 1009 43 10000 2.49 267 14:47 13.01.2022
5867 Clear 10 1011 53 10000 2.26 273 12:46 13.01.2022
5868 Clear 8 1012 68 10000 2.36 286 10:25 13.01.2022
5869 Clear 7 1011 67 10000 2.35 287 09:20 13.01.2022
5870 Clear 8 1011 65 10000 2.19 288 08:27 13.01.2022
5871 Clear 12 1011 65 10000 2.3 282 07:24 13.01.2022
5872 Clear 12 1011 60 10000 2.32 280 05:59 13.01.2022
5873 Clear 12 1011 58 10000 2.54 281 05:19 13.01.2022
5874 Clear 17 1011 51 10000 2.69 274 02:33 13.01.2022
5875 Clear 23 1009 37 10000 2.82 259 00:55 13.01.2022
5876 Clear 24 1009 25 10000 3.77 270 23:49 12.01.2022
5877 Clear 24 1009 25 10000 3.77 270 23:49 12.01.2022
5878 Clear 24 1008 21 10000 4.52 277 23:20 12.01.2022
5879 Clear 25 1007 19 10000 4.7 276 21:57 12.01.2022
5880 Clear 25 1008 19 10000 5.43 273 21:22 12.01.2022
5881 Clear 26 1008 19 10000 5.43 273 20:56 12.01.2022
5882 Clear 27 1008 18 10000 5.22 275 19:44 12.01.2022
5883 Clear 25 1008 18 10000 5.31 273 18:42 12.01.2022
5884 Clear 24 1009 21 10000 3.61 272 17:21 12.01.2022
5885 Clear 23 1009 21 10000 3.61 272 16:32 12.01.2022
5886 Clear 15 1010 29 10000 2.73 268 14:48 12.01.2022
5887 Clear 17 1012 38 10000 2.37 279 13:19 12.01.2022
5888 Clear 12 1013 52 10000 2.52 288 10:56 12.01.2022
5889 Clouds 11 1013 54 10000 2.58 290 08:43 12.01.2022
5890 Clear 12 1013 56 10000 2.52 285 07:50 12.01.2022
5891 Clear 12 1013 56 10000 2.52 285 07:31 12.01.2022
5892 Clear 25 1011 29 10000 3.63 269 23:53 11.01.2022
5893 Clear 26 1010 24 10000 3.93 273 22:54 11.01.2022
5894 Clear 27 1010 22 10000 4.59 268 22:22 11.01.2022
5895 Clear 25 1011 22 10000 5.14 267 20:54 11.01.2022
5896 Clear 28 1011 23 10000 4.97 267 19:50 11.01.2022
5897 Clear 23 1011 24 10000 4.46 274 18:31 11.01.2022
5898 Clear 21 1014 31 10000 3.49 262 17:24 11.01.2022
5899 Clear 23 1014 31 10000 3.49 262 16:37 11.01.2022
5900 Clear 17 1015 36 10000 3.31 261 15:39 11.01.2022
5901 Clear 15 1016 43 10000 3.2 260 14:42 11.01.2022
5902 Clear 16 1017 53 10000 3.19 262 13:55 11.01.2022
5903 Clear 16 1017 53 10000 3.19 262 13:35 11.01.2022
5904 Clear 14 1017 62 10000 3.12 264 12:43 11.01.2022
5905 Clear 13 1018 74 10000 2.82 270 11:43 11.01.2022
5906 Clear 13 1016 84 10000 2.83 281 09:29 11.01.2022
5907 Clear 14 1016 84 10000 2.34 276 06:37 11.01.2022
5908 Clear 19 1010 46 10000 4.37 277 00:31 11.01.2022
5909 Clear 20 1010 34 10000 5.1 280 23:41 10.01.2022
5910 Clear 21 1009 30 10000 5.7 277 22:51 10.01.2022
5911 Clear 21 1009 27 10000 6.71 278 22:19 10.01.2022
5912 Clear 22 1009 27 10000 6.71 278 21:52 10.01.2022
5913 Clear 22 1009 26 10000 7.28 273 21:19 10.01.2022
5914 Clear 22 1009 26 10000 7.28 273 20:56 10.01.2022
5915 Clear 22 1009 26 10000 7.21 267 20:27 10.01.2022
5916 Clear 25 1009 26 10000 7.21 267 19:41 10.01.2022
5917 Clear 25 1009 28 10000 6.34 276 19:20 10.01.2022
5918 Clear 25 1009 27 10000 6.37 280 18:48 10.01.2022
5919 Clear 21 1009 30 10000 5.99 281 17:40 10.01.2022
5920 Clear 21 1010 29 10000 5.74 277 16:41 10.01.2022
5921 Clear 20 1012 47 10000 4.43 281 15:20 10.01.2022
5922 Clouds 17 1013 61 10000 4.05 282 13:41 10.01.2022
5923 Clouds 12 1014 86 10000 3.45 290 11:58 10.01.2022
5924 Clear 12 1015 92 10000 3.03 293 11:24 10.01.2022
5925 Clear 15 1015 93 10000 3.2 293 09:46 10.01.2022
5926 Clear 14 1016 85 10000 2.26 274 06:22 10.01.2022
5927 Clear 14 1016 85 10000 2.26 274 05:49 10.01.2022
5928 Clear 20 1013 50 10000 2.96 279 01:26 10.01.2022
5929 Clear 20 1012 40 10000 4.28 283 00:24 10.01.2022
5930 Clear 21 1012 37 10000 5.51 284 23:29 09.01.2022
5931 Clear 22 1012 37 10000 5.51 284 22:37 09.01.2022
5932 Clear 22 1012 36 10000 6.17 287 21:44 09.01.2022
5933 Clear 22 1012 36 10000 6.15 285 21:23 09.01.2022
5934 Clear 22 1012 36 10000 6.15 285 20:50 09.01.2022
5935 Clouds 22 1012 36 10000 6.66 285 20:29 09.01.2022
5936 Clouds 24 1012 36 10000 6.66 285 19:44 09.01.2022
5937 Clouds 23 1012 40 10000 6.2 287 19:23 09.01.2022
5938 Clouds 21 1012 40 10000 6.2 287 18:49 09.01.2022
5939 Clouds 21 1012 37 10000 6.04 285 18:30 09.01.2022
5940 Clouds 20 1012 40 10000 5.23 278 17:30 09.01.2022
5941 Clouds 20 1012 44 10000 4.6 272 16:51 09.01.2022
5942 Clouds 19 1012 46 10000 3.99 271 15:57 09.01.2022
5943 Clouds 19 1012 46 10000 3.99 271 15:34 09.01.2022
5944 Clouds 17 1012 54 10000 3.02 270 14:40 09.01.2022
5945 Clear 19 1012 64 10000 2.55 276 13:50 09.01.2022
5946 Clouds 14 1012 72 10000 2.15 278 12:48 09.01.2022
5947 Clouds 14 1012 81 10000 2.1 287 11:48 09.01.2022
5948 Clouds 15 1012 89 10000 2.13 300 10:49 09.01.2022
5949 Clear 15 1011 92 10000 2.13 295 09:42 09.01.2022
5950 Clear 15 1011 91 10000 2.24 285 08:31 09.01.2022
5951 Clear 21 1008 70 10000 2.98 270 02:48 09.01.2022
5952 Clear 22 1006 53 10000 3.67 254 01:21 09.01.2022
5953 Clear 25 1005 43 10000 4.37 253 23:38 08.01.2022
5954 Clouds 26 1004 38 10000 6.08 257 22:59 08.01.2022
5955 Clouds 25 1004 34 10000 6.12 270 21:33 08.01.2022
5956 Clear 26 1004 32 10000 5.8 275 20:58 08.01.2022
5957 Clear 26 1004 32 10000 5.8 275 20:39 08.01.2022
5958 Clear 26 1004 31 10000 4.49 279 20:19 08.01.2022
5959 Clear 25 1006 37 10000 2.16 259 18:21 08.01.2022
5960 Clear 23 1007 42 10000 1.92 256 17:21 08.01.2022
5961 Clear 21 1008 48 10000 1.88 256 15:51 08.01.2022
5962 Clear 18 1009 54 10000 1.85 252 14:43 08.01.2022
5963 Clear 18 1010 65 10000 1.78 260 13:25 08.01.2022
5964 Clear 12 1011 81 10000 2.03 275 11:24 08.01.2022
5965 Clear 13 1012 83 10000 2.24 275 10:25 08.01.2022
5966 Clear 14 1012 83 10000 2.24 275 09:47 08.01.2022
5967 Clear 14 1012 80 10000 2.46 278 07:19 08.01.2022
5968 Clear 20 1013 64 10000 2.8 279 02:39 08.01.2022
5969 Clear 23 1012 51 10000 3.18 261 00:41 08.01.2022
5970 Clear 25 1010 33 10000 4.58 259 22:40 07.01.2022
5971 Clear 26 1010 30 10000 5.47 256 20:56 07.01.2022
5972 Clear 28 1010 29 10000 5.06 264 19:56 07.01.2022
5973 Clear 28 1010 29 10000 5.06 264 19:56 07.01.2022
5974 Clear 28 1010 29 10000 5.06 264 19:56 07.01.2022
5975 Clear 26 1010 30 10000 4.7 263 18:58 07.01.2022
5976 Clear 26 1010 30 10000 4.7 263 18:38 07.01.2022
5977 Clear 24 1012 36 10000 2.13 264 17:25 07.01.2022
5978 Clear 22 1013 38 10000 2.12 261 16:23 07.01.2022
5979 Clear 20 1014 47 10000 1.75 253 13:53 07.01.2022
5980 Clouds 18 1015 56 10000 1.74 260 13:21 07.01.2022
5981 Clouds 13 1015 56 10000 1.74 260 12:48 07.01.2022
5982 Clouds 12 1015 81 10000 1.97 268 09:21 07.01.2022
5983 Clouds 18 1014 59 10000 2.72 255 02:54 07.01.2022
5984 Clouds 20 1014 53 10000 2.66 251 01:53 07.01.2022
5985 Clouds 22 1013 46 10000 2.86 238 01:27 07.01.2022
5986 Clouds 25 1013 46 10000 2.86 238 00:57 07.01.2022
5987 Clear 27 1011 28 10000 4.09 228 22:46 06.01.2022
5988 Clear 27 1011 26 10000 3.53 230 21:23 06.01.2022
5989 Clear 27 1011 27 10000 2.93 229 20:20 06.01.2022
5990 Clear 27 1011 27 10000 2.93 229 19:40 06.01.2022
5991 Clear 23 1012 31 10000 2.19 238 17:53 06.01.2022
5992 Clear 23 1012 31 10000 2.19 238 17:32 06.01.2022
5993 Clear 20 1013 34 10000 2.11 235 16:40 06.01.2022
5994 Clear 18 1013 38 10000 1.88 233 15:45 06.01.2022
5995 Clear 18 1014 43 10000 1.78 231 15:23 06.01.2022
5996 Clear 15 1014 50 10000 1.72 242 14:21 06.01.2022
5997 Clear 19 1014 50 10000 1.72 242 13:46 06.01.2022
5998 Clear 10 1014 60 10000 1.78 249 12:41 06.01.2022
5999 Clear 8 1015 70 10000 1.96 246 11:41 06.01.2022
6000 Clear 8 1015 80 10000 1.89 260 11:20 06.01.2022
6001 Clear 10 1014 85 10000 2.08 258 08:50 06.01.2022
6002 Clouds 22 1012 54 10000 2.7 240 00:42 06.01.2022
6003 Clouds 23 1011 43 10000 2.64 240 23:36 05.01.2022
6004 Clouds 24 1011 38 10000 2.52 245 22:51 05.01.2022
6005 Clouds 24 1011 34 10000 1.97 246 22:29 05.01.2022
6006 Clouds 23 1011 34 10000 1.97 246 21:45 05.01.2022
6007 Clouds 23 1011 33 10000 1.72 230 20:45 05.01.2022
6008 Clouds 25 1011 31 10000 1.85 226 19:53 05.01.2022
6009 Clouds 21 1013 33 10000 1.71 234 18:27 05.01.2022
6010 Clouds 18 1013 34 10000 1.44 231 17:23 05.01.2022
6011 Clouds 16 1014 36 10000 1.07 226 16:24 05.01.2022
6012 Clouds 13 1015 41 10000 0.86 224 15:20 05.01.2022
6013 Clouds 15 1016 47 10000 0.77 241 13:38 05.01.2022
6014 Clouds 6 1017 54 10000 1.07 232 12:49 05.01.2022
6015 Clear 5 1017 80 10000 1.77 262 08:57 05.01.2022
6016 Clear 7 1018 81 10000 1.91 263 07:31 05.01.2022
6017 Clear 12 1016 63 10000 3.13 251 01:59 05.01.2022
6018 Clear 15 1014 42 10000 4.09 256 23:50 04.01.2022
6019 Clear 15 1013 38 10000 4.17 255 23:26 04.01.2022
6020 Clear 15 1013 36 10000 4.25 255 22:21 04.01.2022
6021 Clear 15 1012 35 10000 4.34 254 20:50 04.01.2022
6022 Clear 15 1013 35 10000 4.06 261 18:46 04.01.2022
6023 Clouds 13 1013 36 10000 4.08 261 17:37 04.01.2022
6024 Clouds 12 1013 39 10000 4 265 16:39 04.01.2022
6025 Clouds 12 1014 43 10000 4.1 268 16:20 04.01.2022
6026 Clouds 10 1014 49 10000 4.23 271 14:46 04.01.2022
6027 Clouds 10 1014 57 10000 4.45 273 14:23 04.01.2022
6028 Clouds 9 1015 72 10000 3.74 268 12:37 04.01.2022
6029 Clouds 8 1013 93 10000 2.33 269 10:28 04.01.2022
6030 Clouds 8 1012 91 10000 2.56 266 08:59 04.01.2022
6031 Clouds 8 1010 82 10000 3.39 266 06:46 04.01.2022
6032 Clear 11 1003 62 10000 8.2 273 00:50 04.01.2022
6033 Clear 11 1003 62 10000 8.2 273 00:31 04.01.2022
6034 Clear 13 1001 51 10000 12.6 273 22:30 03.01.2022
6035 Clear 15 1000 47 10000 13.33 275 21:41 03.01.2022
6036 Clear 16 999 43 10000 13.32 277 20:51 03.01.2022
6037 Clear 17 998 45 10000 14.24 277 19:44 03.01.2022
6038 Clouds 16 998 41 10000 13.81 278 18:32 03.01.2022
6039 Clouds 16 998 45 10000 13.91 279 17:34 03.01.2022
6040 Clouds 17 998 56 10000 14.35 281 16:56 03.01.2022
6041 Clouds 12 999 75 10000 8.69 281 14:33 03.01.2022
6042 Rain 11 1000 86 10000 6.44 282 13:25 03.01.2022
6043 Rain 8 1000 88 10000 5.28 289 12:28 03.01.2022
6044 Rain 7 1000 88 10000 5.28 289 11:30 03.01.2022
6045 Rain 7 1003 91 10000 2.67 287 09:41 03.01.2022
6046 Clouds 8 1004 88 10000 3.27 274 08:18 03.01.2022
6047 Clouds 11 1007 90 10000 3.23 301 05:21 03.01.2022
6048 Clouds 9 1006 59 10000 4.4 282 23:44 02.01.2022
6049 Clouds 10 1006 59 10000 4.45 278 22:57 02.01.2022
6050 Clouds 10 1006 61 10000 4.38 266 22:22 02.01.2022
6051 Clouds 11 1006 69 10000 3.8 266 21:26 02.01.2022
6052 Clouds 11 1006 69 10000 3.8 266 20:30 02.01.2022
6053 Clouds 9 1006 71 10000 5.22 263 19:32 02.01.2022
6054 Rain 9 1005 66 4527 6.38 264 18:56 02.01.2022
6055 Clouds 9 1004 59 9707 7.38 267 18:23 02.01.2022
6056 Clouds 9 1004 59 9707 7.38 267 17:42 02.01.2022
6057 Rain 9 1004 61 10000 6.34 267 17:21 02.01.2022
6058 Rain 8 1004 66 5184 6.68 267 16:28 02.01.2022
6059 Rain 6 1003 82 9182 5.24 263 15:18 02.01.2022
6060 Rain 7 1002 87 3472 5.52 262 13:57 02.01.2022
6061 Rain 6 1000 76 10000 7.05 272 12:32 02.01.2022
6062 Clouds 7 999 75 10000 7.69 285 11:55 02.01.2022
6063 Clouds 8 999 85 10000 6.94 276 10:55 02.01.2022
6064 Clouds 8 998 83 10000 7.64 280 09:58 02.01.2022
6065 Clear 6 997 78 10000 6.73 287 07:35 02.01.2022
6066 Rain 11 996 84 10000 4.09 289 02:56 02.01.2022
6067 Rain 10 994 92 4190 3.01 302 23:45 01.01.2022
6068 Rain 10 993 91 3983 3.59 312 23:24 01.01.2022
6069 Rain 12 993 86 3569 5.19 324 22:25 01.01.2022
6070 Rain 10 993 86 3569 5.19 324 21:46 01.01.2022
6071 Rain 10 992 80 3867 6.76 320 21:28 01.01.2022
6072 Rain 10 992 74 4555 9.28 304 20:25 01.01.2022
6073 Rain 14 992 74 4555 9.28 304 19:34 01.01.2022
6074 Rain 9 992 68 6545 10.24 293 18:51 01.01.2022
6075 Rain 9 993 66 7906 10.15 289 17:38 01.01.2022
6076 Rain 9 993 64 10000 10.44 286 16:34 01.01.2022
6077 Rain 9 993 64 10000 10.44 286 16:34 01.01.2022
6078 Rain 10 994 63 10000 9.85 289 15:33 01.01.2022
6079 Rain 10 996 67 10000 7.26 293 14:22 01.01.2022
6080 Rain 13 996 67 10000 7.26 293 13:35 01.01.2022
6081 Clouds 10 999 84 10000 3.76 315 12:18 01.01.2022
6082 Rain 9 1000 87 10000 3.45 330 11:25 01.01.2022
6083 Rain 10 1000 87 10000 3.45 330 10:52 01.01.2022
6084 Rain 8 1000 88 10000 3.46 335 09:47 01.01.2022
6085 Rain 9 1001 89 10000 2.98 313 08:27 01.01.2022
6086 Rain 9 1001 89 10000 2.98 313 07:56 01.01.2022
6087 Rain 9 1001 89 10000 2.98 313 07:37 01.01.2022
6088 Rain 9 1001 89 10000 2.98 313 07:37 01.01.2022
6089 Rain 9 1002 89 10000 3.1 312 06:43 01.01.2022
6090 Rain 9 1003 89 10000 2.53 296 04:39 01.01.2022
6091 Rain 9 1003 87 10000 2.89 303 03:48 01.01.2022
6092 Rain 10 1002 81 10000 4.05 322 23:53 31.12.2021
6093 Rain 11 1002 76 10000 4.54 312 21:55 31.12.2021
6094 Rain 12 1002 74 10000 4.81 301 20:49 31.12.2021
6095 Clouds 12 1002 66 10000 6.09 298 19:31 31.12.2021
6096 Clouds 13 1001 56 10000 8.63 294 18:46 31.12.2021
6097 Clouds 12 1001 51 10000 9.73 290 17:45 31.12.2021
6098 Clouds 12 1002 48 10000 9.9 284 17:19 31.12.2021
6099 Clouds 11 1002 48 10000 9.9 284 16:44 31.12.2021
6100 Clouds 10 1002 48 10000 9.57 279 15:58 31.12.2021
6101 Clouds 10 1002 48 10000 9.57 279 15:31 31.12.2021
6102 Clouds 10 1003 50 10000 8.75 277 14:57 31.12.2021
6103 Clouds 10 1003 50 10000 8.75 277 14:33 31.12.2021
6104 Clouds 13 1004 57 10000 8.14 277 13:42 31.12.2021
6105 Clouds 8 1006 65 10000 8.16 276 12:49 31.12.2021
6106 Clouds 8 1006 72 10000 7.33 278 11:52 31.12.2021
6107 Clouds 8 1006 72 10000 7.33 278 11:33 31.12.2021
6108 Clouds 8 1007 81 10000 6.18 276 10:38 31.12.2021
6109 Clouds 8 1007 80 10000 5.65 278 10:20 31.12.2021
6110 Clouds 8 1007 80 10000 5.65 278 09:33 31.12.2021
6111 Clouds 8 1007 76 10000 5.49 282 08:47 31.12.2021
6112 Clouds 9 1007 77 10000 5.03 287 07:32 31.12.2021
6113 Clouds 12 1012 49 10000 4.88 293 23:36 30.12.2021
6114 Clouds 13 1012 48 10000 5.91 292 22:38 30.12.2021
6115 Clouds 13 1012 44 10000 7.07 290 22:20 30.12.2021
6116 Clouds 14 1012 44 10000 7.07 290 21:37 30.12.2021
6117 Clouds 12 1012 40 10000 7.71 290 20:48 30.12.2021
6118 Clouds 12 1012 38 10000 6.73 286 20:28 30.12.2021
6119 Clouds 15 1012 38 10000 6.73 286 19:48 30.12.2021
6120 Clouds 13 1012 34 10000 6.75 281 18:51 30.12.2021
6121 Clouds 13 1012 33 10000 6.31 282 18:20 30.12.2021
6122 Clouds 12 1013 35 10000 5.53 284 16:34 30.12.2021
6123 Clouds 11 1014 41 10000 4.56 289 15:52 30.12.2021
6124 Clouds 12 1015 47 10000 3.92 287 14:41 30.12.2021
6125 Clouds 11 1016 54 10000 3.43 280 14:19 30.12.2021
6126 Clouds 9 1017 61 10000 3.14 283 12:52 30.12.2021
6127 Clouds 7 1017 72 10000 2.17 288 11:34 30.12.2021
6128 Clouds 7 1017 88 10000 1.83 280 10:27 30.12.2021
6129 Clouds 7 1016 89 10000 1.94 276 09:27 30.12.2021
6130 Clouds 8 1015 92 10000 2.28 262 06:54 30.12.2021
6131 Clouds 9 1013 91 10000 2.77 282 04:20 30.12.2021
6132 Clouds 9 1013 91 10000 2.77 282 04:20 30.12.2021
6133 Clouds 10 1013 91 10000 2.77 282 03:39 30.12.2021
6134 Clouds 12 1010 68 10000 4.36 266 00:35 30.12.2021
6135 Clouds 12 1009 60 10000 5.17 265 23:31 29.12.2021
6136 Clouds 12 1006 43 10000 7.33 268 22:24 29.12.2021
6137 Clouds 10 1006 43 10000 7.33 268 21:53 29.12.2021
6138 Clouds 12 1005 37 10000 8.46 276 20:40 29.12.2021
6139 Clouds 22 1004 32 10000 9.02 279 19:54 29.12.2021
6140 Clear 22 1004 25 10000 9.42 286 19:25 29.12.2021
6141 Clear 20 1004 28 10000 9.83 294 18:19 29.12.2021
6142 Clear 20 1004 29 10000 8.36 290 17:28 29.12.2021
6143 Clear 19 1004 29 10000 8.36 290 16:49 29.12.2021
6144 Clear 19 1004 29 10000 7.4 292 16:19 29.12.2021
6145 Clear 18 1005 32 10000 5.49 285 14:46 29.12.2021
6146 Clouds 12 1007 50 10000 2.98 280 12:49 29.12.2021
6147 Clouds 12 1007 59 10000 2.67 284 12:27 29.12.2021
6148 Clouds 9 1008 68 10000 2.54 285 10:36 29.12.2021
6149 Clouds 10 1008 73 10000 2.53 288 08:24 29.12.2021
6150 Clouds 14 1008 69 10000 2.43 290 06:45 29.12.2021
6151 Clouds 14 1009 69 10000 2.37 282 06:24 29.12.2021
6152 Clouds 14 1009 69 10000 2.37 282 05:42 29.12.2021
6153 Clouds 16 1009 60 10000 2.6 262 03:20 29.12.2021
6154 Clouds 24 1007 27 10000 3.14 256 00:24 29.12.2021
6155 Clouds 25 1007 27 10000 3.14 256 23:47 28.12.2021
6156 Clouds 26 1007 23 10000 3.97 267 22:43 28.12.2021
6157 Clouds 26 1007 20 10000 4.45 271 22:24 28.12.2021
6158 Clouds 25 1007 20 10000 4.45 271 21:53 28.12.2021
6159 Clouds 25 1008 18 10000 3.97 269 20:47 28.12.2021
6160 Clouds 27 1008 18 10000 3.28 268 19:39 28.12.2021
6161 Clouds 26 1009 18 10000 2.87 265 18:44 28.12.2021
6162 Clouds 25 1010 20 10000 2.36 258 18:19 28.12.2021
6163 Clouds 19 1011 23 10000 2.06 257 16:35 28.12.2021
6164 Clouds 16 1012 30 10000 2.03 252 15:51 28.12.2021
6165 Clouds 16 1013 38 10000 2.21 248 15:23 28.12.2021
6166 Clouds 15 1013 38 10000 2.21 248 14:50 28.12.2021
6167 Clouds 15 1014 50 10000 2.11 255 14:21 28.12.2021
6168 Clouds 15 1014 50 10000 2.11 255 14:21 28.12.2021
6169 Clouds 16 1014 50 10000 2.11 255 13:51 28.12.2021
6170 Clouds 16 1014 50 10000 2.11 255 13:51 28.12.2021
6171 Clouds 14 1015 65 10000 2.01 264 13:27 28.12.2021
6172 Clouds 10 1015 65 10000 2.01 264 12:49 28.12.2021
6173 Clouds 7 1015 78 10000 1.99 268 11:46 28.12.2021
6174 Clouds 8 1015 94 10000 2.41 285 09:27 28.12.2021
6175 Clouds 10 1015 94 10000 2.62 277 07:28 28.12.2021
6176 Clouds 18 1013 53 10000 3.96 255 00:59 28.12.2021
6177 Clouds 19 1012 37 10000 4.82 263 23:26 27.12.2021
6178 Clouds 20 1012 36 10000 4.64 267 21:46 27.12.2021
6179 Clouds 20 1012 37 10000 5.32 267 21:24 27.12.2021
6180 Clouds 21 1012 39 10000 6 267 20:24 27.12.2021
6181 Clouds 21 1012 39 10000 6 267 19:42 27.12.2021
6182 Clouds 21 1012 40 10000 6.76 268 18:52 27.12.2021
6183 Clouds 20 1012 43 10000 6.97 275 17:49 27.12.2021
6184 Clouds 18 1012 48 10000 6.09 282 16:55 27.12.2021
6185 Clouds 18 1012 57 10000 5.49 295 15:52 27.12.2021
6186 Clouds 17 1013 63 10000 4.59 294 14:33 27.12.2021
6187 Clouds 16 1013 72 10000 4.09 300 13:40 27.12.2021
6188 Clouds 16 1013 77 10000 3.9 308 12:40 27.12.2021
6189 Clouds 15 1013 75 10000 3.2 305 10:32 27.12.2021
6190 Clouds 15 1013 76 10000 3.12 312 09:47 27.12.2021
6191 Clouds 12 1014 84 10000 3 293 07:50 27.12.2021
6192 Clouds 12 1014 82 10000 3.11 290 07:29 27.12.2021
6193 Clear 19 1014 53 10000 3.4 275 02:21 27.12.2021
6194 Clear 22 1012 33 10000 5.48 256 23:58 26.12.2021
6195 Clear 22 1012 33 10000 5.48 256 23:38 26.12.2021
6196 Clear 23 1012 28 10000 6.04 253 22:34 26.12.2021
6197 Clear 24 1012 26 10000 7.37 256 20:59 26.12.2021
6198 Clear 26 1012 25 10000 6.77 252 19:47 26.12.2021
6199 Clear 22 1013 23 10000 2.95 242 18:24 26.12.2021
6200 Clear 20 1014 23 10000 2.53 243 16:55 26.12.2021
6201 Clear 15 1016 33 10000 2.21 252 14:28 26.12.2021
6202 Clear 18 1016 33 10000 2.21 252 13:40 26.12.2021
6203 Clear 15 1017 41 10000 2.24 254 13:19 26.12.2021
6204 Clear 10 1017 41 10000 2.21 254 12:33 26.12.2021
6205 Clear 8 1018 61 10000 2.07 267 10:34 26.12.2021
6206 Clear 9 1018 69 10000 2.24 271 09:21 26.12.2021
6207 Clear 10 1018 69 10000 2.24 271 08:44 26.12.2021
6208 Clear 11 1017 69 10000 2.32 269 07:49 26.12.2021
6209 Clear 19 1016 43 10000 3.16 256 01:27 26.12.2021
6210 Clear 22 1015 31 10000 3.82 245 23:54 25.12.2021
6211 Clear 22 1014 27 10000 4.02 243 23:27 25.12.2021
6212 Clear 23 1014 26 10000 5.15 243 22:26 25.12.2021
6213 Clear 23 1014 25 10000 6.23 248 20:57 25.12.2021
6214 Clear 26 1014 26 10000 5.57 249 19:26 25.12.2021
6215 Clear 21 1014 26 10000 5.57 249 18:55 25.12.2021
6216 Clear 21 1015 28 10000 4.61 239 17:37 25.12.2021
6217 Clear 20 1015 32 10000 4.3 250 16:36 25.12.2021
6218 Clear 18 1016 45 10000 2.78 252 15:18 25.12.2021
6219 Clear 18 1016 52 10000 2.88 257 13:30 25.12.2021
6220 Clear 11 1018 69 10000 2.64 270 11:51 25.12.2021
6221 Clear 11 1018 83 10000 2.46 272 09:54 25.12.2021
6222 Clear 11 1018 83 10000 2.46 272 09:34 25.12.2021
6223 Clear 14 1018 74 10000 2.75 273 04:34 25.12.2021
6224 Clear 19 1016 49 10000 3.2 245 01:23 25.12.2021
6225 Clear 21 1015 36 10000 4.73 238 23:40 24.12.2021
6226 Clear 26 1014 26 10000 5 241 19:45 24.12.2021
6227 Clear 25 1015 25 10000 3.65 234 19:23 24.12.2021
6228 Clear 19 1016 28 10000 2.48 237 16:53 24.12.2021
6229 Clear 19 1017 31 10000 2.22 240 16:21 24.12.2021
6230 Clear 17 1017 31 10000 2.22 240 15:48 24.12.2021
6231 Clear 14 1017 35 10000 2.33 241 14:47 24.12.2021
6232 Clear 14 1018 40 10000 2.31 244 14:24 24.12.2021
6233 Clear 16 1018 40 10000 2.31 244 13:39 24.12.2021
6234 Clear 10 1018 48 10000 2.31 252 12:48 24.12.2021
6235 Clear 8 1019 58 10000 2.42 259 11:58 24.12.2021
6236 Clear 8 1019 70 10000 2.31 267 11:27 24.12.2021
6237 Clear 8 1019 70 10000 2.31 267 10:53 24.12.2021
6238 Clear 8 1019 77 10000 2.47 263 10:22 24.12.2021
6239 Clear 9 1018 80 10000 3.05 262 08:25 24.12.2021
6240 Clear 10 1018 80 10000 3.05 262 07:50 24.12.2021
6241 Clear 16 1015 61 10000 3.48 266 02:52 24.12.2021
6242 Clear 19 1012 32 10000 5.23 251 00:19 24.12.2021
6243 Clear 21 1011 29 10000 6.43 248 23:23 23.12.2021
6244 Clear 22 1011 29 10000 6.43 248 22:39 23.12.2021
6245 Clear 22 1010 26 10000 7.2 251 22:20 23.12.2021
6246 Clear 24 1010 26 10000 7.2 251 21:33 23.12.2021
6247 Clear 24 1009 25 10000 8.43 260 20:20 23.12.2021
6248 Clear 27 1009 26 10000 8 260 18:37 23.12.2021
6249 Clear 25 1009 25 10000 6.91 257 17:57 23.12.2021
6250 Clear 23 1009 24 10000 5.45 259 16:47 23.12.2021
6251 Clear 23 1009 26 10000 3.77 261 16:24 23.12.2021
6252 Clear 21 1009 26 10000 3.77 261 15:31 23.12.2021
6253 Clear 18 1010 32 10000 2.98 259 14:52 23.12.2021
6254 Clear 18 1010 32 10000 2.98 259 14:31 23.12.2021
6255 Clear 13 1011 49 10000 2.45 268 12:57 23.12.2021
6256 Clear 11 1011 68 10000 2.35 276 10:53 23.12.2021
6257 Clear 12 1010 69 10000 2.4 269 09:47 23.12.2021
6258 Clear 13 1009 67 10000 2.16 269 08:59 23.12.2021
6259 Clear 13 1009 67 10000 2.16 269 08:59 23.12.2021
6260 Clear 14 1009 61 10000 1.81 277 06:58 23.12.2021
6261 Clear 17 1010 56 10000 1.79 274 04:33 23.12.2021
6262 Clear 30 1009 20 10000 1.86 250 23:20 22.12.2021
6263 Clear 31 1009 20 10000 1.86 250 22:42 22.12.2021
6264 Clear 30 1009 19 10000 1.5 249 21:56 22.12.2021
6265 Clear 30 1009 18 10000 1.12 253 21:29 22.12.2021
6266 Clear 30 1009 18 10000 1.12 253 20:47 22.12.2021
6267 Clear 30 1010 18 10000 0.51 286 20:26 22.12.2021
6268 Clear 30 1011 18 10000 0.36 346 19:21 22.12.2021
6269 Clear 24 1012 21 10000 0.24 219 17:42 22.12.2021
6270 Clear 21 1013 24 10000 0.21 105 16:39 22.12.2021
6271 Clear 19 1013 28 10000 0.47 86 15:39 22.12.2021
6272 Clear 21 1015 45 10000 0.62 81 13:32 22.12.2021
6273 Clear 11 1015 55 10000 0.22 247 12:39 22.12.2021
6274 Clear 8 1016 81 10000 0.67 255 09:54 22.12.2021
6275 Clear 8 1016 81 10000 0.67 255 09:35 22.12.2021
6276 Clouds 13 1016 78 10000 1.47 271 07:25 22.12.2021
6277 Clear 15 1016 70 10000 1.78 263 05:42 22.12.2021
6278 Clear 15 1016 67 10000 1.89 262 05:24 22.12.2021
6279 Clear 15 1016 67 10000 1.89 262 04:47 22.12.2021
6280 Clear 15 1016 64 10000 2.12 265 04:22 22.12.2021
6281 Clear 16 1016 64 10000 2.12 265 03:32 22.12.2021
6282 Clear 23 1013 30 10000 2.8 232 00:29 22.12.2021
6283 Clear 25 1012 24 10000 2.75 227 22:51 21.12.2021
6284 Clear 25 1012 21 10000 2.51 225 22:27 21.12.2021
6285 Clear 24 1012 21 10000 2.51 225 21:43 21.12.2021
6286 Clear 24 1012 20 10000 2.16 223 20:53 21.12.2021
6287 Clear 24 1013 20 10000 1.84 224 20:20 21.12.2021
6288 Clear 25 1013 20 10000 1.84 224 19:41 21.12.2021
6289 Clear 22 1013 20 10000 1.44 229 18:43 21.12.2021
6290 Clear 22 1014 20 10000 1.53 233 18:21 21.12.2021
6291 Clear 20 1014 20 10000 1.53 233 17:40 21.12.2021
6292 Clear 17 1015 22 10000 1.4 226 15:47 21.12.2021
6293 Clear 17 1016 25 10000 1.58 217 15:19 21.12.2021
6294 Clear 16 1016 28 10000 1.78 230 13:47 21.12.2021
6295 Clear 14 1016 32 10000 2.07 237 13:29 21.12.2021
6296 Clear 7 1017 44 10000 2.04 264 10:55 21.12.2021
6297 Clear 9 1017 46 10000 2.51 257 09:57 21.12.2021
6298 Clear 9 1015 44 10000 2.47 262 09:18 21.12.2021
6299 Clouds 10 1015 47 10000 2.78 267 07:50 21.12.2021
6300 Clouds 11 1015 48 10000 2.93 264 07:25 21.12.2021
6301 Clouds 13 1015 47 10000 3.25 272 04:48 21.12.2021
6302 Clouds 18 1014 49 10000 3.61 272 02:39 21.12.2021
6303 Clouds 23 1011 26 10000 4.45 253 23:57 20.12.2021
6304 Clear 25 1010 19 10000 5.44 251 22:48 20.12.2021
6305 Clear 25 1010 17 10000 5.93 250 22:27 20.12.2021
6306 Clear 25 1010 16 10000 6.31 251 21:28 20.12.2021
6307 Clear 25 1010 16 10000 6.31 251 20:57 20.12.2021
6308 Clear 25 1010 16 10000 6.31 251 20:32 20.12.2021
6309 Clear 28 1010 14 10000 6.17 249 19:38 20.12.2021
6310 Clear 28 1010 14 10000 4.87 242 19:20 20.12.2021
6311 Clear 25 1010 15 10000 5.12 243 18:33 20.12.2021
6312 Clear 22 1011 19 10000 3.39 238 17:51 20.12.2021
6313 Clear 19 1012 25 10000 2.62 244 16:47 20.12.2021
6314 Clear 19 1013 32 10000 2.34 250 16:25 20.12.2021
6315 Clear 17 1013 32 10000 2.34 250 15:40 20.12.2021
6316 Clear 19 1015 49 10000 1.61 255 14:26 20.12.2021
6317 Clear 9 1016 61 10000 1.42 256 12:40 20.12.2021
6318 Clear 8 1016 79 10000 1.64 261 10:51 20.12.2021
6319 Clear 10 1016 83 10000 1.81 265 09:44 20.12.2021
6320 Clear 10 1016 82 10000 1.74 272 08:56 20.12.2021
6321 Clear 10 1016 82 10000 1.74 272 08:37 20.12.2021
6322 Clear 12 1016 82 10000 1.56 271 07:38 20.12.2021
6323 Clear 12 1016 75 10000 1.91 272 06:39 20.12.2021
6324 Clouds 22 1013 34 10000 2.87 219 00:26 20.12.2021
6325 Clouds 24 1012 28 10000 3.57 217 22:58 19.12.2021
6326 Clouds 24 1012 28 10000 3.57 217 22:40 19.12.2021
6327 Clouds 23 1012 25 10000 3.8 219 21:32 19.12.2021
6328 Clouds 23 1011 24 10000 3.25 223 20:42 19.12.2021
6329 Clouds 23 1012 25 10000 2.57 221 20:23 19.12.2021
6330 Clouds 25 1012 25 10000 2.57 221 19:41 19.12.2021
6331 Clouds 23 1012 28 10000 2.69 218 18:42 19.12.2021
6332 Clear 21 1013 31 10000 2.94 215 17:54 19.12.2021
6333 Clear 21 1013 31 10000 2.94 215 17:34 19.12.2021
6334 Clear 19 1013 35 10000 2.88 220 16:41 19.12.2021
6335 Clear 18 1014 40 10000 2.73 240 15:56 19.12.2021
6336 Clear 18 1014 47 10000 2.54 244 15:24 19.12.2021
6337 Clear 16 1014 47 10000 2.54 244 14:45 19.12.2021
6338 Clear 17 1015 57 10000 2.68 243 13:32 19.12.2021
6339 Clear 12 1015 66 10000 2.58 251 12:59 19.12.2021
6340 Clear 12 1016 75 10000 2.56 257 12:29 19.12.2021
6341 Clear 10 1016 75 10000 2.56 257 11:37 19.12.2021
6342 Clear 10 1016 85 10000 2.45 266 10:49 19.12.2021
6343 Clear 10 1015 91 10000 2.6 273 10:22 19.12.2021
6344 Clear 11 1015 92 10000 2.62 276 08:46 19.12.2021
6345 Clouds 13 1015 91 10000 2.67 270 06:30 19.12.2021
6346 Clear 17 1014 69 10000 2.79 269 01:45 19.12.2021
6347 Clouds 21 1013 60 10000 2.54 258 00:54 19.12.2021
6348 Clouds 23 1012 45 10000 2 248 22:51 18.12.2021
6349 Clouds 23 1013 44 10000 1.73 236 22:24 18.12.2021
6350 Clouds 24 1013 44 10000 1.73 236 21:41 18.12.2021
6351 Clouds 24 1013 45 10000 1.71 232 21:22 18.12.2021
6352 Clouds 23 1014 48 10000 1.8 233 20:25 18.12.2021
6353 Clouds 20 1015 53 10000 1.96 245 19:27 18.12.2021
6354 Clouds 20 1016 61 10000 2.11 240 18:23 18.12.2021
6355 Clouds 18 1016 61 10000 2.11 240 17:49 18.12.2021
6356 Clouds 18 1017 70 10000 2.08 240 16:27 18.12.2021
6357 Clouds 16 1017 70 10000 2.08 240 15:48 18.12.2021
6358 Clouds 15 1017 79 10000 1.9 250 14:51 18.12.2021
6359 Clouds 13 1017 89 10000 2.05 242 13:29 18.12.2021
6360 Clouds 13 1017 89 10000 2.05 242 13:29 18.12.2021
6361 Clouds 11 1017 87 10000 1.99 250 11:47 18.12.2021
6362 Clouds 11 1016 91 10000 1.9 250 09:52 18.12.2021
6363 Clouds 11 1016 91 10000 2.1 258 08:48 18.12.2021
6364 Rain 11 1016 92 10000 2.32 273 08:27 18.12.2021
6365 Rain 11 1016 87 10000 2.42 281 05:56 18.12.2021
6366 Rain 13 1015 89 9332 2.24 237 00:34 18.12.2021
6367 Rain 16 1015 89 7452 2.97 240 23:46 17.12.2021
6368 Rain 18 1012 58 10000 3.38 235 21:58 17.12.2021
6369 Rain 18 1011 55 10000 1.57 308 21:23 17.12.2021
6370 Rain 21 1011 55 10000 1.57 308 20:42 17.12.2021
6371 Rain 21 1012 49 10000 0.83 49 19:45 17.12.2021
6372 Rain 24 1012 62 10000 3.48 317 18:39 17.12.2021
6373 Rain 22 1013 59 10000 4.97 359 17:40 17.12.2021
6374 Rain 21 1012 43 10000 2.02 355 16:50 17.12.2021
6375 Clouds 21 1012 41 10000 0.65 273 16:25 17.12.2021
6376 Clouds 19 1012 43 10000 0.7 243 15:25 17.12.2021
6377 Clouds 16 1012 43 10000 0.7 243 14:41 17.12.2021
6378 Clear 20 1014 55 10000 0.69 167 13:22 17.12.2021
6379 Clear 13 1014 60 10000 1.04 212 12:21 17.12.2021
6380 Clear 10 1014 70 10000 0.92 234 10:37 17.12.2021
6381 Clear 10 1013 78 10000 0.92 244 09:34 17.12.2021
6382 Clear 12 1013 77 10000 1.33 279 08:30 17.12.2021
6383 Clear 13 1013 74 10000 1.6 262 06:47 17.12.2021
6384 Clouds 20 1013 55 10000 2.37 229 02:54 17.12.2021
6385 Clear 28 1011 28 10000 2.58 240 23:40 16.12.2021
6386 Clear 28 1010 21 10000 2.08 245 22:24 16.12.2021
6387 Clear 28 1010 21 10000 2.08 245 22:24 16.12.2021
6388 Clear 28 1010 21 10000 2.08 245 21:50 16.12.2021
6389 Clear 28 1010 21 10000 1.17 253 21:25 16.12.2021
6390 Clear 28 1010 21 10000 1.17 253 20:30 16.12.2021
6391 Clear 28 1011 22 10000 0.41 229 19:44 16.12.2021
6392 Clear 23 1011 24 10000 0.23 213 18:39 16.12.2021
6393 Clear 20 1012 27 10000 0.38 146 17:56 16.12.2021
6394 Clear 20 1012 27 10000 0.38 146 17:30 16.12.2021
6395 Clear 22 1013 36 10000 0.66 104 16:21 16.12.2021
6396 Clear 12 1014 43 10000 0.71 87 14:50 16.12.2021
6397 Clear 15 1016 59 10000 0.3 133 13:25 16.12.2021
6398 Clear 5 1017 82 10000 0.5 268 11:20 16.12.2021
6399 Clear 5 1017 82 10000 0.5 268 10:58 16.12.2021
6400 Clear 5 1017 90 10000 0.86 279 10:20 16.12.2021
6401 Clear 9 1016 88 10000 1.41 255 07:31 16.12.2021
6402 Clear 9 1016 86 10000 1.91 255 06:19 16.12.2021
6403 Clouds 18 1014 55 10000 2.74 239 00:54 16.12.2021
6404 Clouds 20 1012 37 10000 3.43 228 23:22 15.12.2021
6405 Clouds 21 1012 33 10000 3.52 223 22:29 15.12.2021
6406 Clouds 19 1012 33 10000 3.52 223 21:52 15.12.2021
6407 Clouds 19 1012 30 10000 2.74 224 21:26 15.12.2021
6408 Clear 22 1012 30 10000 1.98 225 19:55 15.12.2021
6409 Clear 22 1012 30 10000 1.98 225 19:36 15.12.2021
6410 Clear 18 1013 30 10000 1.92 223 18:36 15.12.2021
6411 Clear 17 1014 31 10000 1.89 226 17:49 15.12.2021
6412 Clear 17 1015 33 10000 1.83 232 17:27 15.12.2021
6413 Clear 15 1016 36 10000 1.69 236 16:26 15.12.2021
6414 Clear 14 1016 36 10000 1.69 236 15:45 15.12.2021
6415 Clear 14 1017 41 10000 1.48 240 15:27 15.12.2021
6416 Clear 9 1018 47 10000 1.25 240 13:59 15.12.2021
6417 Clear 7 1019 63 10000 1.63 251 12:24 15.12.2021
6418 Clear 4 1020 85 10000 1.98 265 10:24 15.12.2021
6419 Clear 6 1019 85 10000 2.13 266 08:48 15.12.2021
6420 Clear 9 1019 84 10000 2.4 269 05:59 15.12.2021
6421 Clouds 14 1016 57 10000 3.53 248 00:47 15.12.2021
6422 Clouds 14 1015 45 10000 4.44 251 23:41 14.12.2021
6423 Clouds 15 1014 41 10000 5.26 256 22:47 14.12.2021
6424 Clouds 15 1014 37 10000 4.53 252 21:51 14.12.2021
6425 Clouds 16 1014 36 10000 3.01 221 20:26 14.12.2021
6426 Clouds 17 1014 36 10000 3.01 221 19:40 14.12.2021
6427 Clouds 16 1014 36 10000 2.84 225 18:42 14.12.2021
6428 Clouds 16 1015 37 10000 2.37 221 17:58 14.12.2021
6429 Clouds 15 1016 40 10000 2.06 219 16:58 14.12.2021
6430 Clouds 15 1016 40 10000 2.06 219 16:35 14.12.2021
6431 Clouds 13 1018 58 10000 1.92 236 14:39 14.12.2021
6432 Clouds 10 1019 75 10000 1.95 241 13:24 14.12.2021
6433 Clouds 7 1019 83 10000 2 243 11:56 14.12.2021
6434 Clouds 7 1019 90 10000 2.03 247 11:22 14.12.2021
6435 Clouds 8 1019 93 10000 2.04 252 09:55 14.12.2021
6436 Clouds 8 1018 90 10000 2.21 258 09:22 14.12.2021
6437 Clouds 9 1018 88 10000 2.25 266 08:22 14.12.2021
6438 Clouds 9 1018 88 10000 2.25 266 07:42 14.12.2021
6439 Clouds 12 1015 62 10000 3.35 263 00:35 14.12.2021
6440 Clouds 13 1013 44 10000 5.24 261 22:33 13.12.2021
6441 Clouds 14 1012 41 10000 5.71 257 21:49 13.12.2021
6442 Clouds 14 1012 39 10000 6.32 262 20:58 13.12.2021
6443 Clouds 14 1012 39 10000 6.45 269 20:29 13.12.2021
6444 Clouds 17 1012 39 10000 6.45 269 19:49 13.12.2021
6445 Clouds 13 1013 42 10000 4.75 278 17:55 13.12.2021
6446 Clouds 13 1013 45 10000 3.86 280 17:18 13.12.2021
6447 Clouds 11 1014 52 10000 3.06 284 15:47 13.12.2021
6448 Clouds 11 1016 61 10000 2.71 286 14:55 13.12.2021
6449 Clouds 9 1016 66 10000 2.79 283 13:37 13.12.2021
6450 Clouds 8 1017 70 10000 2.55 286 12:41 13.12.2021
6451 Clouds 7 1017 76 10000 2.3 288 11:53 13.12.2021
6452 Clouds 7 1017 76 10000 2.3 288 11:34 13.12.2021
6453 Clouds 8 1017 81 10000 2.17 292 10:37 13.12.2021
6454 Clouds 8 1016 84 10000 2.4 294 08:45 13.12.2021
6455 Clouds 8 1016 90 10000 2.79 289 06:55 13.12.2021
6456 Clouds 8 1016 96 10000 2.96 274 05:19 13.12.2021
6457 Clouds 10 1012 78 10000 5.24 269 00:27 13.12.2021
6458 Clouds 10 1009 66 10000 6.33 269 21:59 12.12.2021
6459 Clouds 10 1008 64 10000 6.61 271 21:29 12.12.2021
6460 Clouds 11 1007 62 10000 6.43 268 19:36 12.12.2021
6461 Clouds 11 1006 65 10000 6.6 271 18:23 12.12.2021
6462 Clouds 8 1006 66 10000 6.21 272 16:40 12.12.2021
6463 Clouds 7 1006 66 10000 6.14 274 15:58 12.12.2021
6464 Clouds 7 1005 64 10000 6.08 275 15:28 12.12.2021
6465 Clouds 6 1005 64 10000 6.08 275 14:51 12.12.2021
6466 Clouds 6 1005 67 10000 5.67 277 14:18 12.12.2021
6467 Rain 4 1006 73 10000 5.5 283 12:48 12.12.2021
6468 Rain 4 1006 79 10000 5.15 284 11:59 12.12.2021
6469 Rain 4 1006 79 10000 5.15 284 11:32 12.12.2021
6470 Rain 4 1006 86 10000 4.84 288 10:44 12.12.2021
6471 Rain 4 1006 93 10000 4.18 299 10:20 12.12.2021
6472 Clouds 5 1006 93 10000 3.98 301 08:46 12.12.2021
6473 Clouds 5 1005 86 10000 4.05 302 07:25 12.12.2021
6474 Clouds 6 1005 79 10000 4.88 295 05:29 12.12.2021
6475 Clouds 7 1006 79 10000 5.29 299 04:19 12.12.2021
6476 Rain 6 1005 70 10000 4.96 290 00:57 12.12.2021
6477 Clouds 7 1003 56 10000 7.34 292 22:56 11.12.2021
6478 Clouds 7 1003 54 10000 7.87 285 22:20 11.12.2021
6479 Clouds 9 1003 54 10000 7.87 285 21:35 11.12.2021
6480 Clouds 9 1001 41 10000 9.38 290 20:18 11.12.2021
6481 Clouds 12 1001 40 10000 9.66 289 19:21 11.12.2021
6482 Clouds 11 1001 40 10000 9.66 289 18:42 11.12.2021
6483 Clouds 10 1001 37 10000 8.24 291 17:53 11.12.2021
6484 Rain 9 1003 50 10000 6.92 281 15:59 11.12.2021
6485 Rain 9 1003 50 10000 6.92 281 15:40 11.12.2021
6486 Rain 10 1003 69 10000 6.56 267 14:35 11.12.2021
6487 Clouds 13 1002 65 10000 2.73 276 12:29 11.12.2021
6488 Clouds 12 1002 66 10000 2.07 277 10:49 11.12.2021
6489 Clouds 11 1002 68 10000 2.07 268 09:40 11.12.2021
6490 Clouds 15 1005 61 10000 3.02 274 03:57 11.12.2021
6491 Clouds 21 1004 48 10000 3.17 261 00:47 11.12.2021
6492 Clouds 23 1004 37 10000 3.92 263 23:44 10.12.2021
6493 Clouds 23 1003 34 10000 4.22 268 22:39 10.12.2021
6494 Clouds 24 1003 30 10000 6.16 269 21:40 10.12.2021
6495 Clouds 25 1003 26 10000 5.55 270 20:26 10.12.2021
6496 Clouds 26 1004 25 10000 4.35 264 19:18 10.12.2021
6497 Clouds 25 1005 21 10000 3.08 259 17:46 10.12.2021
6498 Clouds 21 1006 21 10000 2.55 256 16:35 10.12.2021
6499 Clouds 24 1007 24 10000 2.48 252 15:43 10.12.2021
6500 Clouds 22 1008 32 10000 2.27 252 15:25 10.12.2021
6501 Clouds 17 1008 40 10000 2.04 251 14:29 10.12.2021
6502 Clouds 14 1008 40 10000 2.04 251 13:48 10.12.2021
6503 Clear 12 1009 47 10000 1.94 254 12:55 10.12.2021
6504 Clear 12 1009 47 10000 1.94 254 12:55 10.12.2021
6505 Clear 10 1010 53 10000 2.16 260 11:41 10.12.2021
6506 Clear 10 1010 64 10000 1.96 266 10:56 10.12.2021
6507 Clear 12 1010 70 10000 2.14 264 09:36 10.12.2021
6508 Clear 13 1010 72 10000 2.12 264 07:25 10.12.2021
6509 Clear 18 1011 69 10000 2.17 252 04:32 10.12.2021
6510 Clear 21 1010 48 10000 2.02 237 02:29 10.12.2021
6511 Clear 28 1009 34 10000 1.79 212 23:40 09.12.2021
6512 Clear 28 1009 34 10000 1.79 212 23:40 09.12.2021
6513 Clear 29 1008 29 10000 1.75 206 22:41 09.12.2021
6514 Clear 29 1009 27 10000 1.86 205 22:21 09.12.2021
6515 Clear 28 1009 27 10000 1.86 205 21:39 09.12.2021
6516 Clear 29 1010 26 10000 1.85 207 20:34 09.12.2021
6517 Clear 27 1011 27 10000 1.56 200 19:22 09.12.2021
6518 Clear 27 1011 27 10000 1.56 200 18:59 09.12.2021
6519 Clear 26 1012 29 10000 1.4 197 18:18 09.12.2021
6520 Clear 25 1013 31 10000 1.02 180 17:29 09.12.2021
6521 Clear 22 1013 31 10000 1.02 180 16:57 09.12.2021
6522 Clear 22 1014 34 10000 0.77 176 16:25 09.12.2021
6523 Clear 17 1015 36 10000 0.46 157 14:59 09.12.2021
6524 Clear 14 1016 40 10000 0.59 76 13:52 09.12.2021
6525 Clear 11 1016 45 10000 0.57 90 12:47 09.12.2021
6526 Clear 8 1017 63 10000 0.51 200 11:29 09.12.2021
6527 Clear 8 1017 69 10000 0.51 219 10:20 09.12.2021
6528 Clear 12 1018 60 10000 0.57 228 06:53 09.12.2021
6529 Clear 15 1019 50 10000 1.16 17 03:50 09.12.2021
6530 Clouds 23 1019 39 10000 1.54 157 00:24 09.12.2021
6531 Clouds 24 1019 39 10000 1.54 157 23:32 08.12.2021
6532 Clouds 24 1018 36 10000 1.64 166 22:56 08.12.2021
6533 Clouds 24 1019 36 10000 1.32 158 21:50 08.12.2021
6534 Clouds 24 1019 36 10000 1.32 158 21:31 08.12.2021
6535 Clouds 24 1019 36 10000 1.08 134 20:30 08.12.2021
6536 Clouds 23 1020 37 10000 1.46 100 19:48 08.12.2021
6537 Clear 22 1020 36 10000 1.98 89 18:54 08.12.2021
6538 Clear 22 1021 39 10000 2.6 84 18:21 08.12.2021
6539 Clear 20 1022 42 10000 3.09 86 16:44 08.12.2021
6540 Clear 18 1023 45 10000 3.42 86 15:40 08.12.2021
6541 Clear 18 1023 49 10000 3.32 89 15:21 08.12.2021
6542 Clouds 14 1023 59 10000 2.56 87 13:21 08.12.2021
6543 Clouds 8 1023 79 10000 1.73 99 10:36 08.12.2021
6544 Clouds 10 1022 88 10000 1.52 107 09:32 08.12.2021
6545 Clouds 11 1020 89 10000 1.24 236 07:37 08.12.2021
6546 Clouds 13 1018 77 10000 2.31 261 04:58 08.12.2021
6547 Clouds 23 1012 38 10000 4.01 250 23:56 07.12.2021
6548 Clouds 24 1011 31 10000 5.15 248 22:37 07.12.2021
6549 Clouds 26 1010 26 10000 6.04 253 21:24 07.12.2021
6550 Clouds 25 1010 26 10000 4.96 257 20:25 07.12.2021
6551 Clouds 26 1010 29 10000 3.82 272 18:56 07.12.2021
6552 Clouds 26 1010 33 10000 3.74 277 18:18 07.12.2021
6553 Clouds 23 1010 38 10000 4 286 17:20 07.12.2021
6554 Clouds 21 1010 38 10000 4 286 16:36 07.12.2021
6555 Clouds 20 1010 40 10000 3.41 279 15:35 07.12.2021
6556 Clouds 19 1009 40 10000 2.67 265 14:36 07.12.2021
6557 Clouds 17 1010 48 10000 2.32 264 13:18 07.12.2021
6558 Clouds 14 1010 53 10000 2.06 273 12:21 07.12.2021
6559 Clouds 11 1010 59 10000 1.89 276 10:43 07.12.2021
6560 Clear 12 1009 61 10000 1.46 289 08:42 07.12.2021
6561 Clear 14 1009 61 10000 1.02 280 06:21 07.12.2021
6562 Clear 16 1009 61 10000 1.02 280 05:42 07.12.2021
6563 Clear 29 1008 30 10000 2.07 239 23:58 06.12.2021
6564 Clear 31 1008 19 10000 1.41 271 22:58 06.12.2021
6565 Clear 31 1008 19 10000 1.41 271 22:38 06.12.2021
6566 Clear 32 1008 17 10000 1.4 308 21:52 06.12.2021
6567 Clear 32 1009 17 10000 1.46 319 20:40 06.12.2021
6568 Clear 32 1010 18 10000 1.38 315 20:22 06.12.2021
6569 Clear 31 1011 20 10000 1.38 311 19:22 06.12.2021
6570 Clear 29 1012 23 10000 0.84 317 18:29 06.12.2021
6571 Clear 29 1012 23 10000 0.84 317 17:41 06.12.2021
6572 Clear 28 1013 27 10000 0.54 6 16:49 06.12.2021
6573 Clear 26 1015 33 10000 0.4 118 15:41 06.12.2021
6574 Clear 22 1016 46 10000 0.63 98 13:46 06.12.2021
6575 Clear 19 1017 55 10000 0.8 81 12:39 06.12.2021
6576 Clear 17 1017 64 10000 0.22 121 11:38 06.12.2021
6577 Clear 12 1017 83 10000 0.72 242 08:51 06.12.2021
6578 Clear 14 1017 78 10000 1.22 268 06:42 06.12.2021
6579 Clear 26 1016 36 10000 3.06 234 23:38 05.12.2021
6580 Clear 27 1015 24 10000 2.92 239 21:51 05.12.2021
6581 Clear 27 1015 24 10000 2.55 236 21:19 05.12.2021
6582 Clear 27 1015 24 10000 2.28 232 20:19 05.12.2021
6583 Clear 25 1015 24 10000 2.28 232 19:33 05.12.2021
6584 Clear 24 1016 25 10000 1.84 235 18:47 05.12.2021
6585 Clear 24 1017 26 10000 1.76 234 18:19 05.12.2021
6586 Clear 22 1017 26 10000 1.76 234 17:48 05.12.2021
6587 Clear 20 1018 28 10000 1.68 240 16:47 05.12.2021
6588 Clear 20 1019 30 10000 1.58 237 16:26 05.12.2021
6589 Clear 17 1019 30 10000 1.58 237 15:34 05.12.2021
6590 Clear 14 1020 33 10000 1.39 239 14:37 05.12.2021
6591 Clear 14 1020 37 10000 1.13 243 14:19 05.12.2021
6592 Clear 12 1021 44 10000 1.2 238 13:22 05.12.2021
6593 Clear 9 1021 43 10000 1.16 237 12:40 05.12.2021
6594 Clear 9 1021 51 10000 1.07 258 12:18 05.12.2021
6595 Clear 6 1022 65 10000 1.24 258 11:20 05.12.2021
6596 Clear 7 1021 73 10000 1.33 264 09:59 05.12.2021
6597 Clear 8 1021 77 10000 1.65 253 07:55 05.12.2021
6598 Clear 13 1020 58 10000 2.52 254 03:27 05.12.2021
6599 Clear 22 1017 33 10000 3.08 240 23:34 04.12.2021
6600 Clear 24 1016 22 10000 3.61 237 21:54 04.12.2021
6601 Clear 23 1016 20 10000 3.91 236 20:57 04.12.2021
6602 Clear 22 1016 19 10000 3.13 238 19:55 04.12.2021
6603 Clear 22 1016 19 10000 3.13 238 19:32 04.12.2021
6604 Clear 21 1017 21 10000 1.81 247 18:20 04.12.2021
6605 Clear 20 1017 21 10000 1.81 247 17:38 04.12.2021
6606 Clear 18 1018 23 10000 1.88 243 16:49 04.12.2021
6607 Clear 18 1018 23 10000 1.88 243 16:30 04.12.2021
6608 Clear 15 1019 31 10000 1.63 252 15:22 04.12.2021
6609 Clear 4 1022 55 10000 1.71 268 11:50 04.12.2021
6610 Clear 4 1022 55 10000 1.71 268 11:32 04.12.2021
6611 Clear 4 1022 55 10000 1.71 268 11:32 04.12.2021
6612 Clear 4 1022 67 10000 1.92 268 10:43 04.12.2021
6613 Clear 6 1021 76 10000 2.19 270 08:46 04.12.2021
6614 Clear 8 1020 66 10000 2.34 273 06:24 04.12.2021
6615 Clear 10 1020 64 10000 2.36 271 04:41 04.12.2021
6616 Clear 20 1016 32 10000 3.18 239 23:49 03.12.2021
6617 Clear 20 1016 32 10000 3.18 239 23:49 03.12.2021
6618 Clear 21 1015 27 10000 3.62 238 22:57 03.12.2021
6619 Clear 21 1015 27 10000 3.62 238 22:38 03.12.2021
6620 Clear 22 1015 25 10000 3.84 238 21:25 03.12.2021
6621 Clear 22 1015 25 10000 3.84 238 20:46 03.12.2021
6622 Clear 21 1015 25 10000 2.75 231 19:50 03.12.2021
6623 Clear 20 1016 26 10000 2.15 233 18:34 03.12.2021
6624 Clear 17 1016 27 10000 1.82 239 17:59 03.12.2021
6625 Clear 10 1018 37 10000 0.22 358 14:47 03.12.2021
6626 Clear 5 1020 55 10000 0.3 204 12:54 03.12.2021
6627 Clear 0 1021 65 10000 0.72 225 11:38 03.12.2021
6628 Clear 0 1022 76 10000 0.7 251 10:32 03.12.2021
6629 Clear 3 1021 84 10000 1.34 244 08:25 03.12.2021
6630 Clear 3 1021 84 10000 1.34 244 07:38 03.12.2021
6631 Clear 8 1019 62 10000 2.66 231 02:24 03.12.2021
6632 Clear 14 1018 52 10000 2.85 226 00:47 03.12.2021
6633 Clear 15 1017 40 10000 3.33 223 23:46 02.12.2021
6634 Clear 15 1016 32 10000 3.99 229 21:43 02.12.2021
6635 Clear 15 1016 31 10000 3.7 228 20:57 02.12.2021
6636 Clear 15 1016 31 10000 3.7 228 20:38 02.12.2021
6637 Clouds 15 1016 30 10000 2.85 225 19:25 02.12.2021
6638 Clear 12 1017 29 10000 2.56 220 17:43 02.12.2021
6639 Clear 10 1018 32 10000 1.84 224 15:42 02.12.2021
6640 Clear 9 1019 35 10000 1.86 232 14:59 02.12.2021
6641 Clear 7 1020 40 10000 1.9 245 13:58 02.12.2021
6642 Clouds 5 1021 51 10000 1.6 257 12:52 02.12.2021
6643 Clouds 5 1022 64 10000 1.87 257 12:18